<?xml version='1.0' encoding='UTF-8'?><gpx version="1.1" creator="JPX - https://github.com/jenetics/jpx" xmlns="http://www.topografix.com/GPX/1/1"><trk><trkseg><trkpt lat="44.2099349" lon="12.0985172"><ele>25.999999999999996</ele><time>2026-04-05T07:09:05.175Z</time></trkpt><trkpt lat="44.2099825" lon="12.0984325"><ele>26.0</ele><time>2026-04-05T07:09:09.203Z</time></trkpt><trkpt lat="44.2099981" lon="12.0983379"><ele>26.0</ele><time>2026-04-05T07:09:20.219Z</time></trkpt><trkpt lat="44.2100195" lon="12.0982384"><ele>26.0</ele><time>2026-04-05T07:09:34.356Z</time></trkpt><trkpt lat="44.2100822" lon="12.0981723"><ele>25.999999999999996</ele><time>2026-04-05T07:09:36.368Z</time></trkpt><trkpt lat="44.2101856" lon="12.0982265"><ele>26.0</ele><time>2026-04-05T07:09:38.357Z</time></trkpt><trkpt lat="44.2102884" lon="12.098307"><ele>26.0</ele><time>2026-04-05T07:09:40.355Z</time></trkpt><trkpt lat="44.2103473" lon="12.0983504"><ele>26.0</ele><time>2026-04-05T07:09:41.354Z</time></trkpt><trkpt lat="44.2104053" lon="12.098392"><ele>26.0</ele><time>2026-04-05T07:09:42.347Z</time></trkpt><trkpt lat="44.2104676" lon="12.0984327"><ele>26.0</ele><time>2026-04-05T07:09:43.351Z</time></trkpt><trkpt lat="44.2105269" lon="12.0984746"><ele>26.0</ele><time>2026-04-05T07:09:44.356Z</time></trkpt><trkpt lat="44.2105897" lon="12.0985165"><ele>26.0</ele><time>2026-04-05T07:09:45.349Z</time></trkpt><trkpt lat="44.21065" lon="12.0985598"><ele>26.0</ele><time>2026-04-05T07:09:46.349Z</time></trkpt><trkpt lat="44.2107043" lon="12.0986092"><ele>25.833333333333332</ele><time>2026-04-05T07:09:47.352Z</time></trkpt><trkpt lat="44.2107641" lon="12.0986549"><ele>25.666666666666664</ele><time>2026-04-05T07:09:48.355Z</time></trkpt><trkpt lat="44.2108234" lon="12.0986981"><ele>25.5</ele><time>2026-04-05T07:09:49.353Z</time></trkpt><trkpt lat="44.2108858" lon="12.0987357"><ele>25.333333333333336</ele><time>2026-04-05T07:09:50.355Z</time></trkpt><trkpt lat="44.2109457" lon="12.0987709"><ele>25.166666666666668</ele><time>2026-04-05T07:09:51.352Z</time></trkpt><trkpt lat="44.2110076" lon="12.0988055"><ele>25.0</ele><time>2026-04-05T07:09:52.352Z</time></trkpt><trkpt lat="44.211122" lon="12.0988645"><ele>25.0</ele><time>2026-04-05T07:09:54.347Z</time></trkpt><trkpt lat="44.2111784" lon="12.0989042"><ele>25.0</ele><time>2026-04-05T07:09:55.36Z</time></trkpt><trkpt lat="44.2112856" lon="12.0989778"><ele>25.0</ele><time>2026-04-05T07:09:57.355Z</time></trkpt><trkpt lat="44.2113889" lon="12.0990587"><ele>25.0</ele><time>2026-04-05T07:09:59.355Z</time></trkpt><trkpt lat="44.2114309" lon="12.0991248"><ele>25.0</ele><time>2026-04-05T07:10:00.356Z</time></trkpt><trkpt lat="44.2114034" lon="12.0992812"><ele>25.142857142857146</ele><time>2026-04-05T07:10:02.358Z</time></trkpt><trkpt lat="44.2113516" lon="12.0993457"><ele>25.285714285714285</ele><time>2026-04-05T07:10:03.355Z</time></trkpt><trkpt lat="44.2112989" lon="12.0994127"><ele>25.42857142857143</ele><time>2026-04-05T07:10:04.359Z</time></trkpt><trkpt lat="44.2112479" lon="12.0994895"><ele>25.571428571428573</ele><time>2026-04-05T07:10:05.353Z</time></trkpt><trkpt lat="44.2111992" lon="12.0995673"><ele>25.714285714285715</ele><time>2026-04-05T07:10:06.357Z</time></trkpt><trkpt lat="44.2111522" lon="12.0996432"><ele>25.857142857142858</ele><time>2026-04-05T07:10:07.35Z</time></trkpt><trkpt lat="44.21111" lon="12.0997134"><ele>26.0</ele><time>2026-04-05T07:10:08.357Z</time></trkpt><trkpt lat="44.2110661" lon="12.0997821"><ele>26.0</ele><time>2026-04-05T07:10:09.354Z</time></trkpt><trkpt lat="44.2109794" lon="12.0999021"><ele>26.0</ele><time>2026-04-05T07:10:11.36Z</time></trkpt><trkpt lat="44.2108945" lon="12.1000287"><ele>26.0</ele><time>2026-04-05T07:10:13.349Z</time></trkpt><trkpt lat="44.2108498" lon="12.1000936"><ele>26.0</ele><time>2026-04-05T07:10:14.352Z</time></trkpt><trkpt lat="44.2107726" lon="12.1002313"><ele>26.0</ele><time>2026-04-05T07:10:16.353Z</time></trkpt><trkpt lat="44.2107334" lon="12.1003009"><ele>25.75</ele><time>2026-04-05T07:10:17.353Z</time></trkpt><trkpt lat="44.2106507" lon="12.1004323"><ele>25.5</ele><time>2026-04-05T07:10:19.354Z</time></trkpt><trkpt lat="44.2105739" lon="12.1005649"><ele>25.25</ele><time>2026-04-05T07:10:21.356Z</time></trkpt><trkpt lat="44.2104971" lon="12.1006952"><ele>25.0</ele><time>2026-04-05T07:10:23.36Z</time></trkpt><trkpt lat="44.2104165" lon="12.1008286"><ele>25.0</ele><time>2026-04-05T07:10:25.352Z</time></trkpt><trkpt lat="44.2103359" lon="12.1009556"><ele>25.0</ele><time>2026-04-05T07:10:27.355Z</time></trkpt><trkpt lat="44.2102646" lon="12.1010876"><ele>25.0</ele><time>2026-04-05T07:10:29.359Z</time></trkpt><trkpt lat="44.2101995" lon="12.1012208"><ele>25.0</ele><time>2026-04-05T07:10:31.369Z</time></trkpt><trkpt lat="44.2101596" lon="12.1012902"><ele>25.0</ele><time>2026-04-05T07:10:32.378Z</time></trkpt><trkpt lat="44.2100783" lon="12.1014241"><ele>25.0</ele><time>2026-04-05T07:10:34.365Z</time></trkpt><trkpt lat="44.2100401" lon="12.1014979"><ele>25.0</ele><time>2026-04-05T07:10:35.36Z</time></trkpt><trkpt lat="44.2099688" lon="12.1016438"><ele>25.0</ele><time>2026-04-05T07:10:37.354Z</time></trkpt><trkpt lat="44.209901" lon="12.1017812"><ele>25.0</ele><time>2026-04-05T07:10:39.356Z</time></trkpt><trkpt lat="44.2098453" lon="12.1019238"><ele>25.0</ele><time>2026-04-05T07:10:41.354Z</time></trkpt><trkpt lat="44.2097852" lon="12.1020679"><ele>24.8</ele><time>2026-04-05T07:10:43.357Z</time></trkpt><trkpt lat="44.2097296" lon="12.1022091"><ele>24.6</ele><time>2026-04-05T07:10:45.361Z</time></trkpt><trkpt lat="44.2096607" lon="12.1023503"><ele>24.4</ele><time>2026-04-05T07:10:47.362Z</time></trkpt><trkpt lat="44.2096241" lon="12.1024246"><ele>24.2</ele><time>2026-04-05T07:10:48.362Z</time></trkpt><trkpt lat="44.2095595" lon="12.1025716"><ele>24.0</ele><time>2026-04-05T07:10:50.361Z</time></trkpt><trkpt lat="44.2095043" lon="12.1027289"><ele>24.0</ele><time>2026-04-05T07:10:52.355Z</time></trkpt><trkpt lat="44.2094398" lon="12.1028721"><ele>24.0</ele><time>2026-04-05T07:10:54.357Z</time></trkpt><trkpt lat="44.2093786" lon="12.1030217"><ele>24.0</ele><time>2026-04-05T07:10:56.354Z</time></trkpt><trkpt lat="44.2093099" lon="12.103168"><ele>24.0</ele><time>2026-04-05T07:10:58.365Z</time></trkpt><trkpt lat="44.2092487" lon="12.1033142"><ele>24.0</ele><time>2026-04-05T07:11:00.356Z</time></trkpt><trkpt lat="44.209194" lon="12.1034685"><ele>24.0</ele><time>2026-04-05T07:11:02.358Z</time></trkpt><trkpt lat="44.2091376" lon="12.1036183"><ele>24.0</ele><time>2026-04-05T07:11:04.361Z</time></trkpt><trkpt lat="44.2090845" lon="12.1037697"><ele>24.0</ele><time>2026-04-05T07:11:06.358Z</time></trkpt><trkpt lat="44.2090358" lon="12.1039161"><ele>24.0</ele><time>2026-04-05T07:11:08.36Z</time></trkpt><trkpt lat="44.2089836" lon="12.1040622"><ele>24.0</ele><time>2026-04-05T07:11:10.362Z</time></trkpt><trkpt lat="44.2089181" lon="12.1041938"><ele>24.0</ele><time>2026-04-05T07:11:12.363Z</time></trkpt><trkpt lat="44.2088232" lon="12.1042854"><ele>24.0</ele><time>2026-04-05T07:11:14.37Z</time></trkpt><trkpt lat="44.2087614" lon="12.1043063"><ele>24.0</ele><time>2026-04-05T07:11:15.369Z</time></trkpt><trkpt lat="44.2086353" lon="12.1042993"><ele>24.0</ele><time>2026-04-05T07:11:17.368Z</time></trkpt><trkpt lat="44.208519" lon="12.1042513"><ele>24.0</ele><time>2026-04-05T07:11:19.373Z</time></trkpt><trkpt lat="44.2084641" lon="12.1042006"><ele>24.0</ele><time>2026-04-05T07:11:20.363Z</time></trkpt><trkpt lat="44.2084114" lon="12.1041523"><ele>24.0</ele><time>2026-04-05T07:11:21.362Z</time></trkpt><trkpt lat="44.2083535" lon="12.1041099"><ele>24.0</ele><time>2026-04-05T07:11:22.367Z</time></trkpt><trkpt lat="44.2082429" lon="12.1040341"><ele>24.0</ele><time>2026-04-05T07:11:24.366Z</time></trkpt><trkpt lat="44.208136" lon="12.1039644"><ele>24.0</ele><time>2026-04-05T07:11:26.365Z</time></trkpt><trkpt lat="44.2080269" lon="12.1038916"><ele>24.0</ele><time>2026-04-05T07:11:28.363Z</time></trkpt><trkpt lat="44.2079262" lon="12.1038238"><ele>24.0</ele><time>2026-04-05T07:11:30.362Z</time></trkpt><trkpt lat="44.2078228" lon="12.1037546"><ele>24.0</ele><time>2026-04-05T07:11:32.364Z</time></trkpt><trkpt lat="44.207723" lon="12.1036859"><ele>24.0</ele><time>2026-04-05T07:11:34.381Z</time></trkpt><trkpt lat="44.2076163" lon="12.1036196"><ele>24.0</ele><time>2026-04-05T07:11:36.369Z</time></trkpt><trkpt lat="44.2075098" lon="12.1035465"><ele>24.0</ele><time>2026-04-05T07:11:38.363Z</time></trkpt><trkpt lat="44.2074055" lon="12.1034727"><ele>24.0</ele><time>2026-04-05T07:11:40.364Z</time></trkpt><trkpt lat="44.2073048" lon="12.1034158"><ele>24.0</ele><time>2026-04-05T07:11:42.364Z</time></trkpt><trkpt lat="44.2071914" lon="12.1033973"><ele>24.0</ele><time>2026-04-05T07:11:44.371Z</time></trkpt><trkpt lat="44.2070665" lon="12.1034101"><ele>24.0</ele><time>2026-04-05T07:11:46.37Z</time></trkpt><trkpt lat="44.2070025" lon="12.1034398"><ele>24.0</ele><time>2026-04-05T07:11:47.365Z</time></trkpt><trkpt lat="44.2069406" lon="12.1034721"><ele>24.0</ele><time>2026-04-05T07:11:48.374Z</time></trkpt><trkpt lat="44.2068324" lon="12.1035505"><ele>24.0</ele><time>2026-04-05T07:11:50.363Z</time></trkpt><trkpt lat="44.2067853" lon="12.1036107"><ele>24.0</ele><time>2026-04-05T07:11:51.372Z</time></trkpt><trkpt lat="44.2067424" lon="12.1036799"><ele>24.0</ele><time>2026-04-05T07:11:52.371Z</time></trkpt><trkpt lat="44.2066985" lon="12.1037531"><ele>24.0</ele><time>2026-04-05T07:11:53.376Z</time></trkpt><trkpt lat="44.2066208" lon="12.1038886"><ele>24.0</ele><time>2026-04-05T07:11:55.368Z</time></trkpt><trkpt lat="44.2065516" lon="12.1040288"><ele>24.0</ele><time>2026-04-05T07:11:57.373Z</time></trkpt><trkpt lat="44.2064871" lon="12.1041743"><ele>24.0</ele><time>2026-04-05T07:11:59.383Z</time></trkpt><trkpt lat="44.2064206" lon="12.104318"><ele>24.0</ele><time>2026-04-05T07:12:01.375Z</time></trkpt><trkpt lat="44.2063606" lon="12.1044575"><ele>24.0</ele><time>2026-04-05T07:12:03.371Z</time></trkpt><trkpt lat="44.2062996" lon="12.1046016"><ele>24.0</ele><time>2026-04-05T07:12:05.391Z</time></trkpt><trkpt lat="44.2062356" lon="12.1047465"><ele>24.0</ele><time>2026-04-05T07:12:07.378Z</time></trkpt><trkpt lat="44.2061697" lon="12.1048936"><ele>24.0</ele><time>2026-04-05T07:12:09.376Z</time></trkpt><trkpt lat="44.2060991" lon="12.1050348"><ele>24.0</ele><time>2026-04-05T07:12:11.372Z</time></trkpt><trkpt lat="44.2060269" lon="12.1051767"><ele>24.0</ele><time>2026-04-05T07:12:13.373Z</time></trkpt><trkpt lat="44.2059881" lon="12.1052478"><ele>24.0</ele><time>2026-04-05T07:12:14.375Z</time></trkpt><trkpt lat="44.2059485" lon="12.1053184"><ele>23.999999999999996</ele><time>2026-04-05T07:12:15.372Z</time></trkpt><trkpt lat="44.2059074" lon="12.1053859"><ele>24.0</ele><time>2026-04-05T07:12:16.373Z</time></trkpt><trkpt lat="44.2058617" lon="12.1054516"><ele>24.0</ele><time>2026-04-05T07:12:17.377Z</time></trkpt><trkpt lat="44.2058157" lon="12.1055165"><ele>24.0</ele><time>2026-04-05T07:12:18.368Z</time></trkpt><trkpt lat="44.2057694" lon="12.1055829"><ele>24.0</ele><time>2026-04-05T07:12:19.38Z</time></trkpt><trkpt lat="44.2057261" lon="12.1056501"><ele>23.999999999999996</ele><time>2026-04-05T07:12:20.372Z</time></trkpt><trkpt lat="44.2056848" lon="12.1057171"><ele>24.0</ele><time>2026-04-05T07:12:21.369Z</time></trkpt><trkpt lat="44.2056111" lon="12.1058524"><ele>24.0</ele><time>2026-04-05T07:12:23.373Z</time></trkpt><trkpt lat="44.2055365" lon="12.1059843"><ele>24.0</ele><time>2026-04-05T07:12:25.374Z</time></trkpt><trkpt lat="44.2054672" lon="12.1061173"><ele>24.0</ele><time>2026-04-05T07:12:27.378Z</time></trkpt><trkpt lat="44.2054015" lon="12.1062555"><ele>24.0</ele><time>2026-04-05T07:12:29.387Z</time></trkpt><trkpt lat="44.2053362" lon="12.1063921"><ele>24.0</ele><time>2026-04-05T07:12:31.374Z</time></trkpt><trkpt lat="44.2052633" lon="12.1065288"><ele>24.0</ele><time>2026-04-05T07:12:33.37Z</time></trkpt><trkpt lat="44.2051968" lon="12.1066623"><ele>24.0</ele><time>2026-04-05T07:12:35.37Z</time></trkpt><trkpt lat="44.2051289" lon="12.1067981"><ele>24.0</ele><time>2026-04-05T07:12:37.369Z</time></trkpt><trkpt lat="44.2050645" lon="12.1069367"><ele>24.0</ele><time>2026-04-05T07:12:39.376Z</time></trkpt><trkpt lat="44.2049851" lon="12.1070672"><ele>24.0</ele><time>2026-04-05T07:12:41.382Z</time></trkpt><trkpt lat="44.2049155" lon="12.1072048"><ele>24.0</ele><time>2026-04-05T07:12:43.37Z</time></trkpt><trkpt lat="44.2048447" lon="12.1073406"><ele>24.0</ele><time>2026-04-05T07:12:45.374Z</time></trkpt><trkpt lat="44.2047734" lon="12.1074835"><ele>24.0</ele><time>2026-04-05T07:12:47.378Z</time></trkpt><trkpt lat="44.2047047" lon="12.1076233"><ele>24.0</ele><time>2026-04-05T07:12:49.386Z</time></trkpt><trkpt lat="44.2046381" lon="12.1077661"><ele>24.0</ele><time>2026-04-05T07:12:51.381Z</time></trkpt><trkpt lat="44.2046026" lon="12.107839"><ele>24.0</ele><time>2026-04-05T07:12:52.379Z</time></trkpt><trkpt lat="44.2045652" lon="12.1079105"><ele>24.0</ele><time>2026-04-05T07:12:53.377Z</time></trkpt><trkpt lat="44.2044951" lon="12.1080528"><ele>24.0</ele><time>2026-04-05T07:12:55.373Z</time></trkpt><trkpt lat="44.2044258" lon="12.1081929"><ele>24.0</ele><time>2026-04-05T07:12:57.374Z</time></trkpt><trkpt lat="44.2043558" lon="12.1083382"><ele>24.0</ele><time>2026-04-05T07:12:59.384Z</time></trkpt><trkpt lat="44.204285" lon="12.1084761"><ele>24.0</ele><time>2026-04-05T07:13:01.382Z</time></trkpt><trkpt lat="44.2042146" lon="12.1086157"><ele>23.75</ele><time>2026-04-05T07:13:03.372Z</time></trkpt><trkpt lat="44.2041508" lon="12.1087601"><ele>23.5</ele><time>2026-04-05T07:13:05.371Z</time></trkpt><trkpt lat="44.2040918" lon="12.108904"><ele>23.25</ele><time>2026-04-05T07:13:07.39Z</time></trkpt><trkpt lat="44.2040357" lon="12.1090456"><ele>23.0</ele><time>2026-04-05T07:13:09.382Z</time></trkpt><trkpt lat="44.2039731" lon="12.1091868"><ele>23.333333333333336</ele><time>2026-04-05T07:13:11.371Z</time></trkpt><trkpt lat="44.2039397" lon="12.1092623"><ele>23.666666666666668</ele><time>2026-04-05T07:13:12.369Z</time></trkpt><trkpt lat="44.2038778" lon="12.1094011"><ele>24.0</ele><time>2026-04-05T07:13:14.369Z</time></trkpt><trkpt lat="44.2038074" lon="12.1095412"><ele>24.333333333333336</ele><time>2026-04-05T07:13:16.37Z</time></trkpt><trkpt lat="44.2037687" lon="12.1096133"><ele>24.666666666666668</ele><time>2026-04-05T07:13:17.37Z</time></trkpt><trkpt lat="44.2037306" lon="12.1096841"><ele>25.0</ele><time>2026-04-05T07:13:18.37Z</time></trkpt><trkpt lat="44.2036924" lon="12.1097544"><ele>25.000000000000004</ele><time>2026-04-05T07:13:19.382Z</time></trkpt><trkpt lat="44.2036513" lon="12.109826"><ele>25.0</ele><time>2026-04-05T07:13:20.37Z</time></trkpt><trkpt lat="44.2036108" lon="12.1098943"><ele>25.0</ele><time>2026-04-05T07:13:21.368Z</time></trkpt><trkpt lat="44.2035747" lon="12.109971"><ele>25.0</ele><time>2026-04-05T07:13:22.377Z</time></trkpt><trkpt lat="44.2035387" lon="12.1100443"><ele>25.000000000000004</ele><time>2026-04-05T07:13:23.372Z</time></trkpt><trkpt lat="44.2034745" lon="12.1101854"><ele>25.0</ele><time>2026-04-05T07:13:25.375Z</time></trkpt><trkpt lat="44.2034105" lon="12.1103358"><ele>24.5</ele><time>2026-04-05T07:13:27.369Z</time></trkpt><trkpt lat="44.2033472" lon="12.1104862"><ele>24.0</ele><time>2026-04-05T07:13:29.385Z</time></trkpt><trkpt lat="44.2032903" lon="12.1106365"><ele>23.5</ele><time>2026-04-05T07:13:31.376Z</time></trkpt><trkpt lat="44.203241" lon="12.1107851"><ele>23.0</ele><time>2026-04-05T07:13:33.37Z</time></trkpt><trkpt lat="44.2031847" lon="12.1109339"><ele>23.0</ele><time>2026-04-05T07:13:35.368Z</time></trkpt><trkpt lat="44.2031301" lon="12.1110825"><ele>23.0</ele><time>2026-04-05T07:13:37.371Z</time></trkpt><trkpt lat="44.2030704" lon="12.1112291"><ele>23.0</ele><time>2026-04-05T07:13:39.386Z</time></trkpt><trkpt lat="44.2030094" lon="12.1113736"><ele>23.0</ele><time>2026-04-05T07:13:41.368Z</time></trkpt><trkpt lat="44.2029501" lon="12.1115177"><ele>23.4</ele><time>2026-04-05T07:13:43.372Z</time></trkpt><trkpt lat="44.2028924" lon="12.1116697"><ele>23.799999999999997</ele><time>2026-04-05T07:13:45.374Z</time></trkpt><trkpt lat="44.2028295" lon="12.1118238"><ele>24.2</ele><time>2026-04-05T07:13:47.383Z</time></trkpt><trkpt lat="44.2027672" lon="12.1119794"><ele>24.6</ele><time>2026-04-05T07:13:49.381Z</time></trkpt><trkpt lat="44.202734" lon="12.1120543"><ele>25.0</ele><time>2026-04-05T07:13:50.371Z</time></trkpt><trkpt lat="44.2026744" lon="12.1122055"><ele>25.0</ele><time>2026-04-05T07:13:52.376Z</time></trkpt><trkpt lat="44.2026174" lon="12.1123478"><ele>25.0</ele><time>2026-04-05T07:13:54.381Z</time></trkpt><trkpt lat="44.2025652" lon="12.1124917"><ele>25.0</ele><time>2026-04-05T07:13:56.376Z</time></trkpt><trkpt lat="44.2025074" lon="12.1126315"><ele>25.0</ele><time>2026-04-05T07:13:58.373Z</time></trkpt><trkpt lat="44.2024543" lon="12.112772"><ele>25.0</ele><time>2026-04-05T07:14:00.371Z</time></trkpt><trkpt lat="44.2024019" lon="12.1129147"><ele>25.0</ele><time>2026-04-05T07:14:02.368Z</time></trkpt><trkpt lat="44.2023488" lon="12.113053"><ele>25.0</ele><time>2026-04-05T07:14:04.371Z</time></trkpt><trkpt lat="44.202288" lon="12.1131937"><ele>25.0</ele><time>2026-04-05T07:14:06.376Z</time></trkpt><trkpt lat="44.2022344" lon="12.1133358"><ele>25.0</ele><time>2026-04-05T07:14:08.368Z</time></trkpt><trkpt lat="44.2021834" lon="12.1134684"><ele>25.0</ele><time>2026-04-05T07:14:10.37Z</time></trkpt><trkpt lat="44.2021218" lon="12.113604"><ele>25.0</ele><time>2026-04-05T07:14:12.375Z</time></trkpt><trkpt lat="44.2020601" lon="12.1137397"><ele>25.0</ele><time>2026-04-05T07:14:14.378Z</time></trkpt><trkpt lat="44.2020044" lon="12.1138796"><ele>25.0</ele><time>2026-04-05T07:14:16.371Z</time></trkpt><trkpt lat="44.2019492" lon="12.1140279"><ele>25.0</ele><time>2026-04-05T07:14:18.365Z</time></trkpt><trkpt lat="44.2018987" lon="12.114165"><ele>25.0</ele><time>2026-04-05T07:14:20.366Z</time></trkpt><trkpt lat="44.2018559" lon="12.1143041"><ele>25.0</ele><time>2026-04-05T07:14:22.371Z</time></trkpt><trkpt lat="44.2018009" lon="12.1144403"><ele>24.5</ele><time>2026-04-05T07:14:24.369Z</time></trkpt><trkpt lat="44.2017435" lon="12.1145827"><ele>24.0</ele><time>2026-04-05T07:14:26.367Z</time></trkpt><trkpt lat="44.2016861" lon="12.1147226"><ele>23.5</ele><time>2026-04-05T07:14:28.377Z</time></trkpt><trkpt lat="44.2016299" lon="12.114864"><ele>23.0</ele><time>2026-04-05T07:14:30.371Z</time></trkpt><trkpt lat="44.2015841" lon="12.1150033"><ele>23.0</ele><time>2026-04-05T07:14:32.369Z</time></trkpt><trkpt lat="44.2015322" lon="12.1151474"><ele>23.0</ele><time>2026-04-05T07:14:34.37Z</time></trkpt><trkpt lat="44.2014785" lon="12.1152953"><ele>23.0</ele><time>2026-04-05T07:14:36.369Z</time></trkpt><trkpt lat="44.201424" lon="12.1154384"><ele>23.0</ele><time>2026-04-05T07:14:38.367Z</time></trkpt><trkpt lat="44.2013724" lon="12.1155779"><ele>23.25</ele><time>2026-04-05T07:14:40.368Z</time></trkpt><trkpt lat="44.2013126" lon="12.1157175"><ele>23.5</ele><time>2026-04-05T07:14:42.374Z</time></trkpt><trkpt lat="44.2012535" lon="12.1158616"><ele>23.75</ele><time>2026-04-05T07:14:44.371Z</time></trkpt><trkpt lat="44.2011958" lon="12.1160056"><ele>24.0</ele><time>2026-04-05T07:14:46.369Z</time></trkpt><trkpt lat="44.201138" lon="12.1161467"><ele>24.2</ele><time>2026-04-05T07:14:48.369Z</time></trkpt><trkpt lat="44.2011057" lon="12.1162272"><ele>24.4</ele><time>2026-04-05T07:14:49.384Z</time></trkpt><trkpt lat="44.2010466" lon="12.116384"><ele>24.6</ele><time>2026-04-05T07:14:51.376Z</time></trkpt><trkpt lat="44.2009911" lon="12.1165231"><ele>24.8</ele><time>2026-04-05T07:14:53.37Z</time></trkpt><trkpt lat="44.2009327" lon="12.1166495"><ele>25.0</ele><time>2026-04-05T07:14:55.369Z</time></trkpt><trkpt lat="44.2008786" lon="12.1167753"><ele>25.0</ele><time>2026-04-05T07:14:57.367Z</time></trkpt><trkpt lat="44.2008202" lon="12.1169103"><ele>25.0</ele><time>2026-04-05T07:14:59.383Z</time></trkpt><trkpt lat="44.2007673" lon="12.1170588"><ele>25.0</ele><time>2026-04-05T07:15:01.379Z</time></trkpt><trkpt lat="44.2007347" lon="12.1171353"><ele>25.0</ele><time>2026-04-05T07:15:02.364Z</time></trkpt><trkpt lat="44.2006781" lon="12.1172796"><ele>25.0</ele><time>2026-04-05T07:15:04.374Z</time></trkpt><trkpt lat="44.2006184" lon="12.1174187"><ele>25.0</ele><time>2026-04-05T07:15:06.368Z</time></trkpt><trkpt lat="44.2005565" lon="12.1175502"><ele>25.0</ele><time>2026-04-05T07:15:08.368Z</time></trkpt><trkpt lat="44.2005014" lon="12.117683"><ele>25.0</ele><time>2026-04-05T07:15:10.386Z</time></trkpt><trkpt lat="44.2004436" lon="12.1178313"><ele>25.0</ele><time>2026-04-05T07:15:12.368Z</time></trkpt><trkpt lat="44.2003859" lon="12.1179732"><ele>25.0</ele><time>2026-04-05T07:15:14.374Z</time></trkpt><trkpt lat="44.2003296" lon="12.1181143"><ele>25.0</ele><time>2026-04-05T07:15:16.37Z</time></trkpt><trkpt lat="44.2002644" lon="12.1182513"><ele>25.0</ele><time>2026-04-05T07:15:18.369Z</time></trkpt><trkpt lat="44.2002061" lon="12.1183839"><ele>25.0</ele><time>2026-04-05T07:15:20.379Z</time></trkpt><trkpt lat="44.2001404" lon="12.1185218"><ele>25.25</ele><time>2026-04-05T07:15:22.379Z</time></trkpt><trkpt lat="44.2000794" lon="12.1186513"><ele>25.5</ele><time>2026-04-05T07:15:24.371Z</time></trkpt><trkpt lat="44.2000181" lon="12.1187858"><ele>25.75</ele><time>2026-04-05T07:15:26.37Z</time></trkpt><trkpt lat="44.1999608" lon="12.1189258"><ele>26.0</ele><time>2026-04-05T07:15:28.373Z</time></trkpt><trkpt lat="44.1999011" lon="12.1190645"><ele>25.75</ele><time>2026-04-05T07:15:30.384Z</time></trkpt><trkpt lat="44.1998446" lon="12.1192074"><ele>25.5</ele><time>2026-04-05T07:15:32.368Z</time></trkpt><trkpt lat="44.1997915" lon="12.1193501"><ele>25.25</ele><time>2026-04-05T07:15:34.373Z</time></trkpt><trkpt lat="44.1997387" lon="12.1194892"><ele>25.0</ele><time>2026-04-05T07:15:36.366Z</time></trkpt><trkpt lat="44.1996866" lon="12.1196294"><ele>25.0</ele><time>2026-04-05T07:15:38.369Z</time></trkpt><trkpt lat="44.199634" lon="12.1197701"><ele>25.0</ele><time>2026-04-05T07:15:40.371Z</time></trkpt><trkpt lat="44.1995793" lon="12.1199013"><ele>25.0</ele><time>2026-04-05T07:15:42.37Z</time></trkpt><trkpt lat="44.1995277" lon="12.1200406"><ele>25.0</ele><time>2026-04-05T07:15:44.368Z</time></trkpt><trkpt lat="44.1994755" lon="12.1201781"><ele>25.0</ele><time>2026-04-05T07:15:46.365Z</time></trkpt><trkpt lat="44.1994189" lon="12.1203146"><ele>25.0</ele><time>2026-04-05T07:15:48.369Z</time></trkpt><trkpt lat="44.1993622" lon="12.1204475"><ele>25.0</ele><time>2026-04-05T07:15:50.368Z</time></trkpt><trkpt lat="44.1993044" lon="12.120576"><ele>25.0</ele><time>2026-04-05T07:15:52.372Z</time></trkpt><trkpt lat="44.1992495" lon="12.1207031"><ele>25.0</ele><time>2026-04-05T07:15:54.372Z</time></trkpt><trkpt lat="44.1991887" lon="12.120835"><ele>25.0</ele><time>2026-04-05T07:15:56.388Z</time></trkpt><trkpt lat="44.1991333" lon="12.1209616"><ele>25.0</ele><time>2026-04-05T07:15:58.377Z</time></trkpt><trkpt lat="44.1990798" lon="12.1211085"><ele>25.0</ele><time>2026-04-05T07:16:00.374Z</time></trkpt><trkpt lat="44.1990578" lon="12.1212509"><ele>25.0</ele><time>2026-04-05T07:16:02.367Z</time></trkpt><trkpt lat="44.1990714" lon="12.1213946"><ele>25.0</ele><time>2026-04-05T07:16:04.367Z</time></trkpt><trkpt lat="44.1991045" lon="12.1215126"><ele>25.0</ele><time>2026-04-05T07:16:06.37Z</time></trkpt><trkpt lat="44.1990955" lon="12.1216161"><ele>24.75</ele><time>2026-04-05T07:16:08.384Z</time></trkpt><trkpt lat="44.1989952" lon="12.1216642"><ele>24.5</ele><time>2026-04-05T07:16:11.374Z</time></trkpt><trkpt lat="44.1988783" lon="12.1217001"><ele>24.25</ele><time>2026-04-05T07:16:13.368Z</time></trkpt><trkpt lat="44.1987674" lon="12.121735"><ele>24.0</ele><time>2026-04-05T07:16:15.369Z</time></trkpt><trkpt lat="44.1986532" lon="12.1217799"><ele>24.0</ele><time>2026-04-05T07:16:17.355Z</time></trkpt><trkpt lat="44.1985241" lon="12.1218318"><ele>24.0</ele><time>2026-04-05T07:16:19.348Z</time></trkpt><trkpt lat="44.1984319" lon="12.1219099"><ele>24.0</ele><time>2026-04-05T07:16:21.358Z</time></trkpt><trkpt lat="44.1983553" lon="12.1219796"><ele>24.0</ele><time>2026-04-05T07:16:23.366Z</time></trkpt><trkpt lat="44.1982976" lon="12.1220996"><ele>24.0</ele><time>2026-04-05T07:16:25.366Z</time></trkpt><trkpt lat="44.1982629" lon="12.1222255"><ele>24.0</ele><time>2026-04-05T07:16:27.372Z</time></trkpt><trkpt lat="44.1982304" lon="12.1223595"><ele>24.0</ele><time>2026-04-05T07:16:29.378Z</time></trkpt><trkpt lat="44.1982022" lon="12.1224983"><ele>24.0</ele><time>2026-04-05T07:16:31.378Z</time></trkpt><trkpt lat="44.1981672" lon="12.1226193"><ele>24.0</ele><time>2026-04-05T07:16:33.37Z</time></trkpt><trkpt lat="44.1980996" lon="12.1226961"><ele>24.0</ele><time>2026-04-05T07:16:35.376Z</time></trkpt><trkpt lat="44.1980128" lon="12.1227301"><ele>24.0</ele><time>2026-04-05T07:16:37.381Z</time></trkpt><trkpt lat="44.1979173" lon="12.1227319"><ele>24.0</ele><time>2026-04-05T07:16:39.376Z</time></trkpt><trkpt lat="44.1978215" lon="12.1227412"><ele>24.0</ele><time>2026-04-05T07:16:41.372Z</time></trkpt><trkpt lat="44.1977224" lon="12.1227576"><ele>24.0</ele><time>2026-04-05T07:16:43.387Z</time></trkpt><trkpt lat="44.1976144" lon="12.122767"><ele>24.0</ele><time>2026-04-05T07:16:45.377Z</time></trkpt><trkpt lat="44.1975143" lon="12.1227819"><ele>24.0</ele><time>2026-04-05T07:16:47.369Z</time></trkpt><trkpt lat="44.1974072" lon="12.1228065"><ele>24.0</ele><time>2026-04-05T07:16:49.371Z</time></trkpt><trkpt lat="44.1973052" lon="12.1228197"><ele>24.0</ele><time>2026-04-05T07:16:51.373Z</time></trkpt><trkpt lat="44.1972048" lon="12.122845"><ele>24.0</ele><time>2026-04-05T07:16:53.375Z</time></trkpt><trkpt lat="44.1971062" lon="12.1228746"><ele>24.0</ele><time>2026-04-05T07:16:55.378Z</time></trkpt><trkpt lat="44.1970109" lon="12.1228961"><ele>24.5</ele><time>2026-04-05T07:16:57.369Z</time></trkpt><trkpt lat="44.1969072" lon="12.1229129"><ele>25.0</ele><time>2026-04-05T07:16:59.37Z</time></trkpt><trkpt lat="44.1967954" lon="12.1229429"><ele>25.5</ele><time>2026-04-05T07:17:01.368Z</time></trkpt><trkpt lat="44.1966741" lon="12.1229826"><ele>26.0</ele><time>2026-04-05T07:17:03.37Z</time></trkpt><trkpt lat="44.1965471" lon="12.1230209"><ele>26.285714285714285</ele><time>2026-04-05T07:17:05.365Z</time></trkpt><trkpt lat="44.1964821" lon="12.1230384"><ele>26.571428571428573</ele><time>2026-04-05T07:17:06.364Z</time></trkpt><trkpt lat="44.1964183" lon="12.1230573"><ele>26.857142857142858</ele><time>2026-04-05T07:17:07.352Z</time></trkpt><trkpt lat="44.1963536" lon="12.1230755"><ele>27.142857142857142</ele><time>2026-04-05T07:17:08.348Z</time></trkpt><trkpt lat="44.1962896" lon="12.1230945"><ele>27.42857142857143</ele><time>2026-04-05T07:17:09.319Z</time></trkpt><trkpt lat="44.1962273" lon="12.1231147"><ele>27.714285714285715</ele><time>2026-04-05T07:17:10.296Z</time></trkpt><trkpt lat="44.1961077" lon="12.1231527"><ele>28.0</ele><time>2026-04-05T07:17:12.272Z</time></trkpt><trkpt lat="44.1959961" lon="12.1231625"><ele>28.0</ele><time>2026-04-05T07:17:14.363Z</time></trkpt><trkpt lat="44.1959334" lon="12.1231732"><ele>27.999999999999996</ele><time>2026-04-05T07:17:15.34Z</time></trkpt><trkpt lat="44.1958185" lon="12.1231901"><ele>27.999999999999996</ele><time>2026-04-05T07:17:17.358Z</time></trkpt><trkpt lat="44.1957557" lon="12.1232016"><ele>28.0</ele><time>2026-04-05T07:17:18.352Z</time></trkpt><trkpt lat="44.1956421" lon="12.1232346"><ele>28.0</ele><time>2026-04-05T07:17:20.353Z</time></trkpt><trkpt lat="44.195524" lon="12.1232623"><ele>27.666666666666668</ele><time>2026-04-05T07:17:22.367Z</time></trkpt><trkpt lat="44.1954124" lon="12.1232967"><ele>27.333333333333336</ele><time>2026-04-05T07:17:24.37Z</time></trkpt><trkpt lat="44.1953494" lon="12.1233064"><ele>27.0</ele><time>2026-04-05T07:17:25.369Z</time></trkpt><trkpt lat="44.195285" lon="12.1233205"><ele>26.666666666666664</ele><time>2026-04-05T07:17:26.367Z</time></trkpt><trkpt lat="44.1952193" lon="12.1233286"><ele>26.333333333333332</ele><time>2026-04-05T07:17:27.369Z</time></trkpt><trkpt lat="44.1951515" lon="12.1233351"><ele>26.0</ele><time>2026-04-05T07:17:28.369Z</time></trkpt><trkpt lat="44.1950356" lon="12.1233557"><ele>26.0</ele><time>2026-04-05T07:17:30.368Z</time></trkpt><trkpt lat="44.1949156" lon="12.1233926"><ele>26.0</ele><time>2026-04-05T07:17:32.363Z</time></trkpt><trkpt lat="44.1948003" lon="12.1234214"><ele>26.0</ele><time>2026-04-05T07:17:34.362Z</time></trkpt><trkpt lat="44.1946816" lon="12.1234422"><ele>26.0</ele><time>2026-04-05T07:17:36.366Z</time></trkpt><trkpt lat="44.1946183" lon="12.1234589"><ele>26.0</ele><time>2026-04-05T07:17:37.364Z</time></trkpt><trkpt lat="44.1945541" lon="12.1234818"><ele>26.0</ele><time>2026-04-05T07:17:38.365Z</time></trkpt><trkpt lat="44.1944345" lon="12.123509"><ele>26.0</ele><time>2026-04-05T07:17:40.362Z</time></trkpt><trkpt lat="44.1943098" lon="12.1235333"><ele>26.0</ele><time>2026-04-05T07:17:42.366Z</time></trkpt><trkpt lat="44.194184" lon="12.1235643"><ele>26.0</ele><time>2026-04-05T07:17:44.367Z</time></trkpt><trkpt lat="44.1941218" lon="12.1235804"><ele>26.0</ele><time>2026-04-05T07:17:45.382Z</time></trkpt><trkpt lat="44.1939996" lon="12.1236152"><ele>26.166666666666664</ele><time>2026-04-05T07:17:47.371Z</time></trkpt><trkpt lat="44.1939345" lon="12.123637"><ele>26.333333333333332</ele><time>2026-04-05T07:17:48.366Z</time></trkpt><trkpt lat="44.1938702" lon="12.123651"><ele>26.5</ele><time>2026-04-05T07:17:49.366Z</time></trkpt><trkpt lat="44.1938056" lon="12.1236684"><ele>26.666666666666664</ele><time>2026-04-05T07:17:50.367Z</time></trkpt><trkpt lat="44.1936851" lon="12.1236834"><ele>26.833333333333332</ele><time>2026-04-05T07:17:52.373Z</time></trkpt><trkpt lat="44.1935655" lon="12.1237099"><ele>27.0</ele><time>2026-04-05T07:17:54.367Z</time></trkpt><trkpt lat="44.1934455" lon="12.1237418"><ele>27.0</ele><time>2026-04-05T07:17:56.369Z</time></trkpt><trkpt lat="44.1933248" lon="12.123788"><ele>27.0</ele><time>2026-04-05T07:17:58.366Z</time></trkpt><trkpt lat="44.193206" lon="12.1238275"><ele>27.0</ele><time>2026-04-05T07:18:00.367Z</time></trkpt><trkpt lat="44.1930798" lon="12.1238456"><ele>27.0</ele><time>2026-04-05T07:18:02.367Z</time></trkpt><trkpt lat="44.192956" lon="12.1238667"><ele>26.8</ele><time>2026-04-05T07:18:04.366Z</time></trkpt><trkpt lat="44.192893" lon="12.1238726"><ele>26.6</ele><time>2026-04-05T07:18:05.37Z</time></trkpt><trkpt lat="44.1928301" lon="12.1238877"><ele>26.400000000000002</ele><time>2026-04-05T07:18:06.37Z</time></trkpt><trkpt lat="44.1927133" lon="12.1239237"><ele>26.200000000000003</ele><time>2026-04-05T07:18:08.367Z</time></trkpt><trkpt lat="44.1925927" lon="12.1239479"><ele>26.0</ele><time>2026-04-05T07:18:10.377Z</time></trkpt><trkpt lat="44.1924774" lon="12.1239792"><ele>26.0</ele><time>2026-04-05T07:18:12.364Z</time></trkpt><trkpt lat="44.1923609" lon="12.1240152"><ele>26.0</ele><time>2026-04-05T07:18:14.366Z</time></trkpt><trkpt lat="44.1922449" lon="12.1240434"><ele>26.0</ele><time>2026-04-05T07:18:16.386Z</time></trkpt><trkpt lat="44.1921302" lon="12.1240649"><ele>26.0</ele><time>2026-04-05T07:18:18.366Z</time></trkpt><trkpt lat="44.1920146" lon="12.1241016"><ele>26.200000000000003</ele><time>2026-04-05T07:18:20.365Z</time></trkpt><trkpt lat="44.1919046" lon="12.1241221"><ele>26.400000000000002</ele><time>2026-04-05T07:18:22.373Z</time></trkpt><trkpt lat="44.1917969" lon="12.1241395"><ele>26.6</ele><time>2026-04-05T07:18:24.365Z</time></trkpt><trkpt lat="44.1916782" lon="12.12412"><ele>26.8</ele><time>2026-04-05T07:18:26.367Z</time></trkpt><trkpt lat="44.1916113" lon="12.1240972"><ele>27.0</ele><time>2026-04-05T07:18:27.369Z</time></trkpt><trkpt lat="44.1915439" lon="12.1240961"><ele>27.400000000000002</ele><time>2026-04-05T07:18:28.375Z</time></trkpt><trkpt lat="44.1914398" lon="12.1241725"><ele>27.800000000000004</ele><time>2026-04-05T07:18:30.366Z</time></trkpt><trkpt lat="44.1913328" lon="12.1242127"><ele>28.2</ele><time>2026-04-05T07:18:32.361Z</time></trkpt><trkpt lat="44.1912147" lon="12.1242209"><ele>28.6</ele><time>2026-04-05T07:18:34.36Z</time></trkpt><trkpt lat="44.1911498" lon="12.1242336"><ele>29.0</ele><time>2026-04-05T07:18:35.359Z</time></trkpt><trkpt lat="44.1910352" lon="12.1242456"><ele>29.0</ele><time>2026-04-05T07:18:37.361Z</time></trkpt><trkpt lat="44.1909289" lon="12.1242685"><ele>29.0</ele><time>2026-04-05T07:18:39.36Z</time></trkpt><trkpt lat="44.1908231" lon="12.1242907"><ele>29.0</ele><time>2026-04-05T07:18:41.359Z</time></trkpt><trkpt lat="44.190716" lon="12.1242941"><ele>29.0</ele><time>2026-04-05T07:18:43.361Z</time></trkpt><trkpt lat="44.1906175" lon="12.1242917"><ele>29.0</ele><time>2026-04-05T07:18:45.359Z</time></trkpt><trkpt lat="44.1905271" lon="12.1242776"><ele>28.799999999999997</ele><time>2026-04-05T07:18:47.386Z</time></trkpt><trkpt lat="44.190443" lon="12.1243013"><ele>28.599999999999998</ele><time>2026-04-05T07:18:49.379Z</time></trkpt><trkpt lat="44.1903929" lon="12.1244034"><ele>28.4</ele><time>2026-04-05T07:18:51.37Z</time></trkpt><trkpt lat="44.190369" lon="12.1245601"><ele>28.2</ele><time>2026-04-05T07:18:53.361Z</time></trkpt><trkpt lat="44.190365" lon="12.1247059"><ele>28.0</ele><time>2026-04-05T07:18:55.364Z</time></trkpt><trkpt lat="44.1903623" lon="12.1248615"><ele>28.4</ele><time>2026-04-05T07:18:57.361Z</time></trkpt><trkpt lat="44.1903528" lon="12.1250148"><ele>28.799999999999997</ele><time>2026-04-05T07:18:59.364Z</time></trkpt><trkpt lat="44.1903414" lon="12.1251639"><ele>29.2</ele><time>2026-04-05T07:19:01.363Z</time></trkpt><trkpt lat="44.1903312" lon="12.1253095"><ele>29.6</ele><time>2026-04-05T07:19:03.361Z</time></trkpt><trkpt lat="44.1903195" lon="12.1254646"><ele>30.0</ele><time>2026-04-05T07:19:05.373Z</time></trkpt><trkpt lat="44.1902913" lon="12.1256154"><ele>30.0</ele><time>2026-04-05T07:19:07.364Z</time></trkpt><trkpt lat="44.1902406" lon="12.1257459"><ele>30.0</ele><time>2026-04-05T07:19:09.364Z</time></trkpt><trkpt lat="44.1901752" lon="12.1258586"><ele>30.0</ele><time>2026-04-05T07:19:11.366Z</time></trkpt><trkpt lat="44.1900851" lon="12.1259453"><ele>30.0</ele><time>2026-04-05T07:19:13.366Z</time></trkpt><trkpt lat="44.190011" lon="12.1260448"><ele>30.0</ele><time>2026-04-05T07:19:15.374Z</time></trkpt><trkpt lat="44.1899408" lon="12.1261446"><ele>30.0</ele><time>2026-04-05T07:19:17.375Z</time></trkpt><trkpt lat="44.1898803" lon="12.1262681"><ele>30.0</ele><time>2026-04-05T07:19:19.619Z</time></trkpt><trkpt lat="44.1898311" lon="12.1264116"><ele>30.0</ele><time>2026-04-05T07:19:21.374Z</time></trkpt><trkpt lat="44.1898022" lon="12.1265493"><ele>30.0</ele><time>2026-04-05T07:19:23.368Z</time></trkpt><trkpt lat="44.1897799" lon="12.1267001"><ele>30.0</ele><time>2026-04-05T07:19:25.366Z</time></trkpt><trkpt lat="44.1897545" lon="12.1268425"><ele>30.4</ele><time>2026-04-05T07:19:27.361Z</time></trkpt><trkpt lat="44.1897195" lon="12.1269712"><ele>30.8</ele><time>2026-04-05T07:19:29.361Z</time></trkpt><trkpt lat="44.1897176" lon="12.127101"><ele>31.200000000000003</ele><time>2026-04-05T07:19:31.36Z</time></trkpt><trkpt lat="44.1897451" lon="12.1272427"><ele>31.6</ele><time>2026-04-05T07:19:33.369Z</time></trkpt><trkpt lat="44.1897616" lon="12.1274118"><ele>32.0</ele><time>2026-04-05T07:19:35.368Z</time></trkpt><trkpt lat="44.1897708" lon="12.1275785"><ele>32.0</ele><time>2026-04-05T07:19:37.365Z</time></trkpt><trkpt lat="44.1897707" lon="12.1277348"><ele>32.0</ele><time>2026-04-05T07:19:39.37Z</time></trkpt><trkpt lat="44.1897661" lon="12.1278876"><ele>32.0</ele><time>2026-04-05T07:19:41.368Z</time></trkpt><trkpt lat="44.1897448" lon="12.1280245"><ele>32.0</ele><time>2026-04-05T07:19:43.362Z</time></trkpt><trkpt lat="44.1896859" lon="12.1281376"><ele>32.0</ele><time>2026-04-05T07:19:45.357Z</time></trkpt><trkpt lat="44.1896079" lon="12.1282012"><ele>31.666666666666664</ele><time>2026-04-05T07:19:47.355Z</time></trkpt><trkpt lat="44.1895057" lon="12.1282547"><ele>31.333333333333332</ele><time>2026-04-05T07:19:49.372Z</time></trkpt><trkpt lat="44.1894463" lon="12.1282844"><ele>31.0</ele><time>2026-04-05T07:19:50.357Z</time></trkpt><trkpt lat="44.1893856" lon="12.1283147"><ele>30.666666666666664</ele><time>2026-04-05T07:19:51.373Z</time></trkpt><trkpt lat="44.1893267" lon="12.1283523"><ele>30.333333333333332</ele><time>2026-04-05T07:19:52.359Z</time></trkpt><trkpt lat="44.1892111" lon="12.1284086"><ele>30.0</ele><time>2026-04-05T07:19:54.361Z</time></trkpt><trkpt lat="44.1890981" lon="12.1284589"><ele>30.25</ele><time>2026-04-05T07:19:56.36Z</time></trkpt><trkpt lat="44.1889824" lon="12.1285045"><ele>30.5</ele><time>2026-04-05T07:19:58.366Z</time></trkpt><trkpt lat="44.1888782" lon="12.1285259"><ele>30.75</ele><time>2026-04-05T07:20:00.361Z</time></trkpt><trkpt lat="44.1887668" lon="12.1285467"><ele>31.0</ele><time>2026-04-05T07:20:02.366Z</time></trkpt><trkpt lat="44.1886506" lon="12.128576"><ele>31.0</ele><time>2026-04-05T07:20:04.363Z</time></trkpt><trkpt lat="44.1885421" lon="12.1285961"><ele>31.0</ele><time>2026-04-05T07:20:06.357Z</time></trkpt><trkpt lat="44.1884311" lon="12.1286061"><ele>31.0</ele><time>2026-04-05T07:20:08.354Z</time></trkpt><trkpt lat="44.1883164" lon="12.1286254"><ele>31.0</ele><time>2026-04-05T07:20:10.358Z</time></trkpt><trkpt lat="44.1881997" lon="12.1286414"><ele>31.200000000000003</ele><time>2026-04-05T07:20:12.355Z</time></trkpt><trkpt lat="44.1880813" lon="12.1286515"><ele>31.400000000000002</ele><time>2026-04-05T07:20:14.365Z</time></trkpt><trkpt lat="44.1879683" lon="12.1286469"><ele>31.6</ele><time>2026-04-05T07:20:16.364Z</time></trkpt><trkpt lat="44.1878664" lon="12.1286478"><ele>31.8</ele><time>2026-04-05T07:20:18.364Z</time></trkpt><trkpt lat="44.1877829" lon="12.1286751"><ele>32.0</ele><time>2026-04-05T07:20:20.381Z</time></trkpt><trkpt lat="44.1877645" lon="12.1287849"><ele>31.999999999999996</ele><time>2026-04-05T07:20:22.369Z</time></trkpt><trkpt lat="44.1877861" lon="12.1289378"><ele>32.0</ele><time>2026-04-05T07:20:24.356Z</time></trkpt><trkpt lat="44.1878016" lon="12.1290283"><ele>32.0</ele><time>2026-04-05T07:20:25.359Z</time></trkpt><trkpt lat="44.1878124" lon="12.129122"><ele>32.0</ele><time>2026-04-05T07:20:26.36Z</time></trkpt><trkpt lat="44.1878216" lon="12.1292185"><ele>31.999999999999996</ele><time>2026-04-05T07:20:27.361Z</time></trkpt><trkpt lat="44.1878295" lon="12.1293148"><ele>32.0</ele><time>2026-04-05T07:20:28.363Z</time></trkpt><trkpt lat="44.1878364" lon="12.1294069"><ele>31.666666666666664</ele><time>2026-04-05T07:20:29.368Z</time></trkpt><trkpt lat="44.1878392" lon="12.1295008"><ele>31.333333333333332</ele><time>2026-04-05T07:20:30.362Z</time></trkpt><trkpt lat="44.1878378" lon="12.1295928"><ele>31.0</ele><time>2026-04-05T07:20:31.364Z</time></trkpt><trkpt lat="44.1878322" lon="12.1296841"><ele>30.666666666666664</ele><time>2026-04-05T07:20:32.36Z</time></trkpt><trkpt lat="44.1878291" lon="12.1298586"><ele>30.333333333333332</ele><time>2026-04-05T07:20:34.354Z</time></trkpt><trkpt lat="44.187829" lon="12.1300277"><ele>30.0</ele><time>2026-04-05T07:20:36.357Z</time></trkpt><trkpt lat="44.1878325" lon="12.130195"><ele>29.8</ele><time>2026-04-05T07:20:38.366Z</time></trkpt><trkpt lat="44.1878347" lon="12.1302856"><ele>29.6</ele><time>2026-04-05T07:20:39.361Z</time></trkpt><trkpt lat="44.1878338" lon="12.1304543"><ele>29.4</ele><time>2026-04-05T07:20:41.363Z</time></trkpt><trkpt lat="44.1878289" lon="12.1306245"><ele>29.2</ele><time>2026-04-05T07:20:43.365Z</time></trkpt><trkpt lat="44.1878276" lon="12.1307951"><ele>29.0</ele><time>2026-04-05T07:20:45.362Z</time></trkpt><trkpt lat="44.1878248" lon="12.1309616"><ele>29.0</ele><time>2026-04-05T07:20:47.364Z</time></trkpt><trkpt lat="44.1878311" lon="12.1311335"><ele>29.0</ele><time>2026-04-05T07:20:49.361Z</time></trkpt><trkpt lat="44.1878316" lon="12.1312942"><ele>29.0</ele><time>2026-04-05T07:20:51.38Z</time></trkpt><trkpt lat="44.1878289" lon="12.1314584"><ele>29.0</ele><time>2026-04-05T07:20:53.375Z</time></trkpt><trkpt lat="44.1878238" lon="12.1316236"><ele>29.0</ele><time>2026-04-05T07:20:55.363Z</time></trkpt><trkpt lat="44.1878181" lon="12.1317975"><ele>29.0</ele><time>2026-04-05T07:20:57.364Z</time></trkpt><trkpt lat="44.1878254" lon="12.1319632"><ele>29.0</ele><time>2026-04-05T07:20:59.366Z</time></trkpt><trkpt lat="44.1878271" lon="12.1321225"><ele>29.0</ele><time>2026-04-05T07:21:01.37Z</time></trkpt><trkpt lat="44.1878197" lon="12.1322838"><ele>28.799999999999997</ele><time>2026-04-05T07:21:03.362Z</time></trkpt><trkpt lat="44.1878235" lon="12.1324407"><ele>28.599999999999998</ele><time>2026-04-05T07:21:05.361Z</time></trkpt><trkpt lat="44.1878221" lon="12.132598"><ele>28.4</ele><time>2026-04-05T07:21:07.363Z</time></trkpt><trkpt lat="44.187808" lon="12.1327396"><ele>28.2</ele><time>2026-04-05T07:21:09.366Z</time></trkpt><trkpt lat="44.1878144" lon="12.132881"><ele>28.0</ele><time>2026-04-05T07:21:11.364Z</time></trkpt><trkpt lat="44.1878606" lon="12.1330376"><ele>28.0</ele><time>2026-04-05T07:21:13.361Z</time></trkpt><trkpt lat="44.187881" lon="12.1332055"><ele>27.999999999999996</ele><time>2026-04-05T07:21:15.361Z</time></trkpt><trkpt lat="44.1878888" lon="12.1333782"><ele>27.999999999999996</ele><time>2026-04-05T07:21:17.361Z</time></trkpt><trkpt lat="44.187906" lon="12.133544"><ele>28.0</ele><time>2026-04-05T07:21:19.365Z</time></trkpt><trkpt lat="44.1879133" lon="12.1336328"><ele>28.0</ele><time>2026-04-05T07:21:20.365Z</time></trkpt><trkpt lat="44.1879281" lon="12.1337993"><ele>27.75</ele><time>2026-04-05T07:21:22.382Z</time></trkpt><trkpt lat="44.1879376" lon="12.133973"><ele>27.5</ele><time>2026-04-05T07:21:24.367Z</time></trkpt><trkpt lat="44.1879476" lon="12.1341487"><ele>27.25</ele><time>2026-04-05T07:21:26.361Z</time></trkpt><trkpt lat="44.1879573" lon="12.1343158"><ele>27.0</ele><time>2026-04-05T07:21:28.36Z</time></trkpt><trkpt lat="44.1879554" lon="12.1344774"><ele>27.0</ele><time>2026-04-05T07:21:30.368Z</time></trkpt><trkpt lat="44.1879601" lon="12.1346527"><ele>27.0</ele><time>2026-04-05T07:21:32.362Z</time></trkpt><trkpt lat="44.1879674" lon="12.1347467"><ele>27.0</ele><time>2026-04-05T07:21:33.36Z</time></trkpt><trkpt lat="44.1879734" lon="12.1348363"><ele>27.0</ele><time>2026-04-05T07:21:34.36Z</time></trkpt><trkpt lat="44.1879755" lon="12.1349247"><ele>27.0</ele><time>2026-04-05T07:21:35.36Z</time></trkpt><trkpt lat="44.1879782" lon="12.1350988"><ele>27.0</ele><time>2026-04-05T07:21:37.358Z</time></trkpt><trkpt lat="44.187971" lon="12.1352744"><ele>27.0</ele><time>2026-04-05T07:21:39.359Z</time></trkpt><trkpt lat="44.1879672" lon="12.1353648"><ele>27.000000000000004</ele><time>2026-04-05T07:21:40.36Z</time></trkpt><trkpt lat="44.1879682" lon="12.1354539"><ele>27.000000000000004</ele><time>2026-04-05T07:21:41.36Z</time></trkpt><trkpt lat="44.1879476" lon="12.1356223"><ele>27.0</ele><time>2026-04-05T07:21:43.359Z</time></trkpt><trkpt lat="44.1878813" lon="12.1357434"><ele>27.0</ele><time>2026-04-05T07:21:45.355Z</time></trkpt><trkpt lat="44.1877707" lon="12.1358"><ele>26.833333333333332</ele><time>2026-04-05T07:21:47.365Z</time></trkpt><trkpt lat="44.1876719" lon="12.135868"><ele>26.666666666666664</ele><time>2026-04-05T07:21:49.374Z</time></trkpt><trkpt lat="44.1875649" lon="12.135935"><ele>26.5</ele><time>2026-04-05T07:21:51.369Z</time></trkpt><trkpt lat="44.1875012" lon="12.1359331"><ele>26.333333333333332</ele><time>2026-04-05T07:21:52.37Z</time></trkpt><trkpt lat="44.1874351" lon="12.135934"><ele>26.166666666666664</ele><time>2026-04-05T07:21:53.388Z</time></trkpt><trkpt lat="44.1873705" lon="12.1359309"><ele>26.0</ele><time>2026-04-05T07:21:54.369Z</time></trkpt><trkpt lat="44.1872492" lon="12.1359236"><ele>26.0</ele><time>2026-04-05T07:21:56.367Z</time></trkpt><trkpt lat="44.1871302" lon="12.1359173"><ele>26.0</ele><time>2026-04-05T07:21:58.366Z</time></trkpt><trkpt lat="44.1870059" lon="12.1359149"><ele>26.0</ele><time>2026-04-05T07:22:00.366Z</time></trkpt><trkpt lat="44.1868822" lon="12.1359274"><ele>26.0</ele><time>2026-04-05T07:22:02.367Z</time></trkpt><trkpt lat="44.1868191" lon="12.1359466"><ele>26.0</ele><time>2026-04-05T07:22:03.366Z</time></trkpt><trkpt lat="44.1867574" lon="12.1359683"><ele>26.0</ele><time>2026-04-05T07:22:04.365Z</time></trkpt><trkpt lat="44.1866449" lon="12.1360395"><ele>26.0</ele><time>2026-04-05T07:22:06.375Z</time></trkpt><trkpt lat="44.1865449" lon="12.1361462"><ele>26.0</ele><time>2026-04-05T07:22:08.368Z</time></trkpt><trkpt lat="44.1864593" lon="12.1362676"><ele>26.0</ele><time>2026-04-05T07:22:10.371Z</time></trkpt><trkpt lat="44.18639" lon="12.1364038"><ele>26.0</ele><time>2026-04-05T07:22:12.373Z</time></trkpt><trkpt lat="44.1863225" lon="12.1365435"><ele>26.0</ele><time>2026-04-05T07:22:14.371Z</time></trkpt><trkpt lat="44.1862629" lon="12.1366764"><ele>26.0</ele><time>2026-04-05T07:22:16.368Z</time></trkpt><trkpt lat="44.1861959" lon="12.1368145"><ele>26.0</ele><time>2026-04-05T07:22:18.368Z</time></trkpt><trkpt lat="44.1861114" lon="12.1369343"><ele>26.0</ele><time>2026-04-05T07:22:20.366Z</time></trkpt><trkpt lat="44.1860015" lon="12.1370187"><ele>26.0</ele><time>2026-04-05T07:22:22.376Z</time></trkpt><trkpt lat="44.1859402" lon="12.1370434"><ele>26.0</ele><time>2026-04-05T07:22:23.368Z</time></trkpt><trkpt lat="44.1858751" lon="12.1370643"><ele>26.0</ele><time>2026-04-05T07:22:24.387Z</time></trkpt><trkpt lat="44.1857522" lon="12.1370924"><ele>26.0</ele><time>2026-04-05T07:22:26.368Z</time></trkpt><trkpt lat="44.1856248" lon="12.1370944"><ele>25.75</ele><time>2026-04-05T07:22:28.37Z</time></trkpt><trkpt lat="44.1855023" lon="12.1371062"><ele>25.5</ele><time>2026-04-05T07:22:30.367Z</time></trkpt><trkpt lat="44.1853843" lon="12.1371047"><ele>25.25</ele><time>2026-04-05T07:22:32.371Z</time></trkpt><trkpt lat="44.1852613" lon="12.1371126"><ele>25.0</ele><time>2026-04-05T07:22:34.367Z</time></trkpt><trkpt lat="44.1851369" lon="12.1371364"><ele>25.0</ele><time>2026-04-05T07:22:36.369Z</time></trkpt><trkpt lat="44.1850743" lon="12.137155"><ele>25.0</ele><time>2026-04-05T07:22:37.366Z</time></trkpt><trkpt lat="44.1849521" lon="12.1371914"><ele>25.0</ele><time>2026-04-05T07:22:39.366Z</time></trkpt><trkpt lat="44.1848272" lon="12.1372214"><ele>25.0</ele><time>2026-04-05T07:22:41.366Z</time></trkpt><trkpt lat="44.184701" lon="12.1372444"><ele>25.0</ele><time>2026-04-05T07:22:43.368Z</time></trkpt><trkpt lat="44.1846383" lon="12.1372575"><ele>25.000000000000004</ele><time>2026-04-05T07:22:44.373Z</time></trkpt><trkpt lat="44.1845157" lon="12.1372894"><ele>25.0</ele><time>2026-04-05T07:22:46.364Z</time></trkpt><trkpt lat="44.1844538" lon="12.1373068"><ele>25.0</ele><time>2026-04-05T07:22:47.364Z</time></trkpt><trkpt lat="44.1843919" lon="12.1373264"><ele>25.0</ele><time>2026-04-05T07:22:48.363Z</time></trkpt><trkpt lat="44.184272" lon="12.1373629"><ele>25.000000000000004</ele><time>2026-04-05T07:22:50.365Z</time></trkpt><trkpt lat="44.1842103" lon="12.1373836"><ele>25.0</ele><time>2026-04-05T07:22:51.363Z</time></trkpt><trkpt lat="44.1840972" lon="12.1374331"><ele>25.2</ele><time>2026-04-05T07:22:53.369Z</time></trkpt><trkpt lat="44.1839793" lon="12.1374854"><ele>25.4</ele><time>2026-04-05T07:22:55.385Z</time></trkpt><trkpt lat="44.1838611" lon="12.1375302"><ele>25.6</ele><time>2026-04-05T07:22:57.366Z</time></trkpt><trkpt lat="44.1838004" lon="12.1375588"><ele>25.8</ele><time>2026-04-05T07:22:58.366Z</time></trkpt><trkpt lat="44.1836834" lon="12.1376133"><ele>26.0</ele><time>2026-04-05T07:23:00.366Z</time></trkpt><trkpt lat="44.1836251" lon="12.137648"><ele>26.0</ele><time>2026-04-05T07:23:01.365Z</time></trkpt><trkpt lat="44.1835102" lon="12.137713"><ele>26.0</ele><time>2026-04-05T07:23:03.365Z</time></trkpt><trkpt lat="44.1833957" lon="12.137774"><ele>26.0</ele><time>2026-04-05T07:23:05.366Z</time></trkpt><trkpt lat="44.1832788" lon="12.1378421"><ele>26.0</ele><time>2026-04-05T07:23:07.365Z</time></trkpt><trkpt lat="44.1831681" lon="12.1379105"><ele>25.999999999999996</ele><time>2026-04-05T07:23:09.364Z</time></trkpt><trkpt lat="44.1831101" lon="12.1379487"><ele>26.0</ele><time>2026-04-05T07:23:10.366Z</time></trkpt><trkpt lat="44.1830504" lon="12.1379846"><ele>26.0</ele><time>2026-04-05T07:23:11.367Z</time></trkpt><trkpt lat="44.1829925" lon="12.1380213"><ele>26.0</ele><time>2026-04-05T07:23:12.366Z</time></trkpt><trkpt lat="44.1829341" lon="12.1380591"><ele>25.999999999999996</ele><time>2026-04-05T07:23:13.367Z</time></trkpt><trkpt lat="44.182823" lon="12.1381336"><ele>26.0</ele><time>2026-04-05T07:23:15.369Z</time></trkpt><trkpt lat="44.1827177" lon="12.1382125"><ele>25.999999999999996</ele><time>2026-04-05T07:23:17.373Z</time></trkpt><trkpt lat="44.1826631" lon="12.1382575"><ele>26.0</ele><time>2026-04-05T07:23:18.365Z</time></trkpt><trkpt lat="44.182557" lon="12.1383442"><ele>26.0</ele><time>2026-04-05T07:23:20.358Z</time></trkpt><trkpt lat="44.1824529" lon="12.1384364"><ele>26.0</ele><time>2026-04-05T07:23:22.368Z</time></trkpt><trkpt lat="44.182397" lon="12.1384814"><ele>25.999999999999996</ele><time>2026-04-05T07:23:23.366Z</time></trkpt><trkpt lat="44.1823404" lon="12.1385246"><ele>26.0</ele><time>2026-04-05T07:23:24.367Z</time></trkpt><trkpt lat="44.1822389" lon="12.1386282"><ele>26.333333333333332</ele><time>2026-04-05T07:23:26.4Z</time></trkpt><trkpt lat="44.1821907" lon="12.1386861"><ele>26.666666666666664</ele><time>2026-04-05T07:23:27.367Z</time></trkpt><trkpt lat="44.1821413" lon="12.1387456"><ele>27.0</ele><time>2026-04-05T07:23:28.365Z</time></trkpt><trkpt lat="44.1820927" lon="12.1388025"><ele>27.333333333333336</ele><time>2026-04-05T07:23:29.365Z</time></trkpt><trkpt lat="44.1820008" lon="12.1389253"><ele>27.666666666666668</ele><time>2026-04-05T07:23:31.367Z</time></trkpt><trkpt lat="44.1819018" lon="12.1390191"><ele>28.0</ele><time>2026-04-05T07:23:33.368Z</time></trkpt><trkpt lat="44.1817766" lon="12.1390399"><ele>28.000000000000004</ele><time>2026-04-05T07:23:35.372Z</time></trkpt><trkpt lat="44.181714" lon="12.1390207"><ele>28.0</ele><time>2026-04-05T07:23:36.367Z</time></trkpt><trkpt lat="44.1816474" lon="12.1390114"><ele>28.0</ele><time>2026-04-05T07:23:37.365Z</time></trkpt><trkpt lat="44.1815814" lon="12.1390134"><ele>28.0</ele><time>2026-04-05T07:23:38.365Z</time></trkpt><trkpt lat="44.1815166" lon="12.1390279"><ele>28.000000000000004</ele><time>2026-04-05T07:23:39.366Z</time></trkpt><trkpt lat="44.1814126" lon="12.1391079"><ele>28.0</ele><time>2026-04-05T07:23:41.367Z</time></trkpt><trkpt lat="44.1813396" lon="12.1392563"><ele>27.799999999999997</ele><time>2026-04-05T07:23:43.37Z</time></trkpt><trkpt lat="44.1813144" lon="12.1393454"><ele>27.599999999999998</ele><time>2026-04-05T07:23:44.363Z</time></trkpt><trkpt lat="44.1813017" lon="12.1394343"><ele>27.400000000000002</ele><time>2026-04-05T07:23:45.364Z</time></trkpt><trkpt lat="44.181299" lon="12.1395241"><ele>27.200000000000003</ele><time>2026-04-05T07:23:46.367Z</time></trkpt><trkpt lat="44.1812893" lon="12.1397035"><ele>27.0</ele><time>2026-04-05T07:23:48.375Z</time></trkpt><trkpt lat="44.1812544" lon="12.1398684"><ele>27.0</ele><time>2026-04-05T07:23:50.362Z</time></trkpt><trkpt lat="44.1811651" lon="12.1399918"><ele>27.000000000000004</ele><time>2026-04-05T07:23:52.365Z</time></trkpt><trkpt lat="44.1811116" lon="12.1400456"><ele>27.000000000000004</ele><time>2026-04-05T07:23:53.375Z</time></trkpt><trkpt lat="44.1810613" lon="12.140101"><ele>27.0</ele><time>2026-04-05T07:23:54.367Z</time></trkpt><trkpt lat="44.1809755" lon="12.1402254"><ele>27.0</ele><time>2026-04-05T07:23:56.39Z</time></trkpt><trkpt lat="44.1808987" lon="12.1403574"><ele>27.0</ele><time>2026-04-05T07:23:58.369Z</time></trkpt><trkpt lat="44.1808203" lon="12.1404901"><ele>27.000000000000004</ele><time>2026-04-05T07:24:00.368Z</time></trkpt><trkpt lat="44.1807391" lon="12.1406143"><ele>27.000000000000004</ele><time>2026-04-05T07:24:02.375Z</time></trkpt><trkpt lat="44.1806991" lon="12.1406826"><ele>27.0</ele><time>2026-04-05T07:24:03.368Z</time></trkpt><trkpt lat="44.1806212" lon="12.1408153"><ele>27.0</ele><time>2026-04-05T07:24:05.37Z</time></trkpt><trkpt lat="44.1805853" lon="12.1408881"><ele>26.5</ele><time>2026-04-05T07:24:06.369Z</time></trkpt><trkpt lat="44.1805203" lon="12.1410356"><ele>26.0</ele><time>2026-04-05T07:24:08.37Z</time></trkpt><trkpt lat="44.180454" lon="12.1411838"><ele>25.5</ele><time>2026-04-05T07:24:10.37Z</time></trkpt><trkpt lat="44.1803891" lon="12.1413199"><ele>25.0</ele><time>2026-04-05T07:24:12.373Z</time></trkpt><trkpt lat="44.1803251" lon="12.1414648"><ele>24.8</ele><time>2026-04-05T07:24:14.371Z</time></trkpt><trkpt lat="44.1802632" lon="12.1416161"><ele>24.6</ele><time>2026-04-05T07:24:16.371Z</time></trkpt><trkpt lat="44.1802054" lon="12.1417633"><ele>24.4</ele><time>2026-04-05T07:24:18.37Z</time></trkpt><trkpt lat="44.1801474" lon="12.1419126"><ele>24.2</ele><time>2026-04-05T07:24:20.369Z</time></trkpt><trkpt lat="44.1801197" lon="12.1419917"><ele>24.0</ele><time>2026-04-05T07:24:21.367Z</time></trkpt><trkpt lat="44.1800601" lon="12.1421347"><ele>24.0</ele><time>2026-04-05T07:24:23.37Z</time></trkpt><trkpt lat="44.1800019" lon="12.1422784"><ele>24.0</ele><time>2026-04-05T07:24:25.377Z</time></trkpt><trkpt lat="44.1799394" lon="12.1424268"><ele>24.0</ele><time>2026-04-05T07:24:27.387Z</time></trkpt><trkpt lat="44.1798776" lon="12.1425709"><ele>24.0</ele><time>2026-04-05T07:24:29.37Z</time></trkpt><trkpt lat="44.1798457" lon="12.1426481"><ele>24.0</ele><time>2026-04-05T07:24:30.367Z</time></trkpt><trkpt lat="44.1797843" lon="12.1427962"><ele>24.333333333333332</ele><time>2026-04-05T07:24:32.37Z</time></trkpt><trkpt lat="44.1797205" lon="12.1429427"><ele>24.666666666666664</ele><time>2026-04-05T07:24:34.371Z</time></trkpt><trkpt lat="44.1796886" lon="12.1430194"><ele>25.0</ele><time>2026-04-05T07:24:35.371Z</time></trkpt><trkpt lat="44.179656" lon="12.1430958"><ele>25.333333333333332</ele><time>2026-04-05T07:24:36.368Z</time></trkpt><trkpt lat="44.1796228" lon="12.1431741"><ele>25.666666666666664</ele><time>2026-04-05T07:24:37.37Z</time></trkpt><trkpt lat="44.1795616" lon="12.1433239"><ele>26.0</ele><time>2026-04-05T07:24:39.368Z</time></trkpt><trkpt lat="44.1795317" lon="12.1434015"><ele>26.0</ele><time>2026-04-05T07:24:40.369Z</time></trkpt><trkpt lat="44.1794986" lon="12.1434768"><ele>26.0</ele><time>2026-04-05T07:24:41.375Z</time></trkpt><trkpt lat="44.1794332" lon="12.1436342"><ele>26.0</ele><time>2026-04-05T07:24:43.369Z</time></trkpt><trkpt lat="44.1794012" lon="12.143711"><ele>26.0</ele><time>2026-04-05T07:24:44.37Z</time></trkpt><trkpt lat="44.1793433" lon="12.143858"><ele>26.0</ele><time>2026-04-05T07:24:46.369Z</time></trkpt><trkpt lat="44.1792805" lon="12.1440059"><ele>26.0</ele><time>2026-04-05T07:24:48.377Z</time></trkpt><trkpt lat="44.1792196" lon="12.1441527"><ele>26.0</ele><time>2026-04-05T07:24:50.369Z</time></trkpt><trkpt lat="44.1791866" lon="12.1442277"><ele>26.0</ele><time>2026-04-05T07:24:51.369Z</time></trkpt><trkpt lat="44.1791222" lon="12.1443777"><ele>26.0</ele><time>2026-04-05T07:24:53.371Z</time></trkpt><trkpt lat="44.1790885" lon="12.1444557"><ele>26.0</ele><time>2026-04-05T07:24:54.377Z</time></trkpt><trkpt lat="44.1790214" lon="12.1446029"><ele>25.75</ele><time>2026-04-05T07:24:56.368Z</time></trkpt><trkpt lat="44.178961" lon="12.1447476"><ele>25.5</ele><time>2026-04-05T07:24:58.387Z</time></trkpt><trkpt lat="44.1789053" lon="12.1448932"><ele>25.25</ele><time>2026-04-05T07:25:00.369Z</time></trkpt><trkpt lat="44.1788466" lon="12.1450355"><ele>25.0</ele><time>2026-04-05T07:25:02.366Z</time></trkpt><trkpt lat="44.178788" lon="12.1451769"><ele>24.8</ele><time>2026-04-05T07:25:04.37Z</time></trkpt><trkpt lat="44.1787563" lon="12.1452538"><ele>24.6</ele><time>2026-04-05T07:25:05.368Z</time></trkpt><trkpt lat="44.1786944" lon="12.1453993"><ele>24.4</ele><time>2026-04-05T07:25:07.365Z</time></trkpt><trkpt lat="44.1786294" lon="12.1455473"><ele>24.2</ele><time>2026-04-05T07:25:09.368Z</time></trkpt><trkpt lat="44.1785677" lon="12.1456945"><ele>24.0</ele><time>2026-04-05T07:25:11.37Z</time></trkpt><trkpt lat="44.178507" lon="12.1458405"><ele>24.5</ele><time>2026-04-05T07:25:13.371Z</time></trkpt><trkpt lat="44.1784443" lon="12.1459812"><ele>25.0</ele><time>2026-04-05T07:25:15.367Z</time></trkpt><trkpt lat="44.1783895" lon="12.146122"><ele>25.5</ele><time>2026-04-05T07:25:17.366Z</time></trkpt><trkpt lat="44.1783283" lon="12.1462647"><ele>26.0</ele><time>2026-04-05T07:25:19.368Z</time></trkpt><trkpt lat="44.1782616" lon="12.1464017"><ele>26.0</ele><time>2026-04-05T07:25:21.367Z</time></trkpt><trkpt lat="44.1782025" lon="12.146547"><ele>26.0</ele><time>2026-04-05T07:25:23.365Z</time></trkpt><trkpt lat="44.1781434" lon="12.146693"><ele>26.0</ele><time>2026-04-05T07:25:25.366Z</time></trkpt><trkpt lat="44.1780805" lon="12.1468321"><ele>26.0</ele><time>2026-04-05T07:25:27.366Z</time></trkpt><trkpt lat="44.1780185" lon="12.1469719"><ele>26.0</ele><time>2026-04-05T07:25:29.384Z</time></trkpt><trkpt lat="44.1779581" lon="12.1471164"><ele>26.0</ele><time>2026-04-05T07:25:31.373Z</time></trkpt><trkpt lat="44.1779034" lon="12.1472631"><ele>26.0</ele><time>2026-04-05T07:25:33.364Z</time></trkpt><trkpt lat="44.1778493" lon="12.1474098"><ele>26.0</ele><time>2026-04-05T07:25:35.365Z</time></trkpt><trkpt lat="44.1777948" lon="12.1475482"><ele>26.200000000000003</ele><time>2026-04-05T07:25:37.367Z</time></trkpt><trkpt lat="44.1777407" lon="12.1476826"><ele>26.400000000000002</ele><time>2026-04-05T07:25:39.366Z</time></trkpt><trkpt lat="44.177686" lon="12.147812"><ele>26.6</ele><time>2026-04-05T07:25:41.367Z</time></trkpt><trkpt lat="44.1776305" lon="12.1479463"><ele>26.8</ele><time>2026-04-05T07:25:43.365Z</time></trkpt><trkpt lat="44.1775731" lon="12.1480855"><ele>27.0</ele><time>2026-04-05T07:25:45.367Z</time></trkpt><trkpt lat="44.1775207" lon="12.1482287"><ele>27.0</ele><time>2026-04-05T07:25:47.362Z</time></trkpt><trkpt lat="44.1774622" lon="12.1483684"><ele>27.000000000000004</ele><time>2026-04-05T07:25:49.366Z</time></trkpt><trkpt lat="44.1774052" lon="12.1485001"><ele>27.000000000000004</ele><time>2026-04-05T07:25:51.363Z</time></trkpt><trkpt lat="44.1773511" lon="12.1486363"><ele>27.0</ele><time>2026-04-05T07:25:53.368Z</time></trkpt><trkpt lat="44.1773094" lon="12.1487697"><ele>27.0</ele><time>2026-04-05T07:25:55.365Z</time></trkpt><trkpt lat="44.1772566" lon="12.1488987"><ele>26.8</ele><time>2026-04-05T07:25:57.37Z</time></trkpt><trkpt lat="44.1771772" lon="12.1490001"><ele>26.6</ele><time>2026-04-05T07:25:59.369Z</time></trkpt><trkpt lat="44.1770609" lon="12.1489939"><ele>26.400000000000002</ele><time>2026-04-05T07:26:01.364Z</time></trkpt><trkpt lat="44.1769974" lon="12.1489753"><ele>26.200000000000003</ele><time>2026-04-05T07:26:02.365Z</time></trkpt><trkpt lat="44.1768703" lon="12.1489593"><ele>26.0</ele><time>2026-04-05T07:26:04.364Z</time></trkpt><trkpt lat="44.1768044" lon="12.1489574"><ele>26.0</ele><time>2026-04-05T07:26:05.365Z</time></trkpt><trkpt lat="44.1766818" lon="12.1489558"><ele>26.0</ele><time>2026-04-05T07:26:07.371Z</time></trkpt><trkpt lat="44.176566" lon="12.1489578"><ele>26.0</ele><time>2026-04-05T07:26:09.364Z</time></trkpt><trkpt lat="44.1764546" lon="12.1489574"><ele>26.0</ele><time>2026-04-05T07:26:11.365Z</time></trkpt><trkpt lat="44.17634" lon="12.1489561"><ele>25.75</ele><time>2026-04-05T07:26:13.365Z</time></trkpt><trkpt lat="44.1762274" lon="12.1489578"><ele>25.5</ele><time>2026-04-05T07:26:15.365Z</time></trkpt><trkpt lat="44.1761204" lon="12.1489587"><ele>25.25</ele><time>2026-04-05T07:26:17.368Z</time></trkpt><trkpt lat="44.1760056" lon="12.1489531"><ele>25.0</ele><time>2026-04-05T07:26:19.377Z</time></trkpt><trkpt lat="44.1758849" lon="12.148947"><ele>25.0</ele><time>2026-04-05T07:26:21.368Z</time></trkpt><trkpt lat="44.1757668" lon="12.1489384"><ele>25.0</ele><time>2026-04-05T07:26:23.368Z</time></trkpt><trkpt lat="44.1756463" lon="12.1489335"><ele>25.0</ele><time>2026-04-05T07:26:25.366Z</time></trkpt><trkpt lat="44.1755226" lon="12.1489359"><ele>25.0</ele><time>2026-04-05T07:26:27.369Z</time></trkpt><trkpt lat="44.1754017" lon="12.1489332"><ele>24.8</ele><time>2026-04-05T07:26:29.379Z</time></trkpt><trkpt lat="44.1752786" lon="12.1489369"><ele>24.6</ele><time>2026-04-05T07:26:31.385Z</time></trkpt><trkpt lat="44.1752155" lon="12.1489377"><ele>24.4</ele><time>2026-04-05T07:26:32.367Z</time></trkpt><trkpt lat="44.1750979" lon="12.1489485"><ele>24.2</ele><time>2026-04-05T07:26:34.364Z</time></trkpt><trkpt lat="44.1749837" lon="12.148949"><ele>24.0</ele><time>2026-04-05T07:26:36.364Z</time></trkpt><trkpt lat="44.1748643" lon="12.1489394"><ele>24.25</ele><time>2026-04-05T07:26:38.368Z</time></trkpt><trkpt lat="44.1747434" lon="12.1489303"><ele>24.5</ele><time>2026-04-05T07:26:40.374Z</time></trkpt><trkpt lat="44.1746252" lon="12.1489311"><ele>24.75</ele><time>2026-04-05T07:26:42.366Z</time></trkpt><trkpt lat="44.1745094" lon="12.1489371"><ele>25.0</ele><time>2026-04-05T07:26:44.368Z</time></trkpt><trkpt lat="44.1743924" lon="12.1489379"><ele>25.0</ele><time>2026-04-05T07:26:46.365Z</time></trkpt><trkpt lat="44.1742702" lon="12.1489372"><ele>25.0</ele><time>2026-04-05T07:26:48.366Z</time></trkpt><trkpt lat="44.174148" lon="12.1489366"><ele>25.0</ele><time>2026-04-05T07:26:50.369Z</time></trkpt><trkpt lat="44.174085" lon="12.1489353"><ele>25.0</ele><time>2026-04-05T07:26:51.367Z</time></trkpt><trkpt lat="44.173959" lon="12.1489328"><ele>25.0</ele><time>2026-04-05T07:26:53.382Z</time></trkpt><trkpt lat="44.173839" lon="12.1489346"><ele>25.0</ele><time>2026-04-05T07:26:55.368Z</time></trkpt><trkpt lat="44.173725" lon="12.1489377"><ele>25.0</ele><time>2026-04-05T07:26:57.369Z</time></trkpt><trkpt lat="44.1736128" lon="12.1489413"><ele>25.0</ele><time>2026-04-05T07:26:59.37Z</time></trkpt><trkpt lat="44.1735004" lon="12.1489377"><ele>25.0</ele><time>2026-04-05T07:27:01.376Z</time></trkpt><trkpt lat="44.1733772" lon="12.1489348"><ele>25.0</ele><time>2026-04-05T07:27:03.378Z</time></trkpt><trkpt lat="44.1732566" lon="12.1489339"><ele>25.0</ele><time>2026-04-05T07:27:05.369Z</time></trkpt><trkpt lat="44.1731419" lon="12.1489315"><ele>25.0</ele><time>2026-04-05T07:27:07.368Z</time></trkpt><trkpt lat="44.1730273" lon="12.1489292"><ele>25.0</ele><time>2026-04-05T07:27:09.366Z</time></trkpt><trkpt lat="44.1729118" lon="12.1489263"><ele>25.0</ele><time>2026-04-05T07:27:11.368Z</time></trkpt><trkpt lat="44.1728003" lon="12.1489249"><ele>25.0</ele><time>2026-04-05T07:27:13.382Z</time></trkpt><trkpt lat="44.1726878" lon="12.1489285"><ele>25.0</ele><time>2026-04-05T07:27:15.367Z</time></trkpt><trkpt lat="44.172573" lon="12.1489345"><ele>25.0</ele><time>2026-04-05T07:27:17.368Z</time></trkpt><trkpt lat="44.1724553" lon="12.1489269"><ele>24.8</ele><time>2026-04-05T07:27:19.367Z</time></trkpt><trkpt lat="44.172345" lon="12.1489332"><ele>24.6</ele><time>2026-04-05T07:27:21.373Z</time></trkpt><trkpt lat="44.1722425" lon="12.1489662"><ele>24.4</ele><time>2026-04-05T07:27:23.382Z</time></trkpt><trkpt lat="44.1721792" lon="12.1490822"><ele>24.2</ele><time>2026-04-05T07:27:25.373Z</time></trkpt><trkpt lat="44.1721717" lon="12.1491749"><ele>24.0</ele><time>2026-04-05T07:27:26.362Z</time></trkpt><trkpt lat="44.1721707" lon="12.1492674"><ele>24.0</ele><time>2026-04-05T07:27:27.367Z</time></trkpt><trkpt lat="44.1721731" lon="12.1493633"><ele>24.0</ele><time>2026-04-05T07:27:28.371Z</time></trkpt><trkpt lat="44.1721784" lon="12.1494534"><ele>24.0</ele><time>2026-04-05T07:27:29.369Z</time></trkpt><trkpt lat="44.1721881" lon="12.1496231"><ele>24.0</ele><time>2026-04-05T07:27:31.373Z</time></trkpt><trkpt lat="44.1721902" lon="12.1497904"><ele>24.0</ele><time>2026-04-05T07:27:33.395Z</time></trkpt><trkpt lat="44.1721918" lon="12.1499511"><ele>24.25</ele><time>2026-04-05T07:27:35.377Z</time></trkpt><trkpt lat="44.1721929" lon="12.1501214"><ele>24.5</ele><time>2026-04-05T07:27:37.368Z</time></trkpt><trkpt lat="44.172202" lon="12.1502884"><ele>24.75</ele><time>2026-04-05T07:27:39.368Z</time></trkpt><trkpt lat="44.1722074" lon="12.1504554"><ele>25.0</ele><time>2026-04-05T07:27:41.368Z</time></trkpt><trkpt lat="44.1722068" lon="12.1506186"><ele>25.0</ele><time>2026-04-05T07:27:43.383Z</time></trkpt><trkpt lat="44.1722099" lon="12.1507795"><ele>25.0</ele><time>2026-04-05T07:27:45.366Z</time></trkpt><trkpt lat="44.1722059" lon="12.150944"><ele>25.0</ele><time>2026-04-05T07:27:47.366Z</time></trkpt><trkpt lat="44.1722052" lon="12.151108"><ele>25.0</ele><time>2026-04-05T07:27:49.375Z</time></trkpt><trkpt lat="44.172206" lon="12.1512765"><ele>25.0</ele><time>2026-04-05T07:27:51.366Z</time></trkpt><trkpt lat="44.172218" lon="12.1514381"><ele>25.0</ele><time>2026-04-05T07:27:53.379Z</time></trkpt><trkpt lat="44.17222" lon="12.1515974"><ele>25.0</ele><time>2026-04-05T07:27:55.375Z</time></trkpt><trkpt lat="44.172221" lon="12.1517738"><ele>25.0</ele><time>2026-04-05T07:27:57.367Z</time></trkpt><trkpt lat="44.1722161" lon="12.151944"><ele>25.25</ele><time>2026-04-05T07:27:59.368Z</time></trkpt><trkpt lat="44.1722111" lon="12.1521078"><ele>25.5</ele><time>2026-04-05T07:28:01.366Z</time></trkpt><trkpt lat="44.1722012" lon="12.1522679"><ele>25.75</ele><time>2026-04-05T07:28:03.375Z</time></trkpt><trkpt lat="44.1721784" lon="12.1524262"><ele>26.0</ele><time>2026-04-05T07:28:05.366Z</time></trkpt><trkpt lat="44.1720934" lon="12.1525509"><ele>26.0</ele><time>2026-04-05T07:28:07.37Z</time></trkpt><trkpt lat="44.1720385" lon="12.1526067"><ele>26.0</ele><time>2026-04-05T07:28:08.372Z</time></trkpt><trkpt lat="44.171986" lon="12.1526593"><ele>26.0</ele><time>2026-04-05T07:28:09.372Z</time></trkpt><trkpt lat="44.171932" lon="12.1527172"><ele>26.0</ele><time>2026-04-05T07:28:10.37Z</time></trkpt><trkpt lat="44.1718783" lon="12.1527743"><ele>26.0</ele><time>2026-04-05T07:28:11.379Z</time></trkpt><trkpt lat="44.1718302" lon="12.1528323"><ele>26.0</ele><time>2026-04-05T07:28:12.37Z</time></trkpt><trkpt lat="44.1717793" lon="12.152888"><ele>26.0</ele><time>2026-04-05T07:28:13.382Z</time></trkpt><trkpt lat="44.1716869" lon="12.1529965"><ele>26.0</ele><time>2026-04-05T07:28:15.369Z</time></trkpt><trkpt lat="44.1715959" lon="12.1531108"><ele>26.0</ele><time>2026-04-05T07:28:17.372Z</time></trkpt><trkpt lat="44.1715096" lon="12.1532171"><ele>26.0</ele><time>2026-04-05T07:28:19.367Z</time></trkpt><trkpt lat="44.1714235" lon="12.1533248"><ele>26.0</ele><time>2026-04-05T07:28:21.369Z</time></trkpt><trkpt lat="44.1713491" lon="12.1534596"><ele>25.25</ele><time>2026-04-05T07:28:23.376Z</time></trkpt><trkpt lat="44.1712868" lon="12.1535969"><ele>24.5</ele><time>2026-04-05T07:28:25.376Z</time></trkpt><trkpt lat="44.1712229" lon="12.1537428"><ele>23.75</ele><time>2026-04-05T07:28:27.368Z</time></trkpt><trkpt lat="44.1711508" lon="12.1538787"><ele>23.0</ele><time>2026-04-05T07:28:29.374Z</time></trkpt><trkpt lat="44.1710787" lon="12.154012"><ele>23.5</ele><time>2026-04-05T07:28:31.369Z</time></trkpt><trkpt lat="44.1710075" lon="12.1541447"><ele>24.0</ele><time>2026-04-05T07:28:33.383Z</time></trkpt><trkpt lat="44.1709363" lon="12.1542785"><ele>24.5</ele><time>2026-04-05T07:28:35.368Z</time></trkpt><trkpt lat="44.1708636" lon="12.1544084"><ele>25.0</ele><time>2026-04-05T07:28:37.371Z</time></trkpt><trkpt lat="44.1707866" lon="12.1545381"><ele>25.0</ele><time>2026-04-05T07:28:39.377Z</time></trkpt><trkpt lat="44.1707296" lon="12.1546678"><ele>25.0</ele><time>2026-04-05T07:28:41.373Z</time></trkpt><trkpt lat="44.1706824" lon="12.1548076"><ele>25.0</ele><time>2026-04-05T07:28:43.38Z</time></trkpt><trkpt lat="44.1706337" lon="12.1549507"><ele>25.0</ele><time>2026-04-05T07:28:45.373Z</time></trkpt><trkpt lat="44.1705986" lon="12.1551088"><ele>24.75</ele><time>2026-04-05T07:28:47.37Z</time></trkpt><trkpt lat="44.1705693" lon="12.1552583"><ele>24.5</ele><time>2026-04-05T07:28:49.369Z</time></trkpt><trkpt lat="44.1705476" lon="12.1554215"><ele>24.25</ele><time>2026-04-05T07:28:51.371Z</time></trkpt><trkpt lat="44.1705319" lon="12.1555776"><ele>24.0</ele><time>2026-04-05T07:28:53.383Z</time></trkpt><trkpt lat="44.1705094" lon="12.1557327"><ele>24.0</ele><time>2026-04-05T07:28:55.372Z</time></trkpt><trkpt lat="44.1704875" lon="12.1558925"><ele>24.0</ele><time>2026-04-05T07:28:57.371Z</time></trkpt><trkpt lat="44.1704589" lon="12.1560516"><ele>24.0</ele><time>2026-04-05T07:28:59.373Z</time></trkpt><trkpt lat="44.1704286" lon="12.1562109"><ele>24.0</ele><time>2026-04-05T07:29:01.369Z</time></trkpt><trkpt lat="44.1704039" lon="12.1563709"><ele>24.0</ele><time>2026-04-05T07:29:03.38Z</time></trkpt><trkpt lat="44.1703804" lon="12.156528"><ele>24.0</ele><time>2026-04-05T07:29:05.395Z</time></trkpt><trkpt lat="44.1703556" lon="12.1566914"><ele>24.0</ele><time>2026-04-05T07:29:07.365Z</time></trkpt><trkpt lat="44.1703317" lon="12.1568591"><ele>24.0</ele><time>2026-04-05T07:29:09.38Z</time></trkpt><trkpt lat="44.1703011" lon="12.1570151"><ele>24.2</ele><time>2026-04-05T07:29:11.381Z</time></trkpt><trkpt lat="44.1702811" lon="12.1571696"><ele>24.4</ele><time>2026-04-05T07:29:13.381Z</time></trkpt><trkpt lat="44.170265" lon="12.1573283"><ele>24.6</ele><time>2026-04-05T07:29:15.372Z</time></trkpt><trkpt lat="44.1702521" lon="12.1574773"><ele>24.8</ele><time>2026-04-05T07:29:17.373Z</time></trkpt><trkpt lat="44.1702393" lon="12.1576178"><ele>25.0</ele><time>2026-04-05T07:29:19.372Z</time></trkpt><trkpt lat="44.1702281" lon="12.1577563"><ele>25.4</ele><time>2026-04-05T07:29:21.374Z</time></trkpt><trkpt lat="44.1702222" lon="12.1578837"><ele>25.8</ele><time>2026-04-05T07:29:23.389Z</time></trkpt><trkpt lat="44.1702279" lon="12.1580212"><ele>26.200000000000003</ele><time>2026-04-05T07:29:25.377Z</time></trkpt><trkpt lat="44.1702369" lon="12.1581726"><ele>26.6</ele><time>2026-04-05T07:29:27.379Z</time></trkpt><trkpt lat="44.1702506" lon="12.1583328"><ele>27.0</ele><time>2026-04-05T07:29:29.378Z</time></trkpt><trkpt lat="44.1702716" lon="12.1584996"><ele>27.200000000000003</ele><time>2026-04-05T07:29:31.375Z</time></trkpt><trkpt lat="44.1702868" lon="12.1586684"><ele>27.400000000000002</ele><time>2026-04-05T07:29:33.388Z</time></trkpt><trkpt lat="44.1702949" lon="12.1588396"><ele>27.599999999999998</ele><time>2026-04-05T07:29:35.379Z</time></trkpt><trkpt lat="44.1703083" lon="12.158988"><ele>27.799999999999997</ele><time>2026-04-05T07:29:37.37Z</time></trkpt><trkpt lat="44.1702893" lon="12.1591185"><ele>28.0</ele><time>2026-04-05T07:29:39.373Z</time></trkpt><trkpt lat="44.170204" lon="12.1591639"><ele>28.000000000000004</ele><time>2026-04-05T07:29:41.38Z</time></trkpt><trkpt lat="44.1701113" lon="12.1592489"><ele>28.0</ele><time>2026-04-05T07:29:43.38Z</time></trkpt><trkpt lat="44.1700604" lon="12.1593074"><ele>28.0</ele><time>2026-04-05T07:29:44.382Z</time></trkpt><trkpt lat="44.1700027" lon="12.1593674"><ele>28.0</ele><time>2026-04-05T07:29:45.372Z</time></trkpt><trkpt lat="44.1699466" lon="12.1594184"><ele>28.000000000000004</ele><time>2026-04-05T07:29:46.367Z</time></trkpt><trkpt lat="44.1698929" lon="12.1594696"><ele>28.0</ele><time>2026-04-05T07:29:47.369Z</time></trkpt><trkpt lat="44.1698003" lon="12.1595773"><ele>28.0</ele><time>2026-04-05T07:29:49.376Z</time></trkpt><trkpt lat="44.1697009" lon="12.1596874"><ele>27.999999999999996</ele><time>2026-04-05T07:29:51.372Z</time></trkpt><trkpt lat="44.1696468" lon="12.1597424"><ele>27.999999999999996</ele><time>2026-04-05T07:29:52.369Z</time></trkpt><trkpt lat="44.1695959" lon="12.1597969"><ele>28.0</ele><time>2026-04-05T07:29:53.382Z</time></trkpt><trkpt lat="44.1694934" lon="12.1598982"><ele>28.0</ele><time>2026-04-05T07:29:55.377Z</time></trkpt><trkpt lat="44.1693937" lon="12.1599985"><ele>27.833333333333336</ele><time>2026-04-05T07:29:57.368Z</time></trkpt><trkpt lat="44.1693414" lon="12.160048"><ele>27.666666666666668</ele><time>2026-04-05T07:29:58.374Z</time></trkpt><trkpt lat="44.1692899" lon="12.1601"><ele>27.5</ele><time>2026-04-05T07:29:59.374Z</time></trkpt><trkpt lat="44.1691937" lon="12.1602025"><ele>27.333333333333336</ele><time>2026-04-05T07:30:01.369Z</time></trkpt><trkpt lat="44.1691414" lon="12.1602543"><ele>27.166666666666668</ele><time>2026-04-05T07:30:02.373Z</time></trkpt><trkpt lat="44.1690365" lon="12.1603482"><ele>27.0</ele><time>2026-04-05T07:30:04.368Z</time></trkpt><trkpt lat="44.1689323" lon="12.1604287"><ele>26.75</ele><time>2026-04-05T07:30:06.37Z</time></trkpt><trkpt lat="44.168827" lon="12.1604727"><ele>26.5</ele><time>2026-04-05T07:30:08.369Z</time></trkpt><trkpt lat="44.1687093" lon="12.160476"><ele>26.25</ele><time>2026-04-05T07:30:10.363Z</time></trkpt><trkpt lat="44.1685925" lon="12.1604593"><ele>26.0</ele><time>2026-04-05T07:30:12.37Z</time></trkpt><trkpt lat="44.1684721" lon="12.160451"><ele>26.0</ele><time>2026-04-05T07:30:14.371Z</time></trkpt><trkpt lat="44.1683513" lon="12.160441"><ele>26.0</ele><time>2026-04-05T07:30:16.372Z</time></trkpt><trkpt lat="44.1682332" lon="12.160419"><ele>26.0</ele><time>2026-04-05T07:30:18.374Z</time></trkpt><trkpt lat="44.1681196" lon="12.1604034"><ele>26.0</ele><time>2026-04-05T07:30:20.372Z</time></trkpt><trkpt lat="44.1680053" lon="12.1603786"><ele>25.75</ele><time>2026-04-05T07:30:22.373Z</time></trkpt><trkpt lat="44.1678946" lon="12.1603531"><ele>25.5</ele><time>2026-04-05T07:30:24.371Z</time></trkpt><trkpt lat="44.1677835" lon="12.160337"><ele>25.25</ele><time>2026-04-05T07:30:26.371Z</time></trkpt><trkpt lat="44.167674" lon="12.1603277"><ele>25.0</ele><time>2026-04-05T07:30:28.373Z</time></trkpt><trkpt lat="44.1675552" lon="12.1603054"><ele>25.0</ele><time>2026-04-05T07:30:30.368Z</time></trkpt><trkpt lat="44.1674322" lon="12.1602931"><ele>25.0</ele><time>2026-04-05T07:30:32.374Z</time></trkpt><trkpt lat="44.1673223" lon="12.1602823"><ele>25.0</ele><time>2026-04-05T07:30:34.374Z</time></trkpt><trkpt lat="44.1672152" lon="12.1602797"><ele>25.0</ele><time>2026-04-05T07:30:36.368Z</time></trkpt><trkpt lat="44.1671147" lon="12.1602778"><ele>25.0</ele><time>2026-04-05T07:30:38.386Z</time></trkpt><trkpt lat="44.1670273" lon="12.1603098"><ele>25.142857142857146</ele><time>2026-04-05T07:30:40.374Z</time></trkpt><trkpt lat="44.1669837" lon="12.1604421"><ele>25.285714285714285</ele><time>2026-04-05T07:30:42.364Z</time></trkpt><trkpt lat="44.1669751" lon="12.1605355"><ele>25.42857142857143</ele><time>2026-04-05T07:30:43.378Z</time></trkpt><trkpt lat="44.1669712" lon="12.1606291"><ele>25.571428571428573</ele><time>2026-04-05T07:30:44.374Z</time></trkpt><trkpt lat="44.166966" lon="12.1607234"><ele>25.714285714285715</ele><time>2026-04-05T07:30:45.371Z</time></trkpt><trkpt lat="44.166961" lon="12.1608133"><ele>25.857142857142858</ele><time>2026-04-05T07:30:46.377Z</time></trkpt><trkpt lat="44.1669541" lon="12.1609006"><ele>26.0</ele><time>2026-04-05T07:30:47.374Z</time></trkpt><trkpt lat="44.1669514" lon="12.1609901"><ele>26.4</ele><time>2026-04-05T07:30:48.364Z</time></trkpt><trkpt lat="44.1669292" lon="12.1611579"><ele>26.8</ele><time>2026-04-05T07:30:50.374Z</time></trkpt><trkpt lat="44.1669093" lon="12.1613292"><ele>27.199999999999996</ele><time>2026-04-05T07:30:52.385Z</time></trkpt><trkpt lat="44.1669042" lon="12.1614184"><ele>27.599999999999998</ele><time>2026-04-05T07:30:53.386Z</time></trkpt><trkpt lat="44.1668993" lon="12.1615108"><ele>28.0</ele><time>2026-04-05T07:30:54.373Z</time></trkpt><trkpt lat="44.1668822" lon="12.1616812"><ele>28.0</ele><time>2026-04-05T07:30:56.374Z</time></trkpt><trkpt lat="44.1668603" lon="12.1618497"><ele>27.999999999999996</ele><time>2026-04-05T07:30:58.386Z</time></trkpt><trkpt lat="44.1668434" lon="12.162019"><ele>27.999999999999996</ele><time>2026-04-05T07:31:00.374Z</time></trkpt><trkpt lat="44.1668275" lon="12.1621903"><ele>28.0</ele><time>2026-04-05T07:31:02.378Z</time></trkpt><trkpt lat="44.1668213" lon="12.162278"><ele>28.0</ele><time>2026-04-05T07:31:03.379Z</time></trkpt><trkpt lat="44.1668063" lon="12.1624473"><ele>28.0</ele><time>2026-04-05T07:31:05.382Z</time></trkpt><trkpt lat="44.1667773" lon="12.1626183"><ele>28.0</ele><time>2026-04-05T07:31:07.372Z</time></trkpt><trkpt lat="44.1667628" lon="12.1627838"><ele>28.0</ele><time>2026-04-05T07:31:09.387Z</time></trkpt><trkpt lat="44.1667429" lon="12.1629524"><ele>28.0</ele><time>2026-04-05T07:31:11.372Z</time></trkpt><trkpt lat="44.1667229" lon="12.1631194"><ele>27.75</ele><time>2026-04-05T07:31:13.369Z</time></trkpt><trkpt lat="44.1667043" lon="12.1632837"><ele>27.5</ele><time>2026-04-05T07:31:15.371Z</time></trkpt><trkpt lat="44.1666887" lon="12.1634513"><ele>27.25</ele><time>2026-04-05T07:31:17.373Z</time></trkpt><trkpt lat="44.1666714" lon="12.163621"><ele>27.0</ele><time>2026-04-05T07:31:19.373Z</time></trkpt><trkpt lat="44.166663" lon="12.1637901"><ele>27.0</ele><time>2026-04-05T07:31:21.369Z</time></trkpt><trkpt lat="44.1666656" lon="12.1639594"><ele>27.0</ele><time>2026-04-05T07:31:23.375Z</time></trkpt><trkpt lat="44.1666632" lon="12.1641262"><ele>27.0</ele><time>2026-04-05T07:31:25.371Z</time></trkpt><trkpt lat="44.1666559" lon="12.164288"><ele>27.0</ele><time>2026-04-05T07:31:27.367Z</time></trkpt><trkpt lat="44.1666416" lon="12.1644462"><ele>27.0</ele><time>2026-04-05T07:31:29.37Z</time></trkpt><trkpt lat="44.1666365" lon="12.1646129"><ele>27.0</ele><time>2026-04-05T07:31:31.374Z</time></trkpt><trkpt lat="44.1666239" lon="12.1647744"><ele>27.0</ele><time>2026-04-05T07:31:33.368Z</time></trkpt><trkpt lat="44.1666154" lon="12.1649293"><ele>27.0</ele><time>2026-04-05T07:31:35.37Z</time></trkpt><trkpt lat="44.1666161" lon="12.1650874"><ele>27.0</ele><time>2026-04-05T07:31:37.374Z</time></trkpt><trkpt lat="44.1666148" lon="12.1652524"><ele>27.000000000000004</ele><time>2026-04-05T07:31:39.374Z</time></trkpt><trkpt lat="44.1666125" lon="12.1654142"><ele>27.000000000000004</ele><time>2026-04-05T07:31:41.371Z</time></trkpt><trkpt lat="44.1666103" lon="12.1655761"><ele>27.0</ele><time>2026-04-05T07:31:43.373Z</time></trkpt><trkpt lat="44.1665834" lon="12.1657025"><ele>27.0</ele><time>2026-04-05T07:31:45.372Z</time></trkpt><trkpt lat="44.1664804" lon="12.1656984"><ele>27.0</ele><time>2026-04-05T07:31:47.371Z</time></trkpt><trkpt lat="44.1664137" lon="12.1656545"><ele>27.0</ele><time>2026-04-05T07:31:48.369Z</time></trkpt><trkpt lat="44.1663399" lon="12.1656141"><ele>27.0</ele><time>2026-04-05T07:31:49.373Z</time></trkpt><trkpt lat="44.1662739" lon="12.165576"><ele>27.0</ele><time>2026-04-05T07:31:50.373Z</time></trkpt><trkpt lat="44.1662137" lon="12.1655354"><ele>27.0</ele><time>2026-04-05T07:31:51.388Z</time></trkpt><trkpt lat="44.1661506" lon="12.1655023"><ele>27.0</ele><time>2026-04-05T07:31:52.383Z</time></trkpt><trkpt lat="44.1660385" lon="12.1654304"><ele>27.0</ele><time>2026-04-05T07:31:54.371Z</time></trkpt><trkpt lat="44.1659815" lon="12.1653929"><ele>27.000000000000004</ele><time>2026-04-05T07:31:55.372Z</time></trkpt><trkpt lat="44.1658706" lon="12.165324"><ele>27.000000000000004</ele><time>2026-04-05T07:31:57.374Z</time></trkpt><trkpt lat="44.1657579" lon="12.1652585"><ele>27.0</ele><time>2026-04-05T07:31:59.374Z</time></trkpt><trkpt lat="44.1656444" lon="12.1652006"><ele>27.0</ele><time>2026-04-05T07:32:01.37Z</time></trkpt><trkpt lat="44.1655271" lon="12.1651454"><ele>27.0</ele><time>2026-04-05T07:32:03.371Z</time></trkpt><trkpt lat="44.1654186" lon="12.1650943"><ele>27.0</ele><time>2026-04-05T07:32:05.369Z</time></trkpt><trkpt lat="44.1653035" lon="12.1650392"><ele>27.0</ele><time>2026-04-05T07:32:07.371Z</time></trkpt><trkpt lat="44.1651925" lon="12.1649738"><ele>27.0</ele><time>2026-04-05T07:32:09.369Z</time></trkpt><trkpt lat="44.1650835" lon="12.1649043"><ele>27.25</ele><time>2026-04-05T07:32:11.387Z</time></trkpt><trkpt lat="44.1649791" lon="12.1648413"><ele>27.5</ele><time>2026-04-05T07:32:13.376Z</time></trkpt><trkpt lat="44.1648696" lon="12.1647747"><ele>27.75</ele><time>2026-04-05T07:32:15.375Z</time></trkpt><trkpt lat="44.1647642" lon="12.1647104"><ele>28.0</ele><time>2026-04-05T07:32:17.376Z</time></trkpt><trkpt lat="44.1646582" lon="12.1646529"><ele>28.2</ele><time>2026-04-05T07:32:19.374Z</time></trkpt><trkpt lat="44.1645524" lon="12.1645949"><ele>28.4</ele><time>2026-04-05T07:32:21.374Z</time></trkpt><trkpt lat="44.1644455" lon="12.164535"><ele>28.599999999999998</ele><time>2026-04-05T07:32:23.385Z</time></trkpt><trkpt lat="44.1643873" lon="12.1645014"><ele>28.799999999999997</ele><time>2026-04-05T07:32:24.371Z</time></trkpt><trkpt lat="44.1643281" lon="12.164464"><ele>29.0</ele><time>2026-04-05T07:32:25.372Z</time></trkpt><trkpt lat="44.1642144" lon="12.1643967"><ele>29.0</ele><time>2026-04-05T07:32:27.371Z</time></trkpt><trkpt lat="44.1641068" lon="12.1643436"><ele>29.0</ele><time>2026-04-05T07:32:29.371Z</time></trkpt><trkpt lat="44.1640011" lon="12.1642762"><ele>29.0</ele><time>2026-04-05T07:32:31.372Z</time></trkpt><trkpt lat="44.1638881" lon="12.1642135"><ele>29.0</ele><time>2026-04-05T07:32:33.371Z</time></trkpt><trkpt lat="44.1637757" lon="12.1641466"><ele>29.0</ele><time>2026-04-05T07:32:35.373Z</time></trkpt><trkpt lat="44.1636608" lon="12.164084"><ele>29.0</ele><time>2026-04-05T07:32:37.374Z</time></trkpt><trkpt lat="44.1635489" lon="12.1640223"><ele>29.0</ele><time>2026-04-05T07:32:39.373Z</time></trkpt><trkpt lat="44.1634465" lon="12.1639652"><ele>29.0</ele><time>2026-04-05T07:32:41.373Z</time></trkpt><trkpt lat="44.1633433" lon="12.1639101"><ele>29.0</ele><time>2026-04-05T07:32:43.373Z</time></trkpt><trkpt lat="44.1632334" lon="12.1638549"><ele>29.0</ele><time>2026-04-05T07:32:45.374Z</time></trkpt><trkpt lat="44.1631209" lon="12.1637951"><ele>29.0</ele><time>2026-04-05T07:32:47.377Z</time></trkpt><trkpt lat="44.1630147" lon="12.1637376"><ele>29.0</ele><time>2026-04-05T07:32:49.376Z</time></trkpt><trkpt lat="44.1629077" lon="12.1636771"><ele>29.0</ele><time>2026-04-05T07:32:51.378Z</time></trkpt><trkpt lat="44.1628047" lon="12.1636145"><ele>29.0</ele><time>2026-04-05T07:32:53.378Z</time></trkpt><trkpt lat="44.1627025" lon="12.1635583"><ele>29.0</ele><time>2026-04-05T07:32:55.377Z</time></trkpt><trkpt lat="44.1626005" lon="12.1635062"><ele>29.0</ele><time>2026-04-05T07:32:57.377Z</time></trkpt><trkpt lat="44.1625029" lon="12.1634475"><ele>29.0</ele><time>2026-04-05T07:32:59.378Z</time></trkpt><trkpt lat="44.1624007" lon="12.1633878"><ele>29.5</ele><time>2026-04-05T07:33:01.375Z</time></trkpt><trkpt lat="44.1622946" lon="12.1633323"><ele>30.0</ele><time>2026-04-05T07:33:03.377Z</time></trkpt><trkpt lat="44.1621872" lon="12.1632759"><ele>30.5</ele><time>2026-04-05T07:33:05.376Z</time></trkpt><trkpt lat="44.1620811" lon="12.1632077"><ele>31.0</ele><time>2026-04-05T07:33:07.385Z</time></trkpt><trkpt lat="44.1619759" lon="12.1631399"><ele>31.0</ele><time>2026-04-05T07:33:09.374Z</time></trkpt><trkpt lat="44.1618751" lon="12.163083"><ele>31.0</ele><time>2026-04-05T07:33:11.377Z</time></trkpt><trkpt lat="44.1617775" lon="12.1630203"><ele>31.0</ele><time>2026-04-05T07:33:13.374Z</time></trkpt><trkpt lat="44.1616819" lon="12.1629646"><ele>31.0</ele><time>2026-04-05T07:33:15.376Z</time></trkpt><trkpt lat="44.1615805" lon="12.1629027"><ele>31.0</ele><time>2026-04-05T07:33:17.376Z</time></trkpt><trkpt lat="44.1614757" lon="12.1628543"><ele>30.8</ele><time>2026-04-05T07:33:19.39Z</time></trkpt><trkpt lat="44.1613727" lon="12.1628007"><ele>30.6</ele><time>2026-04-05T07:33:21.378Z</time></trkpt><trkpt lat="44.1612716" lon="12.1627411"><ele>30.4</ele><time>2026-04-05T07:33:23.379Z</time></trkpt><trkpt lat="44.1611707" lon="12.1626845"><ele>30.2</ele><time>2026-04-05T07:33:25.376Z</time></trkpt><trkpt lat="44.1610704" lon="12.162627"><ele>30.0</ele><time>2026-04-05T07:33:27.377Z</time></trkpt><trkpt lat="44.1609673" lon="12.1625658"><ele>30.0</ele><time>2026-04-05T07:33:29.378Z</time></trkpt><trkpt lat="44.1608662" lon="12.1625137"><ele>30.0</ele><time>2026-04-05T07:33:31.375Z</time></trkpt><trkpt lat="44.1607602" lon="12.1624564"><ele>30.0</ele><time>2026-04-05T07:33:33.382Z</time></trkpt><trkpt lat="44.1606607" lon="12.1624015"><ele>30.0</ele><time>2026-04-05T07:33:35.376Z</time></trkpt><trkpt lat="44.1605557" lon="12.1623396"><ele>30.0</ele><time>2026-04-05T07:33:37.377Z</time></trkpt><trkpt lat="44.1604516" lon="12.1622785"><ele>30.5</ele><time>2026-04-05T07:33:39.382Z</time></trkpt><trkpt lat="44.1603435" lon="12.1622177"><ele>31.0</ele><time>2026-04-05T07:33:41.372Z</time></trkpt><trkpt lat="44.1602377" lon="12.1621594"><ele>31.5</ele><time>2026-04-05T07:33:43.392Z</time></trkpt><trkpt lat="44.1601324" lon="12.1620983"><ele>32.0</ele><time>2026-04-05T07:33:45.381Z</time></trkpt><trkpt lat="44.160033" lon="12.1620411"><ele>32.0</ele><time>2026-04-05T07:33:47.375Z</time></trkpt><trkpt lat="44.1599309" lon="12.1619819"><ele>32.0</ele><time>2026-04-05T07:33:49.378Z</time></trkpt><trkpt lat="44.1598248" lon="12.1619299"><ele>32.0</ele><time>2026-04-05T07:33:51.379Z</time></trkpt><trkpt lat="44.1597239" lon="12.1618735"><ele>32.0</ele><time>2026-04-05T07:33:53.376Z</time></trkpt><trkpt lat="44.1596208" lon="12.1618119"><ele>32.0</ele><time>2026-04-05T07:33:55.374Z</time></trkpt><trkpt lat="44.1595103" lon="12.1617561"><ele>32.2</ele><time>2026-04-05T07:33:57.375Z</time></trkpt><trkpt lat="44.1594089" lon="12.161695"><ele>32.400000000000006</ele><time>2026-04-05T07:33:59.387Z</time></trkpt><trkpt lat="44.1593076" lon="12.1616332"><ele>32.599999999999994</ele><time>2026-04-05T07:34:01.376Z</time></trkpt><trkpt lat="44.1592047" lon="12.1615781"><ele>32.8</ele><time>2026-04-05T07:34:03.376Z</time></trkpt><trkpt lat="44.1590989" lon="12.1615304"><ele>33.0</ele><time>2026-04-05T07:34:05.378Z</time></trkpt><trkpt lat="44.1589952" lon="12.1614782"><ele>33.6</ele><time>2026-04-05T07:34:07.376Z</time></trkpt><trkpt lat="44.1588955" lon="12.1614198"><ele>34.199999999999996</ele><time>2026-04-05T07:34:09.374Z</time></trkpt><trkpt lat="44.1587971" lon="12.1613555"><ele>34.8</ele><time>2026-04-05T07:34:11.375Z</time></trkpt><trkpt lat="44.1586954" lon="12.1612942"><ele>35.4</ele><time>2026-04-05T07:34:13.374Z</time></trkpt><trkpt lat="44.1585875" lon="12.1612314"><ele>36.0</ele><time>2026-04-05T07:34:15.375Z</time></trkpt><trkpt lat="44.1584787" lon="12.1611678"><ele>36.0</ele><time>2026-04-05T07:34:17.374Z</time></trkpt><trkpt lat="44.1583626" lon="12.1611138"><ele>36.0</ele><time>2026-04-05T07:34:19.376Z</time></trkpt><trkpt lat="44.1582512" lon="12.1610696"><ele>36.0</ele><time>2026-04-05T07:34:21.374Z</time></trkpt><trkpt lat="44.15814" lon="12.1610334"><ele>36.0</ele><time>2026-04-05T07:34:23.375Z</time></trkpt><trkpt lat="44.1580213" lon="12.1610078"><ele>36.25</ele><time>2026-04-05T07:34:25.375Z</time></trkpt><trkpt lat="44.1579095" lon="12.1609724"><ele>36.5</ele><time>2026-04-05T07:34:27.372Z</time></trkpt><trkpt lat="44.157798" lon="12.1609469"><ele>36.75</ele><time>2026-04-05T07:34:29.377Z</time></trkpt><trkpt lat="44.1576884" lon="12.1609258"><ele>37.0</ele><time>2026-04-05T07:34:31.38Z</time></trkpt><trkpt lat="44.157578" lon="12.1609035"><ele>37.0</ele><time>2026-04-05T07:34:33.372Z</time></trkpt><trkpt lat="44.1574611" lon="12.1608653"><ele>37.0</ele><time>2026-04-05T07:34:35.375Z</time></trkpt><trkpt lat="44.1573508" lon="12.16083"><ele>37.0</ele><time>2026-04-05T07:34:37.375Z</time></trkpt><trkpt lat="44.1572372" lon="12.1607894"><ele>37.0</ele><time>2026-04-05T07:34:39.375Z</time></trkpt><trkpt lat="44.1571252" lon="12.1607462"><ele>37.2</ele><time>2026-04-05T07:34:41.375Z</time></trkpt><trkpt lat="44.1570229" lon="12.1607102"><ele>37.400000000000006</ele><time>2026-04-05T07:34:43.375Z</time></trkpt><trkpt lat="44.1569225" lon="12.1606747"><ele>37.599999999999994</ele><time>2026-04-05T07:34:45.389Z</time></trkpt><trkpt lat="44.1568226" lon="12.1606425"><ele>37.8</ele><time>2026-04-05T07:34:47.384Z</time></trkpt><trkpt lat="44.1567196" lon="12.1606095"><ele>38.0</ele><time>2026-04-05T07:34:49.375Z</time></trkpt><trkpt lat="44.1566197" lon="12.1605764"><ele>38.8</ele><time>2026-04-05T07:34:51.373Z</time></trkpt><trkpt lat="44.1565222" lon="12.1605478"><ele>39.599999999999994</ele><time>2026-04-05T07:34:53.376Z</time></trkpt><trkpt lat="44.156419" lon="12.1605127"><ele>40.400000000000006</ele><time>2026-04-05T07:34:55.38Z</time></trkpt><trkpt lat="44.1563165" lon="12.1604689"><ele>41.2</ele><time>2026-04-05T07:34:57.375Z</time></trkpt><trkpt lat="44.156216" lon="12.160421"><ele>42.0</ele><time>2026-04-05T07:34:59.377Z</time></trkpt><trkpt lat="44.1561189" lon="12.1603844"><ele>42.0</ele><time>2026-04-05T07:35:01.376Z</time></trkpt><trkpt lat="44.1560149" lon="12.1603453"><ele>42.0</ele><time>2026-04-05T07:35:03.374Z</time></trkpt><trkpt lat="44.1559113" lon="12.1602998"><ele>42.0</ele><time>2026-04-05T07:35:05.375Z</time></trkpt><trkpt lat="44.1558157" lon="12.1602493"><ele>42.0</ele><time>2026-04-05T07:35:07.373Z</time></trkpt><trkpt lat="44.1557212" lon="12.1602028"><ele>42.0</ele><time>2026-04-05T07:35:09.378Z</time></trkpt><trkpt lat="44.1556331" lon="12.160168"><ele>42.666666666666664</ele><time>2026-04-05T07:35:11.375Z</time></trkpt><trkpt lat="44.1555479" lon="12.1601327"><ele>43.333333333333336</ele><time>2026-04-05T07:35:13.374Z</time></trkpt><trkpt lat="44.1554654" lon="12.1600997"><ele>44.0</ele><time>2026-04-05T07:35:15.375Z</time></trkpt><trkpt lat="44.1553793" lon="12.1600577"><ele>44.66666666666667</ele><time>2026-04-05T07:35:17.385Z</time></trkpt><trkpt lat="44.1552901" lon="12.160026"><ele>45.333333333333336</ele><time>2026-04-05T07:35:19.385Z</time></trkpt><trkpt lat="44.1552041" lon="12.1599942"><ele>46.0</ele><time>2026-04-05T07:35:21.368Z</time></trkpt><trkpt lat="44.1551136" lon="12.1599719"><ele>46.0</ele><time>2026-04-05T07:35:23.386Z</time></trkpt><trkpt lat="44.1550239" lon="12.1599393"><ele>46.0</ele><time>2026-04-05T07:35:25.38Z</time></trkpt><trkpt lat="44.1549346" lon="12.159914"><ele>46.0</ele><time>2026-04-05T07:35:27.378Z</time></trkpt><trkpt lat="44.154836" lon="12.1598946"><ele>46.0</ele><time>2026-04-05T07:35:29.379Z</time></trkpt><trkpt lat="44.154734" lon="12.1598656"><ele>46.0</ele><time>2026-04-05T07:35:31.378Z</time></trkpt><trkpt lat="44.1546262" lon="12.1598351"><ele>45.0</ele><time>2026-04-05T07:35:33.377Z</time></trkpt><trkpt lat="44.154516" lon="12.1597992"><ele>44.0</ele><time>2026-04-05T07:35:35.374Z</time></trkpt><trkpt lat="44.1544058" lon="12.1597703"><ele>43.0</ele><time>2026-04-05T07:35:37.375Z</time></trkpt><trkpt lat="44.1542982" lon="12.1597375"><ele>42.0</ele><time>2026-04-05T07:35:39.375Z</time></trkpt><trkpt lat="44.1541899" lon="12.1597109"><ele>41.0</ele><time>2026-04-05T07:35:41.374Z</time></trkpt><trkpt lat="44.154085" lon="12.1596807"><ele>41.599999999999994</ele><time>2026-04-05T07:35:43.376Z</time></trkpt><trkpt lat="44.1539811" lon="12.1596596"><ele>42.2</ele><time>2026-04-05T07:35:45.377Z</time></trkpt><trkpt lat="44.1538743" lon="12.1596348"><ele>42.8</ele><time>2026-04-05T07:35:47.394Z</time></trkpt><trkpt lat="44.1537687" lon="12.159598"><ele>43.400000000000006</ele><time>2026-04-05T07:35:49.384Z</time></trkpt><trkpt lat="44.1536616" lon="12.1595595"><ele>44.0</ele><time>2026-04-05T07:35:51.375Z</time></trkpt><trkpt lat="44.1535475" lon="12.1595173"><ele>44.0</ele><time>2026-04-05T07:35:53.374Z</time></trkpt><trkpt lat="44.1534323" lon="12.1594821"><ele>44.0</ele><time>2026-04-05T07:35:55.375Z</time></trkpt><trkpt lat="44.1533106" lon="12.1594413"><ele>44.0</ele><time>2026-04-05T07:35:57.376Z</time></trkpt><trkpt lat="44.1532464" lon="12.1594198"><ele>44.0</ele><time>2026-04-05T07:35:58.378Z</time></trkpt><trkpt lat="44.1531848" lon="12.1593957"><ele>44.0</ele><time>2026-04-05T07:35:59.378Z</time></trkpt><trkpt lat="44.153064" lon="12.1593485"><ele>44.2</ele><time>2026-04-05T07:36:01.378Z</time></trkpt><trkpt lat="44.1530033" lon="12.1593224"><ele>44.400000000000006</ele><time>2026-04-05T07:36:02.38Z</time></trkpt><trkpt lat="44.1528904" lon="12.159276"><ele>44.6</ele><time>2026-04-05T07:36:04.377Z</time></trkpt><trkpt lat="44.1527736" lon="12.1592261"><ele>44.8</ele><time>2026-04-05T07:36:06.375Z</time></trkpt><trkpt lat="44.1526613" lon="12.1591868"><ele>45.0</ele><time>2026-04-05T07:36:08.376Z</time></trkpt><trkpt lat="44.1525485" lon="12.1591446"><ele>45.0</ele><time>2026-04-05T07:36:10.382Z</time></trkpt><trkpt lat="44.1524364" lon="12.1591009"><ele>45.0</ele><time>2026-04-05T07:36:12.375Z</time></trkpt><trkpt lat="44.1523225" lon="12.159057"><ele>45.0</ele><time>2026-04-05T07:36:14.379Z</time></trkpt><trkpt lat="44.1522091" lon="12.1590162"><ele>45.0</ele><time>2026-04-05T07:36:16.378Z</time></trkpt><trkpt lat="44.1520914" lon="12.158974"><ele>45.0</ele><time>2026-04-05T07:36:18.392Z</time></trkpt><trkpt lat="44.1519731" lon="12.158942"><ele>45.0</ele><time>2026-04-05T07:36:20.385Z</time></trkpt><trkpt lat="44.151857" lon="12.1589016"><ele>45.0</ele><time>2026-04-05T07:36:22.377Z</time></trkpt><trkpt lat="44.151748" lon="12.1588564"><ele>45.0</ele><time>2026-04-05T07:36:24.375Z</time></trkpt><trkpt lat="44.1516349" lon="12.1588065"><ele>45.75</ele><time>2026-04-05T07:36:26.373Z</time></trkpt><trkpt lat="44.1515252" lon="12.1587568"><ele>46.5</ele><time>2026-04-05T07:36:28.378Z</time></trkpt><trkpt lat="44.1514134" lon="12.1587073"><ele>47.25</ele><time>2026-04-05T07:36:30.375Z</time></trkpt><trkpt lat="44.1513043" lon="12.1586542"><ele>48.0</ele><time>2026-04-05T07:36:32.386Z</time></trkpt><trkpt lat="44.1511908" lon="12.1586001"><ele>48.0</ele><time>2026-04-05T07:36:34.373Z</time></trkpt><trkpt lat="44.1510772" lon="12.1585474"><ele>48.0</ele><time>2026-04-05T07:36:36.375Z</time></trkpt><trkpt lat="44.1509625" lon="12.1585017"><ele>48.0</ele><time>2026-04-05T07:36:38.376Z</time></trkpt><trkpt lat="44.1508487" lon="12.1584515"><ele>48.0</ele><time>2026-04-05T07:36:40.375Z</time></trkpt><trkpt lat="44.1507339" lon="12.1583988"><ele>48.0</ele><time>2026-04-05T07:36:42.381Z</time></trkpt><trkpt lat="44.1506261" lon="12.1583476"><ele>48.0</ele><time>2026-04-05T07:36:44.379Z</time></trkpt><trkpt lat="44.150514" lon="12.158303"><ele>48.0</ele><time>2026-04-05T07:36:46.377Z</time></trkpt><trkpt lat="44.1503966" lon="12.1582486"><ele>48.0</ele><time>2026-04-05T07:36:48.377Z</time></trkpt><trkpt lat="44.1502875" lon="12.1581933"><ele>48.0</ele><time>2026-04-05T07:36:50.377Z</time></trkpt><trkpt lat="44.1501792" lon="12.1581383"><ele>48.0</ele><time>2026-04-05T07:36:52.377Z</time></trkpt><trkpt lat="44.1500728" lon="12.1580898"><ele>48.0</ele><time>2026-04-05T07:36:54.376Z</time></trkpt><trkpt lat="44.1499634" lon="12.1580398"><ele>48.0</ele><time>2026-04-05T07:36:56.377Z</time></trkpt><trkpt lat="44.1498559" lon="12.1579897"><ele>48.5</ele><time>2026-04-05T07:36:58.377Z</time></trkpt><trkpt lat="44.1497474" lon="12.1579424"><ele>49.0</ele><time>2026-04-05T07:37:00.381Z</time></trkpt><trkpt lat="44.1496348" lon="12.1578954"><ele>49.5</ele><time>2026-04-05T07:37:02.374Z</time></trkpt><trkpt lat="44.1495243" lon="12.1578472"><ele>50.0</ele><time>2026-04-05T07:37:04.375Z</time></trkpt><trkpt lat="44.1494115" lon="12.1577915"><ele>50.0</ele><time>2026-04-05T07:37:06.373Z</time></trkpt><trkpt lat="44.149298" lon="12.1577452"><ele>50.0</ele><time>2026-04-05T07:37:08.373Z</time></trkpt><trkpt lat="44.1491961" lon="12.1576999"><ele>50.0</ele><time>2026-04-05T07:37:10.37Z</time></trkpt><trkpt lat="44.1490869" lon="12.1576544"><ele>50.0</ele><time>2026-04-05T07:37:12.372Z</time></trkpt><trkpt lat="44.1489723" lon="12.1576102"><ele>52.0</ele><time>2026-04-05T07:37:14.369Z</time></trkpt><trkpt lat="44.1489123" lon="12.1575826"><ele>54.0</ele><time>2026-04-05T07:37:15.37Z</time></trkpt><trkpt lat="44.1488034" lon="12.1575318"><ele>56.0</ele><time>2026-04-05T07:37:17.376Z</time></trkpt><trkpt lat="44.148698" lon="12.157478"><ele>58.0</ele><time>2026-04-05T07:37:19.378Z</time></trkpt><trkpt lat="44.1485957" lon="12.1574347"><ele>60.0</ele><time>2026-04-05T07:37:21.374Z</time></trkpt><trkpt lat="44.1484985" lon="12.1574009"><ele>59.6</ele><time>2026-04-05T07:37:23.376Z</time></trkpt><trkpt lat="44.1484107" lon="12.157365"><ele>59.2</ele><time>2026-04-05T07:37:25.37Z</time></trkpt><trkpt lat="44.148315" lon="12.1573061"><ele>58.8</ele><time>2026-04-05T07:37:27.374Z</time></trkpt><trkpt lat="44.1482197" lon="12.1572577"><ele>58.4</ele><time>2026-04-05T07:37:29.379Z</time></trkpt><trkpt lat="44.1481249" lon="12.1572233"><ele>58.0</ele><time>2026-04-05T07:37:31.377Z</time></trkpt><trkpt lat="44.148032" lon="12.1571813"><ele>58.0</ele><time>2026-04-05T07:37:33.383Z</time></trkpt><trkpt lat="44.1479342" lon="12.157135"><ele>58.0</ele><time>2026-04-05T07:37:35.367Z</time></trkpt><trkpt lat="44.1478416" lon="12.157089"><ele>58.0</ele><time>2026-04-05T07:37:37.37Z</time></trkpt><trkpt lat="44.1477471" lon="12.1570394"><ele>58.0</ele><time>2026-04-05T07:37:39.37Z</time></trkpt><trkpt lat="44.1476565" lon="12.1569989"><ele>58.0</ele><time>2026-04-05T07:37:41.373Z</time></trkpt><trkpt lat="44.1475612" lon="12.1569511"><ele>58.0</ele><time>2026-04-05T07:37:43.382Z</time></trkpt><trkpt lat="44.1474636" lon="12.1569125"><ele>58.0</ele><time>2026-04-05T07:37:45.371Z</time></trkpt><trkpt lat="44.1473614" lon="12.1568963"><ele>58.0</ele><time>2026-04-05T07:37:47.368Z</time></trkpt><trkpt lat="44.1472652" lon="12.1569174"><ele>58.0</ele><time>2026-04-05T07:37:49.371Z</time></trkpt><trkpt lat="44.1471853" lon="12.1569856"><ele>58.0</ele><time>2026-04-05T07:37:51.385Z</time></trkpt><trkpt lat="44.1471448" lon="12.1570895"><ele>57.99999999999999</ele><time>2026-04-05T07:37:53.372Z</time></trkpt><trkpt lat="44.1471237" lon="12.1572088"><ele>58.0</ele><time>2026-04-05T07:37:55.375Z</time></trkpt><trkpt lat="44.1471014" lon="12.1573154"><ele>58.0</ele><time>2026-04-05T07:37:57.38Z</time></trkpt><trkpt lat="44.1470686" lon="12.1574251"><ele>58.0</ele><time>2026-04-05T07:37:59.376Z</time></trkpt><trkpt lat="44.147037" lon="12.1575327"><ele>57.99999999999999</ele><time>2026-04-05T07:38:01.376Z</time></trkpt><trkpt lat="44.1470146" lon="12.1576408"><ele>58.0</ele><time>2026-04-05T07:38:03.367Z</time></trkpt><trkpt lat="44.1469929" lon="12.1577586"><ele>59.33333333333333</ele><time>2026-04-05T07:38:05.371Z</time></trkpt><trkpt lat="44.1469718" lon="12.1578686"><ele>60.666666666666664</ele><time>2026-04-05T07:38:07.37Z</time></trkpt><trkpt lat="44.1469446" lon="12.1579697"><ele>62.0</ele><time>2026-04-05T07:38:09.373Z</time></trkpt><trkpt lat="44.1469158" lon="12.1580724"><ele>63.33333333333333</ele><time>2026-04-05T07:38:11.375Z</time></trkpt><trkpt lat="44.1468794" lon="12.1581767"><ele>64.66666666666667</ele><time>2026-04-05T07:38:13.376Z</time></trkpt><trkpt lat="44.1467817" lon="12.1582095"><ele>66.0</ele><time>2026-04-05T07:38:15.372Z</time></trkpt><trkpt lat="44.1466846" lon="12.1581879"><ele>66.0</ele><time>2026-04-05T07:38:17.376Z</time></trkpt><trkpt lat="44.1465884" lon="12.1581578"><ele>66.0</ele><time>2026-04-05T07:38:19.374Z</time></trkpt><trkpt lat="44.1464815" lon="12.1581308"><ele>66.0</ele><time>2026-04-05T07:38:21.367Z</time></trkpt><trkpt lat="44.1463775" lon="12.1581125"><ele>66.0</ele><time>2026-04-05T07:38:23.367Z</time></trkpt><trkpt lat="44.146279" lon="12.1580817"><ele>66.0</ele><time>2026-04-05T07:38:25.366Z</time></trkpt><trkpt lat="44.146186" lon="12.1580449"><ele>67.0</ele><time>2026-04-05T07:38:27.377Z</time></trkpt><trkpt lat="44.146085" lon="12.1580187"><ele>68.0</ele><time>2026-04-05T07:38:29.37Z</time></trkpt><trkpt lat="44.1459788" lon="12.1579969"><ele>69.0</ele><time>2026-04-05T07:38:31.372Z</time></trkpt><trkpt lat="44.1458602" lon="12.1579708"><ele>70.0</ele><time>2026-04-05T07:38:33.374Z</time></trkpt><trkpt lat="44.145798" lon="12.1579545"><ele>71.0</ele><time>2026-04-05T07:38:34.366Z</time></trkpt><trkpt lat="44.1457349" lon="12.1579398"><ele>71.39999999999999</ele><time>2026-04-05T07:38:35.378Z</time></trkpt><trkpt lat="44.1456694" lon="12.1579317"><ele>71.8</ele><time>2026-04-05T07:38:36.369Z</time></trkpt><trkpt lat="44.145605" lon="12.1579193"><ele>72.19999999999999</ele><time>2026-04-05T07:38:37.369Z</time></trkpt><trkpt lat="44.1454807" lon="12.1579002"><ele>72.6</ele><time>2026-04-05T07:38:39.369Z</time></trkpt><trkpt lat="44.1453573" lon="12.1578873"><ele>73.0</ele><time>2026-04-05T07:38:41.363Z</time></trkpt><trkpt lat="44.1452325" lon="12.1578792"><ele>73.0</ele><time>2026-04-05T07:38:43.37Z</time></trkpt><trkpt lat="44.1451155" lon="12.1578855"><ele>73.0</ele><time>2026-04-05T07:38:45.368Z</time></trkpt><trkpt lat="44.1449964" lon="12.1579047"><ele>73.0</ele><time>2026-04-05T07:38:47.379Z</time></trkpt><trkpt lat="44.1448736" lon="12.1579283"><ele>73.0</ele><time>2026-04-05T07:38:49.369Z</time></trkpt><trkpt lat="44.1447536" lon="12.1579394"><ele>74.4</ele><time>2026-04-05T07:38:51.372Z</time></trkpt><trkpt lat="44.1446345" lon="12.1579683"><ele>75.8</ele><time>2026-04-05T07:38:53.398Z</time></trkpt><trkpt lat="44.1445116" lon="12.1579942"><ele>77.2</ele><time>2026-04-05T07:38:55.37Z</time></trkpt><trkpt lat="44.1444492" lon="12.1580078"><ele>78.6</ele><time>2026-04-05T07:38:56.37Z</time></trkpt><trkpt lat="44.1443282" lon="12.1580361"><ele>80.0</ele><time>2026-04-05T07:38:58.371Z</time></trkpt><trkpt lat="44.1442086" lon="12.1580664"><ele>80.0</ele><time>2026-04-05T07:39:00.372Z</time></trkpt><trkpt lat="44.1440913" lon="12.1580944"><ele>80.0</ele><time>2026-04-05T07:39:02.369Z</time></trkpt><trkpt lat="44.143978" lon="12.1581246"><ele>80.0</ele><time>2026-04-05T07:39:04.363Z</time></trkpt><trkpt lat="44.1438724" lon="12.1581602"><ele>80.0</ele><time>2026-04-05T07:39:06.361Z</time></trkpt><trkpt lat="44.1437665" lon="12.1581757"><ele>80.0</ele><time>2026-04-05T07:39:08.357Z</time></trkpt><trkpt lat="44.1436624" lon="12.1582044"><ele>80.6</ele><time>2026-04-05T07:39:10.361Z</time></trkpt><trkpt lat="44.1435539" lon="12.1582177"><ele>81.2</ele><time>2026-04-05T07:39:12.369Z</time></trkpt><trkpt lat="44.1434446" lon="12.158208"><ele>81.80000000000001</ele><time>2026-04-05T07:39:14.368Z</time></trkpt><trkpt lat="44.1433341" lon="12.1581841"><ele>82.4</ele><time>2026-04-05T07:39:16.369Z</time></trkpt><trkpt lat="44.1432206" lon="12.1581679"><ele>83.0</ele><time>2026-04-05T07:39:18.367Z</time></trkpt><trkpt lat="44.1430982" lon="12.1581533"><ele>83.75</ele><time>2026-04-05T07:39:20.37Z</time></trkpt><trkpt lat="44.1429801" lon="12.1581462"><ele>84.5</ele><time>2026-04-05T07:39:22.372Z</time></trkpt><trkpt lat="44.1428685" lon="12.1581308"><ele>85.25</ele><time>2026-04-05T07:39:24.383Z</time></trkpt><trkpt lat="44.1427589" lon="12.1581301"><ele>86.0</ele><time>2026-04-05T07:39:26.355Z</time></trkpt><trkpt lat="44.1426473" lon="12.1581369"><ele>86.0</ele><time>2026-04-05T07:39:28.367Z</time></trkpt><trkpt lat="44.1425412" lon="12.1581614"><ele>86.0</ele><time>2026-04-05T07:39:30.373Z</time></trkpt><trkpt lat="44.1424349" lon="12.1581808"><ele>86.0</ele><time>2026-04-05T07:39:32.368Z</time></trkpt><trkpt lat="44.1423306" lon="12.158216"><ele>86.0</ele><time>2026-04-05T07:39:34.369Z</time></trkpt><trkpt lat="44.1422324" lon="12.1582566"><ele>86.0</ele><time>2026-04-05T07:39:36.375Z</time></trkpt><trkpt lat="44.1421292" lon="12.1582959"><ele>88.4</ele><time>2026-04-05T07:39:38.373Z</time></trkpt><trkpt lat="44.1420224" lon="12.1583566"><ele>90.8</ele><time>2026-04-05T07:39:40.374Z</time></trkpt><trkpt lat="44.141916" lon="12.1584168"><ele>93.2</ele><time>2026-04-05T07:39:42.371Z</time></trkpt><trkpt lat="44.1418211" lon="12.1584716"><ele>95.60000000000001</ele><time>2026-04-05T07:39:44.375Z</time></trkpt><trkpt lat="44.1417301" lon="12.1585287"><ele>98.0</ele><time>2026-04-05T07:39:46.366Z</time></trkpt><trkpt lat="44.1416338" lon="12.1585682"><ele>99.0</ele><time>2026-04-05T07:39:48.367Z</time></trkpt><trkpt lat="44.1415356" lon="12.15861"><ele>100.0</ele><time>2026-04-05T07:39:50.367Z</time></trkpt><trkpt lat="44.1414345" lon="12.1586517"><ele>101.0</ele><time>2026-04-05T07:39:52.368Z</time></trkpt><trkpt lat="44.1413342" lon="12.1586912"><ele>102.0</ele><time>2026-04-05T07:39:54.372Z</time></trkpt><trkpt lat="44.1412248" lon="12.1587257"><ele>103.0</ele><time>2026-04-05T07:39:56.37Z</time></trkpt><trkpt lat="44.1411155" lon="12.1587609"><ele>103.0</ele><time>2026-04-05T07:39:58.372Z</time></trkpt><trkpt lat="44.1410067" lon="12.158796"><ele>103.0</ele><time>2026-04-05T07:40:00.37Z</time></trkpt><trkpt lat="44.1408994" lon="12.1588282"><ele>103.0</ele><time>2026-04-05T07:40:02.371Z</time></trkpt><trkpt lat="44.1407863" lon="12.158864"><ele>103.0</ele><time>2026-04-05T07:40:04.372Z</time></trkpt><trkpt lat="44.1406719" lon="12.1588959"><ele>103.80000000000001</ele><time>2026-04-05T07:40:06.372Z</time></trkpt><trkpt lat="44.1405655" lon="12.1589168"><ele>104.6</ele><time>2026-04-05T07:40:08.371Z</time></trkpt><trkpt lat="44.1404609" lon="12.1589472"><ele>105.39999999999999</ele><time>2026-04-05T07:40:10.37Z</time></trkpt><trkpt lat="44.1403525" lon="12.1589833"><ele>106.19999999999999</ele><time>2026-04-05T07:40:12.369Z</time></trkpt><trkpt lat="44.1402497" lon="12.1590193"><ele>107.0</ele><time>2026-04-05T07:40:14.367Z</time></trkpt><trkpt lat="44.1401451" lon="12.1590518"><ele>108.19999999999999</ele><time>2026-04-05T07:40:16.365Z</time></trkpt><trkpt lat="44.1400347" lon="12.1590808"><ele>109.39999999999999</ele><time>2026-04-05T07:40:18.363Z</time></trkpt><trkpt lat="44.1399327" lon="12.159107"><ele>110.60000000000001</ele><time>2026-04-05T07:40:20.362Z</time></trkpt><trkpt lat="44.1398289" lon="12.1591363"><ele>111.80000000000001</ele><time>2026-04-05T07:40:22.37Z</time></trkpt><trkpt lat="44.1397323" lon="12.1591633"><ele>113.0</ele><time>2026-04-05T07:40:24.368Z</time></trkpt><trkpt lat="44.1396317" lon="12.1591901"><ele>114.80000000000001</ele><time>2026-04-05T07:40:26.383Z</time></trkpt><trkpt lat="44.1395312" lon="12.159222"><ele>116.60000000000001</ele><time>2026-04-05T07:40:28.378Z</time></trkpt><trkpt lat="44.139431" lon="12.1592501"><ele>118.39999999999999</ele><time>2026-04-05T07:40:30.367Z</time></trkpt><trkpt lat="44.1393435" lon="12.1592797"><ele>120.19999999999999</ele><time>2026-04-05T07:40:32.368Z</time></trkpt><trkpt lat="44.1392609" lon="12.1593096"><ele>122.0</ele><time>2026-04-05T07:40:34.373Z</time></trkpt><trkpt lat="44.139184" lon="12.1593345"><ele>121.99999999999999</ele><time>2026-04-05T07:40:36.369Z</time></trkpt><trkpt lat="44.1391092" lon="12.1593569"><ele>122.0</ele><time>2026-04-05T07:40:38.373Z</time></trkpt><trkpt lat="44.1390294" lon="12.1593777"><ele>122.0</ele><time>2026-04-05T07:40:40.38Z</time></trkpt><trkpt lat="44.1389538" lon="12.1594015"><ele>122.0</ele><time>2026-04-05T07:40:42.373Z</time></trkpt><trkpt lat="44.1388803" lon="12.1594294"><ele>121.99999999999999</ele><time>2026-04-05T07:40:44.376Z</time></trkpt><trkpt lat="44.1388023" lon="12.159439"><ele>122.0</ele><time>2026-04-05T07:40:46.374Z</time></trkpt><trkpt lat="44.1387155" lon="12.1593973"><ele>122.19999999999999</ele><time>2026-04-05T07:40:48.373Z</time></trkpt><trkpt lat="44.1386346" lon="12.1593291"><ele>122.39999999999999</ele><time>2026-04-05T07:40:50.374Z</time></trkpt><trkpt lat="44.1385508" lon="12.1592386"><ele>122.60000000000001</ele><time>2026-04-05T07:40:52.373Z</time></trkpt><trkpt lat="44.1384568" lon="12.1591484"><ele>122.80000000000001</ele><time>2026-04-05T07:40:54.375Z</time></trkpt><trkpt lat="44.1383643" lon="12.1590614"><ele>123.0</ele><time>2026-04-05T07:40:56.363Z</time></trkpt><trkpt lat="44.1382642" lon="12.1589599"><ele>124.25</ele><time>2026-04-05T07:40:58.363Z</time></trkpt><trkpt lat="44.1381658" lon="12.1588647"><ele>125.5</ele><time>2026-04-05T07:41:00.366Z</time></trkpt><trkpt lat="44.1380701" lon="12.158769"><ele>126.75</ele><time>2026-04-05T07:41:02.367Z</time></trkpt><trkpt lat="44.1379746" lon="12.158678"><ele>128.0</ele><time>2026-04-05T07:41:04.369Z</time></trkpt><trkpt lat="44.1378772" lon="12.1585856"><ele>128.0</ele><time>2026-04-05T07:41:06.369Z</time></trkpt><trkpt lat="44.1377791" lon="12.158505"><ele>128.0</ele><time>2026-04-05T07:41:08.373Z</time></trkpt><trkpt lat="44.1376914" lon="12.1584239"><ele>128.0</ele><time>2026-04-05T07:41:10.367Z</time></trkpt><trkpt lat="44.1376097" lon="12.1583449"><ele>128.0</ele><time>2026-04-05T07:41:12.369Z</time></trkpt><trkpt lat="44.137524" lon="12.1582767"><ele>128.0</ele><time>2026-04-05T07:41:14.369Z</time></trkpt><trkpt lat="44.1374432" lon="12.1582042"><ele>129.8</ele><time>2026-04-05T07:41:16.368Z</time></trkpt><trkpt lat="44.1373578" lon="12.1581295"><ele>131.60000000000002</ele><time>2026-04-05T07:41:18.369Z</time></trkpt><trkpt lat="44.137269" lon="12.1580518"><ele>133.39999999999998</ele><time>2026-04-05T07:41:20.377Z</time></trkpt><trkpt lat="44.1371723" lon="12.1579656"><ele>135.2</ele><time>2026-04-05T07:41:22.369Z</time></trkpt><trkpt lat="44.1370696" lon="12.1578831"><ele>137.0</ele><time>2026-04-05T07:41:24.367Z</time></trkpt><trkpt lat="44.1369691" lon="12.1578119"><ele>137.0</ele><time>2026-04-05T07:41:26.369Z</time></trkpt><trkpt lat="44.1368699" lon="12.1577448"><ele>137.0</ele><time>2026-04-05T07:41:28.39Z</time></trkpt><trkpt lat="44.1367687" lon="12.1577012"><ele>137.0</ele><time>2026-04-05T07:41:30.367Z</time></trkpt><trkpt lat="44.1366734" lon="12.1576859"><ele>137.0</ele><time>2026-04-05T07:41:32.369Z</time></trkpt><trkpt lat="44.1365804" lon="12.1576852"><ele>137.0</ele><time>2026-04-05T07:41:34.372Z</time></trkpt><trkpt lat="44.1364816" lon="12.1576945"><ele>139.2</ele><time>2026-04-05T07:41:36.367Z</time></trkpt><trkpt lat="44.1363796" lon="12.1576927"><ele>141.39999999999998</ele><time>2026-04-05T07:41:38.372Z</time></trkpt><trkpt lat="44.1362865" lon="12.15769"><ele>143.60000000000002</ele><time>2026-04-05T07:41:40.367Z</time></trkpt><trkpt lat="44.1361941" lon="12.157703"><ele>145.8</ele><time>2026-04-05T07:41:42.366Z</time></trkpt><trkpt lat="44.1361017" lon="12.1577062"><ele>148.0</ele><time>2026-04-05T07:41:44.373Z</time></trkpt><trkpt lat="44.136004" lon="12.1576912"><ele>148.0</ele><time>2026-04-05T07:41:46.373Z</time></trkpt><trkpt lat="44.1358969" lon="12.1576759"><ele>148.0</ele><time>2026-04-05T07:41:48.375Z</time></trkpt><trkpt lat="44.135797" lon="12.1576485"><ele>148.0</ele><time>2026-04-05T07:41:50.368Z</time></trkpt><trkpt lat="44.1357023" lon="12.1576204"><ele>148.0</ele><time>2026-04-05T07:41:52.369Z</time></trkpt><trkpt lat="44.1356151" lon="12.1575842"><ele>148.0</ele><time>2026-04-05T07:41:54.383Z</time></trkpt><trkpt lat="44.1355315" lon="12.157543"><ele>149.83333333333334</ele><time>2026-04-05T07:41:56.374Z</time></trkpt><trkpt lat="44.1354567" lon="12.1574994"><ele>151.66666666666669</ele><time>2026-04-05T07:41:58.377Z</time></trkpt><trkpt lat="44.1353793" lon="12.157447"><ele>153.5</ele><time>2026-04-05T07:42:00.374Z</time></trkpt><trkpt lat="44.1353103" lon="12.1573793"><ele>155.33333333333334</ele><time>2026-04-05T07:42:02.376Z</time></trkpt><trkpt lat="44.1352595" lon="12.1572869"><ele>157.16666666666666</ele><time>2026-04-05T07:42:04.371Z</time></trkpt><trkpt lat="44.1352247" lon="12.1571842"><ele>159.0</ele><time>2026-04-05T07:42:06.373Z</time></trkpt><trkpt lat="44.1351968" lon="12.1570824"><ele>159.16666666666666</ele><time>2026-04-05T07:42:08.375Z</time></trkpt><trkpt lat="44.1351601" lon="12.1569891"><ele>159.33333333333334</ele><time>2026-04-05T07:42:10.374Z</time></trkpt><trkpt lat="44.1351122" lon="12.1568919"><ele>159.5</ele><time>2026-04-05T07:42:12.37Z</time></trkpt><trkpt lat="44.1350535" lon="12.1568036"><ele>159.66666666666669</ele><time>2026-04-05T07:42:14.376Z</time></trkpt><trkpt lat="44.1349951" lon="12.1567142"><ele>159.83333333333334</ele><time>2026-04-05T07:42:16.378Z</time></trkpt><trkpt lat="44.1349319" lon="12.1566365"><ele>160.0</ele><time>2026-04-05T07:42:18.375Z</time></trkpt><trkpt lat="44.134871" lon="12.1565725"><ele>162.16666666666669</ele><time>2026-04-05T07:42:20.375Z</time></trkpt><trkpt lat="44.1348093" lon="12.1565049"><ele>164.33333333333334</ele><time>2026-04-05T07:42:22.375Z</time></trkpt><trkpt lat="44.1347587" lon="12.15645"><ele>166.5</ele><time>2026-04-05T07:42:24.375Z</time></trkpt><trkpt lat="44.1347031" lon="12.1563918"><ele>168.66666666666666</ele><time>2026-04-05T07:42:26.373Z</time></trkpt><trkpt lat="44.1346314" lon="12.1563337"><ele>170.83333333333331</ele><time>2026-04-05T07:42:28.378Z</time></trkpt><trkpt lat="44.1345602" lon="12.1562822"><ele>173.0</ele><time>2026-04-05T07:42:30.375Z</time></trkpt><trkpt lat="44.1344918" lon="12.1562395"><ele>173.0</ele><time>2026-04-05T07:42:32.371Z</time></trkpt><trkpt lat="44.1344302" lon="12.1561958"><ele>173.0</ele><time>2026-04-05T07:42:34.377Z</time></trkpt><trkpt lat="44.1343636" lon="12.1561608"><ele>173.0</ele><time>2026-04-05T07:42:36.374Z</time></trkpt><trkpt lat="44.1342995" lon="12.1561604"><ele>173.0</ele><time>2026-04-05T07:42:38.371Z</time></trkpt><trkpt lat="44.1342211" lon="12.156245"><ele>173.0</ele><time>2026-04-05T07:42:41.375Z</time></trkpt><trkpt lat="44.1341909" lon="12.1563681"><ele>173.0</ele><time>2026-04-05T07:42:43.374Z</time></trkpt><trkpt lat="44.1341534" lon="12.1565187"><ele>172.33333333333331</ele><time>2026-04-05T07:42:45.364Z</time></trkpt><trkpt lat="44.1341276" lon="12.1566068"><ele>171.66666666666666</ele><time>2026-04-05T07:42:46.376Z</time></trkpt><trkpt lat="44.1340968" lon="12.1566996"><ele>171.0</ele><time>2026-04-05T07:42:47.367Z</time></trkpt><trkpt lat="44.1340663" lon="12.1567985"><ele>170.33333333333334</ele><time>2026-04-05T07:42:48.369Z</time></trkpt><trkpt lat="44.1340375" lon="12.1569071"><ele>169.66666666666669</ele><time>2026-04-05T07:42:49.369Z</time></trkpt><trkpt lat="44.1340061" lon="12.1570192"><ele>169.0</ele><time>2026-04-05T07:42:50.37Z</time></trkpt><trkpt lat="44.1339745" lon="12.1571343"><ele>165.79999999999998</ele><time>2026-04-05T07:42:51.376Z</time></trkpt><trkpt lat="44.1339397" lon="12.1572505"><ele>162.6</ele><time>2026-04-05T07:42:52.371Z</time></trkpt><trkpt lat="44.1339005" lon="12.1573685"><ele>159.4</ele><time>2026-04-05T07:42:53.374Z</time></trkpt><trkpt lat="44.1338648" lon="12.1574899"><ele>156.2</ele><time>2026-04-05T07:42:54.369Z</time></trkpt><trkpt lat="44.1338269" lon="12.1576104"><ele>153.0</ele><time>2026-04-05T07:42:55.371Z</time></trkpt><trkpt lat="44.1337872" lon="12.1577302"><ele>153.0</ele><time>2026-04-05T07:42:56.368Z</time></trkpt><trkpt lat="44.1337467" lon="12.1578559"><ele>153.0</ele><time>2026-04-05T07:42:57.368Z</time></trkpt><trkpt lat="44.1337046" lon="12.157988"><ele>153.0</ele><time>2026-04-05T07:42:58.365Z</time></trkpt><trkpt lat="44.1336599" lon="12.15812"><ele>153.0</ele><time>2026-04-05T07:42:59.375Z</time></trkpt><trkpt lat="44.1336164" lon="12.158249"><ele>153.0</ele><time>2026-04-05T07:43:00.386Z</time></trkpt><trkpt lat="44.1335727" lon="12.158381"><ele>153.4</ele><time>2026-04-05T07:43:01.367Z</time></trkpt><trkpt lat="44.133529" lon="12.1585127"><ele>153.8</ele><time>2026-04-05T07:43:02.377Z</time></trkpt><trkpt lat="44.1334869" lon="12.1586396"><ele>154.2</ele><time>2026-04-05T07:43:03.369Z</time></trkpt><trkpt lat="44.1334472" lon="12.1587722"><ele>154.6</ele><time>2026-04-05T07:43:04.368Z</time></trkpt><trkpt lat="44.1334039" lon="12.1589033"><ele>155.0</ele><time>2026-04-05T07:43:05.371Z</time></trkpt><trkpt lat="44.1333624" lon="12.1590224"><ele>154.83333333333331</ele><time>2026-04-05T07:43:06.368Z</time></trkpt><trkpt lat="44.1333231" lon="12.1591411"><ele>154.66666666666666</ele><time>2026-04-05T07:43:07.363Z</time></trkpt><trkpt lat="44.133285" lon="12.1592554"><ele>154.5</ele><time>2026-04-05T07:43:08.367Z</time></trkpt><trkpt lat="44.1332506" lon="12.1593736"><ele>154.33333333333334</ele><time>2026-04-05T07:43:09.372Z</time></trkpt><trkpt lat="44.1332151" lon="12.1594829"><ele>154.16666666666669</ele><time>2026-04-05T07:43:10.37Z</time></trkpt><trkpt lat="44.1331823" lon="12.1595942"><ele>154.0</ele><time>2026-04-05T07:43:11.369Z</time></trkpt><trkpt lat="44.1331466" lon="12.1597037"><ele>153.66666666666669</ele><time>2026-04-05T07:43:12.368Z</time></trkpt><trkpt lat="44.1331118" lon="12.1598075"><ele>153.33333333333334</ele><time>2026-04-05T07:43:13.37Z</time></trkpt><trkpt lat="44.13308" lon="12.159911"><ele>153.0</ele><time>2026-04-05T07:43:14.374Z</time></trkpt><trkpt lat="44.1330456" lon="12.1600098"><ele>152.66666666666666</ele><time>2026-04-05T07:43:15.369Z</time></trkpt><trkpt lat="44.1330132" lon="12.1601113"><ele>152.33333333333331</ele><time>2026-04-05T07:43:16.369Z</time></trkpt><trkpt lat="44.1329805" lon="12.160211"><ele>152.0</ele><time>2026-04-05T07:43:17.365Z</time></trkpt><trkpt lat="44.1329484" lon="12.1603093"><ele>152.0</ele><time>2026-04-05T07:43:18.371Z</time></trkpt><trkpt lat="44.1329208" lon="12.1603974"><ele>152.0</ele><time>2026-04-05T07:43:19.371Z</time></trkpt><trkpt lat="44.132895" lon="12.1604876"><ele>152.0</ele><time>2026-04-05T07:43:20.369Z</time></trkpt><trkpt lat="44.1328703" lon="12.1605784"><ele>152.0</ele><time>2026-04-05T07:43:21.369Z</time></trkpt><trkpt lat="44.1328426" lon="12.1606664"><ele>152.0</ele><time>2026-04-05T07:43:22.37Z</time></trkpt><trkpt lat="44.1328132" lon="12.1607536"><ele>152.0</ele><time>2026-04-05T07:43:23.37Z</time></trkpt><trkpt lat="44.1327844" lon="12.1608418"><ele>152.0</ele><time>2026-04-05T07:43:24.368Z</time></trkpt><trkpt lat="44.1327557" lon="12.1609332"><ele>152.14285714285714</ele><time>2026-04-05T07:43:25.368Z</time></trkpt><trkpt lat="44.1327287" lon="12.1610248"><ele>152.2857142857143</ele><time>2026-04-05T07:43:26.369Z</time></trkpt><trkpt lat="44.1327067" lon="12.1611152"><ele>152.42857142857144</ele><time>2026-04-05T07:43:27.368Z</time></trkpt><trkpt lat="44.1326772" lon="12.1612005"><ele>152.57142857142856</ele><time>2026-04-05T07:43:28.371Z</time></trkpt><trkpt lat="44.1326477" lon="12.1612887"><ele>152.71428571428572</ele><time>2026-04-05T07:43:29.374Z</time></trkpt><trkpt lat="44.1326169" lon="12.1613754"><ele>152.85714285714286</ele><time>2026-04-05T07:43:30.369Z</time></trkpt><trkpt lat="44.1325898" lon="12.1614654"><ele>153.0</ele><time>2026-04-05T07:43:31.396Z</time></trkpt><trkpt lat="44.1325656" lon="12.1615573"><ele>152.20000000000002</ele><time>2026-04-05T07:43:32.366Z</time></trkpt><trkpt lat="44.1325417" lon="12.1616433"><ele>151.4</ele><time>2026-04-05T07:43:33.367Z</time></trkpt><trkpt lat="44.1325196" lon="12.1617314"><ele>150.60000000000002</ele><time>2026-04-05T07:43:34.369Z</time></trkpt><trkpt lat="44.1324938" lon="12.1619051"><ele>149.8</ele><time>2026-04-05T07:43:36.379Z</time></trkpt><trkpt lat="44.1324792" lon="12.1620839"><ele>149.0</ele><time>2026-04-05T07:43:38.37Z</time></trkpt><trkpt lat="44.1324701" lon="12.1622527"><ele>149.0</ele><time>2026-04-05T07:43:40.37Z</time></trkpt><trkpt lat="44.1324655" lon="12.1623407"><ele>149.0</ele><time>2026-04-05T07:43:41.378Z</time></trkpt><trkpt lat="44.132455" lon="12.1625126"><ele>149.0</ele><time>2026-04-05T07:43:43.371Z</time></trkpt><trkpt lat="44.1324442" lon="12.1626016"><ele>149.0</ele><time>2026-04-05T07:43:44.371Z</time></trkpt><trkpt lat="44.1324388" lon="12.1626919"><ele>149.0</ele><time>2026-04-05T07:43:45.371Z</time></trkpt><trkpt lat="44.13243" lon="12.1627797"><ele>149.0</ele><time>2026-04-05T07:43:46.371Z</time></trkpt><trkpt lat="44.1324064" lon="12.1629538"><ele>148.83333333333331</ele><time>2026-04-05T07:43:48.373Z</time></trkpt><trkpt lat="44.1323978" lon="12.1630442"><ele>148.66666666666666</ele><time>2026-04-05T07:43:49.381Z</time></trkpt><trkpt lat="44.1323827" lon="12.163134"><ele>148.5</ele><time>2026-04-05T07:43:50.371Z</time></trkpt><trkpt lat="44.1323735" lon="12.1632226"><ele>148.33333333333334</ele><time>2026-04-05T07:43:51.371Z</time></trkpt><trkpt lat="44.1323607" lon="12.1633865"><ele>148.16666666666669</ele><time>2026-04-05T07:43:53.374Z</time></trkpt><trkpt lat="44.1323509" lon="12.1635414"><ele>148.0</ele><time>2026-04-05T07:43:55.373Z</time></trkpt><trkpt lat="44.1323399" lon="12.1636693"><ele>145.0</ele><time>2026-04-05T07:43:57.372Z</time></trkpt><trkpt lat="44.1324287" lon="12.1636795"><ele>153.0</ele><time>2026-04-05T07:44:00.384Z</time></trkpt><trkpt lat="44.1324935" lon="12.1636692"><ele>153.0</ele><time>2026-04-05T07:44:03.374Z</time></trkpt></trkseg><trkseg><trkpt lat="44.1327005" lon="12.1636983"><ele>153.0</ele><time>2026-04-05T07:54:22.425Z</time></trkpt><trkpt lat="44.1327339" lon="12.1636208"><ele>153.0</ele><time>2026-04-05T07:55:38.426Z</time></trkpt><trkpt lat="44.1327792" lon="12.163682"><ele>153.0</ele><time>2026-04-05T07:56:02.433Z</time></trkpt><trkpt lat="44.1328264" lon="12.1637627"><ele>153.0</ele><time>2026-04-05T07:56:05.424Z</time></trkpt><trkpt lat="44.1329052" lon="12.1638012"><ele>153.0</ele><time>2026-04-05T07:56:08.427Z</time></trkpt><trkpt lat="44.1329871" lon="12.1637783"><ele>153.0</ele><time>2026-04-05T07:56:11.437Z</time></trkpt><trkpt lat="44.1330491" lon="12.1637015"><ele>153.0</ele><time>2026-04-05T07:57:21.439Z</time></trkpt><trkpt lat="44.1330539" lon="12.1635933"><ele>153.0</ele><time>2026-04-05T07:57:24.435Z</time></trkpt><trkpt lat="44.1330504" lon="12.1634978"><ele>153.0</ele><time>2026-04-05T07:57:26.438Z</time></trkpt><trkpt lat="44.1330554" lon="12.1633386"><ele>153.0</ele><time>2026-04-05T07:57:28.431Z</time></trkpt><trkpt lat="44.1330511" lon="12.1632472"><ele>153.0</ele><time>2026-04-05T07:57:29.421Z</time></trkpt><trkpt lat="44.133035" lon="12.1631385"><ele>153.0</ele><time>2026-04-05T07:57:30.435Z</time></trkpt><trkpt lat="44.1330095" lon="12.1630378"><ele>152.16666666666666</ele><time>2026-04-05T07:57:31.422Z</time></trkpt><trkpt lat="44.1329824" lon="12.1629477"><ele>151.33333333333334</ele><time>2026-04-05T07:57:32.428Z</time></trkpt><trkpt lat="44.132952" lon="12.1628669"><ele>150.5</ele><time>2026-04-05T07:57:33.422Z</time></trkpt><trkpt lat="44.1328947" lon="12.1627487"><ele>149.66666666666669</ele><time>2026-04-05T07:57:35.421Z</time></trkpt><trkpt lat="44.1328277" lon="12.1627228"><ele>148.83333333333334</ele><time>2026-04-05T07:57:37.435Z</time></trkpt><trkpt lat="44.1327848" lon="12.1627995"><ele>148.0</ele><time>2026-04-05T07:57:39.422Z</time></trkpt><trkpt lat="44.1327782" lon="12.1629274"><ele>148.0</ele><time>2026-04-05T07:57:41.424Z</time></trkpt><trkpt lat="44.1327895" lon="12.1630525"><ele>148.0</ele><time>2026-04-05T07:57:43.43Z</time></trkpt><trkpt lat="44.1328368" lon="12.1631465"><ele>148.0</ele><time>2026-04-05T07:57:45.428Z</time></trkpt><trkpt lat="44.1329224" lon="12.1632745"><ele>148.0</ele><time>2026-04-05T07:57:47.424Z</time></trkpt><trkpt lat="44.1329656" lon="12.1633505"><ele>148.0</ele><time>2026-04-05T07:57:48.429Z</time></trkpt><trkpt lat="44.1329976" lon="12.1634931"><ele>148.83333333333334</ele><time>2026-04-05T07:57:50.422Z</time></trkpt><trkpt lat="44.1329844" lon="12.1636105"><ele>149.66666666666669</ele><time>2026-04-05T07:57:52.435Z</time></trkpt><trkpt lat="44.1329703" lon="12.163718"><ele>150.5</ele><time>2026-04-05T07:57:54.446Z</time></trkpt><trkpt lat="44.1329095" lon="12.1637471"><ele>151.33333333333334</ele><time>2026-04-05T07:57:58.436Z</time></trkpt><trkpt lat="44.1329135" lon="12.1636343"><ele>152.16666666666666</ele><time>2026-04-05T07:58:00.433Z</time></trkpt><trkpt lat="44.132925" lon="12.1634897"><ele>153.0</ele><time>2026-04-05T07:58:02.447Z</time></trkpt><trkpt lat="44.1329178" lon="12.1633474"><ele>153.0</ele><time>2026-04-05T07:58:04.434Z</time></trkpt><trkpt lat="44.1328741" lon="12.1632214"><ele>153.0</ele><time>2026-04-05T07:58:06.423Z</time></trkpt><trkpt lat="44.1328151" lon="12.1631513"><ele>153.0</ele><time>2026-04-05T07:58:08.426Z</time></trkpt><trkpt lat="44.1327298" lon="12.1630993"><ele>153.0</ele><time>2026-04-05T07:58:11.438Z</time></trkpt><trkpt lat="44.1326403" lon="12.1630751"><ele>153.0</ele><time>2026-04-05T07:58:14.428Z</time></trkpt><trkpt lat="44.1325669" lon="12.1630646"><ele>153.0</ele><time>2026-04-05T07:58:17.422Z</time></trkpt><trkpt lat="44.1325063" lon="12.1630886"><ele>153.0</ele><time>2026-04-05T07:58:20.426Z</time></trkpt><trkpt lat="44.1325413" lon="12.1631683"><ele>153.0</ele><time>2026-04-05T07:58:23.435Z</time></trkpt><trkpt lat="44.1325994" lon="12.1632318"><ele>153.0</ele><time>2026-04-05T07:58:25.436Z</time></trkpt><trkpt lat="44.132657" lon="12.1632834"><ele>153.0</ele><time>2026-04-05T07:58:27.452Z</time></trkpt><trkpt lat="44.1327331" lon="12.1633536"><ele>153.0</ele><time>2026-04-05T07:58:30.434Z</time></trkpt><trkpt lat="44.1327901" lon="12.1634278"><ele>153.0</ele><time>2026-04-05T07:58:33.426Z</time></trkpt><trkpt lat="44.1328054" lon="12.1635253"><ele>153.0</ele><time>2026-04-05T07:59:02.435Z</time></trkpt><trkpt lat="44.1327646" lon="12.1635965"><ele>153.0</ele><time>2026-04-05T08:02:09.425Z</time></trkpt><trkpt lat="44.1327582" lon="12.1635083"><ele>153.0</ele><time>2026-04-05T08:02:16.417Z</time></trkpt><trkpt lat="44.1327906" lon="12.1636024"><ele>153.0</ele><time>2026-04-05T08:02:21.435Z</time></trkpt><trkpt lat="44.1327853" lon="12.163508"><ele>153.0</ele><time>2026-04-05T08:03:15.433Z</time></trkpt><trkpt lat="44.1328023" lon="12.1636075"><ele>153.0</ele><time>2026-04-05T08:03:20.425Z</time></trkpt><trkpt lat="44.1328155" lon="12.1636981"><ele>153.0</ele><time>2026-04-05T08:03:24.433Z</time></trkpt><trkpt lat="44.1328278" lon="12.1637874"><ele>153.0</ele><time>2026-04-05T08:03:28.437Z</time></trkpt><trkpt lat="44.132906" lon="12.1637892"><ele>153.0</ele><time>2026-04-05T08:03:32.429Z</time></trkpt><trkpt lat="44.1329885" lon="12.163778"><ele>153.0</ele><time>2026-04-05T08:03:35.44Z</time></trkpt><trkpt lat="44.1330551" lon="12.1637265"><ele>153.0</ele><time>2026-04-05T08:03:39.434Z</time></trkpt><trkpt lat="44.1330862" lon="12.1636211"><ele>153.0</ele><time>2026-04-05T08:03:43.423Z</time></trkpt><trkpt lat="44.1330745" lon="12.1634993"><ele>153.0</ele><time>2026-04-05T08:03:46.431Z</time></trkpt><trkpt lat="44.1330683" lon="12.1633906"><ele>153.0</ele><time>2026-04-05T08:03:48.427Z</time></trkpt><trkpt lat="44.1330719" lon="12.1632623"><ele>153.0</ele><time>2026-04-05T08:03:50.419Z</time></trkpt><trkpt lat="44.1330501" lon="12.1631236"><ele>153.0</ele><time>2026-04-05T08:03:52.425Z</time></trkpt><trkpt lat="44.1330147" lon="12.1630146"><ele>153.0</ele><time>2026-04-05T08:03:54.435Z</time></trkpt><trkpt lat="44.132983" lon="12.1629291"><ele>153.0</ele><time>2026-04-05T08:03:56.434Z</time></trkpt><trkpt lat="44.1329376" lon="12.1628264"><ele>153.0</ele><time>2026-04-05T08:03:59.429Z</time></trkpt><trkpt lat="44.1328712" lon="12.1627554"><ele>153.0</ele><time>2026-04-05T08:04:02.432Z</time></trkpt><trkpt lat="44.1328044" lon="12.1627513"><ele>153.0</ele><time>2026-04-05T08:04:05.426Z</time></trkpt><trkpt lat="44.13279" lon="12.1628516"><ele>153.0</ele><time>2026-04-05T08:04:08.432Z</time></trkpt><trkpt lat="44.1327933" lon="12.1629577"><ele>153.0</ele><time>2026-04-05T08:04:11.429Z</time></trkpt><trkpt lat="44.1328106" lon="12.1630721"><ele>153.0</ele><time>2026-04-05T08:04:14.433Z</time></trkpt><trkpt lat="44.1328671" lon="12.1631573"><ele>153.0</ele><time>2026-04-05T08:04:17.43Z</time></trkpt><trkpt lat="44.1329231" lon="12.1632444"><ele>153.0</ele><time>2026-04-05T08:04:19.427Z</time></trkpt><trkpt lat="44.13297" lon="12.1633518"><ele>153.0</ele><time>2026-04-05T08:04:21.435Z</time></trkpt><trkpt lat="44.1329927" lon="12.1634495"><ele>153.0</ele><time>2026-04-05T08:04:23.434Z</time></trkpt><trkpt lat="44.1329877" lon="12.1635752"><ele>153.0</ele><time>2026-04-05T08:04:26.429Z</time></trkpt><trkpt lat="44.1329638" lon="12.1636924"><ele>153.0</ele><time>2026-04-05T08:04:29.43Z</time></trkpt><trkpt lat="44.132936" lon="12.1637883"><ele>153.0</ele><time>2026-04-05T08:04:32.43Z</time></trkpt><trkpt lat="44.1328687" lon="12.1637769"><ele>153.0</ele><time>2026-04-05T08:04:36.43Z</time></trkpt><trkpt lat="44.1328834" lon="12.1636891"><ele>153.0</ele><time>2026-04-05T08:04:39.431Z</time></trkpt><trkpt lat="44.1329059" lon="12.1635636"><ele>153.0</ele><time>2026-04-05T08:04:42.428Z</time></trkpt><trkpt lat="44.1329153" lon="12.1634641"><ele>153.0</ele><time>2026-04-05T08:04:44.414Z</time></trkpt><trkpt lat="44.1329079" lon="12.1633721"><ele>153.0</ele><time>2026-04-05T08:04:46.411Z</time></trkpt><trkpt lat="44.1328799" lon="12.1632712"><ele>153.0</ele><time>2026-04-05T08:04:49.425Z</time></trkpt><trkpt lat="44.1328321" lon="12.1632128"><ele>153.0</ele><time>2026-04-05T08:04:53.421Z</time></trkpt><trkpt lat="44.1327696" lon="12.1631344"><ele>153.0</ele><time>2026-04-05T08:04:57.42Z</time></trkpt><trkpt lat="44.1327103" lon="12.1630984"><ele>153.0</ele><time>2026-04-05T08:05:00.418Z</time></trkpt><trkpt lat="44.1326319" lon="12.1630852"><ele>153.0</ele><time>2026-04-05T08:05:04.414Z</time></trkpt><trkpt lat="44.1326615" lon="12.1631738"><ele>153.0</ele><time>2026-04-05T08:05:11.428Z</time></trkpt><trkpt lat="44.1327179" lon="12.1632318"><ele>153.0</ele><time>2026-04-05T08:05:15.423Z</time></trkpt><trkpt lat="44.1327779" lon="12.1633061"><ele>153.0</ele><time>2026-04-05T08:05:18.421Z</time></trkpt><trkpt lat="44.1328333" lon="12.163379"><ele>153.0</ele><time>2026-04-05T08:05:20.421Z</time></trkpt><trkpt lat="44.1328677" lon="12.1634656"><ele>153.0</ele><time>2026-04-05T08:05:22.416Z</time></trkpt><trkpt lat="44.132872" lon="12.1635789"><ele>153.0</ele><time>2026-04-05T08:05:25.422Z</time></trkpt><trkpt lat="44.1328522" lon="12.1636809"><ele>153.0</ele><time>2026-04-05T08:05:28.423Z</time></trkpt><trkpt lat="44.1328257" lon="12.1637707"><ele>153.0</ele><time>2026-04-05T08:05:31.419Z</time></trkpt><trkpt lat="44.1328943" lon="12.1637881"><ele>153.0</ele><time>2026-04-05T08:05:36.415Z</time></trkpt><trkpt lat="44.1329781" lon="12.163782"><ele>153.0</ele><time>2026-04-05T08:05:39.436Z</time></trkpt><trkpt lat="44.1330417" lon="12.163762"><ele>153.0</ele><time>2026-04-05T08:05:42.417Z</time></trkpt><trkpt lat="44.1331098" lon="12.1638198"><ele>153.0</ele><time>2026-04-05T08:05:46.42Z</time></trkpt><trkpt lat="44.1331468" lon="12.1637441"><ele>153.0</ele><time>2026-04-05T08:05:50.419Z</time></trkpt><trkpt lat="44.1331262" lon="12.1636374"><ele>153.0</ele><time>2026-04-05T08:05:54.419Z</time></trkpt><trkpt lat="44.1330897" lon="12.1635438"><ele>153.0</ele><time>2026-04-05T08:05:57.422Z</time></trkpt><trkpt lat="44.1330445" lon="12.1634671"><ele>153.0</ele><time>2026-04-05T08:06:00.425Z</time></trkpt><trkpt lat="44.133042" lon="12.16336"><ele>153.0</ele><time>2026-04-05T08:06:03.415Z</time></trkpt><trkpt lat="44.1330477" lon="12.1632258"><ele>152.16666666666666</ele><time>2026-04-05T08:06:05.417Z</time></trkpt><trkpt lat="44.1330379" lon="12.1631388"><ele>151.33333333333334</ele><time>2026-04-05T08:06:06.413Z</time></trkpt><trkpt lat="44.1330054" lon="12.1629856"><ele>150.5</ele><time>2026-04-05T08:06:08.405Z</time></trkpt><trkpt lat="44.1329597" lon="12.162863"><ele>149.66666666666669</ele><time>2026-04-05T08:06:10.432Z</time></trkpt><trkpt lat="44.1329076" lon="12.1627755"><ele>148.83333333333334</ele><time>2026-04-05T08:06:12.414Z</time></trkpt><trkpt lat="44.1328453" lon="12.1627249"><ele>148.0</ele><time>2026-04-05T08:06:14.417Z</time></trkpt><trkpt lat="44.1327864" lon="12.1627993"><ele>148.0</ele><time>2026-04-05T08:06:17.413Z</time></trkpt><trkpt lat="44.1327831" lon="12.1628945"><ele>148.0</ele><time>2026-04-05T08:06:19.421Z</time></trkpt><trkpt lat="44.1327806" lon="12.1630102"><ele>148.0</ele><time>2026-04-05T08:06:22.413Z</time></trkpt><trkpt lat="44.1328195" lon="12.1631099"><ele>148.0</ele><time>2026-04-05T08:06:25.42Z</time></trkpt><trkpt lat="44.1328683" lon="12.1631837"><ele>148.0</ele><time>2026-04-05T08:06:27.417Z</time></trkpt><trkpt lat="44.1329361" lon="12.1632856"><ele>148.0</ele><time>2026-04-05T08:06:29.413Z</time></trkpt><trkpt lat="44.1329844" lon="12.1633876"><ele>148.83333333333334</ele><time>2026-04-05T08:06:31.416Z</time></trkpt><trkpt lat="44.1330011" lon="12.1635157"><ele>149.66666666666669</ele><time>2026-04-05T08:06:33.415Z</time></trkpt><trkpt lat="44.1329906" lon="12.1636327"><ele>150.5</ele><time>2026-04-05T08:06:35.419Z</time></trkpt><trkpt lat="44.1329686" lon="12.1637336"><ele>151.33333333333334</ele><time>2026-04-05T08:06:37.419Z</time></trkpt><trkpt lat="44.1329151" lon="12.1638132"><ele>152.16666666666666</ele><time>2026-04-05T08:06:40.417Z</time></trkpt><trkpt lat="44.1328453" lon="12.1637901"><ele>153.0</ele><time>2026-04-05T08:06:43.415Z</time></trkpt><trkpt lat="44.132795" lon="12.1637059"><ele>153.0</ele><time>2026-04-05T08:06:46.419Z</time></trkpt><trkpt lat="44.1328" lon="12.1636024"><ele>153.0</ele><time>2026-04-05T08:06:49.422Z</time></trkpt><trkpt lat="44.1327806" lon="12.1634957"><ele>153.0</ele><time>2026-04-05T08:06:53.423Z</time></trkpt><trkpt lat="44.132745" lon="12.1635859"><ele>153.0</ele><time>2026-04-05T08:09:05.422Z</time></trkpt><trkpt lat="44.1327385" lon="12.1636787"><ele>153.0</ele><time>2026-04-05T08:09:27.424Z</time></trkpt><trkpt lat="44.1326845" lon="12.1637542"><ele>153.0</ele><time>2026-04-05T08:09:32.425Z</time></trkpt><trkpt lat="44.1326191" lon="12.1637304"><ele>153.0</ele><time>2026-04-05T08:09:35.427Z</time></trkpt><trkpt lat="44.132542" lon="12.1637013"><ele>153.0</ele><time>2026-04-05T08:09:38.428Z</time></trkpt><trkpt lat="44.1324667" lon="12.1636739"><ele>153.0</ele><time>2026-04-05T08:09:41.421Z</time></trkpt><trkpt lat="44.1323872" lon="12.1636524"><ele>153.0</ele><time>2026-04-05T08:09:44.425Z</time></trkpt><trkpt lat="44.132318" lon="12.1636592"><ele>153.0</ele><time>2026-04-05T08:10:29.444Z</time></trkpt><trkpt lat="44.1322719" lon="12.1637281"><ele>153.0</ele><time>2026-04-05T08:10:31.428Z</time></trkpt><trkpt lat="44.1322408" lon="12.1638099"><ele>153.0</ele><time>2026-04-05T08:10:33.422Z</time></trkpt><trkpt lat="44.1322032" lon="12.163896"><ele>153.0</ele><time>2026-04-05T08:10:35.425Z</time></trkpt><trkpt lat="44.1321675" lon="12.1639798"><ele>153.28571428571428</ele><time>2026-04-05T08:10:37.427Z</time></trkpt><trkpt lat="44.1321394" lon="12.1640703"><ele>153.57142857142858</ele><time>2026-04-05T08:10:39.431Z</time></trkpt><trkpt lat="44.1321069" lon="12.1641562"><ele>153.85714285714286</ele><time>2026-04-05T08:10:41.426Z</time></trkpt><trkpt lat="44.1320738" lon="12.1642449"><ele>154.14285714285714</ele><time>2026-04-05T08:10:43.428Z</time></trkpt><trkpt lat="44.1320311" lon="12.1643268"><ele>154.42857142857142</ele><time>2026-04-05T08:10:45.429Z</time></trkpt><trkpt lat="44.1319906" lon="12.164423"><ele>154.71428571428572</ele><time>2026-04-05T08:10:47.432Z</time></trkpt><trkpt lat="44.131953" lon="12.164522"><ele>155.0</ele><time>2026-04-05T08:10:49.431Z</time></trkpt><trkpt lat="44.131909" lon="12.1646111"><ele>155.0</ele><time>2026-04-05T08:10:51.427Z</time></trkpt><trkpt lat="44.1318526" lon="12.1646997"><ele>155.0</ele><time>2026-04-05T08:10:53.433Z</time></trkpt><trkpt lat="44.1318131" lon="12.1648061"><ele>155.0</ele><time>2026-04-05T08:10:55.432Z</time></trkpt><trkpt lat="44.1317648" lon="12.1649025"><ele>155.0</ele><time>2026-04-05T08:10:57.428Z</time></trkpt><trkpt lat="44.1317237" lon="12.1650036"><ele>155.0</ele><time>2026-04-05T08:10:59.428Z</time></trkpt><trkpt lat="44.1316777" lon="12.1651115"><ele>155.0</ele><time>2026-04-05T08:11:01.429Z</time></trkpt><trkpt lat="44.1316339" lon="12.1652305"><ele>155.2</ele><time>2026-04-05T08:11:03.428Z</time></trkpt><trkpt lat="44.1315828" lon="12.16535"><ele>155.4</ele><time>2026-04-05T08:11:05.421Z</time></trkpt><trkpt lat="44.1315416" lon="12.1654785"><ele>155.6</ele><time>2026-04-05T08:11:07.42Z</time></trkpt><trkpt lat="44.1314989" lon="12.1655979"><ele>155.8</ele><time>2026-04-05T08:11:09.423Z</time></trkpt><trkpt lat="44.1314575" lon="12.1657163"><ele>156.0</ele><time>2026-04-05T08:11:11.42Z</time></trkpt><trkpt lat="44.1314274" lon="12.1658345"><ele>155.0</ele><time>2026-04-05T08:11:13.43Z</time></trkpt><trkpt lat="44.1313956" lon="12.1659546"><ele>154.0</ele><time>2026-04-05T08:11:15.42Z</time></trkpt><trkpt lat="44.1313644" lon="12.1660739"><ele>153.0</ele><time>2026-04-05T08:11:17.422Z</time></trkpt><trkpt lat="44.1313272" lon="12.1662008"><ele>152.0</ele><time>2026-04-05T08:11:19.439Z</time></trkpt><trkpt lat="44.131293" lon="12.1663307"><ele>151.0</ele><time>2026-04-05T08:11:21.429Z</time></trkpt><trkpt lat="44.1312569" lon="12.1664579"><ele>152.0</ele><time>2026-04-05T08:11:23.421Z</time></trkpt><trkpt lat="44.1312207" lon="12.166588"><ele>153.0</ele><time>2026-04-05T08:11:25.425Z</time></trkpt><trkpt lat="44.1311851" lon="12.1667205"><ele>154.0</ele><time>2026-04-05T08:11:27.42Z</time></trkpt><trkpt lat="44.1311446" lon="12.1668459"><ele>155.0</ele><time>2026-04-05T08:11:29.425Z</time></trkpt><trkpt lat="44.1311052" lon="12.1669624"><ele>156.0</ele><time>2026-04-05T08:11:31.427Z</time></trkpt><trkpt lat="44.1310465" lon="12.1670607"><ele>156.0</ele><time>2026-04-05T08:11:33.421Z</time></trkpt><trkpt lat="44.1309807" lon="12.167145"><ele>156.0</ele><time>2026-04-05T08:11:35.421Z</time></trkpt><trkpt lat="44.1308885" lon="12.1672201"><ele>156.0</ele><time>2026-04-05T08:11:37.42Z</time></trkpt><trkpt lat="44.1307909" lon="12.1672985"><ele>156.0</ele><time>2026-04-05T08:11:39.416Z</time></trkpt><trkpt lat="44.1306935" lon="12.1673833"><ele>156.0</ele><time>2026-04-05T08:11:41.418Z</time></trkpt><trkpt lat="44.1305924" lon="12.1674784"><ele>154.5</ele><time>2026-04-05T08:11:43.419Z</time></trkpt><trkpt lat="44.1305394" lon="12.1675349"><ele>153.0</ele><time>2026-04-05T08:11:44.424Z</time></trkpt><trkpt lat="44.1304908" lon="12.1675971"><ele>151.5</ele><time>2026-04-05T08:11:45.418Z</time></trkpt><trkpt lat="44.1304432" lon="12.1676567"><ele>150.0</ele><time>2026-04-05T08:11:46.418Z</time></trkpt><trkpt lat="44.1303983" lon="12.1677207"><ele>148.5</ele><time>2026-04-05T08:11:47.419Z</time></trkpt><trkpt lat="44.130321" lon="12.1678445"><ele>147.0</ele><time>2026-04-05T08:11:49.427Z</time></trkpt><trkpt lat="44.130245" lon="12.1679779"><ele>147.0</ele><time>2026-04-05T08:11:51.418Z</time></trkpt><trkpt lat="44.1302077" lon="12.1680487"><ele>147.0</ele><time>2026-04-05T08:11:52.423Z</time></trkpt><trkpt lat="44.1301742" lon="12.1681245"><ele>147.0</ele><time>2026-04-05T08:11:53.418Z</time></trkpt><trkpt lat="44.1301405" lon="12.1682013"><ele>147.0</ele><time>2026-04-05T08:11:54.418Z</time></trkpt><trkpt lat="44.1301057" lon="12.1682785"><ele>147.0</ele><time>2026-04-05T08:11:55.419Z</time></trkpt><trkpt lat="44.1300702" lon="12.1683643"><ele>147.0</ele><time>2026-04-05T08:11:56.414Z</time></trkpt><trkpt lat="44.1300316" lon="12.1684506"><ele>147.0</ele><time>2026-04-05T08:11:57.417Z</time></trkpt><trkpt lat="44.129994" lon="12.1685446"><ele>147.33333333333334</ele><time>2026-04-05T08:11:58.421Z</time></trkpt><trkpt lat="44.1299527" lon="12.1686326"><ele>147.66666666666666</ele><time>2026-04-05T08:11:59.42Z</time></trkpt><trkpt lat="44.12991" lon="12.1687202"><ele>148.0</ele><time>2026-04-05T08:12:00.424Z</time></trkpt><trkpt lat="44.12986" lon="12.1688076"><ele>148.33333333333331</ele><time>2026-04-05T08:12:01.42Z</time></trkpt><trkpt lat="44.1298152" lon="12.1688878"><ele>148.66666666666666</ele><time>2026-04-05T08:12:02.42Z</time></trkpt><trkpt lat="44.1297624" lon="12.1689638"><ele>149.0</ele><time>2026-04-05T08:12:03.418Z</time></trkpt><trkpt lat="44.1297099" lon="12.1690426"><ele>149.0</ele><time>2026-04-05T08:12:04.42Z</time></trkpt><trkpt lat="44.1296547" lon="12.169115"><ele>149.0</ele><time>2026-04-05T08:12:05.417Z</time></trkpt><trkpt lat="44.1295995" lon="12.1691827"><ele>149.0</ele><time>2026-04-05T08:12:06.418Z</time></trkpt><trkpt lat="44.1295463" lon="12.1692487"><ele>149.0</ele><time>2026-04-05T08:12:07.425Z</time></trkpt><trkpt lat="44.129491" lon="12.1693087"><ele>149.0</ele><time>2026-04-05T08:12:08.414Z</time></trkpt><trkpt lat="44.12944" lon="12.1693684"><ele>149.0</ele><time>2026-04-05T08:12:09.417Z</time></trkpt><trkpt lat="44.1293881" lon="12.169427"><ele>149.0</ele><time>2026-04-05T08:12:10.422Z</time></trkpt><trkpt lat="44.1293419" lon="12.1694882"><ele>149.0</ele><time>2026-04-05T08:12:11.421Z</time></trkpt><trkpt lat="44.1292972" lon="12.1695555"><ele>149.0</ele><time>2026-04-05T08:12:12.417Z</time></trkpt><trkpt lat="44.1292078" lon="12.1696729"><ele>149.0</ele><time>2026-04-05T08:12:14.417Z</time></trkpt><trkpt lat="44.1291269" lon="12.1697841"><ele>149.0</ele><time>2026-04-05T08:12:16.417Z</time></trkpt><trkpt lat="44.1290653" lon="12.1698608"><ele>149.0</ele><time>2026-04-05T08:12:18.421Z</time></trkpt><trkpt lat="44.1289997" lon="12.169765"><ele>149.16666666666666</ele><time>2026-04-05T08:12:22.425Z</time></trkpt><trkpt lat="44.1289401" lon="12.1696981"><ele>149.33333333333331</ele><time>2026-04-05T08:12:24.426Z</time></trkpt><trkpt lat="44.1288851" lon="12.169631"><ele>149.5</ele><time>2026-04-05T08:12:26.429Z</time></trkpt><trkpt lat="44.1288203" lon="12.1695579"><ele>149.66666666666666</ele><time>2026-04-05T08:12:28.42Z</time></trkpt><trkpt lat="44.1287556" lon="12.1694773"><ele>149.83333333333334</ele><time>2026-04-05T08:12:30.418Z</time></trkpt><trkpt lat="44.1286858" lon="12.1693983"><ele>150.0</ele><time>2026-04-05T08:12:32.418Z</time></trkpt><trkpt lat="44.1286209" lon="12.1693313"><ele>150.0</ele><time>2026-04-05T08:12:34.424Z</time></trkpt><trkpt lat="44.1285535" lon="12.1692596"><ele>150.0</ele><time>2026-04-05T08:12:36.42Z</time></trkpt><trkpt lat="44.1284839" lon="12.1691853"><ele>150.0</ele><time>2026-04-05T08:12:38.42Z</time></trkpt><trkpt lat="44.1284225" lon="12.1691116"><ele>150.0</ele><time>2026-04-05T08:12:40.419Z</time></trkpt><trkpt lat="44.1283624" lon="12.169032"><ele>150.0</ele><time>2026-04-05T08:12:42.418Z</time></trkpt><trkpt lat="44.1282949" lon="12.1689798"><ele>150.0</ele><time>2026-04-05T08:12:44.427Z</time></trkpt><trkpt lat="44.1282107" lon="12.1689489"><ele>149.16666666666666</ele><time>2026-04-05T08:12:46.419Z</time></trkpt><trkpt lat="44.1281263" lon="12.1689646"><ele>148.33333333333334</ele><time>2026-04-05T08:12:48.417Z</time></trkpt><trkpt lat="44.1280302" lon="12.1690071"><ele>147.5</ele><time>2026-04-05T08:12:50.425Z</time></trkpt><trkpt lat="44.1279521" lon="12.1690357"><ele>146.66666666666669</ele><time>2026-04-05T08:12:52.437Z</time></trkpt><trkpt lat="44.1278891" lon="12.1690528"><ele>145.83333333333334</ele><time>2026-04-05T08:12:54.435Z</time></trkpt><trkpt lat="44.1277958" lon="12.1690809"><ele>145.0</ele><time>2026-04-05T08:12:57.426Z</time></trkpt><trkpt lat="44.1277295" lon="12.1691084"><ele>145.0</ele><time>2026-04-05T08:12:59.436Z</time></trkpt><trkpt lat="44.1276456" lon="12.1691371"><ele>145.0</ele><time>2026-04-05T08:13:02.426Z</time></trkpt><trkpt lat="44.1275574" lon="12.1691287"><ele>145.0</ele><time>2026-04-05T08:13:05.429Z</time></trkpt><trkpt lat="44.1274863" lon="12.1691417"><ele>145.0</ele><time>2026-04-05T08:13:07.418Z</time></trkpt><trkpt lat="44.1274042" lon="12.1691578"><ele>145.0</ele><time>2026-04-05T08:13:09.418Z</time></trkpt><trkpt lat="44.1273105" lon="12.1691488"><ele>145.0</ele><time>2026-04-05T08:13:11.421Z</time></trkpt><trkpt lat="44.1272132" lon="12.169124"><ele>142.4</ele><time>2026-04-05T08:13:13.417Z</time></trkpt><trkpt lat="44.127112" lon="12.1691004"><ele>139.8</ele><time>2026-04-05T08:13:15.415Z</time></trkpt><trkpt lat="44.1270178" lon="12.1690844"><ele>137.2</ele><time>2026-04-05T08:13:17.419Z</time></trkpt><trkpt lat="44.1269271" lon="12.1690671"><ele>134.6</ele><time>2026-04-05T08:13:19.427Z</time></trkpt><trkpt lat="44.1268269" lon="12.1690194"><ele>132.0</ele><time>2026-04-05T08:13:21.413Z</time></trkpt><trkpt lat="44.1267415" lon="12.1689772"><ele>130.0</ele><time>2026-04-05T08:13:23.423Z</time></trkpt><trkpt lat="44.1266464" lon="12.1689237"><ele>127.99999999999999</ele><time>2026-04-05T08:13:25.414Z</time></trkpt><trkpt lat="44.1265483" lon="12.1688813"><ele>125.99999999999999</ele><time>2026-04-05T08:13:27.414Z</time></trkpt><trkpt lat="44.1264554" lon="12.1688517"><ele>124.0</ele><time>2026-04-05T08:13:29.426Z</time></trkpt><trkpt lat="44.1263615" lon="12.1688252"><ele>122.0</ele><time>2026-04-05T08:13:31.417Z</time></trkpt><trkpt lat="44.1262639" lon="12.1687971"><ele>120.8</ele><time>2026-04-05T08:13:33.417Z</time></trkpt><trkpt lat="44.126162" lon="12.1687903"><ele>119.6</ele><time>2026-04-05T08:13:35.418Z</time></trkpt><trkpt lat="44.1260703" lon="12.1687602"><ele>118.39999999999999</ele><time>2026-04-05T08:13:37.418Z</time></trkpt><trkpt lat="44.125991" lon="12.1687277"><ele>117.19999999999999</ele><time>2026-04-05T08:13:39.424Z</time></trkpt><trkpt lat="44.1259137" lon="12.1686894"><ele>116.0</ele><time>2026-04-05T08:13:41.431Z</time></trkpt><trkpt lat="44.1258199" lon="12.1686377"><ele>115.6</ele><time>2026-04-05T08:13:43.425Z</time></trkpt><trkpt lat="44.1257256" lon="12.1685892"><ele>115.19999999999999</ele><time>2026-04-05T08:13:45.417Z</time></trkpt><trkpt lat="44.125637" lon="12.1685352"><ele>114.80000000000001</ele><time>2026-04-05T08:13:47.418Z</time></trkpt><trkpt lat="44.1255443" lon="12.1684912"><ele>114.4</ele><time>2026-04-05T08:13:49.431Z</time></trkpt><trkpt lat="44.1254547" lon="12.1684531"><ele>114.0</ele><time>2026-04-05T08:13:51.426Z</time></trkpt><trkpt lat="44.1253663" lon="12.1684043"><ele>114.0</ele><time>2026-04-05T08:13:53.427Z</time></trkpt><trkpt lat="44.1252856" lon="12.1683503"><ele>114.0</ele><time>2026-04-05T08:13:55.43Z</time></trkpt><trkpt lat="44.1252031" lon="12.1683019"><ele>114.0</ele><time>2026-04-05T08:13:57.428Z</time></trkpt><trkpt lat="44.1251144" lon="12.1682634"><ele>114.0</ele><time>2026-04-05T08:13:59.427Z</time></trkpt><trkpt lat="44.1250191" lon="12.1682379"><ele>114.0</ele><time>2026-04-05T08:14:01.422Z</time></trkpt><trkpt lat="44.1249249" lon="12.1682361"><ele>111.4</ele><time>2026-04-05T08:14:03.412Z</time></trkpt><trkpt lat="44.124827" lon="12.1682708"><ele>108.80000000000001</ele><time>2026-04-05T08:14:05.429Z</time></trkpt><trkpt lat="44.1247238" lon="12.1683068"><ele>106.19999999999999</ele><time>2026-04-05T08:14:07.422Z</time></trkpt><trkpt lat="44.1246256" lon="12.1683683"><ele>103.6</ele><time>2026-04-05T08:14:09.413Z</time></trkpt><trkpt lat="44.1245419" lon="12.1684608"><ele>101.0</ele><time>2026-04-05T08:14:11.419Z</time></trkpt><trkpt lat="44.124477" lon="12.1685664"><ele>100.99999999999999</ele><time>2026-04-05T08:14:13.418Z</time></trkpt><trkpt lat="44.1243959" lon="12.1686556"><ele>101.0</ele><time>2026-04-05T08:14:15.416Z</time></trkpt><trkpt lat="44.1243242" lon="12.1687395"><ele>101.0</ele><time>2026-04-05T08:14:17.426Z</time></trkpt><trkpt lat="44.1242678" lon="12.1688199"><ele>101.0</ele><time>2026-04-05T08:14:19.427Z</time></trkpt><trkpt lat="44.1241982" lon="12.1688727"><ele>100.99999999999999</ele><time>2026-04-05T08:14:22.432Z</time></trkpt><trkpt lat="44.1241231" lon="12.1689328"><ele>101.0</ele><time>2026-04-05T08:14:26.429Z</time></trkpt><trkpt lat="44.1240571" lon="12.1690094"><ele>98.85714285714286</ele><time>2026-04-05T08:14:29.428Z</time></trkpt><trkpt lat="44.1239936" lon="12.1690556"><ele>96.71428571428571</ele><time>2026-04-05T08:14:31.429Z</time></trkpt><trkpt lat="44.1239332" lon="12.1691148"><ele>94.57142857142858</ele><time>2026-04-05T08:14:33.43Z</time></trkpt><trkpt lat="44.1238828" lon="12.1691701"><ele>92.42857142857143</ele><time>2026-04-05T08:14:35.433Z</time></trkpt><trkpt lat="44.12383" lon="12.169218"><ele>90.28571428571429</ele><time>2026-04-05T08:14:37.423Z</time></trkpt><trkpt lat="44.1237781" lon="12.1692706"><ele>88.14285714285715</ele><time>2026-04-05T08:14:39.428Z</time></trkpt><trkpt lat="44.1237171" lon="12.1693426"><ele>86.0</ele><time>2026-04-05T08:14:42.429Z</time></trkpt><trkpt lat="44.1236581" lon="12.1694147"><ele>86.00000000000001</ele><time>2026-04-05T08:14:45.428Z</time></trkpt><trkpt lat="44.1235904" lon="12.1694722"><ele>86.0</ele><time>2026-04-05T08:14:48.426Z</time></trkpt><trkpt lat="44.1235302" lon="12.1695399"><ele>86.0</ele><time>2026-04-05T08:14:51.421Z</time></trkpt><trkpt lat="44.1234785" lon="12.1695945"><ele>86.0</ele><time>2026-04-05T08:14:53.423Z</time></trkpt><trkpt lat="44.1234201" lon="12.1696536"><ele>86.0</ele><time>2026-04-05T08:14:55.441Z</time></trkpt><trkpt lat="44.1233656" lon="12.1697243"><ele>86.00000000000001</ele><time>2026-04-05T08:14:57.425Z</time></trkpt><trkpt lat="44.1233045" lon="12.1697846"><ele>86.0</ele><time>2026-04-05T08:14:59.427Z</time></trkpt><trkpt lat="44.1232494" lon="12.1698361"><ele>83.83333333333334</ele><time>2026-04-05T08:15:01.418Z</time></trkpt><trkpt lat="44.1231943" lon="12.1698918"><ele>81.66666666666667</ele><time>2026-04-05T08:15:03.422Z</time></trkpt><trkpt lat="44.1231154" lon="12.1699659"><ele>79.5</ele><time>2026-04-05T08:15:06.417Z</time></trkpt><trkpt lat="44.1230633" lon="12.1700272"><ele>77.33333333333333</ele><time>2026-04-05T08:15:08.417Z</time></trkpt><trkpt lat="44.1230043" lon="12.1700867"><ele>75.16666666666666</ele><time>2026-04-05T08:15:10.414Z</time></trkpt><trkpt lat="44.122932" lon="12.1701514"><ele>73.0</ele><time>2026-04-05T08:15:12.415Z</time></trkpt><trkpt lat="44.1228578" lon="12.170234"><ele>73.0</ele><time>2026-04-05T08:15:14.421Z</time></trkpt><trkpt lat="44.1227837" lon="12.1703037"><ele>73.0</ele><time>2026-04-05T08:15:16.413Z</time></trkpt><trkpt lat="44.1227197" lon="12.1703634"><ele>73.0</ele><time>2026-04-05T08:15:18.416Z</time></trkpt><trkpt lat="44.1226617" lon="12.1704353"><ele>73.0</ele><time>2026-04-05T08:15:20.426Z</time></trkpt><trkpt lat="44.1226048" lon="12.1705095"><ele>73.0</ele><time>2026-04-05T08:15:22.413Z</time></trkpt><trkpt lat="44.1225374" lon="12.1705176"><ele>73.0</ele><time>2026-04-05T08:15:25.409Z</time></trkpt><trkpt lat="44.1225128" lon="12.1704329"><ele>73.0</ele><time>2026-04-05T08:15:27.411Z</time></trkpt><trkpt lat="44.1224826" lon="12.1703452"><ele>73.0</ele><time>2026-04-05T08:15:29.413Z</time></trkpt><trkpt lat="44.1224566" lon="12.1702404"><ele>73.0</ele><time>2026-04-05T08:15:31.422Z</time></trkpt><trkpt lat="44.1224337" lon="12.1701582"><ele>73.0</ele><time>2026-04-05T08:15:33.412Z</time></trkpt><trkpt lat="44.122396" lon="12.170055"><ele>73.0</ele><time>2026-04-05T08:15:35.407Z</time></trkpt><trkpt lat="44.1223449" lon="12.1699588"><ele>73.0</ele><time>2026-04-05T08:15:37.417Z</time></trkpt><trkpt lat="44.1223064" lon="12.1698648"><ele>73.83333333333333</ele><time>2026-04-05T08:15:39.418Z</time></trkpt><trkpt lat="44.1222683" lon="12.1697819"><ele>74.66666666666666</ele><time>2026-04-05T08:15:41.42Z</time></trkpt><trkpt lat="44.1222315" lon="12.169697"><ele>75.5</ele><time>2026-04-05T08:15:43.408Z</time></trkpt><trkpt lat="44.1221903" lon="12.1696021"><ele>76.33333333333333</ele><time>2026-04-05T08:15:45.414Z</time></trkpt><trkpt lat="44.1221493" lon="12.1695048"><ele>77.16666666666667</ele><time>2026-04-05T08:15:47.341Z</time></trkpt><trkpt lat="44.1221125" lon="12.1693981"><ele>78.0</ele><time>2026-04-05T08:15:49.416Z</time></trkpt><trkpt lat="44.1220716" lon="12.1693073"><ele>78.0</ele><time>2026-04-05T08:15:51.42Z</time></trkpt><trkpt lat="44.1220299" lon="12.1692188"><ele>78.0</ele><time>2026-04-05T08:15:53.412Z</time></trkpt><trkpt lat="44.1219782" lon="12.1691416"><ele>78.0</ele><time>2026-04-05T08:15:55.412Z</time></trkpt><trkpt lat="44.1219214" lon="12.1690753"><ele>78.0</ele><time>2026-04-05T08:15:57.433Z</time></trkpt><trkpt lat="44.1218688" lon="12.1690195"><ele>78.0</ele><time>2026-04-05T08:15:59.422Z</time></trkpt><trkpt lat="44.1218168" lon="12.1689695"><ele>78.0</ele><time>2026-04-05T08:16:01.413Z</time></trkpt><trkpt lat="44.1217587" lon="12.1689235"><ele>78.0</ele><time>2026-04-05T08:16:03.402Z</time></trkpt><trkpt lat="44.1216996" lon="12.168882"><ele>78.83333333333333</ele><time>2026-04-05T08:16:05.412Z</time></trkpt><trkpt lat="44.1216191" lon="12.1688306"><ele>79.66666666666667</ele><time>2026-04-05T08:16:08.41Z</time></trkpt><trkpt lat="44.1215478" lon="12.1687846"><ele>80.5</ele><time>2026-04-05T08:16:11.412Z</time></trkpt><trkpt lat="44.1214758" lon="12.1687822"><ele>81.33333333333334</ele><time>2026-04-05T08:16:15.414Z</time></trkpt><trkpt lat="44.1214077" lon="12.168797"><ele>82.16666666666667</ele><time>2026-04-05T08:16:18.414Z</time></trkpt><trkpt lat="44.1213377" lon="12.1687517"><ele>83.0</ele><time>2026-04-05T08:16:21.415Z</time></trkpt><trkpt lat="44.1212654" lon="12.1687066"><ele>83.5</ele><time>2026-04-05T08:16:24.412Z</time></trkpt><trkpt lat="44.1211897" lon="12.1686636"><ele>84.0</ele><time>2026-04-05T08:16:27.411Z</time></trkpt><trkpt lat="44.1211113" lon="12.168623"><ele>84.5</ele><time>2026-04-05T08:16:30.416Z</time></trkpt><trkpt lat="44.1210317" lon="12.1685776"><ele>85.0</ele><time>2026-04-05T08:16:33.402Z</time></trkpt><trkpt lat="44.1209854" lon="12.1684859"><ele>85.5</ele><time>2026-04-05T08:16:36.42Z</time></trkpt><trkpt lat="44.1209348" lon="12.1684333"><ele>86.0</ele><time>2026-04-05T08:16:40.416Z</time></trkpt><trkpt lat="44.120864" lon="12.1684019"><ele>86.00000000000001</ele><time>2026-04-05T08:17:28.404Z</time></trkpt><trkpt lat="44.1208118" lon="12.1683366"><ele>86.0</ele><time>2026-04-05T08:17:30.422Z</time></trkpt><trkpt lat="44.120752" lon="12.1682964"><ele>86.0</ele><time>2026-04-05T08:17:32.407Z</time></trkpt><trkpt lat="44.1206857" lon="12.168248"><ele>86.0</ele><time>2026-04-05T08:17:34.406Z</time></trkpt><trkpt lat="44.12063" lon="12.1681999"><ele>86.0</ele><time>2026-04-05T08:17:36.413Z</time></trkpt><trkpt lat="44.1205764" lon="12.1681506"><ele>86.00000000000001</ele><time>2026-04-05T08:17:38.4Z</time></trkpt><trkpt lat="44.1205067" lon="12.1680927"><ele>86.0</ele><time>2026-04-05T08:17:40.397Z</time></trkpt><trkpt lat="44.1204479" lon="12.1680265"><ele>86.28571428571429</ele><time>2026-04-05T08:17:43.235Z</time></trkpt><trkpt lat="44.1204012" lon="12.1679543"><ele>86.57142857142857</ele><time>2026-04-05T08:17:45.404Z</time></trkpt><trkpt lat="44.1203531" lon="12.1678878"><ele>86.85714285714286</ele><time>2026-04-05T08:17:47.394Z</time></trkpt><trkpt lat="44.1202981" lon="12.1678365"><ele>87.14285714285714</ele><time>2026-04-05T08:17:49.405Z</time></trkpt><trkpt lat="44.1202364" lon="12.1677968"><ele>87.42857142857143</ele><time>2026-04-05T08:17:51.403Z</time></trkpt><trkpt lat="44.1201749" lon="12.1677557"><ele>87.71428571428572</ele><time>2026-04-05T08:17:53.41Z</time></trkpt><trkpt lat="44.1201144" lon="12.1677039"><ele>88.0</ele><time>2026-04-05T08:17:55.404Z</time></trkpt><trkpt lat="44.1200609" lon="12.1676472"><ele>88.0</ele><time>2026-04-05T08:17:57.405Z</time></trkpt><trkpt lat="44.1200066" lon="12.167576"><ele>88.0</ele><time>2026-04-05T08:17:59.38Z</time></trkpt><trkpt lat="44.1199685" lon="12.1675002"><ele>88.0</ele><time>2026-04-05T08:18:01.422Z</time></trkpt><trkpt lat="44.1199184" lon="12.1674254"><ele>88.0</ele><time>2026-04-05T08:18:03.41Z</time></trkpt><trkpt lat="44.1198654" lon="12.1673565"><ele>88.0</ele><time>2026-04-05T08:18:05.405Z</time></trkpt><trkpt lat="44.1198028" lon="12.1672941"><ele>88.0</ele><time>2026-04-05T08:18:07.404Z</time></trkpt><trkpt lat="44.1197402" lon="12.1672383"><ele>88.0</ele><time>2026-04-05T08:18:09.403Z</time></trkpt><trkpt lat="44.11968" lon="12.1671801"><ele>88.66666666666666</ele><time>2026-04-05T08:18:11.402Z</time></trkpt><trkpt lat="44.1196273" lon="12.1671214"><ele>89.33333333333333</ele><time>2026-04-05T08:18:13.41Z</time></trkpt><trkpt lat="44.1195734" lon="12.1670722"><ele>90.0</ele><time>2026-04-05T08:18:15.399Z</time></trkpt><trkpt lat="44.1194955" lon="12.16702"><ele>90.66666666666667</ele><time>2026-04-05T08:18:18.411Z</time></trkpt><trkpt lat="44.1194141" lon="12.1670114"><ele>91.33333333333334</ele><time>2026-04-05T08:18:21.4Z</time></trkpt><trkpt lat="44.1193296" lon="12.1670384"><ele>92.0</ele><time>2026-04-05T08:18:24.41Z</time></trkpt><trkpt lat="44.1192457" lon="12.167058"><ele>92.0</ele><time>2026-04-05T08:18:27.399Z</time></trkpt><trkpt lat="44.1191601" lon="12.1670818"><ele>92.0</ele><time>2026-04-05T08:18:30.403Z</time></trkpt><trkpt lat="44.1190956" lon="12.1670871"><ele>92.0</ele><time>2026-04-05T08:18:32.418Z</time></trkpt><trkpt lat="44.1190314" lon="12.1670888"><ele>92.0</ele><time>2026-04-05T08:18:34.315Z</time></trkpt><trkpt lat="44.1189505" lon="12.1670938"><ele>92.0</ele><time>2026-04-05T08:18:36.409Z</time></trkpt><trkpt lat="44.118876" lon="12.1670979"><ele>92.0</ele><time>2026-04-05T08:18:38.419Z</time></trkpt><trkpt lat="44.1188053" lon="12.1671031"><ele>92.0</ele><time>2026-04-05T08:18:40.397Z</time></trkpt><trkpt lat="44.1187375" lon="12.1671021"><ele>93.0</ele><time>2026-04-05T08:18:42.302Z</time></trkpt><trkpt lat="44.118669" lon="12.1670938"><ele>94.0</ele><time>2026-04-05T08:18:44.407Z</time></trkpt><trkpt lat="44.118577" lon="12.1671037"><ele>95.0</ele><time>2026-04-05T08:18:47.257Z</time></trkpt><trkpt lat="44.1185075" lon="12.1671125"><ele>96.0</ele><time>2026-04-05T08:18:49.278Z</time></trkpt><trkpt lat="44.1184316" lon="12.167125"><ele>97.0</ele><time>2026-04-05T08:18:51.405Z</time></trkpt><trkpt lat="44.1183596" lon="12.1671225"><ele>98.0</ele><time>2026-04-05T08:18:53.41Z</time></trkpt><trkpt lat="44.1182927" lon="12.1671104"><ele>99.0</ele><time>2026-04-05T08:18:55.407Z</time></trkpt><trkpt lat="44.1182299" lon="12.1671041"><ele>102.0</ele><time>2026-04-05T08:18:57.401Z</time></trkpt><trkpt lat="44.1181656" lon="12.1670986"><ele>105.0</ele><time>2026-04-05T08:18:59.41Z</time></trkpt><trkpt lat="44.118085" lon="12.16708"><ele>108.0</ele><time>2026-04-05T08:19:02.398Z</time></trkpt><trkpt lat="44.1180082" lon="12.1670516"><ele>111.0</ele><time>2026-04-05T08:19:05.405Z</time></trkpt><trkpt lat="44.1179369" lon="12.1670229"><ele>114.0</ele><time>2026-04-05T08:19:08.405Z</time></trkpt><trkpt lat="44.117858" lon="12.166988"><ele>117.0</ele><time>2026-04-05T08:19:11.398Z</time></trkpt><trkpt lat="44.1177832" lon="12.1669696"><ele>117.0</ele><time>2026-04-05T08:19:14.404Z</time></trkpt><trkpt lat="44.117714" lon="12.1669725"><ele>117.00000000000001</ele><time>2026-04-05T08:19:17.402Z</time></trkpt><trkpt lat="44.1176507" lon="12.1669574"><ele>117.0</ele><time>2026-04-05T08:19:20.402Z</time></trkpt><trkpt lat="44.1175892" lon="12.16693"><ele>117.0</ele><time>2026-04-05T08:19:23.321Z</time></trkpt><trkpt lat="44.1175147" lon="12.1669114"><ele>117.00000000000001</ele><time>2026-04-05T08:19:26.415Z</time></trkpt><trkpt lat="44.1174338" lon="12.1669005"><ele>117.0</ele><time>2026-04-05T08:19:30.358Z</time></trkpt><trkpt lat="44.1173521" lon="12.1668823"><ele>117.0</ele><time>2026-04-05T08:19:34.424Z</time></trkpt><trkpt lat="44.1172893" lon="12.1668497"><ele>118.71428571428572</ele><time>2026-04-05T08:19:37.405Z</time></trkpt><trkpt lat="44.1172234" lon="12.1668224"><ele>120.42857142857144</ele><time>2026-04-05T08:19:40.405Z</time></trkpt><trkpt lat="44.117153" lon="12.1668133"><ele>122.14285714285714</ele><time>2026-04-05T08:19:43.405Z</time></trkpt><trkpt lat="44.1170844" lon="12.1667964"><ele>123.85714285714286</ele><time>2026-04-05T08:19:46.415Z</time></trkpt><trkpt lat="44.1170191" lon="12.166757"><ele>125.57142857142857</ele><time>2026-04-05T08:19:49.407Z</time></trkpt><trkpt lat="44.1169542" lon="12.1667099"><ele>127.28571428571428</ele><time>2026-04-05T08:19:52.401Z</time></trkpt><trkpt lat="44.116895" lon="12.1666692"><ele>129.0</ele><time>2026-04-05T08:19:55.403Z</time></trkpt><trkpt lat="44.1168257" lon="12.1666172"><ele>129.0</ele><time>2026-04-05T08:19:59.236Z</time></trkpt><trkpt lat="44.1167669" lon="12.1665552"><ele>129.0</ele><time>2026-04-05T08:20:02.41Z</time></trkpt><trkpt lat="44.1167038" lon="12.1664912"><ele>129.0</ele><time>2026-04-05T08:20:06.373Z</time></trkpt><trkpt lat="44.1166459" lon="12.166422"><ele>129.0</ele><time>2026-04-05T08:20:10.404Z</time></trkpt><trkpt lat="44.1165934" lon="12.166361"><ele>129.0</ele><time>2026-04-05T08:20:13.403Z</time></trkpt><trkpt lat="44.1165641" lon="12.1662445"><ele>129.0</ele><time>2026-04-05T08:20:16.414Z</time></trkpt><trkpt lat="44.1166037" lon="12.1661605"><ele>130.33333333333334</ele><time>2026-04-05T08:20:19.403Z</time></trkpt><trkpt lat="44.1166759" lon="12.1661016"><ele>131.66666666666666</ele><time>2026-04-05T08:20:22.396Z</time></trkpt><trkpt lat="44.116735" lon="12.1660659"><ele>133.0</ele><time>2026-04-05T08:20:24.407Z</time></trkpt><trkpt lat="44.1168185" lon="12.1659986"><ele>134.33333333333331</ele><time>2026-04-05T08:20:27.411Z</time></trkpt><trkpt lat="44.116881" lon="12.1658977"><ele>135.66666666666666</ele><time>2026-04-05T08:20:30.412Z</time></trkpt><trkpt lat="44.1169253" lon="12.1657998"><ele>137.0</ele><time>2026-04-05T08:20:33.411Z</time></trkpt><trkpt lat="44.1169625" lon="12.1657075"><ele>137.5</ele><time>2026-04-05T08:20:36.436Z</time></trkpt><trkpt lat="44.1169724" lon="12.1655879"><ele>138.0</ele><time>2026-04-05T08:20:39.406Z</time></trkpt><trkpt lat="44.1169523" lon="12.1654664"><ele>138.5</ele><time>2026-04-05T08:20:42.407Z</time></trkpt><trkpt lat="44.1169205" lon="12.1653481"><ele>139.0</ele><time>2026-04-05T08:20:45.405Z</time></trkpt><trkpt lat="44.1168899" lon="12.1652296"><ele>139.5</ele><time>2026-04-05T08:20:48.409Z</time></trkpt><trkpt lat="44.116857" lon="12.1651206"><ele>140.0</ele><time>2026-04-05T08:20:51.403Z</time></trkpt><trkpt lat="44.1167995" lon="12.1650396"><ele>140.0</ele><time>2026-04-05T08:20:54.404Z</time></trkpt><trkpt lat="44.1167248" lon="12.1650042"><ele>140.0</ele><time>2026-04-05T08:20:57.403Z</time></trkpt><trkpt lat="44.1166454" lon="12.1650004"><ele>140.0</ele><time>2026-04-05T08:21:00.406Z</time></trkpt><trkpt lat="44.1165576" lon="12.1650285"><ele>140.0</ele><time>2026-04-05T08:21:03.412Z</time></trkpt><trkpt lat="44.1164813" lon="12.1650607"><ele>140.0</ele><time>2026-04-05T08:21:06.417Z</time></trkpt><trkpt lat="44.1164002" lon="12.1651074"><ele>140.0</ele><time>2026-04-05T08:21:09.416Z</time></trkpt><trkpt lat="44.1163293" lon="12.1651526"><ele>142.16666666666666</ele><time>2026-04-05T08:21:12.407Z</time></trkpt><trkpt lat="44.1162517" lon="12.1651699"><ele>144.33333333333331</ele><time>2026-04-05T08:21:15.41Z</time></trkpt><trkpt lat="44.1161842" lon="12.1652064"><ele>146.5</ele><time>2026-04-05T08:21:18.421Z</time></trkpt><trkpt lat="44.1161435" lon="12.1653134"><ele>148.66666666666666</ele><time>2026-04-05T08:21:21.401Z</time></trkpt><trkpt lat="44.1161507" lon="12.1654278"><ele>150.83333333333334</ele><time>2026-04-05T08:21:24.412Z</time></trkpt><trkpt lat="44.116132" lon="12.1655153"><ele>153.0</ele><time>2026-04-05T08:21:27.403Z</time></trkpt><trkpt lat="44.1160658" lon="12.1654999"><ele>153.0</ele><time>2026-04-05T08:21:31.421Z</time></trkpt><trkpt lat="44.1159865" lon="12.1654783"><ele>153.0</ele><time>2026-04-05T08:21:35.407Z</time></trkpt><trkpt lat="44.1159212" lon="12.1654611"><ele>153.0</ele><time>2026-04-05T08:21:38.422Z</time></trkpt><trkpt lat="44.1158517" lon="12.1654471"><ele>153.0</ele><time>2026-04-05T08:21:41.405Z</time></trkpt><trkpt lat="44.1157788" lon="12.1654335"><ele>153.0</ele><time>2026-04-05T08:21:44.405Z</time></trkpt><trkpt lat="44.1156998" lon="12.1654064"><ele>153.0</ele><time>2026-04-05T08:21:47.407Z</time></trkpt><trkpt lat="44.1156262" lon="12.1653934"><ele>153.0</ele><time>2026-04-05T08:21:50.405Z</time></trkpt><trkpt lat="44.1155605" lon="12.1653822"><ele>156.5</ele><time>2026-04-05T08:21:53.402Z</time></trkpt><trkpt lat="44.1154935" lon="12.165387"><ele>160.0</ele><time>2026-04-05T08:21:56.4Z</time></trkpt><trkpt lat="44.1154468" lon="12.1654541"><ele>163.5</ele><time>2026-04-05T08:21:59.409Z</time></trkpt><trkpt lat="44.1154188" lon="12.1655466"><ele>167.0</ele><time>2026-04-05T08:22:03.406Z</time></trkpt><trkpt lat="44.1153762" lon="12.1656464"><ele>170.5</ele><time>2026-04-05T08:22:07.403Z</time></trkpt><trkpt lat="44.1153366" lon="12.1657554"><ele>174.0</ele><time>2026-04-05T08:22:10.414Z</time></trkpt><trkpt lat="44.1153236" lon="12.1658644"><ele>174.0</ele><time>2026-04-05T08:22:13.406Z</time></trkpt><trkpt lat="44.1153416" lon="12.1659684"><ele>174.0</ele><time>2026-04-05T08:22:16.407Z</time></trkpt><trkpt lat="44.1153419" lon="12.1660568"><ele>174.0</ele><time>2026-04-05T08:22:18.407Z</time></trkpt><trkpt lat="44.1153441" lon="12.1661492"><ele>174.0</ele><time>2026-04-05T08:22:20.401Z</time></trkpt><trkpt lat="44.1153081" lon="12.1662576"><ele>174.0</ele><time>2026-04-05T08:22:23.406Z</time></trkpt><trkpt lat="44.115271" lon="12.1663508"><ele>174.0</ele><time>2026-04-05T08:22:26.405Z</time></trkpt><trkpt lat="44.1152561" lon="12.1664519"><ele>174.0</ele><time>2026-04-05T08:22:29.403Z</time></trkpt><trkpt lat="44.1152155" lon="12.1665626"><ele>174.0</ele><time>2026-04-05T08:22:32.405Z</time></trkpt><trkpt lat="44.1151688" lon="12.1666565"><ele>174.0</ele><time>2026-04-05T08:22:35.404Z</time></trkpt><trkpt lat="44.1151116" lon="12.1667612"><ele>174.0</ele><time>2026-04-05T08:22:38.4Z</time></trkpt><trkpt lat="44.1150696" lon="12.1668414"><ele>174.0</ele><time>2026-04-05T08:22:40.416Z</time></trkpt><trkpt lat="44.1150366" lon="12.1669187"><ele>174.0</ele><time>2026-04-05T08:22:42.397Z</time></trkpt><trkpt lat="44.1149804" lon="12.1670168"><ele>174.0</ele><time>2026-04-05T08:22:44.402Z</time></trkpt><trkpt lat="44.1149439" lon="12.1671309"><ele>174.0</ele><time>2026-04-05T08:22:46.409Z</time></trkpt><trkpt lat="44.114942" lon="12.167255"><ele>174.0</ele><time>2026-04-05T08:22:48.402Z</time></trkpt><trkpt lat="44.1149518" lon="12.1673586"><ele>174.0</ele><time>2026-04-05T08:22:50.4Z</time></trkpt><trkpt lat="44.1149775" lon="12.1674566"><ele>174.0</ele><time>2026-04-05T08:22:52.41Z</time></trkpt><trkpt lat="44.115033" lon="12.1675683"><ele>174.0</ele><time>2026-04-05T08:22:55.395Z</time></trkpt><trkpt lat="44.1150899" lon="12.167657"><ele>174.0</ele><time>2026-04-05T08:22:57.398Z</time></trkpt><trkpt lat="44.1151474" lon="12.1677584"><ele>174.66666666666666</ele><time>2026-04-05T08:22:59.398Z</time></trkpt><trkpt lat="44.1152079" lon="12.1678489"><ele>175.33333333333334</ele><time>2026-04-05T08:23:01.403Z</time></trkpt><trkpt lat="44.115275" lon="12.1679232"><ele>176.0</ele><time>2026-04-05T08:23:03.393Z</time></trkpt><trkpt lat="44.1153445" lon="12.1680139"><ele>176.66666666666669</ele><time>2026-04-05T08:23:05.39Z</time></trkpt><trkpt lat="44.1153932" lon="12.1680835"><ele>177.33333333333334</ele><time>2026-04-05T08:23:07.394Z</time></trkpt><trkpt lat="44.1154469" lon="12.1681539"><ele>178.0</ele><time>2026-04-05T08:23:09.398Z</time></trkpt><trkpt lat="44.1155119" lon="12.1682157"><ele>177.33333333333334</ele><time>2026-04-05T08:23:11.409Z</time></trkpt><trkpt lat="44.1155727" lon="12.1682618"><ele>176.66666666666669</ele><time>2026-04-05T08:23:13.391Z</time></trkpt><trkpt lat="44.1156365" lon="12.1683597"><ele>176.0</ele><time>2026-04-05T08:23:16.393Z</time></trkpt><trkpt lat="44.1156819" lon="12.1684458"><ele>175.33333333333334</ele><time>2026-04-05T08:23:18.392Z</time></trkpt><trkpt lat="44.1157326" lon="12.168502"><ele>174.66666666666666</ele><time>2026-04-05T08:23:20.4Z</time></trkpt><trkpt lat="44.1157863" lon="12.1685818"><ele>174.0</ele><time>2026-04-05T08:23:22.407Z</time></trkpt><trkpt lat="44.1158489" lon="12.1686649"><ele>174.0</ele><time>2026-04-05T08:23:24.409Z</time></trkpt><trkpt lat="44.1159014" lon="12.1687481"><ele>174.0</ele><time>2026-04-05T08:23:26.403Z</time></trkpt><trkpt lat="44.1159131" lon="12.1688451"><ele>174.0</ele><time>2026-04-05T08:23:28.407Z</time></trkpt><trkpt lat="44.1158583" lon="12.1688907"><ele>174.0</ele><time>2026-04-05T08:23:33.409Z</time></trkpt><trkpt lat="44.1157977" lon="12.1688564"><ele>174.0</ele><time>2026-04-05T08:23:35.409Z</time></trkpt><trkpt lat="44.1157289" lon="12.1687911"><ele>174.0</ele><time>2026-04-05T08:23:38.411Z</time></trkpt><trkpt lat="44.1156812" lon="12.1687331"><ele>174.0</ele><time>2026-04-05T08:23:41.405Z</time></trkpt><trkpt lat="44.1156172" lon="12.1687003"><ele>176.66666666666666</ele><time>2026-04-05T08:25:37.417Z</time></trkpt><trkpt lat="44.1155487" lon="12.1686687"><ele>179.33333333333334</ele><time>2026-04-05T08:26:08.412Z</time></trkpt><trkpt lat="44.1154558" lon="12.1686319"><ele>182.0</ele><time>2026-04-05T08:26:11.412Z</time></trkpt><trkpt lat="44.1153748" lon="12.1686087"><ele>184.66666666666669</ele><time>2026-04-05T08:26:13.411Z</time></trkpt><trkpt lat="44.115291" lon="12.1686128"><ele>187.33333333333334</ele><time>2026-04-05T08:26:15.41Z</time></trkpt><trkpt lat="44.1152164" lon="12.168639"><ele>190.0</ele><time>2026-04-05T08:26:17.411Z</time></trkpt><trkpt lat="44.1151453" lon="12.1686796"><ele>190.0</ele><time>2026-04-05T08:26:19.41Z</time></trkpt><trkpt lat="44.1150518" lon="12.1687112"><ele>190.0</ele><time>2026-04-05T08:26:22.406Z</time></trkpt><trkpt lat="44.1149852" lon="12.1687043"><ele>190.0</ele><time>2026-04-05T08:26:24.406Z</time></trkpt><trkpt lat="44.1149145" lon="12.1686981"><ele>190.0</ele><time>2026-04-05T08:26:27.408Z</time></trkpt><trkpt lat="44.1148342" lon="12.1686473"><ele>190.0</ele><time>2026-04-05T08:26:31.408Z</time></trkpt><trkpt lat="44.1147646" lon="12.1685823"><ele>190.0</ele><time>2026-04-05T08:26:34.409Z</time></trkpt><trkpt lat="44.1146813" lon="12.168544"><ele>193.0</ele><time>2026-04-05T08:26:37.407Z</time></trkpt><trkpt lat="44.1146179" lon="12.1685121"><ele>196.0</ele><time>2026-04-05T08:26:39.407Z</time></trkpt><trkpt lat="44.1145449" lon="12.1684781"><ele>199.0</ele><time>2026-04-05T08:26:41.403Z</time></trkpt><trkpt lat="44.1144611" lon="12.1684438"><ele>202.0</ele><time>2026-04-05T08:26:43.41Z</time></trkpt><trkpt lat="44.114369" lon="12.1683999"><ele>204.99999999999997</ele><time>2026-04-05T08:26:45.406Z</time></trkpt><trkpt lat="44.114289" lon="12.1683502"><ele>208.0</ele><time>2026-04-05T08:26:47.425Z</time></trkpt><trkpt lat="44.1142051" lon="12.1683114"><ele>207.99999999999997</ele><time>2026-04-05T08:26:49.413Z</time></trkpt><trkpt lat="44.1141432" lon="12.1682714"><ele>208.0</ele><time>2026-04-05T08:26:51.413Z</time></trkpt><trkpt lat="44.1140681" lon="12.1682163"><ele>208.0</ele><time>2026-04-05T08:26:53.406Z</time></trkpt><trkpt lat="44.1139882" lon="12.1681761"><ele>208.0</ele><time>2026-04-05T08:26:55.408Z</time></trkpt><trkpt lat="44.1139059" lon="12.1681194"><ele>207.99999999999997</ele><time>2026-04-05T08:26:57.408Z</time></trkpt><trkpt lat="44.1138131" lon="12.1680679"><ele>208.0</ele><time>2026-04-05T08:26:59.42Z</time></trkpt><trkpt lat="44.1137203" lon="12.1680195"><ele>208.83333333333331</ele><time>2026-04-05T08:27:01.41Z</time></trkpt><trkpt lat="44.1136397" lon="12.1679714"><ele>209.66666666666666</ele><time>2026-04-05T08:27:03.409Z</time></trkpt><trkpt lat="44.1135618" lon="12.1679381"><ele>210.5</ele><time>2026-04-05T08:27:05.41Z</time></trkpt><trkpt lat="44.1134778" lon="12.1679042"><ele>211.33333333333331</ele><time>2026-04-05T08:27:08.422Z</time></trkpt><trkpt lat="44.1134122" lon="12.1678645"><ele>212.16666666666666</ele><time>2026-04-05T08:27:11.42Z</time></trkpt><trkpt lat="44.1133873" lon="12.1677508"><ele>213.0</ele><time>2026-04-05T08:27:14.415Z</time></trkpt><trkpt lat="44.1133606" lon="12.1676218"><ele>213.0</ele><time>2026-04-05T08:27:17.412Z</time></trkpt><trkpt lat="44.1133292" lon="12.1675233"><ele>213.0</ele><time>2026-04-05T08:27:19.414Z</time></trkpt><trkpt lat="44.1132931" lon="12.1674111"><ele>213.0</ele><time>2026-04-05T08:27:21.421Z</time></trkpt><trkpt lat="44.1132533" lon="12.1673116"><ele>213.0</ele><time>2026-04-05T08:27:23.413Z</time></trkpt><trkpt lat="44.1132" lon="12.1672263"><ele>213.0</ele><time>2026-04-05T08:27:25.411Z</time></trkpt><trkpt lat="44.113152" lon="12.1671359"><ele>213.0</ele><time>2026-04-05T08:27:27.407Z</time></trkpt><trkpt lat="44.1131012" lon="12.1670485"><ele>212.5</ele><time>2026-04-05T08:27:29.408Z</time></trkpt><trkpt lat="44.1130605" lon="12.1669571"><ele>212.0</ele><time>2026-04-05T08:27:31.412Z</time></trkpt><trkpt lat="44.1130122" lon="12.1668752"><ele>211.5</ele><time>2026-04-05T08:27:33.404Z</time></trkpt><trkpt lat="44.1129645" lon="12.166793"><ele>211.0</ele><time>2026-04-05T08:27:35.399Z</time></trkpt><trkpt lat="44.1129123" lon="12.1667086"><ele>210.5</ele><time>2026-04-05T08:27:37.4Z</time></trkpt><trkpt lat="44.1128591" lon="12.1666199"><ele>210.0</ele><time>2026-04-05T08:27:39.4Z</time></trkpt><trkpt lat="44.1128178" lon="12.1665331"><ele>210.71428571428572</ele><time>2026-04-05T08:27:41.402Z</time></trkpt><trkpt lat="44.1127804" lon="12.1664484"><ele>211.42857142857144</ele><time>2026-04-05T08:27:43.406Z</time></trkpt><trkpt lat="44.1127338" lon="12.1663555"><ele>212.14285714285714</ele><time>2026-04-05T08:27:45.401Z</time></trkpt><trkpt lat="44.1126986" lon="12.1662556"><ele>212.85714285714286</ele><time>2026-04-05T08:27:47.406Z</time></trkpt><trkpt lat="44.1126683" lon="12.1661678"><ele>213.57142857142858</ele><time>2026-04-05T08:27:49.438Z</time></trkpt><trkpt lat="44.1126461" lon="12.1660792"><ele>214.28571428571428</ele><time>2026-04-05T08:27:51.425Z</time></trkpt><trkpt lat="44.1126249" lon="12.1659922"><ele>215.0</ele><time>2026-04-05T08:27:53.413Z</time></trkpt><trkpt lat="44.1126059" lon="12.1659049"><ele>215.0</ele><time>2026-04-05T08:27:56.418Z</time></trkpt><trkpt lat="44.1125937" lon="12.1658113"><ele>215.0</ele><time>2026-04-05T08:27:59.418Z</time></trkpt><trkpt lat="44.1125422" lon="12.1657325"><ele>215.0</ele><time>2026-04-05T08:28:03.411Z</time></trkpt><trkpt lat="44.1124753" lon="12.165761"><ele>215.0</ele><time>2026-04-05T08:28:06.425Z</time></trkpt><trkpt lat="44.1124057" lon="12.1657561"><ele>215.0</ele><time>2026-04-05T08:28:10.414Z</time></trkpt><trkpt lat="44.1123347" lon="12.1657192"><ele>215.0</ele><time>2026-04-05T08:28:13.416Z</time></trkpt><trkpt lat="44.1122739" lon="12.165692"><ele>215.0</ele><time>2026-04-05T08:28:15.414Z</time></trkpt><trkpt lat="44.1121884" lon="12.1657069"><ele>212.33333333333334</ele><time>2026-04-05T08:28:18.415Z</time></trkpt><trkpt lat="44.1120935" lon="12.1657401"><ele>209.66666666666669</ele><time>2026-04-05T08:28:21.424Z</time></trkpt><trkpt lat="44.1120024" lon="12.1657565"><ele>207.0</ele><time>2026-04-05T08:28:24.422Z</time></trkpt><trkpt lat="44.1119302" lon="12.1657625"><ele>204.33333333333331</ele><time>2026-04-05T08:28:26.431Z</time></trkpt><trkpt lat="44.1118517" lon="12.165761"><ele>201.66666666666666</ele><time>2026-04-05T08:28:28.42Z</time></trkpt><trkpt lat="44.1117784" lon="12.1657564"><ele>199.0</ele><time>2026-04-05T08:28:30.419Z</time></trkpt><trkpt lat="44.1117085" lon="12.1657576"><ele>198.99999999999997</ele><time>2026-04-05T08:28:32.421Z</time></trkpt><trkpt lat="44.1116379" lon="12.1657703"><ele>199.0</ele><time>2026-04-05T08:28:34.421Z</time></trkpt><trkpt lat="44.1115635" lon="12.1657912"><ele>199.0</ele><time>2026-04-05T08:28:36.429Z</time></trkpt><trkpt lat="44.11148" lon="12.1658248"><ele>199.0</ele><time>2026-04-05T08:28:39.421Z</time></trkpt><trkpt lat="44.1113871" lon="12.1658483"><ele>198.99999999999997</ele><time>2026-04-05T08:28:42.418Z</time></trkpt><trkpt lat="44.1113205" lon="12.1658619"><ele>199.0</ele><time>2026-04-05T08:28:44.424Z</time></trkpt><trkpt lat="44.1112512" lon="12.1658735"><ele>195.83333333333331</ele><time>2026-04-05T08:28:46.417Z</time></trkpt><trkpt lat="44.1111672" lon="12.1658879"><ele>192.66666666666666</ele><time>2026-04-05T08:28:48.418Z</time></trkpt><trkpt lat="44.1110918" lon="12.1658959"><ele>189.5</ele><time>2026-04-05T08:28:50.43Z</time></trkpt><trkpt lat="44.1110043" lon="12.1659077"><ele>186.33333333333331</ele><time>2026-04-05T08:28:52.418Z</time></trkpt><trkpt lat="44.1109121" lon="12.1659123"><ele>183.16666666666666</ele><time>2026-04-05T08:28:54.408Z</time></trkpt><trkpt lat="44.1108317" lon="12.1659296"><ele>180.0</ele><time>2026-04-05T08:28:56.415Z</time></trkpt><trkpt lat="44.1107442" lon="12.1659331"><ele>177.0</ele><time>2026-04-05T08:28:58.416Z</time></trkpt><trkpt lat="44.1106566" lon="12.1659267"><ele>174.0</ele><time>2026-04-05T08:29:00.414Z</time></trkpt><trkpt lat="44.110549" lon="12.1659159"><ele>171.0</ele><time>2026-04-05T08:29:02.398Z</time></trkpt><trkpt lat="44.1104495" lon="12.1658865"><ele>168.0</ele><time>2026-04-05T08:29:04.398Z</time></trkpt><trkpt lat="44.1103622" lon="12.1658536"><ele>165.0</ele><time>2026-04-05T08:29:06.402Z</time></trkpt><trkpt lat="44.1102869" lon="12.1658205"><ele>165.0</ele><time>2026-04-05T08:29:08.411Z</time></trkpt><trkpt lat="44.1102151" lon="12.1657897"><ele>165.0</ele><time>2026-04-05T08:29:10.409Z</time></trkpt><trkpt lat="44.1101418" lon="12.1657556"><ele>165.0</ele><time>2026-04-05T08:29:12.409Z</time></trkpt><trkpt lat="44.1101111" lon="12.1658478"><ele>165.0</ele><time>2026-04-05T08:29:16.403Z</time></trkpt><trkpt lat="44.1101894" lon="12.1659413"><ele>165.0</ele><time>2026-04-05T08:29:19.406Z</time></trkpt><trkpt lat="44.1102436" lon="12.1660037"><ele>165.0</ele><time>2026-04-05T08:29:21.422Z</time></trkpt><trkpt lat="44.1102995" lon="12.1660797"><ele>165.0</ele><time>2026-04-05T08:29:23.406Z</time></trkpt><trkpt lat="44.1103517" lon="12.1661453"><ele>165.0</ele><time>2026-04-05T08:29:25.399Z</time></trkpt><trkpt lat="44.1104037" lon="12.1662296"><ele>165.0</ele><time>2026-04-05T08:29:27.405Z</time></trkpt><trkpt lat="44.1104624" lon="12.1663108"><ele>165.0</ele><time>2026-04-05T08:29:29.403Z</time></trkpt><trkpt lat="44.1105175" lon="12.1663821"><ele>165.0</ele><time>2026-04-05T08:29:31.407Z</time></trkpt><trkpt lat="44.1105919" lon="12.1664537"><ele>165.0</ele><time>2026-04-05T08:29:34.402Z</time></trkpt><trkpt lat="44.1106565" lon="12.1665064"><ele>165.85714285714286</ele><time>2026-04-05T08:29:37.402Z</time></trkpt><trkpt lat="44.1107088" lon="12.1665822"><ele>166.71428571428572</ele><time>2026-04-05T08:29:40.402Z</time></trkpt><trkpt lat="44.1107688" lon="12.1666196"><ele>167.57142857142856</ele><time>2026-04-05T08:29:42.399Z</time></trkpt><trkpt lat="44.1108343" lon="12.1666601"><ele>168.42857142857144</ele><time>2026-04-05T08:29:44.396Z</time></trkpt><trkpt lat="44.1108949" lon="12.1666888"><ele>169.28571428571428</ele><time>2026-04-05T08:29:46.404Z</time></trkpt><trkpt lat="44.1109548" lon="12.1667226"><ele>170.14285714285714</ele><time>2026-04-05T08:29:48.403Z</time></trkpt><trkpt lat="44.1110113" lon="12.1667696"><ele>171.0</ele><time>2026-04-05T08:29:50.408Z</time></trkpt><trkpt lat="44.1110634" lon="12.1668247"><ele>171.0</ele><time>2026-04-05T08:29:52.415Z</time></trkpt><trkpt lat="44.1111266" lon="12.1668951"><ele>171.0</ele><time>2026-04-05T08:29:54.401Z</time></trkpt><trkpt lat="44.111198" lon="12.1669834"><ele>171.0</ele><time>2026-04-05T08:29:56.397Z</time></trkpt><trkpt lat="44.1112444" lon="12.1670477"><ele>171.0</ele><time>2026-04-05T08:29:57.395Z</time></trkpt><trkpt lat="44.1113284" lon="12.167163"><ele>171.0</ele><time>2026-04-05T08:29:59.403Z</time></trkpt><trkpt lat="44.1113872" lon="12.1672602"><ele>169.0</ele><time>2026-04-05T08:30:01.397Z</time></trkpt><trkpt lat="44.1114353" lon="12.1673747"><ele>167.0</ele><time>2026-04-05T08:30:03.39Z</time></trkpt><trkpt lat="44.1114684" lon="12.167479"><ele>165.0</ele><time>2026-04-05T08:30:05.395Z</time></trkpt><trkpt lat="44.1114833" lon="12.1675802"><ele>163.0</ele><time>2026-04-05T08:30:07.397Z</time></trkpt><trkpt lat="44.1114614" lon="12.1676701"><ele>161.0</ele><time>2026-04-05T08:30:09.401Z</time></trkpt><trkpt lat="44.1114276" lon="12.167764"><ele>159.0</ele><time>2026-04-05T08:30:11.401Z</time></trkpt><trkpt lat="44.1113864" lon="12.1678435"><ele>159.0</ele><time>2026-04-05T08:30:13.402Z</time></trkpt><trkpt lat="44.1113377" lon="12.1679107"><ele>159.0</ele><time>2026-04-05T08:30:15.398Z</time></trkpt><trkpt lat="44.1112571" lon="12.1679749"><ele>159.0</ele><time>2026-04-05T08:30:18.404Z</time></trkpt><trkpt lat="44.1111882" lon="12.1680065"><ele>159.0</ele><time>2026-04-05T08:30:20.398Z</time></trkpt><trkpt lat="44.1111137" lon="12.168029"><ele>159.0</ele><time>2026-04-05T08:30:22.393Z</time></trkpt><trkpt lat="44.1110222" lon="12.1680461"><ele>159.0</ele><time>2026-04-05T08:30:24.396Z</time></trkpt><trkpt lat="44.1109446" lon="12.1680353"><ele>159.0</ele><time>2026-04-05T08:30:26.39Z</time></trkpt><trkpt lat="44.1108817" lon="12.1679978"><ele>159.0</ele><time>2026-04-05T08:30:28.4Z</time></trkpt><trkpt lat="44.1107952" lon="12.1679369"><ele>159.0</ele><time>2026-04-05T08:30:30.399Z</time></trkpt><trkpt lat="44.1106969" lon="12.1678817"><ele>159.0</ele><time>2026-04-05T08:30:32.398Z</time></trkpt><trkpt lat="44.1106017" lon="12.1678773"><ele>159.0</ele><time>2026-04-05T08:30:34.39Z</time></trkpt><trkpt lat="44.1105049" lon="12.1678971"><ele>156.4</ele><time>2026-04-05T08:30:36.395Z</time></trkpt><trkpt lat="44.1104056" lon="12.1679246"><ele>153.8</ele><time>2026-04-05T08:30:38.399Z</time></trkpt><trkpt lat="44.1102925" lon="12.1679482"><ele>151.2</ele><time>2026-04-05T08:30:40.399Z</time></trkpt><trkpt lat="44.1101715" lon="12.1679489"><ele>148.6</ele><time>2026-04-05T08:30:42.4Z</time></trkpt><trkpt lat="44.1100665" lon="12.1679549"><ele>146.0</ele><time>2026-04-05T08:30:44.399Z</time></trkpt><trkpt lat="44.1099989" lon="12.1679829"><ele>146.0</ele><time>2026-04-05T08:30:46.399Z</time></trkpt><trkpt lat="44.1099332" lon="12.1679996"><ele>146.0</ele><time>2026-04-05T08:31:03.399Z</time></trkpt><trkpt lat="44.1098878" lon="12.1679335"><ele>146.0</ele><time>2026-04-05T08:31:06.395Z</time></trkpt><trkpt lat="44.1098213" lon="12.1678748"><ele>146.0</ele><time>2026-04-05T08:31:09.397Z</time></trkpt><trkpt lat="44.1098099" lon="12.167769"><ele>146.0</ele><time>2026-04-05T08:31:14.403Z</time></trkpt><trkpt lat="44.1098272" lon="12.1676792"><ele>146.0</ele><time>2026-04-05T08:31:17.411Z</time></trkpt><trkpt lat="44.1097953" lon="12.1675815"><ele>146.0</ele><time>2026-04-05T08:31:21.408Z</time></trkpt><trkpt lat="44.1097306" lon="12.1675383"><ele>143.0</ele><time>2026-04-05T08:31:24.411Z</time></trkpt><trkpt lat="44.1096513" lon="12.1674864"><ele>140.0</ele><time>2026-04-05T08:31:26.399Z</time></trkpt><trkpt lat="44.109561" lon="12.1674201"><ele>137.0</ele><time>2026-04-05T08:31:28.396Z</time></trkpt><trkpt lat="44.1094737" lon="12.1673554"><ele>134.0</ele><time>2026-04-05T08:31:30.393Z</time></trkpt><trkpt lat="44.109395" lon="12.1673068"><ele>131.0</ele><time>2026-04-05T08:31:32.401Z</time></trkpt><trkpt lat="44.109327" lon="12.1672489"><ele>130.66666666666666</ele><time>2026-04-05T08:31:34.387Z</time></trkpt><trkpt lat="44.1092693" lon="12.1672138"><ele>130.33333333333331</ele><time>2026-04-05T08:31:36.395Z</time></trkpt><trkpt lat="44.1091901" lon="12.1671727"><ele>130.0</ele><time>2026-04-05T08:31:39.398Z</time></trkpt><trkpt lat="44.1091224" lon="12.1671313"><ele>129.66666666666666</ele><time>2026-04-05T08:31:43.408Z</time></trkpt><trkpt lat="44.1090587" lon="12.1670901"><ele>129.33333333333334</ele><time>2026-04-05T08:31:46.405Z</time></trkpt><trkpt lat="44.1089745" lon="12.1670271"><ele>129.0</ele><time>2026-04-05T08:31:49.411Z</time></trkpt><trkpt lat="44.1089224" lon="12.166962"><ele>125.6</ele><time>2026-04-05T08:31:51.414Z</time></trkpt><trkpt lat="44.1088493" lon="12.1669324"><ele>122.2</ele><time>2026-04-05T08:31:53.404Z</time></trkpt><trkpt lat="44.1087625" lon="12.1668956"><ele>118.79999999999998</ele><time>2026-04-05T08:31:55.397Z</time></trkpt><trkpt lat="44.1086621" lon="12.1668545"><ele>115.39999999999999</ele><time>2026-04-05T08:31:57.39Z</time></trkpt><trkpt lat="44.1085456" lon="12.166809"><ele>112.0</ele><time>2026-04-05T08:31:59.392Z</time></trkpt><trkpt lat="44.1084823" lon="12.166789"><ele>112.0</ele><time>2026-04-05T08:32:00.387Z</time></trkpt><trkpt lat="44.1083573" lon="12.1667444"><ele>111.99999999999999</ele><time>2026-04-05T08:32:02.387Z</time></trkpt><trkpt lat="44.1082349" lon="12.1666974"><ele>111.99999999999999</ele><time>2026-04-05T08:32:04.39Z</time></trkpt><trkpt lat="44.1081742" lon="12.1666706"><ele>112.0</ele><time>2026-04-05T08:32:05.388Z</time></trkpt><trkpt lat="44.1081132" lon="12.1666425"><ele>112.0</ele><time>2026-04-05T08:32:06.389Z</time></trkpt><trkpt lat="44.1080042" lon="12.1665791"><ele>110.57142857142857</ele><time>2026-04-05T08:32:08.384Z</time></trkpt><trkpt lat="44.1079473" lon="12.1665347"><ele>109.14285714285714</ele><time>2026-04-05T08:32:09.388Z</time></trkpt><trkpt lat="44.107891" lon="12.1664916"><ele>107.71428571428572</ele><time>2026-04-05T08:32:10.387Z</time></trkpt><trkpt lat="44.1078343" lon="12.1664517"><ele>106.28571428571428</ele><time>2026-04-05T08:32:11.392Z</time></trkpt><trkpt lat="44.1077775" lon="12.1664062"><ele>104.85714285714286</ele><time>2026-04-05T08:32:12.39Z</time></trkpt><trkpt lat="44.1077228" lon="12.1663618"><ele>103.42857142857143</ele><time>2026-04-05T08:32:13.392Z</time></trkpt><trkpt lat="44.1076169" lon="12.1662901"><ele>102.0</ele><time>2026-04-05T08:32:15.395Z</time></trkpt><trkpt lat="44.1075259" lon="12.16624"><ele>102.0</ele><time>2026-04-05T08:32:17.392Z</time></trkpt><trkpt lat="44.1074502" lon="12.166236"><ele>102.0</ele><time>2026-04-05T08:32:19.402Z</time></trkpt><trkpt lat="44.1074052" lon="12.166314"><ele>102.0</ele><time>2026-04-05T08:32:21.4Z</time></trkpt><trkpt lat="44.1073828" lon="12.1664164"><ele>102.0</ele><time>2026-04-05T08:32:23.403Z</time></trkpt><trkpt lat="44.1073539" lon="12.1665117"><ele>102.0</ele><time>2026-04-05T08:32:25.391Z</time></trkpt><trkpt lat="44.1073256" lon="12.1666037"><ele>102.0</ele><time>2026-04-05T08:32:27.417Z</time></trkpt><trkpt lat="44.1072826" lon="12.1666927"><ele>102.0</ele><time>2026-04-05T08:32:29.406Z</time></trkpt><trkpt lat="44.1072494" lon="12.1668039"><ele>102.5</ele><time>2026-04-05T08:32:32.395Z</time></trkpt><trkpt lat="44.107251" lon="12.1668933"><ele>103.0</ele><time>2026-04-05T08:32:34.395Z</time></trkpt><trkpt lat="44.1072722" lon="12.1669957"><ele>103.5</ele><time>2026-04-05T08:32:36.398Z</time></trkpt><trkpt lat="44.1072772" lon="12.1671094"><ele>104.0</ele><time>2026-04-05T08:32:38.393Z</time></trkpt><trkpt lat="44.1072502" lon="12.1672149"><ele>104.5</ele><time>2026-04-05T08:32:40.395Z</time></trkpt><trkpt lat="44.1071785" lon="12.1673093"><ele>105.0</ele><time>2026-04-05T08:32:42.395Z</time></trkpt><trkpt lat="44.1070791" lon="12.167375"><ele>103.6</ele><time>2026-04-05T08:32:44.387Z</time></trkpt><trkpt lat="44.1069728" lon="12.1674228"><ele>102.2</ele><time>2026-04-05T08:32:46.384Z</time></trkpt><trkpt lat="44.1068449" lon="12.1674598"><ele>100.80000000000001</ele><time>2026-04-05T08:32:48.388Z</time></trkpt><trkpt lat="44.1067837" lon="12.1674873"><ele>99.4</ele><time>2026-04-05T08:32:49.382Z</time></trkpt><trkpt lat="44.1066977" lon="12.1675681"><ele>98.0</ele><time>2026-04-05T08:32:51.389Z</time></trkpt><trkpt lat="44.106644" lon="12.1676689"><ele>97.99999999999999</ele><time>2026-04-05T08:32:53.399Z</time></trkpt><trkpt lat="44.1065911" lon="12.1677476"><ele>98.0</ele><time>2026-04-05T08:32:55.405Z</time></trkpt><trkpt lat="44.1065462" lon="12.1678281"><ele>98.0</ele><time>2026-04-05T08:32:57.402Z</time></trkpt><trkpt lat="44.1065006" lon="12.1679202"><ele>98.0</ele><time>2026-04-05T08:32:59.405Z</time></trkpt><trkpt lat="44.1064528" lon="12.1680217"><ele>97.99999999999999</ele><time>2026-04-05T08:33:01.398Z</time></trkpt><trkpt lat="44.1064085" lon="12.1681192"><ele>98.0</ele><time>2026-04-05T08:33:03.396Z</time></trkpt><trkpt lat="44.1063651" lon="12.1682209"><ele>98.66666666666666</ele><time>2026-04-05T08:33:05.397Z</time></trkpt><trkpt lat="44.1063265" lon="12.1683013"><ele>99.33333333333333</ele><time>2026-04-05T08:33:07.395Z</time></trkpt><trkpt lat="44.1062675" lon="12.1683869"><ele>100.0</ele><time>2026-04-05T08:33:09.401Z</time></trkpt><trkpt lat="44.1062102" lon="12.1684741"><ele>100.66666666666666</ele><time>2026-04-05T08:33:11.396Z</time></trkpt><trkpt lat="44.1061384" lon="12.1685595"><ele>101.33333333333333</ele><time>2026-04-05T08:33:13.389Z</time></trkpt><trkpt lat="44.1060675" lon="12.1686762"><ele>102.0</ele><time>2026-04-05T08:33:15.389Z</time></trkpt><trkpt lat="44.1060326" lon="12.1688163"><ele>102.0</ele><time>2026-04-05T08:33:17.394Z</time></trkpt><trkpt lat="44.1060122" lon="12.1689468"><ele>102.0</ele><time>2026-04-05T08:33:19.394Z</time></trkpt><trkpt lat="44.1059757" lon="12.1690882"><ele>102.0</ele><time>2026-04-05T08:33:21.401Z</time></trkpt><trkpt lat="44.1059341" lon="12.1692251"><ele>102.0</ele><time>2026-04-05T08:33:23.394Z</time></trkpt><trkpt lat="44.1059112" lon="12.1693624"><ele>102.0</ele><time>2026-04-05T08:33:25.391Z</time></trkpt><trkpt lat="44.1058961" lon="12.1694968"><ele>100.8</ele><time>2026-04-05T08:33:27.389Z</time></trkpt><trkpt lat="44.1058752" lon="12.1696675"><ele>99.6</ele><time>2026-04-05T08:33:29.399Z</time></trkpt><trkpt lat="44.1058671" lon="12.1698364"><ele>98.39999999999999</ele><time>2026-04-05T08:33:31.39Z</time></trkpt><trkpt lat="44.1058551" lon="12.1699227"><ele>97.19999999999999</ele><time>2026-04-05T08:33:32.385Z</time></trkpt><trkpt lat="44.1058341" lon="12.1700885"><ele>96.0</ele><time>2026-04-05T08:33:34.385Z</time></trkpt><trkpt lat="44.1058124" lon="12.1702417"><ele>96.0</ele><time>2026-04-05T08:33:36.39Z</time></trkpt><trkpt lat="44.105779" lon="12.1703756"><ele>96.0</ele><time>2026-04-05T08:33:38.394Z</time></trkpt><trkpt lat="44.1057229" lon="12.1704929"><ele>96.0</ele><time>2026-04-05T08:33:40.389Z</time></trkpt><trkpt lat="44.1056627" lon="12.170613"><ele>96.0</ele><time>2026-04-05T08:33:42.389Z</time></trkpt><trkpt lat="44.1055991" lon="12.1707304"><ele>96.0</ele><time>2026-04-05T08:33:44.387Z</time></trkpt><trkpt lat="44.1055388" lon="12.1708234"><ele>96.66666666666667</ele><time>2026-04-05T08:33:46.404Z</time></trkpt><trkpt lat="44.1054873" lon="12.1709046"><ele>97.33333333333334</ele><time>2026-04-05T08:33:48.395Z</time></trkpt><trkpt lat="44.1054393" lon="12.1709657"><ele>98.0</ele><time>2026-04-05T08:33:50.391Z</time></trkpt><trkpt lat="44.105364" lon="12.1710079"><ele>98.66666666666667</ele><time>2026-04-05T08:33:53.397Z</time></trkpt><trkpt lat="44.1052921" lon="12.1709855"><ele>99.33333333333334</ele><time>2026-04-05T08:33:55.396Z</time></trkpt><trkpt lat="44.1052588" lon="12.1708704"><ele>100.0</ele><time>2026-04-05T08:33:58.396Z</time></trkpt><trkpt lat="44.105287" lon="12.1707752"><ele>100.85714285714286</ele><time>2026-04-05T08:34:00.394Z</time></trkpt><trkpt lat="44.1053403" lon="12.1706713"><ele>101.71428571428572</ele><time>2026-04-05T08:34:03.396Z</time></trkpt><trkpt lat="44.1053796" lon="12.1705973"><ele>102.57142857142858</ele><time>2026-04-05T08:34:05.396Z</time></trkpt><trkpt lat="44.105431" lon="12.170522"><ele>103.42857142857143</ele><time>2026-04-05T08:34:07.398Z</time></trkpt><trkpt lat="44.1054798" lon="12.1704525"><ele>104.28571428571428</ele><time>2026-04-05T08:34:09.398Z</time></trkpt><trkpt lat="44.1055277" lon="12.1703775"><ele>105.14285714285715</ele><time>2026-04-05T08:34:11.402Z</time></trkpt><trkpt lat="44.1055712" lon="12.1702991"><ele>106.0</ele><time>2026-04-05T08:34:13.397Z</time></trkpt><trkpt lat="44.1056091" lon="12.1702161"><ele>106.0</ele><time>2026-04-05T08:34:15.398Z</time></trkpt><trkpt lat="44.1056358" lon="12.1701241"><ele>106.0</ele><time>2026-04-05T08:34:17.402Z</time></trkpt><trkpt lat="44.1056597" lon="12.170034"><ele>106.0</ele><time>2026-04-05T08:34:19.399Z</time></trkpt><trkpt lat="44.1056703" lon="12.1699293"><ele>106.0</ele><time>2026-04-05T08:34:21.401Z</time></trkpt><trkpt lat="44.1056698" lon="12.1698321"><ele>106.0</ele><time>2026-04-05T08:34:23.398Z</time></trkpt><trkpt lat="44.1056728" lon="12.1697419"><ele>106.0</ele><time>2026-04-05T08:34:25.401Z</time></trkpt><trkpt lat="44.1056662" lon="12.169633"><ele>106.0</ele><time>2026-04-05T08:34:27.408Z</time></trkpt><trkpt lat="44.1056503" lon="12.1695354"><ele>106.16666666666667</ele><time>2026-04-05T08:34:29.401Z</time></trkpt><trkpt lat="44.1056271" lon="12.1694068"><ele>106.33333333333334</ele><time>2026-04-05T08:34:32.4Z</time></trkpt><trkpt lat="44.1056054" lon="12.1693216"><ele>106.5</ele><time>2026-04-05T08:34:34.399Z</time></trkpt><trkpt lat="44.105576" lon="12.1692376"><ele>106.66666666666666</ele><time>2026-04-05T08:34:36.4Z</time></trkpt><trkpt lat="44.1055279" lon="12.1691386"><ele>106.83333333333333</ele><time>2026-04-05T08:34:39.405Z</time></trkpt><trkpt lat="44.1054808" lon="12.1690453"><ele>107.0</ele><time>2026-04-05T08:34:42.401Z</time></trkpt><trkpt lat="44.1054329" lon="12.1689661"><ele>107.16666666666666</ele><time>2026-04-05T08:34:45.396Z</time></trkpt><trkpt lat="44.1053717" lon="12.1688916"><ele>107.33333333333333</ele><time>2026-04-05T08:34:48.396Z</time></trkpt><trkpt lat="44.1053252" lon="12.1688303"><ele>107.5</ele><time>2026-04-05T08:34:50.396Z</time></trkpt><trkpt lat="44.1052629" lon="12.1687452"><ele>107.66666666666666</ele><time>2026-04-05T08:34:53.399Z</time></trkpt><trkpt lat="44.1052134" lon="12.1686789"><ele>107.83333333333333</ele><time>2026-04-05T08:34:56.391Z</time></trkpt><trkpt lat="44.1051608" lon="12.1685944"><ele>108.0</ele><time>2026-04-05T08:34:59.355Z</time></trkpt><trkpt lat="44.1050998" lon="12.1685246"><ele>108.0</ele><time>2026-04-05T08:35:02.358Z</time></trkpt><trkpt lat="44.1050524" lon="12.1684254"><ele>108.0</ele><time>2026-04-05T08:35:05.392Z</time></trkpt><trkpt lat="44.1050265" lon="12.1683245"><ele>108.0</ele><time>2026-04-05T08:35:08.394Z</time></trkpt><trkpt lat="44.1050845" lon="12.1682546"><ele>108.0</ele><time>2026-04-05T08:35:13.319Z</time></trkpt><trkpt lat="44.1051655" lon="12.1682769"><ele>108.0</ele><time>2026-04-05T08:35:17.397Z</time></trkpt><trkpt lat="44.1052438" lon="12.1682616"><ele>108.0</ele><time>2026-04-05T08:35:20.335Z</time></trkpt><trkpt lat="44.1053036" lon="12.1682313"><ele>111.0</ele><time>2026-04-05T08:35:22.393Z</time></trkpt><trkpt lat="44.1053647" lon="12.1681669"><ele>114.0</ele><time>2026-04-05T08:35:25.299Z</time></trkpt><trkpt lat="44.1054101" lon="12.168075"><ele>117.0</ele><time>2026-04-05T08:35:28.314Z</time></trkpt><trkpt lat="44.1054348" lon="12.1679878"><ele>120.0</ele><time>2026-04-05T08:35:31.155Z</time></trkpt><trkpt lat="44.1054384" lon="12.1678889"><ele>123.0</ele><time>2026-04-05T08:35:34.398Z</time></trkpt><trkpt lat="44.1054235" lon="12.1677754"><ele>126.0</ele><time>2026-04-05T08:35:38.132Z</time></trkpt><trkpt lat="44.1053981" lon="12.1676811"><ele>126.0</ele><time>2026-04-05T08:35:41.395Z</time></trkpt><trkpt lat="44.1053885" lon="12.1675521"><ele>126.0</ele><time>2026-04-05T08:35:45.401Z</time></trkpt><trkpt lat="44.1053831" lon="12.1674511"><ele>126.0</ele><time>2026-04-05T08:35:48.398Z</time></trkpt><trkpt lat="44.1053873" lon="12.1673564"><ele>126.0</ele><time>2026-04-05T08:35:51.396Z</time></trkpt><trkpt lat="44.1054065" lon="12.1672664"><ele>126.0</ele><time>2026-04-05T08:35:55.397Z</time></trkpt><trkpt lat="44.1054064" lon="12.1671714"><ele>126.0</ele><time>2026-04-05T08:36:00.4Z</time></trkpt><trkpt lat="44.1053995" lon="12.1670793"><ele>126.0</ele><time>2026-04-05T08:36:53.389Z</time></trkpt><trkpt lat="44.1053666" lon="12.1669661"><ele>128.28571428571428</ele><time>2026-04-05T08:36:56.398Z</time></trkpt><trkpt lat="44.1053418" lon="12.1668747"><ele>130.57142857142856</ele><time>2026-04-05T08:36:59.406Z</time></trkpt><trkpt lat="44.10532" lon="12.166782"><ele>132.85714285714286</ele><time>2026-04-05T08:37:02.398Z</time></trkpt><trkpt lat="44.1053056" lon="12.1666936"><ele>135.14285714285714</ele><time>2026-04-05T08:37:05.422Z</time></trkpt><trkpt lat="44.1052971" lon="12.166585"><ele>137.42857142857142</ele><time>2026-04-05T08:37:09.401Z</time></trkpt><trkpt lat="44.1052916" lon="12.166468"><ele>139.71428571428572</ele><time>2026-04-05T08:37:13.398Z</time></trkpt><trkpt lat="44.1053164" lon="12.1663811"><ele>142.0</ele><time>2026-04-05T08:37:16.403Z</time></trkpt><trkpt lat="44.1053498" lon="12.166279"><ele>144.57142857142856</ele><time>2026-04-05T08:37:20.398Z</time></trkpt><trkpt lat="44.1053542" lon="12.1661822"><ele>147.14285714285714</ele><time>2026-04-05T08:37:23.399Z</time></trkpt><trkpt lat="44.1053558" lon="12.1660689"><ele>149.71428571428572</ele><time>2026-04-05T08:37:27.406Z</time></trkpt><trkpt lat="44.1053585" lon="12.165976"><ele>152.28571428571428</ele><time>2026-04-05T08:37:30.398Z</time></trkpt><trkpt lat="44.1053434" lon="12.165876"><ele>154.85714285714286</ele><time>2026-04-05T08:37:35.396Z</time></trkpt><trkpt lat="44.1053479" lon="12.1657859"><ele>157.42857142857142</ele><time>2026-04-05T08:37:39.392Z</time></trkpt><trkpt lat="44.105361" lon="12.1656936"><ele>160.0</ele><time>2026-04-05T08:37:43.402Z</time></trkpt><trkpt lat="44.1053799" lon="12.16559"><ele>162.57142857142856</ele><time>2026-04-05T08:37:47.4Z</time></trkpt><trkpt lat="44.1054082" lon="12.165494"><ele>165.14285714285714</ele><time>2026-04-05T08:37:51.396Z</time></trkpt><trkpt lat="44.105445" lon="12.165396"><ele>167.71428571428572</ele><time>2026-04-05T08:38:54.395Z</time></trkpt><trkpt lat="44.1054635" lon="12.1652919"><ele>170.28571428571428</ele><time>2026-04-05T08:38:57.391Z</time></trkpt><trkpt lat="44.1054744" lon="12.1651811"><ele>172.85714285714286</ele><time>2026-04-05T08:39:01.395Z</time></trkpt><trkpt lat="44.1055039" lon="12.1650864"><ele>175.42857142857142</ele><time>2026-04-05T08:39:05.394Z</time></trkpt><trkpt lat="44.1055193" lon="12.165"><ele>178.0</ele><time>2026-04-05T08:39:08.415Z</time></trkpt><trkpt lat="44.1055443" lon="12.1649101"><ele>176.42857142857142</ele><time>2026-04-05T08:39:11.398Z</time></trkpt><trkpt lat="44.1055722" lon="12.1648258"><ele>174.85714285714286</ele><time>2026-04-05T08:39:15.407Z</time></trkpt><trkpt lat="44.1056149" lon="12.1647468"><ele>173.28571428571428</ele><time>2026-04-05T08:40:12.395Z</time></trkpt><trkpt lat="44.105663" lon="12.1646842"><ele>171.71428571428572</ele><time>2026-04-05T08:40:15.394Z</time></trkpt><trkpt lat="44.1056962" lon="12.164601"><ele>170.14285714285714</ele><time>2026-04-05T08:40:18.392Z</time></trkpt><trkpt lat="44.1057249" lon="12.1645103"><ele>168.57142857142856</ele><time>2026-04-05T08:40:22.396Z</time></trkpt><trkpt lat="44.105756" lon="12.1644325"><ele>167.0</ele><time>2026-04-05T08:40:25.401Z</time></trkpt><trkpt lat="44.1058048" lon="12.16437"><ele>167.0</ele><time>2026-04-05T08:40:28.399Z</time></trkpt><trkpt lat="44.1058328" lon="12.1642808"><ele>167.0</ele><time>2026-04-05T08:40:31.401Z</time></trkpt><trkpt lat="44.1058595" lon="12.1641768"><ele>167.0</ele><time>2026-04-05T08:40:35.392Z</time></trkpt><trkpt lat="44.1058957" lon="12.1640749"><ele>167.0</ele><time>2026-04-05T08:40:38.401Z</time></trkpt><trkpt lat="44.1059301" lon="12.1639597"><ele>167.0</ele><time>2026-04-05T08:40:41.406Z</time></trkpt><trkpt lat="44.1059523" lon="12.1638426"><ele>167.0</ele><time>2026-04-05T08:40:44.39Z</time></trkpt><trkpt lat="44.1059914" lon="12.1637614"><ele>169.0</ele><time>2026-04-05T08:40:46.394Z</time></trkpt><trkpt lat="44.1060353" lon="12.1636452"><ele>171.0</ele><time>2026-04-05T08:40:49.396Z</time></trkpt><trkpt lat="44.1060638" lon="12.1635573"><ele>173.0</ele><time>2026-04-05T08:40:51.4Z</time></trkpt><trkpt lat="44.1061101" lon="12.1634765"><ele>175.0</ele><time>2026-04-05T08:40:53.4Z</time></trkpt><trkpt lat="44.1061461" lon="12.1633682"><ele>177.0</ele><time>2026-04-05T08:40:56.4Z</time></trkpt><trkpt lat="44.1061712" lon="12.1632836"><ele>179.0</ele><time>2026-04-05T08:40:58.392Z</time></trkpt><trkpt lat="44.1062213" lon="12.1631745"><ele>180.0</ele><time>2026-04-05T08:41:01.395Z</time></trkpt><trkpt lat="44.10626" lon="12.1631039"><ele>181.0</ele><time>2026-04-05T08:41:03.4Z</time></trkpt><trkpt lat="44.1062998" lon="12.1630182"><ele>182.0</ele><time>2026-04-05T08:41:06.396Z</time></trkpt><trkpt lat="44.1063581" lon="12.1629571"><ele>183.0</ele><time>2026-04-05T08:41:09.396Z</time></trkpt><trkpt lat="44.1064227" lon="12.1629091"><ele>184.0</ele><time>2026-04-05T08:41:12.415Z</time></trkpt><trkpt lat="44.1065021" lon="12.1628729"><ele>185.0</ele><time>2026-04-05T08:41:15.396Z</time></trkpt><trkpt lat="44.1065815" lon="12.1628003"><ele>180.0</ele><time>2026-04-05T08:41:18.399Z</time></trkpt><trkpt lat="44.1066481" lon="12.1627258"><ele>175.0</ele><time>2026-04-05T08:41:20.402Z</time></trkpt><trkpt lat="44.1067254" lon="12.1626338"><ele>170.0</ele><time>2026-04-05T08:41:22.399Z</time></trkpt><trkpt lat="44.1067957" lon="12.1625166"><ele>165.0</ele><time>2026-04-05T08:41:24.384Z</time></trkpt><trkpt lat="44.1068418" lon="12.1623866"><ele>160.0</ele><time>2026-04-05T08:41:26.382Z</time></trkpt><trkpt lat="44.106892" lon="12.1622779"><ele>160.0</ele><time>2026-04-05T08:41:28.4Z</time></trkpt><trkpt lat="44.1069165" lon="12.1621614"><ele>160.0</ele><time>2026-04-05T08:41:30.399Z</time></trkpt><trkpt lat="44.1069279" lon="12.162063"><ele>160.0</ele><time>2026-04-05T08:41:32.401Z</time></trkpt><trkpt lat="44.106926" lon="12.1619512"><ele>160.0</ele><time>2026-04-05T08:41:35.402Z</time></trkpt><trkpt lat="44.1069158" lon="12.1618399"><ele>160.0</ele><time>2026-04-05T08:41:38.404Z</time></trkpt><trkpt lat="44.1069072" lon="12.1617475"><ele>160.0</ele><time>2026-04-05T08:41:40.409Z</time></trkpt><trkpt lat="44.1068883" lon="12.1616445"><ele>160.0</ele><time>2026-04-05T08:41:42.4Z</time></trkpt><trkpt lat="44.10687" lon="12.1615492"><ele>160.0</ele><time>2026-04-05T08:41:44.4Z</time></trkpt><trkpt lat="44.1068453" lon="12.1614271"><ele>160.0</ele><time>2026-04-05T08:41:46.392Z</time></trkpt><trkpt lat="44.1068241" lon="12.1612968"><ele>160.0</ele><time>2026-04-05T08:41:48.397Z</time></trkpt><trkpt lat="44.1068039" lon="12.1612012"><ele>160.0</ele><time>2026-04-05T08:41:50.4Z</time></trkpt><trkpt lat="44.1068026" lon="12.1610979"><ele>160.0</ele><time>2026-04-05T08:41:52.396Z</time></trkpt><trkpt lat="44.1068062" lon="12.1609885"><ele>160.5</ele><time>2026-04-05T08:41:54.402Z</time></trkpt><trkpt lat="44.106833" lon="12.1608841"><ele>161.0</ele><time>2026-04-05T08:41:56.4Z</time></trkpt><trkpt lat="44.106842" lon="12.1607887"><ele>161.5</ele><time>2026-04-05T08:41:58.4Z</time></trkpt><trkpt lat="44.1068616" lon="12.1606841"><ele>162.0</ele><time>2026-04-05T08:42:00.402Z</time></trkpt><trkpt lat="44.1068998" lon="12.160583"><ele>162.5</ele><time>2026-04-05T08:42:02.399Z</time></trkpt><trkpt lat="44.1069477" lon="12.1604749"><ele>163.0</ele><time>2026-04-05T08:42:04.391Z</time></trkpt><trkpt lat="44.1069961" lon="12.1603466"><ele>163.0</ele><time>2026-04-05T08:42:06.394Z</time></trkpt><trkpt lat="44.1070229" lon="12.1602157"><ele>163.0</ele><time>2026-04-05T08:42:08.396Z</time></trkpt><trkpt lat="44.1070302" lon="12.160092"><ele>163.0</ele><time>2026-04-05T08:42:10.411Z</time></trkpt><trkpt lat="44.1070079" lon="12.1599689"><ele>163.0</ele><time>2026-04-05T08:42:12.398Z</time></trkpt><trkpt lat="44.1069886" lon="12.1598472"><ele>163.0</ele><time>2026-04-05T08:42:14.437Z</time></trkpt><trkpt lat="44.1069808" lon="12.1597067"><ele>163.0</ele><time>2026-04-05T08:42:16.409Z</time></trkpt><trkpt lat="44.1070005" lon="12.1595741"><ele>163.0</ele><time>2026-04-05T08:42:18.397Z</time></trkpt><trkpt lat="44.1070513" lon="12.1594615"><ele>163.0</ele><time>2026-04-05T08:42:20.405Z</time></trkpt><trkpt lat="44.1071079" lon="12.1593577"><ele>163.0</ele><time>2026-04-05T08:42:22.41Z</time></trkpt><trkpt lat="44.1071332" lon="12.159275"><ele>163.0</ele><time>2026-04-05T08:42:26.404Z</time></trkpt><trkpt lat="44.107113" lon="12.1591812"><ele>163.0</ele><time>2026-04-05T08:42:30.421Z</time></trkpt><trkpt lat="44.1070786" lon="12.1590752"><ele>162.71428571428572</ele><time>2026-04-05T08:42:34.404Z</time></trkpt><trkpt lat="44.1070331" lon="12.1589834"><ele>162.42857142857142</ele><time>2026-04-05T08:42:37.4Z</time></trkpt><trkpt lat="44.1069947" lon="12.158893"><ele>162.14285714285714</ele><time>2026-04-05T08:42:40.407Z</time></trkpt><trkpt lat="44.1069432" lon="12.1587934"><ele>161.85714285714286</ele><time>2026-04-05T08:42:43.393Z</time></trkpt><trkpt lat="44.106902" lon="12.1587192"><ele>161.57142857142856</ele><time>2026-04-05T08:42:46.398Z</time></trkpt><trkpt lat="44.1068617" lon="12.1586493"><ele>161.28571428571428</ele><time>2026-04-05T08:42:49.406Z</time></trkpt><trkpt lat="44.1068133" lon="12.1585717"><ele>161.0</ele><time>2026-04-05T08:42:52.406Z</time></trkpt><trkpt lat="44.1067805" lon="12.1584779"><ele>161.0</ele><time>2026-04-05T08:42:55.396Z</time></trkpt><trkpt lat="44.1067278" lon="12.1583954"><ele>161.0</ele><time>2026-04-05T08:42:58.39Z</time></trkpt><trkpt lat="44.1066856" lon="12.158315"><ele>161.0</ele><time>2026-04-05T08:43:02.389Z</time></trkpt><trkpt lat="44.1067135" lon="12.1582176"><ele>161.0</ele><time>2026-04-05T08:43:21.391Z</time></trkpt><trkpt lat="44.106745" lon="12.1581243"><ele>161.0</ele><time>2026-04-05T08:43:25.393Z</time></trkpt><trkpt lat="44.1067663" lon="12.1580098"><ele>161.0</ele><time>2026-04-05T08:43:28.397Z</time></trkpt><trkpt lat="44.1067706" lon="12.1578776"><ele>161.14285714285714</ele><time>2026-04-05T08:43:31.389Z</time></trkpt><trkpt lat="44.1067426" lon="12.1577833"><ele>161.28571428571428</ele><time>2026-04-05T08:43:34.399Z</time></trkpt><trkpt lat="44.1067148" lon="12.1577028"><ele>161.42857142857144</ele><time>2026-04-05T08:43:37.398Z</time></trkpt><trkpt lat="44.1066798" lon="12.1576297"><ele>161.57142857142856</ele><time>2026-04-05T08:43:40.407Z</time></trkpt><trkpt lat="44.1066424" lon="12.1575401"><ele>161.71428571428572</ele><time>2026-04-05T08:43:44.395Z</time></trkpt><trkpt lat="44.1066111" lon="12.1574448"><ele>161.85714285714286</ele><time>2026-04-05T08:43:48.395Z</time></trkpt><trkpt lat="44.1065838" lon="12.1573455"><ele>162.0</ele><time>2026-04-05T08:43:52.4Z</time></trkpt><trkpt lat="44.1065273" lon="12.1572739"><ele>166.33333333333334</ele><time>2026-04-05T08:43:55.394Z</time></trkpt><trkpt lat="44.1065058" lon="12.1571773"><ele>170.66666666666666</ele><time>2026-04-05T08:43:59.402Z</time></trkpt><trkpt lat="44.1064787" lon="12.1570892"><ele>175.0</ele><time>2026-04-05T08:44:02.397Z</time></trkpt><trkpt lat="44.1064396" lon="12.1569869"><ele>179.33333333333331</ele><time>2026-04-05T08:44:05.395Z</time></trkpt><trkpt lat="44.106389" lon="12.1569146"><ele>183.66666666666666</ele><time>2026-04-05T08:44:08.399Z</time></trkpt><trkpt lat="44.1063582" lon="12.1568011"><ele>188.0</ele><time>2026-04-05T08:44:11.401Z</time></trkpt><trkpt lat="44.1063159" lon="12.1567175"><ele>188.0</ele><time>2026-04-05T08:44:14.393Z</time></trkpt><trkpt lat="44.1062488" lon="12.1566504"><ele>188.0</ele><time>2026-04-05T08:44:17.415Z</time></trkpt><trkpt lat="44.106187" lon="12.1565898"><ele>188.0</ele><time>2026-04-05T08:44:20.401Z</time></trkpt><trkpt lat="44.1061333" lon="12.1565097"><ele>188.0</ele><time>2026-04-05T08:44:23.393Z</time></trkpt><trkpt lat="44.1060845" lon="12.1564073"><ele>188.0</ele><time>2026-04-05T08:44:26.393Z</time></trkpt><trkpt lat="44.1060413" lon="12.1563186"><ele>188.0</ele><time>2026-04-05T08:44:29.393Z</time></trkpt><trkpt lat="44.1059631" lon="12.1562552"><ele>187.5</ele><time>2026-04-05T08:44:32.389Z</time></trkpt><trkpt lat="44.1058955" lon="12.1562151"><ele>187.0</ele><time>2026-04-05T08:44:34.388Z</time></trkpt><trkpt lat="44.1058275" lon="12.1561816"><ele>186.5</ele><time>2026-04-05T08:44:36.387Z</time></trkpt><trkpt lat="44.1057407" lon="12.1561384"><ele>186.0</ele><time>2026-04-05T08:44:39.388Z</time></trkpt><trkpt lat="44.1056569" lon="12.1561239"><ele>185.5</ele><time>2026-04-05T08:44:43.387Z</time></trkpt><trkpt lat="44.1055762" lon="12.1561392"><ele>185.0</ele><time>2026-04-05T08:44:46.385Z</time></trkpt><trkpt lat="44.1055097" lon="12.1562114"><ele>184.99999999999997</ele><time>2026-04-05T08:44:49.386Z</time></trkpt><trkpt lat="44.105455" lon="12.1562964"><ele>185.0</ele><time>2026-04-05T08:44:52.389Z</time></trkpt><trkpt lat="44.1054115" lon="12.1563828"><ele>185.0</ele><time>2026-04-05T08:44:55.392Z</time></trkpt><trkpt lat="44.1053583" lon="12.1564499"><ele>185.0</ele><time>2026-04-05T08:44:58.391Z</time></trkpt><trkpt lat="44.1053045" lon="12.1565098"><ele>185.0</ele><time>2026-04-05T08:45:01.38Z</time></trkpt><trkpt lat="44.1052261" lon="12.156552"><ele>184.99999999999997</ele><time>2026-04-05T08:45:05.381Z</time></trkpt><trkpt lat="44.1051702" lon="12.1565984"><ele>185.0</ele><time>2026-04-05T08:45:08.381Z</time></trkpt><trkpt lat="44.105117" lon="12.1566568"><ele>187.0</ele><time>2026-04-05T08:45:11.379Z</time></trkpt><trkpt lat="44.1050566" lon="12.1566836"><ele>189.0</ele><time>2026-04-05T08:45:14.382Z</time></trkpt><trkpt lat="44.1049852" lon="12.1567296"><ele>191.0</ele><time>2026-04-05T08:45:17.378Z</time></trkpt><trkpt lat="44.1049065" lon="12.1567866"><ele>193.0</ele><time>2026-04-05T08:45:20.388Z</time></trkpt><trkpt lat="44.1048247" lon="12.1568461"><ele>195.00000000000003</ele><time>2026-04-05T08:45:23.378Z</time></trkpt><trkpt lat="44.1047662" lon="12.1568814"><ele>197.0</ele><time>2026-04-05T08:45:25.379Z</time></trkpt><trkpt lat="44.1046874" lon="12.1569141"><ele>198.00000000000003</ele><time>2026-04-05T08:45:28.377Z</time></trkpt><trkpt lat="44.1046035" lon="12.1569203"><ele>199.0</ele><time>2026-04-05T08:45:31.386Z</time></trkpt><trkpt lat="44.1045332" lon="12.1569545"><ele>200.0</ele><time>2026-04-05T08:45:34.38Z</time></trkpt><trkpt lat="44.1044528" lon="12.1569794"><ele>201.0</ele><time>2026-04-05T08:45:37.381Z</time></trkpt><trkpt lat="44.1043588" lon="12.156975"><ele>202.00000000000003</ele><time>2026-04-05T08:45:40.39Z</time></trkpt><trkpt lat="44.1042952" lon="12.1569871"><ele>203.0</ele><time>2026-04-05T08:45:42.382Z</time></trkpt><trkpt lat="44.1042043" lon="12.156991"><ele>203.00000000000003</ele><time>2026-04-05T08:45:45.38Z</time></trkpt><trkpt lat="44.1041179" lon="12.1569618"><ele>203.0</ele><time>2026-04-05T08:45:48.38Z</time></trkpt><trkpt lat="44.1040467" lon="12.156944"><ele>203.0</ele><time>2026-04-05T08:45:51.391Z</time></trkpt><trkpt lat="44.103973" lon="12.1569264"><ele>203.0</ele><time>2026-04-05T08:45:54.384Z</time></trkpt><trkpt lat="44.103892" lon="12.1569203"><ele>203.00000000000003</ele><time>2026-04-05T08:45:57.38Z</time></trkpt><trkpt lat="44.1038364" lon="12.1568676"><ele>203.0</ele><time>2026-04-05T08:46:00.394Z</time></trkpt><trkpt lat="44.1037946" lon="12.156756"><ele>207.66666666666669</ele><time>2026-04-05T08:46:03.384Z</time></trkpt><trkpt lat="44.1037573" lon="12.1566421"><ele>212.33333333333334</ele><time>2026-04-05T08:46:06.392Z</time></trkpt><trkpt lat="44.1037256" lon="12.1565346"><ele>217.0</ele><time>2026-04-05T08:46:09.382Z</time></trkpt><trkpt lat="44.1036963" lon="12.1564308"><ele>221.66666666666669</ele><time>2026-04-05T08:46:12.382Z</time></trkpt><trkpt lat="44.1036753" lon="12.1563201"><ele>226.33333333333334</ele><time>2026-04-05T08:46:15.392Z</time></trkpt><trkpt lat="44.1036729" lon="12.1562062"><ele>231.0</ele><time>2026-04-05T08:46:18.386Z</time></trkpt><trkpt lat="44.1036888" lon="12.1561059"><ele>232.33333333333334</ele><time>2026-04-05T08:46:21.405Z</time></trkpt><trkpt lat="44.1036854" lon="12.1559942"><ele>233.66666666666669</ele><time>2026-04-05T08:46:24.39Z</time></trkpt><trkpt lat="44.1037003" lon="12.1558911"><ele>235.0</ele><time>2026-04-05T08:46:27.398Z</time></trkpt><trkpt lat="44.1037256" lon="12.1557788"><ele>236.33333333333334</ele><time>2026-04-05T08:46:30.406Z</time></trkpt><trkpt lat="44.1037461" lon="12.155658"><ele>237.66666666666669</ele><time>2026-04-05T08:46:33.395Z</time></trkpt><trkpt lat="44.1037583" lon="12.1555598"><ele>239.0</ele><time>2026-04-05T08:46:36.392Z</time></trkpt><trkpt lat="44.1037859" lon="12.1554566"><ele>240.33333333333334</ele><time>2026-04-05T08:46:39.393Z</time></trkpt><trkpt lat="44.1038241" lon="12.1553569"><ele>241.66666666666669</ele><time>2026-04-05T08:46:42.387Z</time></trkpt><trkpt lat="44.1038544" lon="12.155247"><ele>243.0</ele><time>2026-04-05T08:46:45.392Z</time></trkpt><trkpt lat="44.1038701" lon="12.1551351"><ele>244.33333333333331</ele><time>2026-04-05T08:46:48.393Z</time></trkpt><trkpt lat="44.103865" lon="12.1550407"><ele>245.66666666666666</ele><time>2026-04-05T08:46:51.39Z</time></trkpt><trkpt lat="44.1038769" lon="12.1549322"><ele>247.0</ele><time>2026-04-05T08:46:54.403Z</time></trkpt><trkpt lat="44.1038952" lon="12.1548246"><ele>244.28571428571428</ele><time>2026-04-05T08:46:57.398Z</time></trkpt><trkpt lat="44.1039084" lon="12.154727"><ele>241.57142857142856</ele><time>2026-04-05T08:47:00.399Z</time></trkpt><trkpt lat="44.103891" lon="12.1546274"><ele>238.85714285714283</ele><time>2026-04-05T08:47:03.395Z</time></trkpt><trkpt lat="44.1038527" lon="12.1545409"><ele>236.14285714285714</ele><time>2026-04-05T08:47:06.408Z</time></trkpt><trkpt lat="44.1037997" lon="12.1544798"><ele>233.4285714285714</ele><time>2026-04-05T08:47:09.401Z</time></trkpt><trkpt lat="44.1037426" lon="12.1544158"><ele>230.7142857142857</ele><time>2026-04-05T08:47:12.36Z</time></trkpt><trkpt lat="44.1036817" lon="12.1543637"><ele>228.0</ele><time>2026-04-05T08:47:15.354Z</time></trkpt><trkpt lat="44.1036159" lon="12.1543355"><ele>228.0</ele><time>2026-04-05T08:47:18.315Z</time></trkpt><trkpt lat="44.1035461" lon="12.1543158"><ele>228.0</ele><time>2026-04-05T08:47:21.396Z</time></trkpt><trkpt lat="44.103475" lon="12.1543028"><ele>228.0</ele><time>2026-04-05T08:47:24.322Z</time></trkpt><trkpt lat="44.1033992" lon="12.1543478"><ele>228.0</ele><time>2026-04-05T08:47:27.399Z</time></trkpt><trkpt lat="44.103337" lon="12.1544223"><ele>228.0</ele><time>2026-04-05T08:47:30.398Z</time></trkpt><trkpt lat="44.1032625" lon="12.154482"><ele>228.0</ele><time>2026-04-05T08:47:33.401Z</time></trkpt><trkpt lat="44.103192" lon="12.1545105"><ele>229.0</ele><time>2026-04-05T08:47:36.396Z</time></trkpt><trkpt lat="44.1031277" lon="12.1545436"><ele>229.99999999999997</ele><time>2026-04-05T08:47:39.4Z</time></trkpt><trkpt lat="44.1030606" lon="12.154581"><ele>231.0</ele><time>2026-04-05T08:47:42.4Z</time></trkpt><trkpt lat="44.1029794" lon="12.1546035"><ele>232.0</ele><time>2026-04-05T08:47:45.404Z</time></trkpt><trkpt lat="44.1029223" lon="12.1546498"><ele>232.99999999999997</ele><time>2026-04-05T08:47:48.41Z</time></trkpt><trkpt lat="44.1029402" lon="12.1547403"><ele>234.0</ele><time>2026-04-05T08:47:51.41Z</time></trkpt><trkpt lat="44.1030142" lon="12.1547728"><ele>235.0</ele><time>2026-04-05T08:47:54.405Z</time></trkpt><trkpt lat="44.1030724" lon="12.1548374"><ele>238.83333333333331</ele><time>2026-04-05T08:47:57.407Z</time></trkpt><trkpt lat="44.1031009" lon="12.1549426"><ele>242.66666666666666</ele><time>2026-04-05T08:48:01.413Z</time></trkpt><trkpt lat="44.1030402" lon="12.1550247"><ele>246.5</ele><time>2026-04-05T08:48:05.419Z</time></trkpt><trkpt lat="44.1029755" lon="12.1550485"><ele>250.33333333333331</ele><time>2026-04-05T08:48:08.412Z</time></trkpt><trkpt lat="44.1029206" lon="12.1551306"><ele>254.16666666666666</ele><time>2026-04-05T08:48:12.41Z</time></trkpt><trkpt lat="44.1029054" lon="12.1552165"><ele>258.0</ele><time>2026-04-05T08:48:15.412Z</time></trkpt><trkpt lat="44.1028892" lon="12.1553181"><ele>258.0</ele><time>2026-04-05T08:48:19.409Z</time></trkpt><trkpt lat="44.1028832" lon="12.1554149"><ele>258.0</ele><time>2026-04-05T08:48:22.408Z</time></trkpt><trkpt lat="44.1028593" lon="12.1555196"><ele>258.0</ele><time>2026-04-05T08:48:25.412Z</time></trkpt><trkpt lat="44.1028244" lon="12.1556126"><ele>258.0</ele><time>2026-04-05T08:48:28.412Z</time></trkpt><trkpt lat="44.1027771" lon="12.1556989"><ele>258.0</ele><time>2026-04-05T08:48:31.406Z</time></trkpt><trkpt lat="44.10272" lon="12.1557684"><ele>258.0</ele><time>2026-04-05T08:48:34.406Z</time></trkpt><trkpt lat="44.1026559" lon="12.1558296"><ele>257.5</ele><time>2026-04-05T08:48:37.405Z</time></trkpt><trkpt lat="44.1025923" lon="12.1559058"><ele>257.0</ele><time>2026-04-05T08:48:40.41Z</time></trkpt><trkpt lat="44.1025379" lon="12.1559685"><ele>256.5</ele><time>2026-04-05T08:48:43.401Z</time></trkpt><trkpt lat="44.1024836" lon="12.1560351"><ele>256.0</ele><time>2026-04-05T08:48:46.398Z</time></trkpt><trkpt lat="44.1024167" lon="12.1561222"><ele>255.5</ele><time>2026-04-05T08:48:49.412Z</time></trkpt><trkpt lat="44.10236" lon="12.156211"><ele>255.0</ele><time>2026-04-05T08:48:52.409Z</time></trkpt><trkpt lat="44.1023238" lon="12.1563153"><ele>255.0</ele><time>2026-04-05T08:48:55.423Z</time></trkpt><trkpt lat="44.1022724" lon="12.1564057"><ele>255.0</ele><time>2026-04-05T08:48:58.407Z</time></trkpt><trkpt lat="44.1021988" lon="12.1564598"><ele>255.0</ele><time>2026-04-05T08:49:01.409Z</time></trkpt><trkpt lat="44.102135" lon="12.1564891"><ele>255.0</ele><time>2026-04-05T08:49:03.413Z</time></trkpt><trkpt lat="44.1020663" lon="12.1565436"><ele>255.0</ele><time>2026-04-05T08:49:06.402Z</time></trkpt><trkpt lat="44.1020103" lon="12.1566"><ele>255.0</ele><time>2026-04-05T08:49:09.401Z</time></trkpt><trkpt lat="44.1019487" lon="12.1566535"><ele>257.57142857142856</ele><time>2026-04-05T08:49:12.398Z</time></trkpt><trkpt lat="44.101894" lon="12.1567064"><ele>260.14285714285717</ele><time>2026-04-05T08:49:15.394Z</time></trkpt><trkpt lat="44.1018398" lon="12.1567716"><ele>262.7142857142857</ele><time>2026-04-05T08:49:18.404Z</time></trkpt><trkpt lat="44.1017822" lon="12.1568286"><ele>265.2857142857143</ele><time>2026-04-05T08:49:21.401Z</time></trkpt><trkpt lat="44.1017241" lon="12.1568819"><ele>267.8571428571429</ele><time>2026-04-05T08:49:25.401Z</time></trkpt><trkpt lat="44.1016754" lon="12.1569675"><ele>270.42857142857144</ele><time>2026-04-05T08:49:29.408Z</time></trkpt><trkpt lat="44.1016256" lon="12.1570372"><ele>273.0</ele><time>2026-04-05T08:49:32.398Z</time></trkpt><trkpt lat="44.1015816" lon="12.1571123"><ele>273.57142857142856</ele><time>2026-04-05T08:49:35.4Z</time></trkpt><trkpt lat="44.1015497" lon="12.157201"><ele>274.1428571428571</ele><time>2026-04-05T08:49:38.399Z</time></trkpt><trkpt lat="44.1015307" lon="12.1572882"><ele>274.7142857142857</ele><time>2026-04-05T08:49:41.404Z</time></trkpt><trkpt lat="44.1015097" lon="12.1573823"><ele>275.2857142857143</ele><time>2026-04-05T08:49:44.395Z</time></trkpt><trkpt lat="44.1014825" lon="12.1574804"><ele>275.85714285714283</ele><time>2026-04-05T08:49:47.387Z</time></trkpt><trkpt lat="44.1014551" lon="12.1575721"><ele>276.42857142857144</ele><time>2026-04-05T08:49:50.387Z</time></trkpt><trkpt lat="44.1014191" lon="12.1576583"><ele>277.0</ele><time>2026-04-05T08:49:53.388Z</time></trkpt><trkpt lat="44.1013609" lon="12.1577333"><ele>280.3333333333333</ele><time>2026-04-05T08:49:56.379Z</time></trkpt><trkpt lat="44.1012801" lon="12.1577965"><ele>283.66666666666663</ele><time>2026-04-05T08:49:59.395Z</time></trkpt><trkpt lat="44.1011942" lon="12.1578199"><ele>287.0</ele><time>2026-04-05T08:50:02.391Z</time></trkpt><trkpt lat="44.1011127" lon="12.1577941"><ele>290.3333333333333</ele><time>2026-04-05T08:50:05.384Z</time></trkpt><trkpt lat="44.1010273" lon="12.1577814"><ele>293.6666666666667</ele><time>2026-04-05T08:50:08.388Z</time></trkpt><trkpt lat="44.1009438" lon="12.1577359"><ele>297.0</ele><time>2026-04-05T08:50:11.388Z</time></trkpt><trkpt lat="44.1008667" lon="12.1576849"><ele>297.0</ele><time>2026-04-05T08:50:14.392Z</time></trkpt><trkpt lat="44.1007931" lon="12.1576524"><ele>297.0</ele><time>2026-04-05T08:50:17.377Z</time></trkpt><trkpt lat="44.10072" lon="12.1576089"><ele>297.0</ele><time>2026-04-05T08:50:20.384Z</time></trkpt><trkpt lat="44.100662" lon="12.1575693"><ele>297.0</ele><time>2026-04-05T08:50:22.386Z</time></trkpt><trkpt lat="44.1005991" lon="12.1575085"><ele>297.0</ele><time>2026-04-05T08:50:25.395Z</time></trkpt><trkpt lat="44.1005316" lon="12.1574585"><ele>297.0</ele><time>2026-04-05T08:50:28.413Z</time></trkpt><trkpt lat="44.1004592" lon="12.1574097"><ele>296.1666666666667</ele><time>2026-04-05T08:50:31.397Z</time></trkpt><trkpt lat="44.1003792" lon="12.1573638"><ele>295.3333333333333</ele><time>2026-04-05T08:50:34.396Z</time></trkpt><trkpt lat="44.1003065" lon="12.1573316"><ele>294.5</ele><time>2026-04-05T08:50:37.393Z</time></trkpt><trkpt lat="44.1002318" lon="12.1573774"><ele>293.66666666666663</ele><time>2026-04-05T08:50:40.397Z</time></trkpt><trkpt lat="44.1002107" lon="12.1574691"><ele>292.8333333333333</ele><time>2026-04-05T08:50:43.39Z</time></trkpt><trkpt lat="44.1002456" lon="12.1575919"><ele>292.0</ele><time>2026-04-05T08:50:46.395Z</time></trkpt><trkpt lat="44.1002657" lon="12.1576855"><ele>293.7142857142857</ele><time>2026-04-05T08:50:48.401Z</time></trkpt><trkpt lat="44.1002973" lon="12.1577801"><ele>295.42857142857144</ele><time>2026-04-05T08:50:50.391Z</time></trkpt><trkpt lat="44.1003255" lon="12.1578651"><ele>297.1428571428571</ele><time>2026-04-05T08:50:52.396Z</time></trkpt><trkpt lat="44.1003585" lon="12.1579498"><ele>298.8571428571429</ele><time>2026-04-05T08:50:54.393Z</time></trkpt><trkpt lat="44.1003743" lon="12.1580402"><ele>300.5714285714286</ele><time>2026-04-05T08:50:56.39Z</time></trkpt><trkpt lat="44.1003778" lon="12.1581385"><ele>302.2857142857143</ele><time>2026-04-05T08:50:58.39Z</time></trkpt><trkpt lat="44.1003908" lon="12.1582292"><ele>304.0</ele><time>2026-04-05T08:51:00.403Z</time></trkpt><trkpt lat="44.1004033" lon="12.1583175"><ele>305.66666666666663</ele><time>2026-04-05T08:51:02.399Z</time></trkpt><trkpt lat="44.1003971" lon="12.1584362"><ele>307.3333333333333</ele><time>2026-04-05T08:51:05.403Z</time></trkpt><trkpt lat="44.1003528" lon="12.1585386"><ele>309.0</ele><time>2026-04-05T08:51:09.321Z</time></trkpt><trkpt lat="44.100333" lon="12.1586227"><ele>310.6666666666667</ele><time>2026-04-05T08:51:11.399Z</time></trkpt><trkpt lat="44.1002969" lon="12.158749"><ele>312.33333333333337</ele><time>2026-04-05T08:51:14.395Z</time></trkpt><trkpt lat="44.100266" lon="12.1588618"><ele>314.0</ele><time>2026-04-05T08:51:16.402Z</time></trkpt><trkpt lat="44.100243" lon="12.1589553"><ele>315.57142857142856</ele><time>2026-04-05T08:51:18.398Z</time></trkpt><trkpt lat="44.100223" lon="12.1590436"><ele>317.1428571428571</ele><time>2026-04-05T08:51:20.39Z</time></trkpt><trkpt lat="44.1001958" lon="12.1591436"><ele>318.71428571428567</ele><time>2026-04-05T08:51:23.398Z</time></trkpt><trkpt lat="44.1001405" lon="12.1592211"><ele>320.2857142857143</ele><time>2026-04-05T08:51:26.407Z</time></trkpt><trkpt lat="44.1000885" lon="12.1593049"><ele>321.8571428571429</ele><time>2026-04-05T08:51:29.394Z</time></trkpt><trkpt lat="44.1000082" lon="12.1593009"><ele>323.4285714285714</ele><time>2026-04-05T08:51:33.395Z</time></trkpt><trkpt lat="44.0999576" lon="12.1592429"><ele>325.0</ele><time>2026-04-05T08:51:35.401Z</time></trkpt><trkpt lat="44.0999055" lon="12.159192"><ele>324.3333333333333</ele><time>2026-04-05T08:51:37.401Z</time></trkpt><trkpt lat="44.0998362" lon="12.1591284"><ele>323.66666666666663</ele><time>2026-04-05T08:51:40.399Z</time></trkpt><trkpt lat="44.0997599" lon="12.1590756"><ele>323.0</ele><time>2026-04-05T08:51:43.39Z</time></trkpt><trkpt lat="44.0996925" lon="12.1590181"><ele>322.3333333333333</ele><time>2026-04-05T08:51:46.396Z</time></trkpt><trkpt lat="44.0996291" lon="12.1589974"><ele>321.6666666666667</ele><time>2026-04-05T08:51:48.403Z</time></trkpt><trkpt lat="44.099549" lon="12.1589861"><ele>321.0</ele><time>2026-04-05T08:51:51.394Z</time></trkpt><trkpt lat="44.099476" lon="12.1589473"><ele>321.0</ele><time>2026-04-05T08:51:54.398Z</time></trkpt><trkpt lat="44.0994052" lon="12.1589014"><ele>321.0</ele><time>2026-04-05T08:51:57.404Z</time></trkpt><trkpt lat="44.0993216" lon="12.1588756"><ele>321.0</ele><time>2026-04-05T08:52:00.394Z</time></trkpt><trkpt lat="44.0992536" lon="12.1588365"><ele>321.0</ele><time>2026-04-05T08:52:03.399Z</time></trkpt><trkpt lat="44.0991791" lon="12.1587823"><ele>321.0</ele><time>2026-04-05T08:52:06.394Z</time></trkpt><trkpt lat="44.0991212" lon="12.1587474"><ele>321.0</ele><time>2026-04-05T08:52:08.393Z</time></trkpt><trkpt lat="44.0990397" lon="12.1587126"><ele>322.1666666666667</ele><time>2026-04-05T08:52:11.387Z</time></trkpt><trkpt lat="44.0989564" lon="12.1586693"><ele>323.3333333333333</ele><time>2026-04-05T08:52:14.389Z</time></trkpt><trkpt lat="44.0988893" lon="12.1586524"><ele>324.5</ele><time>2026-04-05T08:52:16.387Z</time></trkpt><trkpt lat="44.0988134" lon="12.1586291"><ele>325.66666666666663</ele><time>2026-04-05T08:52:19.385Z</time></trkpt><trkpt lat="44.0987278" lon="12.1586071"><ele>326.8333333333333</ele><time>2026-04-05T08:52:22.389Z</time></trkpt><trkpt lat="44.0986409" lon="12.1585911"><ele>328.0</ele><time>2026-04-05T08:52:25.397Z</time></trkpt><trkpt lat="44.0985495" lon="12.1585282"><ele>328.0</ele><time>2026-04-05T08:52:28.39Z</time></trkpt><trkpt lat="44.0984619" lon="12.1584473"><ele>328.0</ele><time>2026-04-05T08:52:30.391Z</time></trkpt><trkpt lat="44.0983595" lon="12.1583476"><ele>328.0</ele><time>2026-04-05T08:52:32.403Z</time></trkpt><trkpt lat="44.0983056" lon="12.1582931"><ele>328.0</ele><time>2026-04-05T08:52:33.378Z</time></trkpt><trkpt lat="44.0982465" lon="12.1582411"><ele>328.0</ele><time>2026-04-05T08:52:34.377Z</time></trkpt><trkpt lat="44.0981852" lon="12.1581892"><ele>328.0</ele><time>2026-04-05T08:52:35.392Z</time></trkpt><trkpt lat="44.0981235" lon="12.1581301"><ele>327.5</ele><time>2026-04-05T08:52:36.391Z</time></trkpt><trkpt lat="44.098061" lon="12.1580647"><ele>327.0</ele><time>2026-04-05T08:52:37.399Z</time></trkpt><trkpt lat="44.0980037" lon="12.1580022"><ele>326.5</ele><time>2026-04-05T08:52:38.385Z</time></trkpt><trkpt lat="44.0979506" lon="12.1579497"><ele>326.0</ele><time>2026-04-05T08:52:39.385Z</time></trkpt><trkpt lat="44.0978935" lon="12.157903"><ele>325.5</ele><time>2026-04-05T08:52:40.388Z</time></trkpt><trkpt lat="44.0977823" lon="12.1578385"><ele>325.0</ele><time>2026-04-05T08:52:42.387Z</time></trkpt><trkpt lat="44.0976713" lon="12.1577787"><ele>325.0</ele><time>2026-04-05T08:52:44.38Z</time></trkpt><trkpt lat="44.097613" lon="12.157741"><ele>325.0</ele><time>2026-04-05T08:52:45.386Z</time></trkpt><trkpt lat="44.0975527" lon="12.1576995"><ele>325.0</ele><time>2026-04-05T08:52:46.381Z</time></trkpt><trkpt lat="44.0974864" lon="12.157653"><ele>325.0</ele><time>2026-04-05T08:52:47.38Z</time></trkpt><trkpt lat="44.0974117" lon="12.1575984"><ele>325.0</ele><time>2026-04-05T08:52:48.383Z</time></trkpt><trkpt lat="44.0973387" lon="12.1575412"><ele>325.0</ele><time>2026-04-05T08:52:49.38Z</time></trkpt><trkpt lat="44.0972751" lon="12.1574848"><ele>325.0</ele><time>2026-04-05T08:52:50.386Z</time></trkpt><trkpt lat="44.0972136" lon="12.1574342"><ele>325.4</ele><time>2026-04-05T08:52:51.379Z</time></trkpt><trkpt lat="44.0971091" lon="12.1573499"><ele>325.8</ele><time>2026-04-05T08:52:53.378Z</time></trkpt><trkpt lat="44.0970178" lon="12.1572894"><ele>326.20000000000005</ele><time>2026-04-05T08:52:55.384Z</time></trkpt><trkpt lat="44.0969456" lon="12.1572389"><ele>326.6</ele><time>2026-04-05T08:52:57.384Z</time></trkpt><trkpt lat="44.0968692" lon="12.1571981"><ele>327.0</ele><time>2026-04-05T08:52:59.396Z</time></trkpt><trkpt lat="44.0967928" lon="12.1571509"><ele>327.0</ele><time>2026-04-05T08:53:01.393Z</time></trkpt><trkpt lat="44.0967155" lon="12.1571047"><ele>327.0</ele><time>2026-04-05T08:53:03.397Z</time></trkpt><trkpt lat="44.0966399" lon="12.1570583"><ele>327.0</ele><time>2026-04-05T08:53:05.396Z</time></trkpt><trkpt lat="44.0965688" lon="12.1570185"><ele>327.0</ele><time>2026-04-05T08:53:07.388Z</time></trkpt><trkpt lat="44.0965115" lon="12.1569719"><ele>327.0</ele><time>2026-04-05T08:53:09.393Z</time></trkpt><trkpt lat="44.096457" lon="12.1569043"><ele>327.0</ele><time>2026-04-05T08:53:11.397Z</time></trkpt><trkpt lat="44.0964197" lon="12.1568153"><ele>327.1428571428571</ele><time>2026-04-05T08:53:13.398Z</time></trkpt><trkpt lat="44.0964068" lon="12.1567126"><ele>327.2857142857143</ele><time>2026-04-05T08:53:15.393Z</time></trkpt><trkpt lat="44.0964215" lon="12.1566127"><ele>327.42857142857144</ele><time>2026-04-05T08:53:17.395Z</time></trkpt><trkpt lat="44.0964465" lon="12.1565144"><ele>327.57142857142856</ele><time>2026-04-05T08:53:19.396Z</time></trkpt><trkpt lat="44.0964854" lon="12.1564253"><ele>327.7142857142857</ele><time>2026-04-05T08:53:21.392Z</time></trkpt><trkpt lat="44.0965257" lon="12.1563479"><ele>327.85714285714283</ele><time>2026-04-05T08:53:23.388Z</time></trkpt><trkpt lat="44.0965686" lon="12.1562652"><ele>328.0</ele><time>2026-04-05T08:53:25.389Z</time></trkpt><trkpt lat="44.0965979" lon="12.1561739"><ele>328.0</ele><time>2026-04-05T08:53:27.391Z</time></trkpt><trkpt lat="44.0966226" lon="12.1560797"><ele>328.0</ele><time>2026-04-05T08:53:29.392Z</time></trkpt><trkpt lat="44.0966338" lon="12.1559764"><ele>328.0</ele><time>2026-04-05T08:53:31.388Z</time></trkpt><trkpt lat="44.096622" lon="12.1558649"><ele>328.0</ele><time>2026-04-05T08:53:33.389Z</time></trkpt><trkpt lat="44.0966038" lon="12.1557593"><ele>328.0</ele><time>2026-04-05T08:53:35.384Z</time></trkpt><trkpt lat="44.096566" lon="12.1556569"><ele>328.0</ele><time>2026-04-05T08:53:37.393Z</time></trkpt><trkpt lat="44.0965104" lon="12.1555489"><ele>327.4</ele><time>2026-04-05T08:53:39.402Z</time></trkpt><trkpt lat="44.0964446" lon="12.1554583"><ele>326.79999999999995</ele><time>2026-04-05T08:53:41.398Z</time></trkpt><trkpt lat="44.096372" lon="12.1553803"><ele>326.2</ele><time>2026-04-05T08:53:43.397Z</time></trkpt><trkpt lat="44.0962945" lon="12.1553016"><ele>325.6</ele><time>2026-04-05T08:53:45.394Z</time></trkpt><trkpt lat="44.0962128" lon="12.1552257"><ele>325.0</ele><time>2026-04-05T08:53:47.389Z</time></trkpt><trkpt lat="44.0961272" lon="12.1551574"><ele>325.0</ele><time>2026-04-05T08:53:49.39Z</time></trkpt><trkpt lat="44.0960459" lon="12.1550965"><ele>325.0</ele><time>2026-04-05T08:53:51.385Z</time></trkpt><trkpt lat="44.0959598" lon="12.1550381"><ele>325.0</ele><time>2026-04-05T08:53:53.388Z</time></trkpt><trkpt lat="44.0958766" lon="12.1549856"><ele>325.0</ele><time>2026-04-05T08:53:55.391Z</time></trkpt><trkpt lat="44.0957928" lon="12.1549451"><ele>325.0</ele><time>2026-04-05T08:53:57.399Z</time></trkpt><trkpt lat="44.095707" lon="12.1549045"><ele>327.8</ele><time>2026-04-05T08:53:59.405Z</time></trkpt><trkpt lat="44.0956225" lon="12.1548613"><ele>330.6</ele><time>2026-04-05T08:54:01.401Z</time></trkpt><trkpt lat="44.0955418" lon="12.1548189"><ele>333.4</ele><time>2026-04-05T08:54:03.397Z</time></trkpt><trkpt lat="44.095448" lon="12.1548013"><ele>336.2</ele><time>2026-04-05T08:54:05.413Z</time></trkpt><trkpt lat="44.0953496" lon="12.1547771"><ele>339.0</ele><time>2026-04-05T08:54:07.384Z</time></trkpt><trkpt lat="44.095245" lon="12.154748"><ele>339.0</ele><time>2026-04-05T08:54:09.385Z</time></trkpt><trkpt lat="44.0951428" lon="12.1547076"><ele>339.0</ele><time>2026-04-05T08:54:11.377Z</time></trkpt><trkpt lat="44.0950554" lon="12.1546595"><ele>339.0</ele><time>2026-04-05T08:54:13.383Z</time></trkpt><trkpt lat="44.0949739" lon="12.1546003"><ele>339.0</ele><time>2026-04-05T08:54:15.392Z</time></trkpt><trkpt lat="44.0948886" lon="12.1545153"><ele>339.0</ele><time>2026-04-05T08:54:17.392Z</time></trkpt><trkpt lat="44.0948035" lon="12.1544442"><ele>337.6</ele><time>2026-04-05T08:54:19.386Z</time></trkpt><trkpt lat="44.0947337" lon="12.1543957"><ele>336.2</ele><time>2026-04-05T08:54:21.387Z</time></trkpt><trkpt lat="44.0946586" lon="12.154351"><ele>334.8</ele><time>2026-04-05T08:54:23.387Z</time></trkpt><trkpt lat="44.0945762" lon="12.1542978"><ele>333.40000000000003</ele><time>2026-04-05T08:54:25.395Z</time></trkpt><trkpt lat="44.0944791" lon="12.1542453"><ele>332.0</ele><time>2026-04-05T08:54:27.387Z</time></trkpt><trkpt lat="44.0943896" lon="12.1542014"><ele>332.0</ele><time>2026-04-05T08:54:29.394Z</time></trkpt><trkpt lat="44.0943037" lon="12.1541638"><ele>332.0</ele><time>2026-04-05T08:54:31.397Z</time></trkpt><trkpt lat="44.0942116" lon="12.1541263"><ele>332.0</ele><time>2026-04-05T08:54:33.388Z</time></trkpt><trkpt lat="44.0941231" lon="12.1540831"><ele>332.0</ele><time>2026-04-05T08:54:35.385Z</time></trkpt><trkpt lat="44.0940276" lon="12.154054"><ele>332.0</ele><time>2026-04-05T08:54:37.386Z</time></trkpt><trkpt lat="44.0939286" lon="12.1540254"><ele>332.0</ele><time>2026-04-05T08:54:39.388Z</time></trkpt><trkpt lat="44.0938363" lon="12.1539833"><ele>332.0</ele><time>2026-04-05T08:54:41.377Z</time></trkpt><trkpt lat="44.0937472" lon="12.1539499"><ele>332.0</ele><time>2026-04-05T08:54:43.396Z</time></trkpt><trkpt lat="44.0936614" lon="12.153886"><ele>332.0</ele><time>2026-04-05T08:54:45.397Z</time></trkpt><trkpt lat="44.0935855" lon="12.1537954"><ele>332.0</ele><time>2026-04-05T08:54:47.39Z</time></trkpt><trkpt lat="44.0935393" lon="12.153675"><ele>332.0</ele><time>2026-04-05T08:54:49.403Z</time></trkpt><trkpt lat="44.0935127" lon="12.1535422"><ele>332.0</ele><time>2026-04-05T08:54:51.402Z</time></trkpt><trkpt lat="44.0935021" lon="12.1534143"><ele>332.0</ele><time>2026-04-05T08:54:53.409Z</time></trkpt><trkpt lat="44.0934924" lon="12.1532895"><ele>332.0</ele><time>2026-04-05T08:54:55.403Z</time></trkpt><trkpt lat="44.0934727" lon="12.1531713"><ele>332.0</ele><time>2026-04-05T08:54:57.402Z</time></trkpt><trkpt lat="44.0934286" lon="12.1530643"><ele>331.6</ele><time>2026-04-05T08:54:59.403Z</time></trkpt><trkpt lat="44.0933679" lon="12.1529913"><ele>331.20000000000005</ele><time>2026-04-05T08:55:01.403Z</time></trkpt><trkpt lat="44.0932899" lon="12.1529241"><ele>330.8</ele><time>2026-04-05T08:55:03.399Z</time></trkpt><trkpt lat="44.0932066" lon="12.1528521"><ele>330.4</ele><time>2026-04-05T08:55:05.403Z</time></trkpt><trkpt lat="44.093123" lon="12.1527811"><ele>330.0</ele><time>2026-04-05T08:55:07.408Z</time></trkpt><trkpt lat="44.0930359" lon="12.1527173"><ele>330.0</ele><time>2026-04-05T08:55:09.396Z</time></trkpt><trkpt lat="44.092954" lon="12.1526652"><ele>330.0</ele><time>2026-04-05T08:55:11.406Z</time></trkpt><trkpt lat="44.0928668" lon="12.1526099"><ele>330.0</ele><time>2026-04-05T08:55:13.409Z</time></trkpt><trkpt lat="44.0927876" lon="12.1525379"><ele>330.0</ele><time>2026-04-05T08:55:15.396Z</time></trkpt><trkpt lat="44.0927159" lon="12.1524323"><ele>330.0</ele><time>2026-04-05T08:55:17.395Z</time></trkpt><trkpt lat="44.0926657" lon="12.1523191"><ele>331.0</ele><time>2026-04-05T08:55:19.401Z</time></trkpt><trkpt lat="44.0926424" lon="12.1521939"><ele>332.0</ele><time>2026-04-05T08:55:21.404Z</time></trkpt><trkpt lat="44.0926367" lon="12.1520601"><ele>333.0</ele><time>2026-04-05T08:55:23.411Z</time></trkpt><trkpt lat="44.0926427" lon="12.1519255"><ele>334.0</ele><time>2026-04-05T08:55:25.393Z</time></trkpt><trkpt lat="44.0926592" lon="12.1517968"><ele>335.0</ele><time>2026-04-05T08:55:27.397Z</time></trkpt><trkpt lat="44.092684" lon="12.1516693"><ele>335.0</ele><time>2026-04-05T08:55:29.394Z</time></trkpt><trkpt lat="44.0927105" lon="12.1515428"><ele>335.0</ele><time>2026-04-05T08:55:31.393Z</time></trkpt><trkpt lat="44.0927406" lon="12.1514176"><ele>335.0</ele><time>2026-04-05T08:55:33.387Z</time></trkpt><trkpt lat="44.0927833" lon="12.1512872"><ele>335.0</ele><time>2026-04-05T08:55:35.388Z</time></trkpt><trkpt lat="44.0928268" lon="12.1511549"><ele>335.0</ele><time>2026-04-05T08:55:37.387Z</time></trkpt><trkpt lat="44.0928751" lon="12.1510282"><ele>334.2</ele><time>2026-04-05T08:55:39.385Z</time></trkpt><trkpt lat="44.0929251" lon="12.1508912"><ele>333.4</ele><time>2026-04-05T08:55:41.395Z</time></trkpt><trkpt lat="44.092973" lon="12.1507533"><ele>332.6</ele><time>2026-04-05T08:55:43.392Z</time></trkpt><trkpt lat="44.0930024" lon="12.1506156"><ele>331.8</ele><time>2026-04-05T08:55:45.394Z</time></trkpt><trkpt lat="44.0930184" lon="12.1504827"><ele>331.0</ele><time>2026-04-05T08:55:47.392Z</time></trkpt><trkpt lat="44.093022" lon="12.1503448"><ele>331.20000000000005</ele><time>2026-04-05T08:55:49.391Z</time></trkpt><trkpt lat="44.0930206" lon="12.150202"><ele>331.40000000000003</ele><time>2026-04-05T08:55:51.391Z</time></trkpt><trkpt lat="44.0930106" lon="12.1500772"><ele>331.6</ele><time>2026-04-05T08:55:53.398Z</time></trkpt><trkpt lat="44.0930025" lon="12.1499512"><ele>331.8</ele><time>2026-04-05T08:55:55.398Z</time></trkpt><trkpt lat="44.0929963" lon="12.1498278"><ele>332.0</ele><time>2026-04-05T08:55:57.4Z</time></trkpt><trkpt lat="44.0929927" lon="12.1496977"><ele>332.0</ele><time>2026-04-05T08:55:59.399Z</time></trkpt><trkpt lat="44.0929841" lon="12.1495717"><ele>332.0</ele><time>2026-04-05T08:56:01.4Z</time></trkpt><trkpt lat="44.0929702" lon="12.1494436"><ele>332.0</ele><time>2026-04-05T08:56:03.406Z</time></trkpt><trkpt lat="44.0929594" lon="12.1493206"><ele>332.0</ele><time>2026-04-05T08:56:05.403Z</time></trkpt><trkpt lat="44.092962" lon="12.1491889"><ele>332.0</ele><time>2026-04-05T08:56:07.397Z</time></trkpt><trkpt lat="44.0929633" lon="12.1490495"><ele>333.20000000000005</ele><time>2026-04-05T08:56:09.422Z</time></trkpt><trkpt lat="44.0929673" lon="12.1489113"><ele>334.4</ele><time>2026-04-05T08:56:11.395Z</time></trkpt><trkpt lat="44.0929703" lon="12.1487751"><ele>335.6</ele><time>2026-04-05T08:56:13.395Z</time></trkpt><trkpt lat="44.0929732" lon="12.1486339"><ele>336.79999999999995</ele><time>2026-04-05T08:56:15.397Z</time></trkpt><trkpt lat="44.0929813" lon="12.1484761"><ele>338.0</ele><time>2026-04-05T08:56:17.404Z</time></trkpt><trkpt lat="44.0929819" lon="12.1483862"><ele>338.0</ele><time>2026-04-05T08:56:18.4Z</time></trkpt><trkpt lat="44.0929794" lon="12.1482901"><ele>338.0</ele><time>2026-04-05T08:56:19.4Z</time></trkpt><trkpt lat="44.0929833" lon="12.1481886"><ele>338.0</ele><time>2026-04-05T08:56:20.399Z</time></trkpt><trkpt lat="44.0929823" lon="12.1480835"><ele>338.0</ele><time>2026-04-05T08:56:21.401Z</time></trkpt><trkpt lat="44.0929779" lon="12.1479696"><ele>338.0</ele><time>2026-04-05T08:56:22.401Z</time></trkpt><trkpt lat="44.0929723" lon="12.1478535"><ele>338.0</ele><time>2026-04-05T08:56:23.4Z</time></trkpt><trkpt lat="44.0929693" lon="12.1477385"><ele>338.79999999999995</ele><time>2026-04-05T08:56:24.399Z</time></trkpt><trkpt lat="44.0929626" lon="12.1476213"><ele>339.6</ele><time>2026-04-05T08:56:25.401Z</time></trkpt><trkpt lat="44.0929577" lon="12.1474981"><ele>340.4</ele><time>2026-04-05T08:56:26.398Z</time></trkpt><trkpt lat="44.0929513" lon="12.1473717"><ele>341.20000000000005</ele><time>2026-04-05T08:56:27.408Z</time></trkpt><trkpt lat="44.0929533" lon="12.1472413"><ele>342.0</ele><time>2026-04-05T08:56:28.397Z</time></trkpt><trkpt lat="44.0929659" lon="12.1471137"><ele>342.20000000000005</ele><time>2026-04-05T08:56:29.392Z</time></trkpt><trkpt lat="44.0929903" lon="12.1469757"><ele>342.4</ele><time>2026-04-05T08:56:30.398Z</time></trkpt><trkpt lat="44.0930257" lon="12.1468414"><ele>342.6</ele><time>2026-04-05T08:56:31.387Z</time></trkpt><trkpt lat="44.0930711" lon="12.1467115"><ele>342.79999999999995</ele><time>2026-04-05T08:56:32.385Z</time></trkpt><trkpt lat="44.0931341" lon="12.1465952"><ele>343.0</ele><time>2026-04-05T08:56:33.397Z</time></trkpt><trkpt lat="44.0932142" lon="12.1464923"><ele>340.59999999999997</ele><time>2026-04-05T08:56:34.39Z</time></trkpt><trkpt lat="44.0932972" lon="12.1463974"><ele>338.2</ele><time>2026-04-05T08:56:35.393Z</time></trkpt><trkpt lat="44.0933824" lon="12.1463066"><ele>335.8</ele><time>2026-04-05T08:56:36.402Z</time></trkpt><trkpt lat="44.0934663" lon="12.1462094"><ele>333.4</ele><time>2026-04-05T08:56:37.388Z</time></trkpt><trkpt lat="44.0935398" lon="12.1461216"><ele>331.0</ele><time>2026-04-05T08:56:38.391Z</time></trkpt><trkpt lat="44.0936114" lon="12.1460269"><ele>331.0</ele><time>2026-04-05T08:56:39.41Z</time></trkpt><trkpt lat="44.0936829" lon="12.1459304"><ele>331.0</ele><time>2026-04-05T08:56:40.406Z</time></trkpt><trkpt lat="44.0937521" lon="12.145835"><ele>331.0</ele><time>2026-04-05T08:56:41.396Z</time></trkpt><trkpt lat="44.0938214" lon="12.1457423"><ele>331.0</ele><time>2026-04-05T08:56:42.394Z</time></trkpt><trkpt lat="44.0938918" lon="12.1456494"><ele>331.0</ele><time>2026-04-05T08:56:43.389Z</time></trkpt><trkpt lat="44.0939621" lon="12.1455674"><ele>330.20000000000005</ele><time>2026-04-05T08:56:44.391Z</time></trkpt><trkpt lat="44.0940408" lon="12.1454928"><ele>329.40000000000003</ele><time>2026-04-05T08:56:45.391Z</time></trkpt><trkpt lat="44.0941156" lon="12.1454168"><ele>328.6</ele><time>2026-04-05T08:56:46.387Z</time></trkpt><trkpt lat="44.094191" lon="12.1453374"><ele>327.8</ele><time>2026-04-05T08:56:47.404Z</time></trkpt><trkpt lat="44.0942703" lon="12.1452647"><ele>327.0</ele><time>2026-04-05T08:56:48.4Z</time></trkpt><trkpt lat="44.0943526" lon="12.1452001"><ele>325.0</ele><time>2026-04-05T08:56:49.399Z</time></trkpt><trkpt lat="44.0944422" lon="12.1451505"><ele>323.0</ele><time>2026-04-05T08:56:50.398Z</time></trkpt><trkpt lat="44.0945386" lon="12.1451203"><ele>321.0</ele><time>2026-04-05T08:56:51.407Z</time></trkpt><trkpt lat="44.094636" lon="12.1450863"><ele>319.0</ele><time>2026-04-05T08:56:52.395Z</time></trkpt><trkpt lat="44.0947271" lon="12.1450364"><ele>317.0</ele><time>2026-04-05T08:56:53.399Z</time></trkpt><trkpt lat="44.0948199" lon="12.1449788"><ele>317.0</ele><time>2026-04-05T08:56:54.396Z</time></trkpt><trkpt lat="44.0949127" lon="12.1449133"><ele>317.0</ele><time>2026-04-05T08:56:55.4Z</time></trkpt><trkpt lat="44.0950101" lon="12.1448544"><ele>317.0</ele><time>2026-04-05T08:56:56.394Z</time></trkpt><trkpt lat="44.095107" lon="12.1447998"><ele>317.0</ele><time>2026-04-05T08:56:57.393Z</time></trkpt><trkpt lat="44.095203" lon="12.1447621"><ele>317.0</ele><time>2026-04-05T08:56:58.414Z</time></trkpt><trkpt lat="44.0952986" lon="12.1447445"><ele>316.83333333333337</ele><time>2026-04-05T08:56:59.407Z</time></trkpt><trkpt lat="44.095389" lon="12.1447476"><ele>316.6666666666667</ele><time>2026-04-05T08:57:00.409Z</time></trkpt><trkpt lat="44.0954791" lon="12.1447592"><ele>316.5</ele><time>2026-04-05T08:57:01.4Z</time></trkpt><trkpt lat="44.0955628" lon="12.1447704"><ele>316.3333333333333</ele><time>2026-04-05T08:57:02.395Z</time></trkpt><trkpt lat="44.0956474" lon="12.1447818"><ele>316.16666666666663</ele><time>2026-04-05T08:57:03.398Z</time></trkpt><trkpt lat="44.0957292" lon="12.1447953"><ele>316.0</ele><time>2026-04-05T08:57:04.402Z</time></trkpt><trkpt lat="44.0958051" lon="12.1448078"><ele>316.0</ele><time>2026-04-05T08:57:05.4Z</time></trkpt><trkpt lat="44.0958753" lon="12.1448182"><ele>316.0</ele><time>2026-04-05T08:57:06.403Z</time></trkpt><trkpt lat="44.0959383" lon="12.1448211"><ele>316.0</ele><time>2026-04-05T08:57:07.399Z</time></trkpt><trkpt lat="44.0960029" lon="12.1448162"><ele>316.0</ele><time>2026-04-05T08:57:08.395Z</time></trkpt><trkpt lat="44.0960657" lon="12.1448045"><ele>316.0</ele><time>2026-04-05T08:57:09.398Z</time></trkpt><trkpt lat="44.0961815" lon="12.1447513"><ele>316.0</ele><time>2026-04-05T08:57:11.394Z</time></trkpt><trkpt lat="44.0962804" lon="12.1446576"><ele>316.0</ele><time>2026-04-05T08:57:13.396Z</time></trkpt><trkpt lat="44.0963655" lon="12.1445342"><ele>316.0</ele><time>2026-04-05T08:57:15.397Z</time></trkpt><trkpt lat="44.0964251" lon="12.1443832"><ele>316.0</ele><time>2026-04-05T08:57:17.395Z</time></trkpt><trkpt lat="44.0964539" lon="12.1442258"><ele>316.0</ele><time>2026-04-05T08:57:19.404Z</time></trkpt><trkpt lat="44.0964657" lon="12.1440727"><ele>313.40000000000003</ele><time>2026-04-05T08:57:21.391Z</time></trkpt><trkpt lat="44.0964668" lon="12.1439171"><ele>310.8</ele><time>2026-04-05T08:57:23.395Z</time></trkpt><trkpt lat="44.0964977" lon="12.1437714"><ele>308.20000000000005</ele><time>2026-04-05T08:57:25.393Z</time></trkpt><trkpt lat="44.0965568" lon="12.1436533"><ele>305.6</ele><time>2026-04-05T08:57:27.388Z</time></trkpt><trkpt lat="44.0965742" lon="12.1435135"><ele>303.0</ele><time>2026-04-05T08:57:29.405Z</time></trkpt><trkpt lat="44.0965565" lon="12.1433809"><ele>303.0</ele><time>2026-04-05T08:57:31.408Z</time></trkpt><trkpt lat="44.0965654" lon="12.1432583"><ele>303.0</ele><time>2026-04-05T08:57:33.407Z</time></trkpt><trkpt lat="44.0965996" lon="12.1431405"><ele>303.0</ele><time>2026-04-05T08:57:35.394Z</time></trkpt><trkpt lat="44.0966614" lon="12.1430526"><ele>303.0</ele><time>2026-04-05T08:57:37.406Z</time></trkpt><trkpt lat="44.0967466" lon="12.1429801"><ele>303.0</ele><time>2026-04-05T08:57:39.401Z</time></trkpt><trkpt lat="44.0968388" lon="12.1429096"><ele>305.6</ele><time>2026-04-05T08:57:41.412Z</time></trkpt><trkpt lat="44.0969271" lon="12.1428253"><ele>308.20000000000005</ele><time>2026-04-05T08:57:43.41Z</time></trkpt><trkpt lat="44.0970055" lon="12.1427408"><ele>310.8</ele><time>2026-04-05T08:57:45.403Z</time></trkpt><trkpt lat="44.0970889" lon="12.1426826"><ele>313.40000000000003</ele><time>2026-04-05T08:57:47.406Z</time></trkpt><trkpt lat="44.0971686" lon="12.1426272"><ele>316.0</ele><time>2026-04-05T08:57:49.402Z</time></trkpt><trkpt lat="44.0972418" lon="12.1425787"><ele>316.0</ele><time>2026-04-05T08:57:51.405Z</time></trkpt><trkpt lat="44.0973181" lon="12.1425206"><ele>316.0</ele><time>2026-04-05T08:57:53.404Z</time></trkpt><trkpt lat="44.0973961" lon="12.1424495"><ele>316.0</ele><time>2026-04-05T08:57:55.4Z</time></trkpt><trkpt lat="44.0974893" lon="12.142376"><ele>316.0</ele><time>2026-04-05T08:57:57.402Z</time></trkpt><trkpt lat="44.0975794" lon="12.1423137"><ele>316.0</ele><time>2026-04-05T08:57:59.411Z</time></trkpt><trkpt lat="44.0976748" lon="12.1422525"><ele>317.0</ele><time>2026-04-05T08:58:01.413Z</time></trkpt><trkpt lat="44.0977636" lon="12.1421973"><ele>318.0</ele><time>2026-04-05T08:58:03.395Z</time></trkpt><trkpt lat="44.0978587" lon="12.1421367"><ele>319.0</ele><time>2026-04-05T08:58:05.398Z</time></trkpt><trkpt lat="44.0979511" lon="12.1420922"><ele>320.0</ele><time>2026-04-05T08:58:07.404Z</time></trkpt><trkpt lat="44.098037" lon="12.1420531"><ele>321.0</ele><time>2026-04-05T08:58:09.416Z</time></trkpt><trkpt lat="44.098139" lon="12.1420271"><ele>321.0</ele><time>2026-04-05T08:58:11.404Z</time></trkpt><trkpt lat="44.0982317" lon="12.1420174"><ele>321.0</ele><time>2026-04-05T08:58:13.403Z</time></trkpt><trkpt lat="44.0983249" lon="12.1420317"><ele>321.0</ele><time>2026-04-05T08:58:15.402Z</time></trkpt><trkpt lat="44.0984171" lon="12.1420618"><ele>321.0</ele><time>2026-04-05T08:58:17.413Z</time></trkpt><trkpt lat="44.0985063" lon="12.1421025"><ele>321.0</ele><time>2026-04-05T08:58:19.415Z</time></trkpt><trkpt lat="44.0985968" lon="12.1421515"><ele>321.20000000000005</ele><time>2026-04-05T08:58:21.409Z</time></trkpt><trkpt lat="44.0986854" lon="12.1422137"><ele>321.40000000000003</ele><time>2026-04-05T08:58:23.405Z</time></trkpt><trkpt lat="44.0987702" lon="12.1422795"><ele>321.6</ele><time>2026-04-05T08:58:25.407Z</time></trkpt><trkpt lat="44.0988543" lon="12.1423524"><ele>321.8</ele><time>2026-04-05T08:58:27.41Z</time></trkpt><trkpt lat="44.0989414" lon="12.1424243"><ele>322.0</ele><time>2026-04-05T08:58:29.418Z</time></trkpt><trkpt lat="44.0990276" lon="12.1424874"><ele>323.20000000000005</ele><time>2026-04-05T08:58:31.412Z</time></trkpt><trkpt lat="44.099104" lon="12.1425459"><ele>324.4</ele><time>2026-04-05T08:58:33.407Z</time></trkpt><trkpt lat="44.0991856" lon="12.142621"><ele>325.6</ele><time>2026-04-05T08:58:35.421Z</time></trkpt><trkpt lat="44.0992646" lon="12.1427057"><ele>326.79999999999995</ele><time>2026-04-05T08:58:37.41Z</time></trkpt><trkpt lat="44.0993376" lon="12.1427794"><ele>328.0</ele><time>2026-04-05T08:58:39.418Z</time></trkpt><trkpt lat="44.0994082" lon="12.1428583"><ele>328.0</ele><time>2026-04-05T08:58:41.415Z</time></trkpt><trkpt lat="44.099477" lon="12.142949"><ele>328.0</ele><time>2026-04-05T08:58:43.422Z</time></trkpt><trkpt lat="44.0995404" lon="12.1430502"><ele>328.0</ele><time>2026-04-05T08:58:45.414Z</time></trkpt><trkpt lat="44.0996037" lon="12.1431617"><ele>328.0</ele><time>2026-04-05T08:58:47.415Z</time></trkpt><trkpt lat="44.0996736" lon="12.1432742"><ele>328.0</ele><time>2026-04-05T08:58:49.418Z</time></trkpt><trkpt lat="44.0997452" lon="12.1433835"><ele>328.2</ele><time>2026-04-05T08:58:51.413Z</time></trkpt><trkpt lat="44.0998082" lon="12.1434949"><ele>328.4</ele><time>2026-04-05T08:58:53.414Z</time></trkpt><trkpt lat="44.0998686" lon="12.1436157"><ele>328.59999999999997</ele><time>2026-04-05T08:58:55.41Z</time></trkpt><trkpt lat="44.0999284" lon="12.1437343"><ele>328.79999999999995</ele><time>2026-04-05T08:58:57.412Z</time></trkpt><trkpt lat="44.0999868" lon="12.1438562"><ele>329.0</ele><time>2026-04-05T08:58:59.419Z</time></trkpt><trkpt lat="44.100034" lon="12.1439714"><ele>327.6666666666667</ele><time>2026-04-05T08:59:01.421Z</time></trkpt><trkpt lat="44.1000622" lon="12.1440864"><ele>326.33333333333337</ele><time>2026-04-05T08:59:03.426Z</time></trkpt><trkpt lat="44.1000863" lon="12.1442015"><ele>325.0</ele><time>2026-04-05T08:59:05.428Z</time></trkpt><trkpt lat="44.1001057" lon="12.1443093"><ele>323.6666666666667</ele><time>2026-04-05T08:59:07.424Z</time></trkpt><trkpt lat="44.1001258" lon="12.1444349"><ele>322.3333333333333</ele><time>2026-04-05T08:59:09.416Z</time></trkpt><trkpt lat="44.1001469" lon="12.1445753"><ele>321.0</ele><time>2026-04-05T08:59:11.412Z</time></trkpt><trkpt lat="44.1001805" lon="12.1447141"><ele>321.0</ele><time>2026-04-05T08:59:13.411Z</time></trkpt><trkpt lat="44.100232" lon="12.1448383"><ele>321.0</ele><time>2026-04-05T08:59:15.409Z</time></trkpt><trkpt lat="44.1002896" lon="12.1449668"><ele>321.0</ele><time>2026-04-05T08:59:17.414Z</time></trkpt><trkpt lat="44.1003469" lon="12.1450994"><ele>321.0</ele><time>2026-04-05T08:59:19.421Z</time></trkpt><trkpt lat="44.1003832" lon="12.1451765"><ele>321.0</ele><time>2026-04-05T08:59:20.414Z</time></trkpt><trkpt lat="44.1004233" lon="12.1452583"><ele>319.0</ele><time>2026-04-05T08:59:21.406Z</time></trkpt><trkpt lat="44.1004661" lon="12.1453509"><ele>317.0</ele><time>2026-04-05T08:59:22.418Z</time></trkpt><trkpt lat="44.1005099" lon="12.1454516"><ele>315.0</ele><time>2026-04-05T08:59:23.407Z</time></trkpt><trkpt lat="44.1005451" lon="12.145561"><ele>313.0</ele><time>2026-04-05T08:59:24.418Z</time></trkpt><trkpt lat="44.100579" lon="12.1456653"><ele>311.0</ele><time>2026-04-05T08:59:25.411Z</time></trkpt><trkpt lat="44.1006126" lon="12.1457619"><ele>309.0</ele><time>2026-04-05T08:59:26.409Z</time></trkpt><trkpt lat="44.1006485" lon="12.145846"><ele>308.8571428571429</ele><time>2026-04-05T08:59:27.403Z</time></trkpt><trkpt lat="44.1006807" lon="12.1459219"><ele>308.7142857142857</ele><time>2026-04-05T08:59:28.396Z</time></trkpt><trkpt lat="44.1007095" lon="12.1460007"><ele>308.57142857142856</ele><time>2026-04-05T08:59:29.404Z</time></trkpt><trkpt lat="44.1007643" lon="12.1461012"><ele>308.42857142857144</ele><time>2026-04-05T08:59:31.401Z</time></trkpt><trkpt lat="44.1008287" lon="12.1461418"><ele>308.2857142857143</ele><time>2026-04-05T08:59:33.412Z</time></trkpt><trkpt lat="44.1009062" lon="12.1461574"><ele>308.14285714285717</ele><time>2026-04-05T08:59:35.41Z</time></trkpt><trkpt lat="44.1009883" lon="12.1461416"><ele>308.0</ele><time>2026-04-05T08:59:38.419Z</time></trkpt><trkpt lat="44.1010498" lon="12.1460777"><ele>308.0</ele><time>2026-04-05T08:59:41.408Z</time></trkpt><trkpt lat="44.1010844" lon="12.1459982"><ele>308.0</ele><time>2026-04-05T08:59:43.413Z</time></trkpt><trkpt lat="44.1011022" lon="12.1459041"><ele>308.0</ele><time>2026-04-05T08:59:45.433Z</time></trkpt><trkpt lat="44.1010777" lon="12.1458067"><ele>308.0</ele><time>2026-04-05T08:59:47.419Z</time></trkpt><trkpt lat="44.1010386" lon="12.145718"><ele>308.0</ele><time>2026-04-05T08:59:49.419Z</time></trkpt><trkpt lat="44.1009872" lon="12.1456373"><ele>308.0</ele><time>2026-04-05T09:01:02.388Z</time></trkpt><trkpt lat="44.1009478" lon="12.1455299"><ele>307.83333333333337</ele><time>2026-04-05T09:01:05.394Z</time></trkpt><trkpt lat="44.1009179" lon="12.1454362"><ele>307.6666666666667</ele><time>2026-04-05T09:01:07.386Z</time></trkpt><trkpt lat="44.100897" lon="12.1453463"><ele>307.5</ele><time>2026-04-05T09:01:09.389Z</time></trkpt><trkpt lat="44.1008844" lon="12.1452298"><ele>307.3333333333333</ele><time>2026-04-05T09:01:11.394Z</time></trkpt><trkpt lat="44.1008898" lon="12.1451001"><ele>307.16666666666663</ele><time>2026-04-05T09:01:13.388Z</time></trkpt><trkpt lat="44.1009198" lon="12.1449817"><ele>307.0</ele><time>2026-04-05T09:01:15.383Z</time></trkpt><trkpt lat="44.1009711" lon="12.1448771"><ele>307.0</ele><time>2026-04-05T09:01:17.39Z</time></trkpt><trkpt lat="44.1010205" lon="12.1447692"><ele>307.0</ele><time>2026-04-05T09:01:19.389Z</time></trkpt><trkpt lat="44.1010802" lon="12.1446596"><ele>307.0</ele><time>2026-04-05T09:01:21.392Z</time></trkpt><trkpt lat="44.1011488" lon="12.1445415"><ele>307.0</ele><time>2026-04-05T09:01:23.383Z</time></trkpt><trkpt lat="44.1012157" lon="12.144407"><ele>307.0</ele><time>2026-04-05T09:01:25.377Z</time></trkpt><trkpt lat="44.10125" lon="12.1443275"><ele>307.0</ele><time>2026-04-05T09:01:26.373Z</time></trkpt><trkpt lat="44.1012871" lon="12.1442476"><ele>307.0</ele><time>2026-04-05T09:01:27.381Z</time></trkpt><trkpt lat="44.1013257" lon="12.1441625"><ele>307.0</ele><time>2026-04-05T09:01:28.378Z</time></trkpt><trkpt lat="44.1013592" lon="12.1440693"><ele>307.0</ele><time>2026-04-05T09:01:29.371Z</time></trkpt><trkpt lat="44.1013958" lon="12.1439727"><ele>307.0</ele><time>2026-04-05T09:01:30.381Z</time></trkpt><trkpt lat="44.1014277" lon="12.143872"><ele>307.0</ele><time>2026-04-05T09:01:31.37Z</time></trkpt><trkpt lat="44.1014657" lon="12.1437658"><ele>306.66666666666663</ele><time>2026-04-05T09:01:32.383Z</time></trkpt><trkpt lat="44.1015038" lon="12.14365"><ele>306.3333333333333</ele><time>2026-04-05T09:01:33.374Z</time></trkpt><trkpt lat="44.1015397" lon="12.1435389"><ele>306.0</ele><time>2026-04-05T09:01:34.384Z</time></trkpt><trkpt lat="44.1015802" lon="12.1434369"><ele>305.6666666666667</ele><time>2026-04-05T09:01:35.377Z</time></trkpt><trkpt lat="44.1016279" lon="12.1433299"><ele>305.33333333333337</ele><time>2026-04-05T09:01:36.384Z</time></trkpt><trkpt lat="44.1016862" lon="12.1432231"><ele>305.0</ele><time>2026-04-05T09:01:37.377Z</time></trkpt><trkpt lat="44.1017511" lon="12.1431153"><ele>300.5</ele><time>2026-04-05T09:01:38.379Z</time></trkpt><trkpt lat="44.1018156" lon="12.1430179"><ele>296.0</ele><time>2026-04-05T09:01:39.379Z</time></trkpt><trkpt lat="44.1018743" lon="12.142937"><ele>291.5</ele><time>2026-04-05T09:01:40.375Z</time></trkpt><trkpt lat="44.1019288" lon="12.1428624"><ele>287.0</ele><time>2026-04-05T09:01:41.377Z</time></trkpt><trkpt lat="44.1019793" lon="12.1427909"><ele>282.5</ele><time>2026-04-05T09:01:42.391Z</time></trkpt><trkpt lat="44.1020268" lon="12.1427189"><ele>278.0</ele><time>2026-04-05T09:01:43.375Z</time></trkpt><trkpt lat="44.1020677" lon="12.1426469"><ele>278.0</ele><time>2026-04-05T09:01:44.38Z</time></trkpt><trkpt lat="44.1021212" lon="12.142536"><ele>278.0</ele><time>2026-04-05T09:01:46.381Z</time></trkpt><trkpt lat="44.1022017" lon="12.1425231"><ele>278.0</ele><time>2026-04-05T09:01:48.384Z</time></trkpt><trkpt lat="44.1022786" lon="12.1425313"><ele>278.0</ele><time>2026-04-05T09:01:50.386Z</time></trkpt><trkpt lat="44.1023542" lon="12.1425169"><ele>278.0</ele><time>2026-04-05T09:01:52.395Z</time></trkpt><trkpt lat="44.1024215" lon="12.1425122"><ele>278.0</ele><time>2026-04-05T09:01:54.397Z</time></trkpt><trkpt lat="44.1024854" lon="12.1424975"><ele>276.5</ele><time>2026-04-05T09:01:56.394Z</time></trkpt><trkpt lat="44.1025557" lon="12.142474"><ele>275.0</ele><time>2026-04-05T09:01:58.387Z</time></trkpt><trkpt lat="44.1026272" lon="12.1424511"><ele>273.5</ele><time>2026-04-05T09:02:00.392Z</time></trkpt><trkpt lat="44.1027033" lon="12.1424289"><ele>272.0</ele><time>2026-04-05T09:02:02.397Z</time></trkpt><trkpt lat="44.1027878" lon="12.1424103"><ele>270.5</ele><time>2026-04-05T09:02:04.407Z</time></trkpt><trkpt lat="44.1028738" lon="12.1423834"><ele>269.0</ele><time>2026-04-05T09:02:06.39Z</time></trkpt><trkpt lat="44.1029682" lon="12.1423692"><ele>269.0</ele><time>2026-04-05T09:02:08.395Z</time></trkpt><trkpt lat="44.1030665" lon="12.142344"><ele>269.0</ele><time>2026-04-05T09:02:10.387Z</time></trkpt><trkpt lat="44.1031706" lon="12.142312"><ele>269.0</ele><time>2026-04-05T09:02:12.374Z</time></trkpt><trkpt lat="44.1032797" lon="12.1422777"><ele>269.0</ele><time>2026-04-05T09:02:14.377Z</time></trkpt><trkpt lat="44.1033965" lon="12.1422458"><ele>269.0</ele><time>2026-04-05T09:02:16.387Z</time></trkpt><trkpt lat="44.1035132" lon="12.1422209"><ele>269.0</ele><time>2026-04-05T09:02:18.375Z</time></trkpt><trkpt lat="44.1035795" lon="12.1422157"><ele>269.0</ele><time>2026-04-05T09:02:19.387Z</time></trkpt><trkpt lat="44.103648" lon="12.1422095"><ele>269.0</ele><time>2026-04-05T09:02:20.376Z</time></trkpt><trkpt lat="44.1037164" lon="12.1422059"><ele>269.0</ele><time>2026-04-05T09:02:21.381Z</time></trkpt><trkpt lat="44.103786" lon="12.1422041"><ele>269.0</ele><time>2026-04-05T09:02:22.383Z</time></trkpt><trkpt lat="44.1038559" lon="12.1422029"><ele>269.0</ele><time>2026-04-05T09:02:23.375Z</time></trkpt><trkpt lat="44.103927" lon="12.1422057"><ele>269.0</ele><time>2026-04-05T09:02:24.381Z</time></trkpt><trkpt lat="44.1039965" lon="12.1422124"><ele>269.0</ele><time>2026-04-05T09:02:25.377Z</time></trkpt><trkpt lat="44.1040678" lon="12.1422171"><ele>269.0</ele><time>2026-04-05T09:02:26.386Z</time></trkpt><trkpt lat="44.1041379" lon="12.1422131"><ele>269.0</ele><time>2026-04-05T09:02:27.379Z</time></trkpt><trkpt lat="44.1042082" lon="12.142211"><ele>269.0</ele><time>2026-04-05T09:02:28.377Z</time></trkpt><trkpt lat="44.1042753" lon="12.1422133"><ele>269.0</ele><time>2026-04-05T09:02:29.379Z</time></trkpt><trkpt lat="44.1043429" lon="12.1422175"><ele>269.0</ele><time>2026-04-05T09:02:30.372Z</time></trkpt><trkpt lat="44.1044102" lon="12.1422176"><ele>269.0</ele><time>2026-04-05T09:02:31.378Z</time></trkpt><trkpt lat="44.1044735" lon="12.1422165"><ele>268.8571428571429</ele><time>2026-04-05T09:02:32.373Z</time></trkpt><trkpt lat="44.104537" lon="12.1422149"><ele>268.7142857142857</ele><time>2026-04-05T09:02:33.372Z</time></trkpt><trkpt lat="44.1046031" lon="12.1422111"><ele>268.57142857142856</ele><time>2026-04-05T09:02:34.376Z</time></trkpt><trkpt lat="44.1046726" lon="12.1422011"><ele>268.42857142857144</ele><time>2026-04-05T09:02:35.376Z</time></trkpt><trkpt lat="44.1047446" lon="12.1421945"><ele>268.2857142857143</ele><time>2026-04-05T09:02:36.387Z</time></trkpt><trkpt lat="44.1048134" lon="12.1421757"><ele>268.14285714285717</ele><time>2026-04-05T09:02:37.373Z</time></trkpt><trkpt lat="44.104877" lon="12.1421381"><ele>268.0</ele><time>2026-04-05T09:02:38.375Z</time></trkpt><trkpt lat="44.1049399" lon="12.1420863"><ele>268.0</ele><time>2026-04-05T09:02:39.382Z</time></trkpt><trkpt lat="44.1049982" lon="12.1420306"><ele>268.0</ele><time>2026-04-05T09:02:40.373Z</time></trkpt><trkpt lat="44.1050649" lon="12.1419773"><ele>268.0</ele><time>2026-04-05T09:02:41.391Z</time></trkpt><trkpt lat="44.1051291" lon="12.1419257"><ele>268.0</ele><time>2026-04-05T09:02:42.375Z</time></trkpt><trkpt lat="44.105197" lon="12.1418741"><ele>268.0</ele><time>2026-04-05T09:02:43.38Z</time></trkpt><trkpt lat="44.1052623" lon="12.141831"><ele>268.0</ele><time>2026-04-05T09:02:44.383Z</time></trkpt><trkpt lat="44.1053274" lon="12.1417944"><ele>268.0</ele><time>2026-04-05T09:02:45.382Z</time></trkpt><trkpt lat="44.105393" lon="12.14176"><ele>268.0</ele><time>2026-04-05T09:02:46.382Z</time></trkpt><trkpt lat="44.1054566" lon="12.1417279"><ele>268.0</ele><time>2026-04-05T09:02:47.378Z</time></trkpt><trkpt lat="44.1055188" lon="12.1416967"><ele>268.0</ele><time>2026-04-05T09:02:48.394Z</time></trkpt><trkpt lat="44.1055823" lon="12.1416675"><ele>268.0</ele><time>2026-04-05T09:02:49.385Z</time></trkpt><trkpt lat="44.1056492" lon="12.1416394"><ele>268.0</ele><time>2026-04-05T09:02:50.391Z</time></trkpt><trkpt lat="44.1057121" lon="12.141622"><ele>268.0</ele><time>2026-04-05T09:02:51.382Z</time></trkpt><trkpt lat="44.1058314" lon="12.1415913"><ele>266.0</ele><time>2026-04-05T09:02:53.386Z</time></trkpt><trkpt lat="44.1059516" lon="12.141575"><ele>264.0</ele><time>2026-04-05T09:02:55.389Z</time></trkpt><trkpt lat="44.1060697" lon="12.1415626"><ele>262.0</ele><time>2026-04-05T09:02:57.376Z</time></trkpt><trkpt lat="44.1061807" lon="12.1415531"><ele>260.0</ele><time>2026-04-05T09:02:59.381Z</time></trkpt><trkpt lat="44.1062945" lon="12.1415494"><ele>260.0</ele><time>2026-04-05T09:03:01.382Z</time></trkpt><trkpt lat="44.1064092" lon="12.1415711"><ele>260.0</ele><time>2026-04-05T09:03:03.378Z</time></trkpt><trkpt lat="44.1065085" lon="12.1415961"><ele>260.0</ele><time>2026-04-05T09:03:05.381Z</time></trkpt><trkpt lat="44.1065973" lon="12.1416413"><ele>260.0</ele><time>2026-04-05T09:03:07.379Z</time></trkpt><trkpt lat="44.1066913" lon="12.1416854"><ele>260.0</ele><time>2026-04-05T09:03:09.378Z</time></trkpt><trkpt lat="44.1067883" lon="12.1417389"><ele>261.4</ele><time>2026-04-05T09:03:11.374Z</time></trkpt><trkpt lat="44.1068947" lon="12.1417743"><ele>262.8</ele><time>2026-04-05T09:03:13.376Z</time></trkpt><trkpt lat="44.1069987" lon="12.1418057"><ele>264.2</ele><time>2026-04-05T09:03:15.386Z</time></trkpt><trkpt lat="44.107099" lon="12.1418365"><ele>265.6</ele><time>2026-04-05T09:03:17.376Z</time></trkpt><trkpt lat="44.1072099" lon="12.1418418"><ele>267.0</ele><time>2026-04-05T09:03:19.375Z</time></trkpt><trkpt lat="44.1073084" lon="12.1418131"><ele>268.0</ele><time>2026-04-05T09:03:21.374Z</time></trkpt><trkpt lat="44.1074147" lon="12.1417677"><ele>269.0</ele><time>2026-04-05T09:03:23.378Z</time></trkpt><trkpt lat="44.1075246" lon="12.1417248"><ele>270.0</ele><time>2026-04-05T09:03:25.382Z</time></trkpt><trkpt lat="44.1076289" lon="12.14169"><ele>271.0</ele><time>2026-04-05T09:03:27.383Z</time></trkpt><trkpt lat="44.1077281" lon="12.1416524"><ele>272.0</ele><time>2026-04-05T09:03:29.394Z</time></trkpt><trkpt lat="44.1078289" lon="12.1416209"><ele>272.0</ele><time>2026-04-05T09:03:31.398Z</time></trkpt><trkpt lat="44.1079293" lon="12.1415956"><ele>272.0</ele><time>2026-04-05T09:03:33.383Z</time></trkpt><trkpt lat="44.1080328" lon="12.1415699"><ele>272.0</ele><time>2026-04-05T09:03:35.388Z</time></trkpt><trkpt lat="44.1081307" lon="12.1415547"><ele>272.0</ele><time>2026-04-05T09:03:37.394Z</time></trkpt><trkpt lat="44.108234" lon="12.1415261"><ele>272.0</ele><time>2026-04-05T09:03:39.391Z</time></trkpt><trkpt lat="44.108333" lon="12.1415038"><ele>270.2</ele><time>2026-04-05T09:03:41.389Z</time></trkpt><trkpt lat="44.108427" lon="12.14149"><ele>268.4</ele><time>2026-04-05T09:03:43.388Z</time></trkpt><trkpt lat="44.1085169" lon="12.1414696"><ele>266.6</ele><time>2026-04-05T09:03:45.391Z</time></trkpt><trkpt lat="44.108611" lon="12.1414559"><ele>264.8</ele><time>2026-04-05T09:03:47.397Z</time></trkpt><trkpt lat="44.1087149" lon="12.1414361"><ele>263.0</ele><time>2026-04-05T09:03:49.394Z</time></trkpt><trkpt lat="44.1088188" lon="12.1414181"><ele>263.0</ele><time>2026-04-05T09:03:51.382Z</time></trkpt><trkpt lat="44.1089162" lon="12.1414055"><ele>263.0</ele><time>2026-04-05T09:03:53.39Z</time></trkpt><trkpt lat="44.1090175" lon="12.1413924"><ele>263.0</ele><time>2026-04-05T09:03:55.392Z</time></trkpt><trkpt lat="44.1091155" lon="12.1413802"><ele>263.0</ele><time>2026-04-05T09:03:57.399Z</time></trkpt><trkpt lat="44.1092059" lon="12.1413804"><ele>263.0</ele><time>2026-04-05T09:03:59.39Z</time></trkpt><trkpt lat="44.1092962" lon="12.141384"><ele>264.0</ele><time>2026-04-05T09:04:01.393Z</time></trkpt><trkpt lat="44.1093986" lon="12.1414042"><ele>265.0</ele><time>2026-04-05T09:04:03.396Z</time></trkpt><trkpt lat="44.1094943" lon="12.1414422"><ele>266.0</ele><time>2026-04-05T09:04:05.389Z</time></trkpt><trkpt lat="44.1095955" lon="12.1414791"><ele>267.0</ele><time>2026-04-05T09:04:07.389Z</time></trkpt><trkpt lat="44.1097029" lon="12.14151"><ele>268.0</ele><time>2026-04-05T09:04:09.388Z</time></trkpt><trkpt lat="44.109805" lon="12.1415513"><ele>269.6</ele><time>2026-04-05T09:04:11.377Z</time></trkpt><trkpt lat="44.1099153" lon="12.1415733"><ele>271.20000000000005</ele><time>2026-04-05T09:04:13.383Z</time></trkpt><trkpt lat="44.1100263" lon="12.1416009"><ele>272.8</ele><time>2026-04-05T09:04:15.386Z</time></trkpt><trkpt lat="44.1101342" lon="12.1416059"><ele>274.40000000000003</ele><time>2026-04-05T09:04:17.391Z</time></trkpt><trkpt lat="44.1102422" lon="12.1416247"><ele>276.0</ele><time>2026-04-05T09:04:19.389Z</time></trkpt><trkpt lat="44.1103385" lon="12.1416411"><ele>276.0</ele><time>2026-04-05T09:04:21.378Z</time></trkpt><trkpt lat="44.1104356" lon="12.1416454"><ele>276.0</ele><time>2026-04-05T09:04:23.384Z</time></trkpt><trkpt lat="44.1105357" lon="12.1416548"><ele>276.0</ele><time>2026-04-05T09:04:25.383Z</time></trkpt><trkpt lat="44.1106262" lon="12.1416812"><ele>276.0</ele><time>2026-04-05T09:04:27.381Z</time></trkpt><trkpt lat="44.1107225" lon="12.1417003"><ele>276.0</ele><time>2026-04-05T09:04:29.379Z</time></trkpt><trkpt lat="44.110823" lon="12.1417232"><ele>276.2</ele><time>2026-04-05T09:04:31.39Z</time></trkpt><trkpt lat="44.1109313" lon="12.1417505"><ele>276.40000000000003</ele><time>2026-04-05T09:04:33.377Z</time></trkpt><trkpt lat="44.1110282" lon="12.141774"><ele>276.6</ele><time>2026-04-05T09:04:35.383Z</time></trkpt><trkpt lat="44.1111243" lon="12.1418023"><ele>276.8</ele><time>2026-04-05T09:04:37.385Z</time></trkpt><trkpt lat="44.1112099" lon="12.1418388"><ele>277.0</ele><time>2026-04-05T09:04:39.389Z</time></trkpt><trkpt lat="44.1112997" lon="12.1418682"><ele>277.0</ele><time>2026-04-05T09:04:41.403Z</time></trkpt><trkpt lat="44.1113798" lon="12.1418983"><ele>277.0</ele><time>2026-04-05T09:04:43.384Z</time></trkpt><trkpt lat="44.11147" lon="12.1419267"><ele>277.0</ele><time>2026-04-05T09:04:45.378Z</time></trkpt><trkpt lat="44.1115703" lon="12.1419462"><ele>277.0</ele><time>2026-04-05T09:04:47.385Z</time></trkpt><trkpt lat="44.1116615" lon="12.1419641"><ele>277.0</ele><time>2026-04-05T09:04:49.387Z</time></trkpt><trkpt lat="44.1117491" lon="12.1419695"><ele>278.16666666666663</ele><time>2026-04-05T09:04:51.385Z</time></trkpt><trkpt lat="44.1118344" lon="12.1419539"><ele>279.3333333333333</ele><time>2026-04-05T09:04:53.387Z</time></trkpt><trkpt lat="44.1119092" lon="12.1419242"><ele>280.5</ele><time>2026-04-05T09:04:55.384Z</time></trkpt><trkpt lat="44.1119792" lon="12.1418829"><ele>281.6666666666667</ele><time>2026-04-05T09:04:57.382Z</time></trkpt><trkpt lat="44.1120515" lon="12.1418257"><ele>282.83333333333337</ele><time>2026-04-05T09:04:59.385Z</time></trkpt><trkpt lat="44.112126" lon="12.1417624"><ele>284.0</ele><time>2026-04-05T09:05:01.38Z</time></trkpt><trkpt lat="44.1121947" lon="12.1416945"><ele>284.0</ele><time>2026-04-05T09:05:03.377Z</time></trkpt><trkpt lat="44.1122593" lon="12.1416187"><ele>284.0</ele><time>2026-04-05T09:05:05.383Z</time></trkpt><trkpt lat="44.1123285" lon="12.1415442"><ele>284.0</ele><time>2026-04-05T09:05:07.388Z</time></trkpt><trkpt lat="44.1124202" lon="12.1414593"><ele>284.0</ele><time>2026-04-05T09:05:09.367Z</time></trkpt><trkpt lat="44.1125257" lon="12.1413866"><ele>284.0</ele><time>2026-04-05T09:05:11.365Z</time></trkpt><trkpt lat="44.1126299" lon="12.1413569"><ele>286.0</ele><time>2026-04-05T09:05:13.366Z</time></trkpt><trkpt lat="44.1127277" lon="12.1413464"><ele>288.0</ele><time>2026-04-05T09:05:15.364Z</time></trkpt><trkpt lat="44.1128223" lon="12.1413493"><ele>290.0</ele><time>2026-04-05T09:05:17.372Z</time></trkpt><trkpt lat="44.112921" lon="12.1413539"><ele>292.0</ele><time>2026-04-05T09:05:19.373Z</time></trkpt><trkpt lat="44.1130155" lon="12.1413539"><ele>294.0</ele><time>2026-04-05T09:05:21.38Z</time></trkpt><trkpt lat="44.1131022" lon="12.1413546"><ele>294.0</ele><time>2026-04-05T09:05:23.373Z</time></trkpt><trkpt lat="44.1131944" lon="12.1413558"><ele>294.0</ele><time>2026-04-05T09:05:25.385Z</time></trkpt><trkpt lat="44.1132858" lon="12.1413534"><ele>294.0</ele><time>2026-04-05T09:05:27.378Z</time></trkpt><trkpt lat="44.1133779" lon="12.1413627"><ele>294.0</ele><time>2026-04-05T09:05:29.375Z</time></trkpt><trkpt lat="44.1134658" lon="12.1413796"><ele>294.0</ele><time>2026-04-05T09:05:31.377Z</time></trkpt><trkpt lat="44.1135532" lon="12.1414066"><ele>293.3333333333333</ele><time>2026-04-05T09:05:33.379Z</time></trkpt><trkpt lat="44.1136316" lon="12.1414463"><ele>292.6666666666667</ele><time>2026-04-05T09:05:35.373Z</time></trkpt><trkpt lat="44.1137067" lon="12.1415208"><ele>292.0</ele><time>2026-04-05T09:05:37.381Z</time></trkpt><trkpt lat="44.1137861" lon="12.141594"><ele>291.33333333333337</ele><time>2026-04-05T09:05:39.374Z</time></trkpt><trkpt lat="44.113852" lon="12.1416717"><ele>290.6666666666667</ele><time>2026-04-05T09:05:41.381Z</time></trkpt><trkpt lat="44.1139188" lon="12.1417503"><ele>290.0</ele><time>2026-04-05T09:05:43.378Z</time></trkpt><trkpt lat="44.1139925" lon="12.1418257"><ele>291.14285714285717</ele><time>2026-04-05T09:05:45.383Z</time></trkpt><trkpt lat="44.1140632" lon="12.1418957"><ele>292.28571428571433</ele><time>2026-04-05T09:05:47.381Z</time></trkpt><trkpt lat="44.1141253" lon="12.1419463"><ele>293.42857142857144</ele><time>2026-04-05T09:05:49.391Z</time></trkpt><trkpt lat="44.1141896" lon="12.1420072"><ele>294.57142857142856</ele><time>2026-04-05T09:05:51.379Z</time></trkpt><trkpt lat="44.1142522" lon="12.1420596"><ele>295.71428571428567</ele><time>2026-04-05T09:05:53.378Z</time></trkpt><trkpt lat="44.1143101" lon="12.1421053"><ele>296.85714285714283</ele><time>2026-04-05T09:05:55.387Z</time></trkpt><trkpt lat="44.1143612" lon="12.1421618"><ele>298.0</ele><time>2026-04-05T09:05:57.379Z</time></trkpt><trkpt lat="44.1144233" lon="12.1422373"><ele>298.0</ele><time>2026-04-05T09:06:00.382Z</time></trkpt><trkpt lat="44.1144914" lon="12.1423065"><ele>298.0</ele><time>2026-04-05T09:06:03.377Z</time></trkpt><trkpt lat="44.1145678" lon="12.1423645"><ele>298.0</ele><time>2026-04-05T09:06:06.381Z</time></trkpt><trkpt lat="44.114623" lon="12.1424482"><ele>298.0</ele><time>2026-04-05T09:06:08.386Z</time></trkpt><trkpt lat="44.1146354" lon="12.1425473"><ele>298.0</ele><time>2026-04-05T09:06:10.378Z</time></trkpt><trkpt lat="44.1146214" lon="12.1426536"><ele>298.0</ele><time>2026-04-05T09:06:12.378Z</time></trkpt><trkpt lat="44.1145916" lon="12.1427803"><ele>297.6</ele><time>2026-04-05T09:06:14.383Z</time></trkpt><trkpt lat="44.1145643" lon="12.1429236"><ele>297.20000000000005</ele><time>2026-04-05T09:06:16.382Z</time></trkpt><trkpt lat="44.1145523" lon="12.1430676"><ele>296.8</ele><time>2026-04-05T09:06:18.386Z</time></trkpt><trkpt lat="44.1145405" lon="12.1432007"><ele>296.40000000000003</ele><time>2026-04-05T09:06:20.369Z</time></trkpt><trkpt lat="44.1145313" lon="12.143321"><ele>296.0</ele><time>2026-04-05T09:06:22.377Z</time></trkpt><trkpt lat="44.1145097" lon="12.1434363"><ele>296.0</ele><time>2026-04-05T09:06:24.378Z</time></trkpt><trkpt lat="44.1144807" lon="12.1435277"><ele>296.0</ele><time>2026-04-05T09:06:26.389Z</time></trkpt><trkpt lat="44.1144629" lon="12.1436267"><ele>296.0</ele><time>2026-04-05T09:06:28.392Z</time></trkpt><trkpt lat="44.1144454" lon="12.1437471"><ele>296.0</ele><time>2026-04-05T09:06:30.393Z</time></trkpt><trkpt lat="44.1144626" lon="12.1438991"><ele>296.0</ele><time>2026-04-05T09:06:32.378Z</time></trkpt><trkpt lat="44.1145058" lon="12.1439806"><ele>296.0</ele><time>2026-04-05T09:06:33.371Z</time></trkpt><trkpt lat="44.114567" lon="12.144056"><ele>296.6</ele><time>2026-04-05T09:06:34.371Z</time></trkpt><trkpt lat="44.1146439" lon="12.1441214"><ele>297.20000000000005</ele><time>2026-04-05T09:06:35.372Z</time></trkpt><trkpt lat="44.1147268" lon="12.1441798"><ele>297.79999999999995</ele><time>2026-04-05T09:06:36.369Z</time></trkpt><trkpt lat="44.1148118" lon="12.1442407"><ele>298.4</ele><time>2026-04-05T09:06:37.369Z</time></trkpt><trkpt lat="44.1148988" lon="12.1442911"><ele>299.0</ele><time>2026-04-05T09:06:38.365Z</time></trkpt><trkpt lat="44.1149828" lon="12.1443394"><ele>299.0</ele><time>2026-04-05T09:06:39.369Z</time></trkpt><trkpt lat="44.1150654" lon="12.144389"><ele>299.0</ele><time>2026-04-05T09:06:40.364Z</time></trkpt><trkpt lat="44.1151418" lon="12.1444432"><ele>299.0</ele><time>2026-04-05T09:06:41.367Z</time></trkpt><trkpt lat="44.1152108" lon="12.1445114"><ele>299.0</ele><time>2026-04-05T09:06:42.369Z</time></trkpt><trkpt lat="44.1152656" lon="12.1445873"><ele>299.0</ele><time>2026-04-05T09:06:43.369Z</time></trkpt><trkpt lat="44.1153102" lon="12.1446694"><ele>299.0</ele><time>2026-04-05T09:06:44.369Z</time></trkpt><trkpt lat="44.1153431" lon="12.1447564"><ele>299.0</ele><time>2026-04-05T09:06:45.379Z</time></trkpt><trkpt lat="44.1153641" lon="12.1448546"><ele>299.0</ele><time>2026-04-05T09:06:46.369Z</time></trkpt><trkpt lat="44.1153781" lon="12.1449519"><ele>299.0</ele><time>2026-04-05T09:06:47.377Z</time></trkpt><trkpt lat="44.1153876" lon="12.1450605"><ele>299.0</ele><time>2026-04-05T09:06:48.378Z</time></trkpt><trkpt lat="44.1153974" lon="12.1451612"><ele>299.0</ele><time>2026-04-05T09:06:49.375Z</time></trkpt><trkpt lat="44.1154123" lon="12.1452531"><ele>299.0</ele><time>2026-04-05T09:06:50.371Z</time></trkpt><trkpt lat="44.1154262" lon="12.1453447"><ele>299.0</ele><time>2026-04-05T09:06:51.366Z</time></trkpt><trkpt lat="44.1154413" lon="12.1454401"><ele>296.7142857142857</ele><time>2026-04-05T09:06:52.368Z</time></trkpt><trkpt lat="44.1154581" lon="12.1455342"><ele>294.42857142857144</ele><time>2026-04-05T09:06:53.37Z</time></trkpt><trkpt lat="44.1154745" lon="12.1456258"><ele>292.14285714285717</ele><time>2026-04-05T09:06:54.382Z</time></trkpt><trkpt lat="44.1154932" lon="12.1457203"><ele>289.8571428571429</ele><time>2026-04-05T09:06:55.368Z</time></trkpt><trkpt lat="44.1155083" lon="12.1458087"><ele>287.5714285714286</ele><time>2026-04-05T09:06:56.377Z</time></trkpt><trkpt lat="44.1155277" lon="12.1458971"><ele>285.2857142857143</ele><time>2026-04-05T09:06:57.376Z</time></trkpt><trkpt lat="44.1155528" lon="12.1459831"><ele>283.0</ele><time>2026-04-05T09:06:58.378Z</time></trkpt><trkpt lat="44.1155793" lon="12.1460643"><ele>284.2</ele><time>2026-04-05T09:06:59.376Z</time></trkpt><trkpt lat="44.1156104" lon="12.1461431"><ele>285.4</ele><time>2026-04-05T09:07:00.381Z</time></trkpt><trkpt lat="44.1156703" lon="12.1462668"><ele>286.59999999999997</ele><time>2026-04-05T09:07:02.373Z</time></trkpt><trkpt lat="44.1157411" lon="12.1463683"><ele>287.8</ele><time>2026-04-05T09:07:04.37Z</time></trkpt><trkpt lat="44.1158186" lon="12.1464088"><ele>289.0</ele><time>2026-04-05T09:07:06.372Z</time></trkpt><trkpt lat="44.1159315" lon="12.1462805"><ele>289.0</ele><time>2026-04-05T09:07:08.366Z</time></trkpt><trkpt lat="44.1159996" lon="12.1461755"><ele>289.0</ele><time>2026-04-05T09:07:09.379Z</time></trkpt><trkpt lat="44.1160816" lon="12.1460574"><ele>289.0</ele><time>2026-04-05T09:07:10.37Z</time></trkpt><trkpt lat="44.1161796" lon="12.1459443"><ele>289.0</ele><time>2026-04-05T09:07:11.368Z</time></trkpt><trkpt lat="44.116288" lon="12.1458511"><ele>289.0</ele><time>2026-04-05T09:07:12.363Z</time></trkpt><trkpt lat="44.1164029" lon="12.1457839"><ele>289.0</ele><time>2026-04-05T09:07:13.367Z</time></trkpt><trkpt lat="44.1165194" lon="12.145737"><ele>289.0</ele><time>2026-04-05T09:07:14.369Z</time></trkpt><trkpt lat="44.116637" lon="12.1457014"><ele>289.0</ele><time>2026-04-05T09:07:15.366Z</time></trkpt><trkpt lat="44.1167511" lon="12.1456769"><ele>287.0</ele><time>2026-04-05T09:07:16.368Z</time></trkpt><trkpt lat="44.1168637" lon="12.1456525"><ele>285.0</ele><time>2026-04-05T09:07:17.364Z</time></trkpt><trkpt lat="44.1169687" lon="12.145646"><ele>283.0</ele><time>2026-04-05T09:07:18.372Z</time></trkpt><trkpt lat="44.1170757" lon="12.1456531"><ele>281.0</ele><time>2026-04-05T09:07:19.372Z</time></trkpt><trkpt lat="44.117183" lon="12.1456653"><ele>279.0</ele><time>2026-04-05T09:07:20.369Z</time></trkpt><trkpt lat="44.1172807" lon="12.1456809"><ele>279.0</ele><time>2026-04-05T09:07:21.366Z</time></trkpt><trkpt lat="44.1173838" lon="12.1456948"><ele>279.0</ele><time>2026-04-05T09:07:22.368Z</time></trkpt><trkpt lat="44.1174819" lon="12.1457042"><ele>279.0</ele><time>2026-04-05T09:07:23.375Z</time></trkpt><trkpt lat="44.1175739" lon="12.1457092"><ele>279.0</ele><time>2026-04-05T09:07:24.376Z</time></trkpt><trkpt lat="44.1176662" lon="12.1457096"><ele>279.0</ele><time>2026-04-05T09:07:25.379Z</time></trkpt><trkpt lat="44.11775" lon="12.1457073"><ele>275.6666666666667</ele><time>2026-04-05T09:07:26.377Z</time></trkpt><trkpt lat="44.1178315" lon="12.1457026"><ele>272.3333333333333</ele><time>2026-04-05T09:07:27.378Z</time></trkpt><trkpt lat="44.1179129" lon="12.1456857"><ele>269.0</ele><time>2026-04-05T09:07:28.381Z</time></trkpt><trkpt lat="44.1179952" lon="12.1456559"><ele>265.66666666666663</ele><time>2026-04-05T09:07:29.372Z</time></trkpt><trkpt lat="44.1180855" lon="12.1456257"><ele>262.3333333333333</ele><time>2026-04-05T09:07:30.373Z</time></trkpt><trkpt lat="44.1181772" lon="12.1455985"><ele>259.0</ele><time>2026-04-05T09:07:31.37Z</time></trkpt><trkpt lat="44.1182756" lon="12.1455778"><ele>257.59999999999997</ele><time>2026-04-05T09:07:32.375Z</time></trkpt><trkpt lat="44.1183765" lon="12.1455577"><ele>256.2</ele><time>2026-04-05T09:07:33.374Z</time></trkpt><trkpt lat="44.1184812" lon="12.1455397"><ele>254.79999999999998</ele><time>2026-04-05T09:07:34.369Z</time></trkpt><trkpt lat="44.1185903" lon="12.1455218"><ele>253.39999999999998</ele><time>2026-04-05T09:07:35.384Z</time></trkpt><trkpt lat="44.1187014" lon="12.1455062"><ele>252.0</ele><time>2026-04-05T09:07:36.37Z</time></trkpt><trkpt lat="44.1188159" lon="12.1454987"><ele>252.0</ele><time>2026-04-05T09:07:37.378Z</time></trkpt><trkpt lat="44.1189342" lon="12.1455159"><ele>252.0</ele><time>2026-04-05T09:07:38.375Z</time></trkpt><trkpt lat="44.1190568" lon="12.1455694"><ele>252.0</ele><time>2026-04-05T09:07:39.373Z</time></trkpt><trkpt lat="44.1191816" lon="12.1456421"><ele>252.0</ele><time>2026-04-05T09:07:40.379Z</time></trkpt><trkpt lat="44.1193084" lon="12.1457096"><ele>251.75</ele><time>2026-04-05T09:07:41.376Z</time></trkpt><trkpt lat="44.1194328" lon="12.1457706"><ele>251.5</ele><time>2026-04-05T09:07:42.37Z</time></trkpt><trkpt lat="44.1195623" lon="12.1458377"><ele>251.25</ele><time>2026-04-05T09:07:43.372Z</time></trkpt><trkpt lat="44.1196908" lon="12.1459064"><ele>251.0</ele><time>2026-04-05T09:07:44.379Z</time></trkpt><trkpt lat="44.1198158" lon="12.1459671"><ele>248.75</ele><time>2026-04-05T09:07:45.373Z</time></trkpt><trkpt lat="44.1199413" lon="12.1460144"><ele>246.5</ele><time>2026-04-05T09:07:46.382Z</time></trkpt><trkpt lat="44.1200632" lon="12.1460343"><ele>244.25</ele><time>2026-04-05T09:07:47.373Z</time></trkpt><trkpt lat="44.1201878" lon="12.1460321"><ele>242.0</ele><time>2026-04-05T09:07:48.384Z</time></trkpt><trkpt lat="44.1203101" lon="12.1460136"><ele>242.0</ele><time>2026-04-05T09:07:49.373Z</time></trkpt><trkpt lat="44.1204264" lon="12.1459851"><ele>242.0</ele><time>2026-04-05T09:07:50.367Z</time></trkpt><trkpt lat="44.1205445" lon="12.1459518"><ele>242.0</ele><time>2026-04-05T09:07:51.378Z</time></trkpt><trkpt lat="44.1206537" lon="12.1459088"><ele>242.0</ele><time>2026-04-05T09:07:52.373Z</time></trkpt><trkpt lat="44.1207533" lon="12.1458504"><ele>241.6</ele><time>2026-04-05T09:07:53.373Z</time></trkpt><trkpt lat="44.1208407" lon="12.1457789"><ele>241.2</ele><time>2026-04-05T09:07:54.374Z</time></trkpt><trkpt lat="44.1209225" lon="12.1457068"><ele>240.8</ele><time>2026-04-05T09:07:55.368Z</time></trkpt><trkpt lat="44.1210004" lon="12.1456335"><ele>240.4</ele><time>2026-04-05T09:07:56.376Z</time></trkpt><trkpt lat="44.1210729" lon="12.1455684"><ele>240.0</ele><time>2026-04-05T09:07:57.378Z</time></trkpt><trkpt lat="44.1211328" lon="12.1454957"><ele>239.83333333333334</ele><time>2026-04-05T09:07:58.388Z</time></trkpt><trkpt lat="44.1211795" lon="12.1454249"><ele>239.66666666666669</ele><time>2026-04-05T09:07:59.385Z</time></trkpt><trkpt lat="44.1212565" lon="12.145315"><ele>239.5</ele><time>2026-04-05T09:08:01.374Z</time></trkpt><trkpt lat="44.1213186" lon="12.1452255"><ele>239.33333333333334</ele><time>2026-04-05T09:08:03.379Z</time></trkpt><trkpt lat="44.1213748" lon="12.1451498"><ele>239.16666666666669</ele><time>2026-04-05T09:08:05.382Z</time></trkpt><trkpt lat="44.1214349" lon="12.1450861"><ele>239.0</ele><time>2026-04-05T09:08:07.386Z</time></trkpt><trkpt lat="44.121504" lon="12.1450439"><ele>240.50000000000003</ele><time>2026-04-05T09:08:09.395Z</time></trkpt><trkpt lat="44.121582" lon="12.1450137"><ele>242.0</ele><time>2026-04-05T09:08:11.383Z</time></trkpt><trkpt lat="44.1216653" lon="12.1450072"><ele>243.5</ele><time>2026-04-05T09:08:13.382Z</time></trkpt><trkpt lat="44.1217516" lon="12.1450188"><ele>245.0</ele><time>2026-04-05T09:08:15.385Z</time></trkpt><trkpt lat="44.1218351" lon="12.1450455"><ele>246.50000000000003</ele><time>2026-04-05T09:08:17.394Z</time></trkpt><trkpt lat="44.1219187" lon="12.1450712"><ele>248.0</ele><time>2026-04-05T09:08:19.384Z</time></trkpt><trkpt lat="44.1220005" lon="12.1450966"><ele>248.00000000000003</ele><time>2026-04-05T09:08:21.383Z</time></trkpt><trkpt lat="44.1220791" lon="12.145136"><ele>248.0</ele><time>2026-04-05T09:08:23.386Z</time></trkpt><trkpt lat="44.1221521" lon="12.14518"><ele>248.0</ele><time>2026-04-05T09:08:25.391Z</time></trkpt><trkpt lat="44.1222155" lon="12.1452341"><ele>248.0</ele><time>2026-04-05T09:08:27.391Z</time></trkpt><trkpt lat="44.1222801" lon="12.1453159"><ele>248.00000000000003</ele><time>2026-04-05T09:08:29.384Z</time></trkpt><trkpt lat="44.1223382" lon="12.1453917"><ele>248.0</ele><time>2026-04-05T09:08:31.387Z</time></trkpt><trkpt lat="44.122393" lon="12.1454742"><ele>248.66666666666669</ele><time>2026-04-05T09:08:33.393Z</time></trkpt><trkpt lat="44.122447" lon="12.1455438"><ele>249.33333333333334</ele><time>2026-04-05T09:08:35.388Z</time></trkpt><trkpt lat="44.1225074" lon="12.1456133"><ele>250.0</ele><time>2026-04-05T09:08:37.38Z</time></trkpt><trkpt lat="44.1225715" lon="12.1456926"><ele>250.66666666666669</ele><time>2026-04-05T09:08:39.384Z</time></trkpt><trkpt lat="44.1226384" lon="12.145756"><ele>251.33333333333334</ele><time>2026-04-05T09:08:41.382Z</time></trkpt><trkpt lat="44.1227069" lon="12.1458225"><ele>252.0</ele><time>2026-04-05T09:08:43.383Z</time></trkpt><trkpt lat="44.1227784" lon="12.1458714"><ele>252.42857142857144</ele><time>2026-04-05T09:08:45.382Z</time></trkpt><trkpt lat="44.1228517" lon="12.1458939"><ele>252.85714285714286</ele><time>2026-04-05T09:08:47.384Z</time></trkpt><trkpt lat="44.122905" lon="12.1459625"><ele>253.28571428571428</ele><time>2026-04-05T09:08:49.385Z</time></trkpt><trkpt lat="44.122954" lon="12.1460441"><ele>253.71428571428572</ele><time>2026-04-05T09:08:51.389Z</time></trkpt><trkpt lat="44.1229912" lon="12.1461228"><ele>254.14285714285717</ele><time>2026-04-05T09:08:53.38Z</time></trkpt><trkpt lat="44.12303" lon="12.1462072"><ele>254.57142857142858</ele><time>2026-04-05T09:08:55.385Z</time></trkpt><trkpt lat="44.1230707" lon="12.1462961"><ele>255.0</ele><time>2026-04-05T09:08:57.382Z</time></trkpt><trkpt lat="44.1231186" lon="12.1463854"><ele>255.0</ele><time>2026-04-05T09:08:59.383Z</time></trkpt><trkpt lat="44.1231638" lon="12.1464697"><ele>255.00000000000003</ele><time>2026-04-05T09:09:01.389Z</time></trkpt><trkpt lat="44.1232104" lon="12.1465451"><ele>255.0</ele><time>2026-04-05T09:09:03.388Z</time></trkpt><trkpt lat="44.1232542" lon="12.1466198"><ele>255.0</ele><time>2026-04-05T09:09:05.386Z</time></trkpt><trkpt lat="44.1232876" lon="12.1466966"><ele>255.00000000000003</ele><time>2026-04-05T09:09:07.376Z</time></trkpt><trkpt lat="44.1233156" lon="12.1467802"><ele>255.0</ele><time>2026-04-05T09:09:09.385Z</time></trkpt><trkpt lat="44.1233572" lon="12.1468976"><ele>255.0</ele><time>2026-04-05T09:09:12.384Z</time></trkpt><trkpt lat="44.1233877" lon="12.1470142"><ele>255.5</ele><time>2026-04-05T09:09:15.384Z</time></trkpt><trkpt lat="44.1234301" lon="12.1471158"><ele>256.0</ele><time>2026-04-05T09:09:18.385Z</time></trkpt><trkpt lat="44.123498" lon="12.1471816"><ele>256.5</ele><time>2026-04-05T09:09:21.388Z</time></trkpt><trkpt lat="44.1235644" lon="12.147229"><ele>257.0</ele><time>2026-04-05T09:09:23.385Z</time></trkpt><trkpt lat="44.1236216" lon="12.1472842"><ele>257.5</ele><time>2026-04-05T09:09:25.385Z</time></trkpt><trkpt lat="44.1236785" lon="12.1473425"><ele>258.0</ele><time>2026-04-05T09:09:27.386Z</time></trkpt><trkpt lat="44.1237363" lon="12.1473934"><ele>257.99999999999994</ele><time>2026-04-05T09:09:29.385Z</time></trkpt><trkpt lat="44.1238114" lon="12.147432"><ele>258.0</ele><time>2026-04-05T09:09:32.388Z</time></trkpt><trkpt lat="44.1238784" lon="12.1474366"><ele>258.0</ele><time>2026-04-05T09:09:35.388Z</time></trkpt><trkpt lat="44.1239467" lon="12.1474338"><ele>258.0</ele><time>2026-04-05T09:09:39.389Z</time></trkpt><trkpt lat="44.1240204" lon="12.1474455"><ele>258.0</ele><time>2026-04-05T09:10:25.391Z</time></trkpt><trkpt lat="44.1240748" lon="12.1473919"><ele>257.99999999999994</ele><time>2026-04-05T09:10:30.39Z</time></trkpt><trkpt lat="44.1240964" lon="12.147295"><ele>258.0</ele><time>2026-04-05T09:10:34.385Z</time></trkpt><trkpt lat="44.1241435" lon="12.1472327"><ele>257.4285714285714</ele><time>2026-04-05T09:10:52.385Z</time></trkpt><trkpt lat="44.1241688" lon="12.1471444"><ele>256.85714285714283</ele><time>2026-04-05T09:10:56.388Z</time></trkpt><trkpt lat="44.1242314" lon="12.1471006"><ele>256.2857142857143</ele><time>2026-04-05T09:11:02.376Z</time></trkpt><trkpt lat="44.1242918" lon="12.1470682"><ele>255.7142857142857</ele><time>2026-04-05T09:11:05.38Z</time></trkpt><trkpt lat="44.1242918" lon="12.1469789"><ele>255.1428571428571</ele><time>2026-04-05T09:11:39.395Z</time></trkpt><trkpt lat="44.1243427" lon="12.1470378"><ele>254.57142857142858</ele><time>2026-04-05T09:12:03.378Z</time></trkpt><trkpt lat="44.124427" lon="12.1470232"><ele>254.0</ele><time>2026-04-05T09:12:06.384Z</time></trkpt><trkpt lat="44.1244903" lon="12.147019"><ele>254.0</ele><time>2026-04-05T09:12:09.379Z</time></trkpt><trkpt lat="44.1245474" lon="12.147088"><ele>254.0</ele><time>2026-04-05T09:12:12.38Z</time></trkpt><trkpt lat="44.1245992" lon="12.1471521"><ele>254.0</ele><time>2026-04-05T09:12:14.382Z</time></trkpt><trkpt lat="44.1246526" lon="12.1472055"><ele>254.0</ele><time>2026-04-05T09:12:16.383Z</time></trkpt><trkpt lat="44.124703" lon="12.1473116"><ele>254.0</ele><time>2026-04-05T09:12:19.383Z</time></trkpt><trkpt lat="44.1247437" lon="12.1473813"><ele>254.0</ele><time>2026-04-05T09:12:46.38Z</time></trkpt><trkpt lat="44.1248057" lon="12.1474148"><ele>254.0</ele><time>2026-04-05T09:12:50.382Z</time></trkpt><trkpt lat="44.1248549" lon="12.1475297"><ele>253.14285714285717</ele><time>2026-04-05T09:12:53.377Z</time></trkpt><trkpt lat="44.1249032" lon="12.1474557"><ele>252.28571428571428</ele><time>2026-04-05T09:13:00.382Z</time></trkpt><trkpt lat="44.1249644" lon="12.1475014"><ele>251.42857142857144</ele><time>2026-04-05T09:13:05.369Z</time></trkpt><trkpt lat="44.1250268" lon="12.1474773"><ele>250.57142857142858</ele><time>2026-04-05T09:13:07.364Z</time></trkpt><trkpt lat="44.1250974" lon="12.1474274"><ele>249.71428571428572</ele><time>2026-04-05T09:13:09.372Z</time></trkpt><trkpt lat="44.1250822" lon="12.1473397"><ele>248.85714285714286</ele><time>2026-04-05T09:13:11.378Z</time></trkpt><trkpt lat="44.1251444" lon="12.147279"><ele>248.0</ele><time>2026-04-05T09:13:15.379Z</time></trkpt><trkpt lat="44.1251885" lon="12.1472156"><ele>246.4</ele><time>2026-04-05T09:13:17.39Z</time></trkpt><trkpt lat="44.1252157" lon="12.1471346"><ele>244.8</ele><time>2026-04-05T09:14:00.394Z</time></trkpt><trkpt lat="44.1252911" lon="12.1472166"><ele>243.2</ele><time>2026-04-05T09:14:03.373Z</time></trkpt><trkpt lat="44.1253658" lon="12.1472916"><ele>241.6</ele><time>2026-04-05T09:14:05.372Z</time></trkpt><trkpt lat="44.1254648" lon="12.1473459"><ele>240.0</ele><time>2026-04-05T09:14:07.378Z</time></trkpt><trkpt lat="44.1255741" lon="12.1472943"><ele>240.0</ele><time>2026-04-05T09:14:09.372Z</time></trkpt><trkpt lat="44.1256549" lon="12.1471766"><ele>240.0</ele><time>2026-04-05T09:14:11.371Z</time></trkpt><trkpt lat="44.1257394" lon="12.1470638"><ele>240.0</ele><time>2026-04-05T09:14:13.377Z</time></trkpt><trkpt lat="44.1258368" lon="12.1469577"><ele>240.0</ele><time>2026-04-05T09:14:15.38Z</time></trkpt><trkpt lat="44.1258837" lon="12.1468989"><ele>240.0</ele><time>2026-04-05T09:14:16.377Z</time></trkpt><trkpt lat="44.1259565" lon="12.1467812"><ele>238.4</ele><time>2026-04-05T09:14:18.377Z</time></trkpt><trkpt lat="44.1260199" lon="12.1466583"><ele>236.8</ele><time>2026-04-05T09:14:20.374Z</time></trkpt><trkpt lat="44.1260849" lon="12.1465383"><ele>235.2</ele><time>2026-04-05T09:14:22.378Z</time></trkpt><trkpt lat="44.1261695" lon="12.1464428"><ele>233.6</ele><time>2026-04-05T09:14:24.373Z</time></trkpt><trkpt lat="44.1262816" lon="12.1464164"><ele>232.0</ele><time>2026-04-05T09:14:26.372Z</time></trkpt><trkpt lat="44.1263942" lon="12.1463988"><ele>232.6</ele><time>2026-04-05T09:14:28.376Z</time></trkpt><trkpt lat="44.1264983" lon="12.1463892"><ele>233.2</ele><time>2026-04-05T09:14:30.376Z</time></trkpt><trkpt lat="44.1265714" lon="12.1463944"><ele>233.8</ele><time>2026-04-05T09:14:32.381Z</time></trkpt><trkpt lat="44.1266574" lon="12.1464576"><ele>234.4</ele><time>2026-04-05T09:14:43.381Z</time></trkpt><trkpt lat="44.126758" lon="12.1465062"><ele>235.0</ele><time>2026-04-05T09:14:45.384Z</time></trkpt><trkpt lat="44.1268755" lon="12.1465617"><ele>235.0</ele><time>2026-04-05T09:14:47.371Z</time></trkpt><trkpt lat="44.1269407" lon="12.1466028"><ele>235.0</ele><time>2026-04-05T09:14:48.378Z</time></trkpt><trkpt lat="44.127018" lon="12.1466601"><ele>235.0</ele><time>2026-04-05T09:14:49.374Z</time></trkpt><trkpt lat="44.1271097" lon="12.1467239"><ele>235.0</ele><time>2026-04-05T09:14:50.37Z</time></trkpt><trkpt lat="44.1272083" lon="12.1467706"><ele>235.0</ele><time>2026-04-05T09:14:51.381Z</time></trkpt><trkpt lat="44.1273102" lon="12.1468053"><ele>233.0</ele><time>2026-04-05T09:14:52.367Z</time></trkpt><trkpt lat="44.12742" lon="12.146822"><ele>231.0</ele><time>2026-04-05T09:14:53.367Z</time></trkpt><trkpt lat="44.127533" lon="12.1468257"><ele>229.0</ele><time>2026-04-05T09:14:54.366Z</time></trkpt><trkpt lat="44.1276572" lon="12.1468342"><ele>227.0</ele><time>2026-04-05T09:14:55.368Z</time></trkpt><trkpt lat="44.1277881" lon="12.1468481"><ele>227.0</ele><time>2026-04-05T09:14:56.366Z</time></trkpt><trkpt lat="44.1279224" lon="12.1468681"><ele>227.0</ele><time>2026-04-05T09:14:57.367Z</time></trkpt><trkpt lat="44.1280636" lon="12.1468937"><ele>227.0</ele><time>2026-04-05T09:14:58.368Z</time></trkpt><trkpt lat="44.1282059" lon="12.1469221"><ele>227.0</ele><time>2026-04-05T09:14:59.365Z</time></trkpt><trkpt lat="44.1283417" lon="12.1469695"><ele>223.5</ele><time>2026-04-05T09:15:00.36Z</time></trkpt><trkpt lat="44.1284712" lon="12.1470492"><ele>220.0</ele><time>2026-04-05T09:15:01.368Z</time></trkpt><trkpt lat="44.1285953" lon="12.1471511"><ele>216.5</ele><time>2026-04-05T09:15:02.372Z</time></trkpt><trkpt lat="44.1287069" lon="12.1472567"><ele>213.0</ele><time>2026-04-05T09:15:03.375Z</time></trkpt><trkpt lat="44.12881" lon="12.1473435"><ele>211.8</ele><time>2026-04-05T09:15:04.373Z</time></trkpt><trkpt lat="44.1288992" lon="12.1474315"><ele>210.60000000000002</ele><time>2026-04-05T09:15:05.375Z</time></trkpt><trkpt lat="44.1289883" lon="12.1475144"><ele>209.39999999999998</ele><time>2026-04-05T09:15:06.368Z</time></trkpt><trkpt lat="44.1290753" lon="12.1475962"><ele>208.2</ele><time>2026-04-05T09:15:07.382Z</time></trkpt><trkpt lat="44.1291563" lon="12.1476687"><ele>207.0</ele><time>2026-04-05T09:15:08.374Z</time></trkpt><trkpt lat="44.129234" lon="12.1477387"><ele>207.0</ele><time>2026-04-05T09:15:09.372Z</time></trkpt><trkpt lat="44.1293102" lon="12.1478057"><ele>207.0</ele><time>2026-04-05T09:15:10.374Z</time></trkpt><trkpt lat="44.1293817" lon="12.14787"><ele>207.0</ele><time>2026-04-05T09:15:11.376Z</time></trkpt><trkpt lat="44.1294473" lon="12.1479299"><ele>207.0</ele><time>2026-04-05T09:15:12.371Z</time></trkpt><trkpt lat="44.1295107" lon="12.1479774"><ele>207.0</ele><time>2026-04-05T09:15:13.382Z</time></trkpt><trkpt lat="44.1295706" lon="12.1480243"><ele>207.0</ele><time>2026-04-05T09:15:14.375Z</time></trkpt><trkpt lat="44.1296294" lon="12.1480683"><ele>207.0</ele><time>2026-04-05T09:15:15.376Z</time></trkpt><trkpt lat="44.129691" lon="12.1481051"><ele>207.0</ele><time>2026-04-05T09:15:16.377Z</time></trkpt><trkpt lat="44.1298023" lon="12.1481706"><ele>207.0</ele><time>2026-04-05T09:15:18.374Z</time></trkpt><trkpt lat="44.1299157" lon="12.1482567"><ele>207.0</ele><time>2026-04-05T09:15:20.378Z</time></trkpt><trkpt lat="44.1299702" lon="12.148307"><ele>207.0</ele><time>2026-04-05T09:15:21.374Z</time></trkpt><trkpt lat="44.1300312" lon="12.1483537"><ele>207.16666666666666</ele><time>2026-04-05T09:15:22.378Z</time></trkpt><trkpt lat="44.1300916" lon="12.1483968"><ele>207.33333333333331</ele><time>2026-04-05T09:15:23.376Z</time></trkpt><trkpt lat="44.1301527" lon="12.1484361"><ele>207.5</ele><time>2026-04-05T09:15:24.379Z</time></trkpt><trkpt lat="44.1302109" lon="12.14848"><ele>207.66666666666666</ele><time>2026-04-05T09:15:25.378Z</time></trkpt><trkpt lat="44.130268" lon="12.1485248"><ele>207.83333333333331</ele><time>2026-04-05T09:15:26.378Z</time></trkpt><trkpt lat="44.1303267" lon="12.148568"><ele>208.0</ele><time>2026-04-05T09:15:27.377Z</time></trkpt><trkpt lat="44.1304369" lon="12.1486519"><ele>208.0</ele><time>2026-04-05T09:15:29.388Z</time></trkpt><trkpt lat="44.1305416" lon="12.1487394"><ele>208.0</ele><time>2026-04-05T09:15:31.379Z</time></trkpt><trkpt lat="44.1306479" lon="12.1488156"><ele>208.0</ele><time>2026-04-05T09:15:33.378Z</time></trkpt><trkpt lat="44.1307426" lon="12.1488885"><ele>208.0</ele><time>2026-04-05T09:15:35.379Z</time></trkpt><trkpt lat="44.1308408" lon="12.1489572"><ele>207.8</ele><time>2026-04-05T09:15:37.377Z</time></trkpt><trkpt lat="44.1309387" lon="12.1490346"><ele>207.60000000000002</ele><time>2026-04-05T09:15:39.377Z</time></trkpt><trkpt lat="44.1310372" lon="12.1491106"><ele>207.39999999999998</ele><time>2026-04-05T09:15:41.376Z</time></trkpt><trkpt lat="44.1311305" lon="12.1491862"><ele>207.2</ele><time>2026-04-05T09:15:43.371Z</time></trkpt><trkpt lat="44.1312232" lon="12.1492691"><ele>207.0</ele><time>2026-04-05T09:15:45.376Z</time></trkpt><trkpt lat="44.1313121" lon="12.1493381"><ele>207.0</ele><time>2026-04-05T09:15:47.377Z</time></trkpt><trkpt lat="44.1314046" lon="12.1493956"><ele>207.0</ele><time>2026-04-05T09:15:49.385Z</time></trkpt><trkpt lat="44.1314882" lon="12.1494774"><ele>207.0</ele><time>2026-04-05T09:15:51.372Z</time></trkpt><trkpt lat="44.131592" lon="12.1495722"><ele>207.0</ele><time>2026-04-05T09:15:53.376Z</time></trkpt><trkpt lat="44.1316461" lon="12.1496329"><ele>207.0</ele><time>2026-04-05T09:15:54.376Z</time></trkpt><trkpt lat="44.1317064" lon="12.1496966"><ele>207.0</ele><time>2026-04-05T09:15:55.382Z</time></trkpt><trkpt lat="44.1317679" lon="12.1497691"><ele>207.0</ele><time>2026-04-05T09:15:56.377Z</time></trkpt><trkpt lat="44.1318327" lon="12.1498393"><ele>207.0</ele><time>2026-04-05T09:15:57.371Z</time></trkpt><trkpt lat="44.131901" lon="12.1499143"><ele>207.0</ele><time>2026-04-05T09:15:58.385Z</time></trkpt><trkpt lat="44.1319686" lon="12.1499931"><ele>207.0</ele><time>2026-04-05T09:15:59.373Z</time></trkpt><trkpt lat="44.1320361" lon="12.1500719"><ele>207.0</ele><time>2026-04-05T09:16:00.375Z</time></trkpt><trkpt lat="44.1321049" lon="12.1501576"><ele>207.16666666666666</ele><time>2026-04-05T09:16:01.37Z</time></trkpt><trkpt lat="44.1321776" lon="12.1502403"><ele>207.33333333333331</ele><time>2026-04-05T09:16:02.373Z</time></trkpt><trkpt lat="44.1322463" lon="12.1503139"><ele>207.5</ele><time>2026-04-05T09:16:03.377Z</time></trkpt><trkpt lat="44.1323186" lon="12.1503834"><ele>207.66666666666666</ele><time>2026-04-05T09:16:04.374Z</time></trkpt><trkpt lat="44.1323944" lon="12.1504311"><ele>207.83333333333331</ele><time>2026-04-05T09:16:05.371Z</time></trkpt><trkpt lat="44.1324757" lon="12.1504635"><ele>208.0</ele><time>2026-04-05T09:16:06.372Z</time></trkpt><trkpt lat="44.1325613" lon="12.1504875"><ele>206.99999999999997</ele><time>2026-04-05T09:16:07.369Z</time></trkpt><trkpt lat="44.1326509" lon="12.1505045"><ele>206.0</ele><time>2026-04-05T09:16:08.365Z</time></trkpt><trkpt lat="44.1327312" lon="12.1505177"><ele>205.0</ele><time>2026-04-05T09:16:09.373Z</time></trkpt><trkpt lat="44.1327954" lon="12.1505451"><ele>204.0</ele><time>2026-04-05T09:16:10.37Z</time></trkpt><trkpt lat="44.1328475" lon="12.1506694"><ele>202.99999999999997</ele><time>2026-04-05T09:16:12.374Z</time></trkpt><trkpt lat="44.1328228" lon="12.1507587"><ele>202.0</ele><time>2026-04-05T09:16:13.375Z</time></trkpt><trkpt lat="44.1327861" lon="12.1508472"><ele>202.0</ele><time>2026-04-05T09:16:14.368Z</time></trkpt><trkpt lat="44.1327553" lon="12.1509475"><ele>202.0</ele><time>2026-04-05T09:16:15.376Z</time></trkpt><trkpt lat="44.1327409" lon="12.1510423"><ele>202.0</ele><time>2026-04-05T09:16:16.37Z</time></trkpt><trkpt lat="44.1327336" lon="12.151137"><ele>202.0</ele><time>2026-04-05T09:16:17.366Z</time></trkpt><trkpt lat="44.1327369" lon="12.1512387"><ele>202.0</ele><time>2026-04-05T09:16:18.383Z</time></trkpt><trkpt lat="44.1327487" lon="12.1513429"><ele>202.0</ele><time>2026-04-05T09:16:19.376Z</time></trkpt><trkpt lat="44.1327606" lon="12.15145"><ele>202.0</ele><time>2026-04-05T09:16:20.369Z</time></trkpt><trkpt lat="44.1327761" lon="12.1515583"><ele>201.83333333333331</ele><time>2026-04-05T09:16:21.375Z</time></trkpt><trkpt lat="44.1327905" lon="12.1516747"><ele>201.66666666666666</ele><time>2026-04-05T09:16:22.371Z</time></trkpt><trkpt lat="44.1328028" lon="12.1517951"><ele>201.5</ele><time>2026-04-05T09:16:23.373Z</time></trkpt><trkpt lat="44.1328092" lon="12.1519196"><ele>201.33333333333331</ele><time>2026-04-05T09:16:24.374Z</time></trkpt><trkpt lat="44.1328113" lon="12.1520453"><ele>201.16666666666666</ele><time>2026-04-05T09:16:25.375Z</time></trkpt><trkpt lat="44.1328283" lon="12.1521752"><ele>201.0</ele><time>2026-04-05T09:16:26.378Z</time></trkpt><trkpt lat="44.1328556" lon="12.152305"><ele>199.8</ele><time>2026-04-05T09:16:27.375Z</time></trkpt><trkpt lat="44.132882" lon="12.1524348"><ele>198.60000000000002</ele><time>2026-04-05T09:16:28.375Z</time></trkpt><trkpt lat="44.1329193" lon="12.1525569"><ele>197.4</ele><time>2026-04-05T09:16:29.374Z</time></trkpt><trkpt lat="44.1329594" lon="12.1526663"><ele>196.2</ele><time>2026-04-05T09:16:30.373Z</time></trkpt><trkpt lat="44.1330074" lon="12.1527889"><ele>195.0</ele><time>2026-04-05T09:16:31.367Z</time></trkpt><trkpt lat="44.133055" lon="12.1529071"><ele>195.0</ele><time>2026-04-05T09:16:32.373Z</time></trkpt><trkpt lat="44.1331063" lon="12.1530319"><ele>195.0</ele><time>2026-04-05T09:16:33.371Z</time></trkpt><trkpt lat="44.1331579" lon="12.1531573"><ele>195.0</ele><time>2026-04-05T09:16:34.376Z</time></trkpt><trkpt lat="44.1332067" lon="12.1532819"><ele>195.0</ele><time>2026-04-05T09:16:35.376Z</time></trkpt><trkpt lat="44.133249" lon="12.1534046"><ele>195.0</ele><time>2026-04-05T09:16:36.375Z</time></trkpt><trkpt lat="44.1332943" lon="12.1535281"><ele>192.4</ele><time>2026-04-05T09:16:37.374Z</time></trkpt><trkpt lat="44.1333368" lon="12.1536501"><ele>189.8</ele><time>2026-04-05T09:16:38.375Z</time></trkpt><trkpt lat="44.1333791" lon="12.153771"><ele>187.2</ele><time>2026-04-05T09:16:39.378Z</time></trkpt><trkpt lat="44.133419" lon="12.1538891"><ele>184.6</ele><time>2026-04-05T09:16:40.376Z</time></trkpt><trkpt lat="44.1334599" lon="12.1540072"><ele>182.0</ele><time>2026-04-05T09:16:41.376Z</time></trkpt><trkpt lat="44.1335" lon="12.1541232"><ele>181.2</ele><time>2026-04-05T09:16:42.374Z</time></trkpt><trkpt lat="44.1335465" lon="12.1542385"><ele>180.39999999999998</ele><time>2026-04-05T09:16:43.369Z</time></trkpt><trkpt lat="44.1335835" lon="12.1543527"><ele>179.60000000000002</ele><time>2026-04-05T09:16:44.381Z</time></trkpt><trkpt lat="44.1336257" lon="12.1544658"><ele>178.8</ele><time>2026-04-05T09:16:45.373Z</time></trkpt><trkpt lat="44.1336698" lon="12.1545804"><ele>178.0</ele><time>2026-04-05T09:16:46.384Z</time></trkpt><trkpt lat="44.1337118" lon="12.1546967"><ele>178.0</ele><time>2026-04-05T09:16:47.374Z</time></trkpt><trkpt lat="44.1337509" lon="12.1548102"><ele>178.0</ele><time>2026-04-05T09:16:48.377Z</time></trkpt><trkpt lat="44.1337953" lon="12.1549282"><ele>178.0</ele><time>2026-04-05T09:16:49.377Z</time></trkpt><trkpt lat="44.1338397" lon="12.1550417"><ele>178.0</ele><time>2026-04-05T09:16:50.372Z</time></trkpt><trkpt lat="44.1338825" lon="12.1551548"><ele>178.0</ele><time>2026-04-05T09:16:51.382Z</time></trkpt><trkpt lat="44.1339217" lon="12.1552717"><ele>177.0</ele><time>2026-04-05T09:16:52.378Z</time></trkpt><trkpt lat="44.1339615" lon="12.1553927"><ele>176.0</ele><time>2026-04-05T09:16:53.374Z</time></trkpt><trkpt lat="44.1340008" lon="12.1555112"><ele>175.0</ele><time>2026-04-05T09:16:54.384Z</time></trkpt><trkpt lat="44.1340436" lon="12.1556327"><ele>174.0</ele><time>2026-04-05T09:16:55.38Z</time></trkpt><trkpt lat="44.1340846" lon="12.1557543"><ele>173.0</ele><time>2026-04-05T09:16:56.379Z</time></trkpt><trkpt lat="44.1341265" lon="12.1558788"><ele>173.0</ele><time>2026-04-05T09:16:57.372Z</time></trkpt><trkpt lat="44.1341704" lon="12.1560086"><ele>173.0</ele><time>2026-04-05T09:16:58.381Z</time></trkpt><trkpt lat="44.134208" lon="12.1561393"><ele>173.0</ele><time>2026-04-05T09:16:59.373Z</time></trkpt><trkpt lat="44.1342331" lon="12.156282"><ele>173.0</ele><time>2026-04-05T09:17:00.377Z</time></trkpt><trkpt lat="44.1342265" lon="12.1564285"><ele>173.0</ele><time>2026-04-05T09:17:01.37Z</time></trkpt><trkpt lat="44.1341933" lon="12.1565699"><ele>172.2</ele><time>2026-04-05T09:17:02.373Z</time></trkpt><trkpt lat="44.1341483" lon="12.1567077"><ele>171.4</ele><time>2026-04-05T09:17:03.374Z</time></trkpt><trkpt lat="44.1340953" lon="12.156842"><ele>170.6</ele><time>2026-04-05T09:17:04.379Z</time></trkpt><trkpt lat="44.1340415" lon="12.1569844"><ele>169.79999999999998</ele><time>2026-04-05T09:17:05.378Z</time></trkpt><trkpt lat="44.1339912" lon="12.157126"><ele>169.0</ele><time>2026-04-05T09:17:06.377Z</time></trkpt><trkpt lat="44.1339413" lon="12.1572669"><ele>165.0</ele><time>2026-04-05T09:17:07.388Z</time></trkpt><trkpt lat="44.1338899" lon="12.1574086"><ele>161.0</ele><time>2026-04-05T09:17:08.378Z</time></trkpt><trkpt lat="44.1338371" lon="12.1575532"><ele>157.0</ele><time>2026-04-05T09:17:09.379Z</time></trkpt><trkpt lat="44.1337863" lon="12.1576973"><ele>153.0</ele><time>2026-04-05T09:17:10.377Z</time></trkpt><trkpt lat="44.133736" lon="12.1578428"><ele>153.0</ele><time>2026-04-05T09:17:11.377Z</time></trkpt><trkpt lat="44.1336874" lon="12.1579868"><ele>153.0</ele><time>2026-04-05T09:17:12.378Z</time></trkpt><trkpt lat="44.1336346" lon="12.1581325"><ele>153.0</ele><time>2026-04-05T09:17:13.378Z</time></trkpt><trkpt lat="44.133584" lon="12.1582821"><ele>153.0</ele><time>2026-04-05T09:17:14.376Z</time></trkpt><trkpt lat="44.1335354" lon="12.1584279"><ele>153.5</ele><time>2026-04-05T09:17:15.38Z</time></trkpt><trkpt lat="44.1334888" lon="12.1585733"><ele>154.0</ele><time>2026-04-05T09:17:16.378Z</time></trkpt><trkpt lat="44.1334439" lon="12.1587187"><ele>154.5</ele><time>2026-04-05T09:17:17.376Z</time></trkpt><trkpt lat="44.1334013" lon="12.1588653"><ele>155.0</ele><time>2026-04-05T09:17:18.38Z</time></trkpt><trkpt lat="44.1333557" lon="12.1590045"><ele>154.8</ele><time>2026-04-05T09:17:19.379Z</time></trkpt><trkpt lat="44.1333107" lon="12.1591402"><ele>154.6</ele><time>2026-04-05T09:17:20.38Z</time></trkpt><trkpt lat="44.1332652" lon="12.1592741"><ele>154.4</ele><time>2026-04-05T09:17:21.376Z</time></trkpt><trkpt lat="44.1332252" lon="12.1594057"><ele>154.2</ele><time>2026-04-05T09:17:22.375Z</time></trkpt><trkpt lat="44.1331863" lon="12.1595391"><ele>154.0</ele><time>2026-04-05T09:17:23.374Z</time></trkpt><trkpt lat="44.1331467" lon="12.159665"><ele>153.6</ele><time>2026-04-05T09:17:24.374Z</time></trkpt><trkpt lat="44.1331058" lon="12.1597908"><ele>153.2</ele><time>2026-04-05T09:17:25.38Z</time></trkpt><trkpt lat="44.1330687" lon="12.1599141"><ele>152.79999999999998</ele><time>2026-04-05T09:17:26.371Z</time></trkpt><trkpt lat="44.1330323" lon="12.1600335"><ele>152.4</ele><time>2026-04-05T09:17:27.384Z</time></trkpt><trkpt lat="44.1329954" lon="12.1601458"><ele>152.0</ele><time>2026-04-05T09:17:28.378Z</time></trkpt><trkpt lat="44.1329591" lon="12.1602568"><ele>152.0</ele><time>2026-04-05T09:17:29.375Z</time></trkpt><trkpt lat="44.1329261" lon="12.1603611"><ele>152.0</ele><time>2026-04-05T09:17:30.382Z</time></trkpt><trkpt lat="44.1328919" lon="12.1604628"><ele>152.0</ele><time>2026-04-05T09:17:31.374Z</time></trkpt><trkpt lat="44.1328611" lon="12.1605636"><ele>152.0</ele><time>2026-04-05T09:17:32.376Z</time></trkpt><trkpt lat="44.1328311" lon="12.1606616"><ele>152.0</ele><time>2026-04-05T09:17:33.376Z</time></trkpt><trkpt lat="44.1328026" lon="12.1607585"><ele>152.0</ele><time>2026-04-05T09:17:34.373Z</time></trkpt><trkpt lat="44.1327734" lon="12.1608466"><ele>152.14285714285714</ele><time>2026-04-05T09:17:35.379Z</time></trkpt><trkpt lat="44.1327407" lon="12.1609355"><ele>152.2857142857143</ele><time>2026-04-05T09:17:36.378Z</time></trkpt><trkpt lat="44.1327104" lon="12.1610243"><ele>152.42857142857144</ele><time>2026-04-05T09:17:37.378Z</time></trkpt><trkpt lat="44.1326789" lon="12.1611128"><ele>152.57142857142856</ele><time>2026-04-05T09:17:38.374Z</time></trkpt><trkpt lat="44.1326476" lon="12.1612"><ele>152.71428571428572</ele><time>2026-04-05T09:17:39.378Z</time></trkpt><trkpt lat="44.1326189" lon="12.1612852"><ele>152.85714285714286</ele><time>2026-04-05T09:17:40.374Z</time></trkpt><trkpt lat="44.1325899" lon="12.1613669"><ele>153.0</ele><time>2026-04-05T09:17:41.376Z</time></trkpt><trkpt lat="44.1325611" lon="12.1614483"><ele>152.42857142857142</ele><time>2026-04-05T09:17:42.375Z</time></trkpt><trkpt lat="44.1325347" lon="12.1615335"><ele>151.85714285714286</ele><time>2026-04-05T09:17:43.373Z</time></trkpt><trkpt lat="44.1325118" lon="12.1616181"><ele>151.28571428571428</ele><time>2026-04-05T09:17:44.378Z</time></trkpt><trkpt lat="44.1324938" lon="12.161706"><ele>150.71428571428572</ele><time>2026-04-05T09:17:45.378Z</time></trkpt><trkpt lat="44.13248" lon="12.1617986"><ele>150.14285714285714</ele><time>2026-04-05T09:17:46.384Z</time></trkpt><trkpt lat="44.1324689" lon="12.161889"><ele>149.57142857142856</ele><time>2026-04-05T09:17:47.377Z</time></trkpt><trkpt lat="44.1324638" lon="12.1619784"><ele>149.0</ele><time>2026-04-05T09:17:48.377Z</time></trkpt><trkpt lat="44.1324547" lon="12.162068"><ele>149.0</ele><time>2026-04-05T09:17:49.374Z</time></trkpt><trkpt lat="44.1324492" lon="12.1621571"><ele>149.0</ele><time>2026-04-05T09:17:50.371Z</time></trkpt><trkpt lat="44.132434" lon="12.1623325"><ele>149.0</ele><time>2026-04-05T09:17:52.373Z</time></trkpt><trkpt lat="44.132413" lon="12.162504"><ele>149.0</ele><time>2026-04-05T09:17:54.374Z</time></trkpt><trkpt lat="44.1323993" lon="12.1626776"><ele>149.0</ele><time>2026-04-05T09:17:56.378Z</time></trkpt><trkpt lat="44.1323849" lon="12.1628503"><ele>148.2</ele><time>2026-04-05T09:17:58.384Z</time></trkpt><trkpt lat="44.1323726" lon="12.1630203"><ele>147.4</ele><time>2026-04-05T09:18:00.388Z</time></trkpt><trkpt lat="44.1323516" lon="12.1631834"><ele>146.6</ele><time>2026-04-05T09:18:02.38Z</time></trkpt><trkpt lat="44.1323468" lon="12.1633387"><ele>145.8</ele><time>2026-04-05T09:18:04.379Z</time></trkpt><trkpt lat="44.1323351" lon="12.1634495"><ele>145.0</ele><time>2026-04-05T09:18:06.386Z</time></trkpt><trkpt lat="44.1323095" lon="12.1635528"><ele>145.0</ele><time>2026-04-05T09:18:08.386Z</time></trkpt><trkpt lat="44.1323239" lon="12.1636606"><ele>145.0</ele><time>2026-04-05T09:18:11.385Z</time></trkpt><trkpt lat="44.1324081" lon="12.1636657"><ele>145.0</ele><time>2026-04-05T09:18:14.377Z</time></trkpt><trkpt lat="44.1324904" lon="12.163673"><ele>145.0</ele><time>2026-04-05T09:18:17.392Z</time></trkpt><trkpt lat="44.1325516" lon="12.1637008"><ele>145.0</ele><time>2026-04-05T09:18:20.385Z</time></trkpt><trkpt lat="44.1326138" lon="12.1637382"><ele>145.0</ele><time>2026-04-05T09:18:23.382Z</time></trkpt><trkpt lat="44.1326811" lon="12.1637432"><ele>145.0</ele><time>2026-04-05T09:18:26.39Z</time></trkpt><trkpt lat="44.1327129" lon="12.1636504"><ele>146.33333333333334</ele><time>2026-04-05T09:19:15.382Z</time></trkpt><trkpt lat="44.132769" lon="12.1637112"><ele>147.66666666666669</ele><time>2026-04-05T09:19:18.384Z</time></trkpt><trkpt lat="44.1328222" lon="12.1637812"><ele>149.0</ele><time>2026-04-05T09:19:20.385Z</time></trkpt><trkpt lat="44.1328732" lon="12.1637028"><ele>150.33333333333334</ele><time>2026-04-05T09:19:22.385Z</time></trkpt><trkpt lat="44.1328935" lon="12.1635518"><ele>151.66666666666666</ele><time>2026-04-05T09:19:24.379Z</time></trkpt><trkpt lat="44.1328913" lon="12.1634019"><ele>153.0</ele><time>2026-04-05T09:19:26.382Z</time></trkpt><trkpt lat="44.1328478" lon="12.1632713"><ele>153.0</ele><time>2026-04-05T09:19:28.393Z</time></trkpt><trkpt lat="44.1327882" lon="12.1631868"><ele>153.0</ele><time>2026-04-05T09:19:30.386Z</time></trkpt><trkpt lat="44.1327342" lon="12.1631306"><ele>153.0</ele><time>2026-04-05T09:19:32.388Z</time></trkpt><trkpt lat="44.1326658" lon="12.1630989"><ele>153.0</ele><time>2026-04-05T09:19:34.394Z</time></trkpt><trkpt lat="44.1326739" lon="12.1631921"><ele>153.0</ele><time>2026-04-05T09:19:39.386Z</time></trkpt><trkpt lat="44.1327272" lon="12.1632497"><ele>153.0</ele><time>2026-04-05T09:19:41.383Z</time></trkpt><trkpt lat="44.1327902" lon="12.1633191"><ele>153.0</ele><time>2026-04-05T09:19:43.386Z</time></trkpt><trkpt lat="44.1328452" lon="12.1634186"><ele>153.0</ele><time>2026-04-05T09:19:45.385Z</time></trkpt><trkpt lat="44.1328543" lon="12.1635417"><ele>153.0</ele><time>2026-04-05T09:19:47.385Z</time></trkpt><trkpt lat="44.1328379" lon="12.16365"><ele>153.0</ele><time>2026-04-05T09:19:49.4Z</time></trkpt><trkpt lat="44.1328169" lon="12.1637392"><ele>153.0</ele><time>2026-04-05T09:19:51.389Z</time></trkpt><trkpt lat="44.1328688" lon="12.1636651"><ele>153.0</ele><time>2026-04-05T09:19:57.385Z</time></trkpt><trkpt lat="44.1328763" lon="12.1635151"><ele>153.0</ele><time>2026-04-05T09:19:59.377Z</time></trkpt><trkpt lat="44.1328701" lon="12.1633684"><ele>153.0</ele><time>2026-04-05T09:20:01.377Z</time></trkpt><trkpt lat="44.1328273" lon="12.1632448"><ele>153.0</ele><time>2026-04-05T09:20:03.39Z</time></trkpt><trkpt lat="44.1327798" lon="12.1631794"><ele>153.0</ele><time>2026-04-05T09:20:05.386Z</time></trkpt><trkpt lat="44.1327261" lon="12.163126"><ele>153.0</ele><time>2026-04-05T09:20:19.401Z</time></trkpt><trkpt lat="44.1327382" lon="12.1630141"><ele>153.0</ele><time>2026-04-05T09:20:28.384Z</time></trkpt><trkpt lat="44.1327498" lon="12.162925"><ele>153.0</ele><time>2026-04-05T09:20:56.394Z</time></trkpt><trkpt lat="44.1327817" lon="12.16284"><ele>153.0</ele><time>2026-04-05T09:21:02.382Z</time></trkpt><trkpt lat="44.1328438" lon="12.1628881"><ele>153.0</ele><time>2026-04-05T09:21:04.378Z</time></trkpt><trkpt lat="44.1328877" lon="12.1629953"><ele>153.0</ele><time>2026-04-05T09:21:06.39Z</time></trkpt><trkpt lat="44.1329008" lon="12.1631292"><ele>153.0</ele><time>2026-04-05T09:21:08.383Z</time></trkpt><trkpt lat="44.1329106" lon="12.1632545"><ele>153.0</ele><time>2026-04-05T09:21:10.375Z</time></trkpt><trkpt lat="44.1329412" lon="12.1633523"><ele>153.0</ele><time>2026-04-05T09:21:12.385Z</time></trkpt><trkpt lat="44.1329576" lon="12.1634581"><ele>153.0</ele><time>2026-04-05T09:21:14.386Z</time></trkpt><trkpt lat="44.132952" lon="12.1635743"><ele>153.0</ele><time>2026-04-05T09:21:16.387Z</time></trkpt><trkpt lat="44.132927" lon="12.163679"><ele>153.0</ele><time>2026-04-05T09:21:19.385Z</time></trkpt><trkpt lat="44.132904" lon="12.1637626"><ele>153.0</ele><time>2026-04-05T09:21:22.389Z</time></trkpt><trkpt lat="44.132844" lon="12.1637925"><ele>153.0</ele><time>2026-04-05T09:21:26.386Z</time></trkpt><trkpt lat="44.1328569" lon="12.1636843"><ele>153.0</ele><time>2026-04-05T09:21:29.381Z</time></trkpt><trkpt lat="44.1328823" lon="12.1635519"><ele>153.0</ele><time>2026-04-05T09:21:31.376Z</time></trkpt><trkpt lat="44.1328752" lon="12.1633818"><ele>153.0</ele><time>2026-04-05T09:21:33.375Z</time></trkpt><trkpt lat="44.1328276" lon="12.1632408"><ele>153.0</ele><time>2026-04-05T09:21:35.383Z</time></trkpt><trkpt lat="44.1327527" lon="12.1631682"><ele>153.0</ele><time>2026-04-05T09:21:37.39Z</time></trkpt><trkpt lat="44.1326859" lon="12.163135"><ele>153.0</ele><time>2026-04-05T09:21:39.389Z</time></trkpt><trkpt lat="44.1327313" lon="12.1630585"><ele>153.0</ele><time>2026-04-05T09:21:45.393Z</time></trkpt><trkpt lat="44.1328008" lon="12.1631011"><ele>153.0</ele><time>2026-04-05T09:22:55.417Z</time></trkpt><trkpt lat="44.1328678" lon="12.1631957"><ele>153.0</ele><time>2026-04-05T09:22:57.413Z</time></trkpt><trkpt lat="44.1329321" lon="12.1633297"><ele>153.0</ele><time>2026-04-05T09:22:59.406Z</time></trkpt><trkpt lat="44.1329486" lon="12.1634736"><ele>153.0</ele><time>2026-04-05T09:23:01.405Z</time></trkpt><trkpt lat="44.13294" lon="12.1635862"><ele>153.0</ele><time>2026-04-05T09:23:03.416Z</time></trkpt><trkpt lat="44.1329227" lon="12.1636977"><ele>153.0</ele><time>2026-04-05T09:23:05.422Z</time></trkpt><trkpt lat="44.132891" lon="12.1637948"><ele>153.0</ele><time>2026-04-05T09:23:07.418Z</time></trkpt><trkpt lat="44.1327976" lon="12.1637793"><ele>153.0</ele><time>2026-04-05T09:23:10.419Z</time></trkpt><trkpt lat="44.1327654" lon="12.1636986"><ele>153.0</ele><time>2026-04-05T09:23:12.427Z</time></trkpt><trkpt lat="44.1327737" lon="12.1636082"><ele>153.0</ele><time>2026-04-05T09:23:14.424Z</time></trkpt><trkpt lat="44.1327645" lon="12.1634979"><ele>153.0</ele><time>2026-04-05T09:23:17.42Z</time></trkpt><trkpt lat="44.1327114" lon="12.1636055"><ele>153.0</ele><time>2026-04-05T09:37:17.4Z</time></trkpt><trkpt lat="44.1326809" lon="12.163714"><ele>153.0</ele><time>2026-04-05T09:37:19.404Z</time></trkpt><trkpt lat="44.1325925" lon="12.1637267"><ele>153.0</ele><time>2026-04-05T09:37:22.394Z</time></trkpt><trkpt lat="44.132502" lon="12.1636839"><ele>153.0</ele><time>2026-04-05T09:37:25.401Z</time></trkpt><trkpt lat="44.1324352" lon="12.1636621"><ele>153.0</ele><time>2026-04-05T09:37:27.409Z</time></trkpt><trkpt lat="44.1323663" lon="12.1636448"><ele>153.0</ele><time>2026-04-05T09:37:29.408Z</time></trkpt><trkpt lat="44.1323043" lon="12.1635643"><ele>153.0</ele><time>2026-04-05T09:37:32.4Z</time></trkpt><trkpt lat="44.1323265" lon="12.1634634"><ele>152.0</ele><time>2026-04-05T09:37:34.406Z</time></trkpt><trkpt lat="44.132352" lon="12.1633537"><ele>151.0</ele><time>2026-04-05T09:37:36.388Z</time></trkpt><trkpt lat="44.1323713" lon="12.163217"><ele>150.0</ele><time>2026-04-05T09:37:38.395Z</time></trkpt><trkpt lat="44.1323921" lon="12.1630568"><ele>149.0</ele><time>2026-04-05T09:37:40.401Z</time></trkpt><trkpt lat="44.1324097" lon="12.1628859"><ele>148.0</ele><time>2026-04-05T09:37:42.392Z</time></trkpt><trkpt lat="44.132425" lon="12.1627215"><ele>148.0</ele><time>2026-04-05T09:37:44.392Z</time></trkpt><trkpt lat="44.1324414" lon="12.1625494"><ele>148.0</ele><time>2026-04-05T09:37:46.388Z</time></trkpt><trkpt lat="44.1324513" lon="12.1623708"><ele>148.0</ele><time>2026-04-05T09:37:48.393Z</time></trkpt><trkpt lat="44.1324597" lon="12.1622787"><ele>148.0</ele><time>2026-04-05T09:37:49.389Z</time></trkpt><trkpt lat="44.1324736" lon="12.1621101"><ele>148.0</ele><time>2026-04-05T09:37:51.391Z</time></trkpt><trkpt lat="44.1324933" lon="12.1619472"><ele>148.25</ele><time>2026-04-05T09:37:53.393Z</time></trkpt><trkpt lat="44.132509" lon="12.1617792"><ele>148.5</ele><time>2026-04-05T09:37:55.402Z</time></trkpt><trkpt lat="44.1325371" lon="12.1616169"><ele>148.75</ele><time>2026-04-05T09:37:57.402Z</time></trkpt><trkpt lat="44.1325817" lon="12.1614625"><ele>149.0</ele><time>2026-04-05T09:37:59.389Z</time></trkpt><trkpt lat="44.1326298" lon="12.1613103"><ele>149.6</ele><time>2026-04-05T09:38:01.396Z</time></trkpt><trkpt lat="44.1326803" lon="12.1611717"><ele>150.2</ele><time>2026-04-05T09:38:03.404Z</time></trkpt><trkpt lat="44.1327223" lon="12.1610403"><ele>150.79999999999998</ele><time>2026-04-05T09:38:05.393Z</time></trkpt><trkpt lat="44.1327718" lon="12.1609045"><ele>151.4</ele><time>2026-04-05T09:38:07.392Z</time></trkpt><trkpt lat="44.1328175" lon="12.1607749"><ele>152.0</ele><time>2026-04-05T09:38:09.401Z</time></trkpt><trkpt lat="44.1328582" lon="12.1606467"><ele>152.0</ele><time>2026-04-05T09:38:11.398Z</time></trkpt><trkpt lat="44.1328968" lon="12.1605258"><ele>152.0</ele><time>2026-04-05T09:38:13.401Z</time></trkpt><trkpt lat="44.1329327" lon="12.1604147"><ele>152.0</ele><time>2026-04-05T09:38:15.395Z</time></trkpt><trkpt lat="44.1329631" lon="12.1602864"><ele>152.0</ele><time>2026-04-05T09:38:17.414Z</time></trkpt><trkpt lat="44.1330024" lon="12.1601632"><ele>152.0</ele><time>2026-04-05T09:38:19.403Z</time></trkpt><trkpt lat="44.1330422" lon="12.1600267"><ele>152.0</ele><time>2026-04-05T09:38:21.396Z</time></trkpt><trkpt lat="44.133085" lon="12.1598939"><ele>152.0</ele><time>2026-04-05T09:38:23.398Z</time></trkpt><trkpt lat="44.1331242" lon="12.1597608"><ele>152.0</ele><time>2026-04-05T09:38:25.404Z</time></trkpt><trkpt lat="44.1331751" lon="12.1596249"><ele>152.0</ele><time>2026-04-05T09:38:27.395Z</time></trkpt><trkpt lat="44.1332157" lon="12.1594922"><ele>152.0</ele><time>2026-04-05T09:38:29.401Z</time></trkpt><trkpt lat="44.133257" lon="12.1593572"><ele>152.4</ele><time>2026-04-05T09:38:31.395Z</time></trkpt><trkpt lat="44.1332955" lon="12.1592256"><ele>152.79999999999998</ele><time>2026-04-05T09:38:33.393Z</time></trkpt><trkpt lat="44.133335" lon="12.1591043"><ele>153.2</ele><time>2026-04-05T09:38:35.404Z</time></trkpt><trkpt lat="44.1333745" lon="12.1589762"><ele>153.6</ele><time>2026-04-05T09:38:37.397Z</time></trkpt><trkpt lat="44.1334117" lon="12.1588602"><ele>154.0</ele><time>2026-04-05T09:38:39.391Z</time></trkpt><trkpt lat="44.1334481" lon="12.1587474"><ele>154.2</ele><time>2026-04-05T09:38:41.39Z</time></trkpt><trkpt lat="44.1334868" lon="12.1586303"><ele>154.4</ele><time>2026-04-05T09:38:43.389Z</time></trkpt><trkpt lat="44.1335305" lon="12.158508"><ele>154.6</ele><time>2026-04-05T09:38:45.386Z</time></trkpt><trkpt lat="44.1335632" lon="12.1583884"><ele>154.8</ele><time>2026-04-05T09:38:47.396Z</time></trkpt><trkpt lat="44.1336012" lon="12.1582723"><ele>155.0</ele><time>2026-04-05T09:38:49.405Z</time></trkpt><trkpt lat="44.1336347" lon="12.1581561"><ele>154.66666666666666</ele><time>2026-04-05T09:38:51.4Z</time></trkpt><trkpt lat="44.1336712" lon="12.158039"><ele>154.33333333333331</ele><time>2026-04-05T09:38:53.395Z</time></trkpt><trkpt lat="44.1337118" lon="12.1579331"><ele>154.0</ele><time>2026-04-05T09:38:55.4Z</time></trkpt><trkpt lat="44.1337484" lon="12.1578343"><ele>153.66666666666666</ele><time>2026-04-05T09:38:57.404Z</time></trkpt><trkpt lat="44.1337814" lon="12.1577425"><ele>153.33333333333334</ele><time>2026-04-05T09:38:59.397Z</time></trkpt><trkpt lat="44.1338083" lon="12.1576485"><ele>153.0</ele><time>2026-04-05T09:39:01.388Z</time></trkpt><trkpt lat="44.1338321" lon="12.1575472"><ele>153.0</ele><time>2026-04-05T09:39:03.395Z</time></trkpt><trkpt lat="44.1338605" lon="12.1574422"><ele>153.0</ele><time>2026-04-05T09:39:05.394Z</time></trkpt><trkpt lat="44.1338926" lon="12.1573326"><ele>153.0</ele><time>2026-04-05T09:39:07.397Z</time></trkpt><trkpt lat="44.1339279" lon="12.1572341"><ele>153.0</ele><time>2026-04-05T09:39:09.398Z</time></trkpt><trkpt lat="44.1339698" lon="12.1571424"><ele>153.0</ele><time>2026-04-05T09:39:11.401Z</time></trkpt><trkpt lat="44.1340028" lon="12.1570382"><ele>153.0</ele><time>2026-04-05T09:39:13.395Z</time></trkpt><trkpt lat="44.1340408" lon="12.1569328"><ele>155.66666666666666</ele><time>2026-04-05T09:39:15.395Z</time></trkpt><trkpt lat="44.1340791" lon="12.1568229"><ele>158.33333333333334</ele><time>2026-04-05T09:39:17.393Z</time></trkpt><trkpt lat="44.1341085" lon="12.156721"><ele>161.0</ele><time>2026-04-05T09:39:19.396Z</time></trkpt><trkpt lat="44.1341302" lon="12.1566287"><ele>163.66666666666669</ele><time>2026-04-05T09:39:21.402Z</time></trkpt><trkpt lat="44.1341575" lon="12.156536"><ele>166.33333333333334</ele><time>2026-04-05T09:39:23.394Z</time></trkpt><trkpt lat="44.1341887" lon="12.1564308"><ele>169.0</ele><time>2026-04-05T09:39:25.396Z</time></trkpt><trkpt lat="44.1342125" lon="12.1563301"><ele>169.57142857142858</ele><time>2026-04-05T09:39:27.397Z</time></trkpt><trkpt lat="44.1342258" lon="12.1562339"><ele>170.14285714285714</ele><time>2026-04-05T09:39:29.398Z</time></trkpt><trkpt lat="44.1342381" lon="12.1561321"><ele>170.71428571428572</ele><time>2026-04-05T09:39:31.399Z</time></trkpt><trkpt lat="44.1342303" lon="12.1560426"><ele>171.28571428571428</ele><time>2026-04-05T09:39:33.409Z</time></trkpt><trkpt lat="44.1341781" lon="12.1559323"><ele>171.85714285714286</ele><time>2026-04-05T09:39:36.396Z</time></trkpt><trkpt lat="44.1341356" lon="12.1558512"><ele>172.42857142857142</ele><time>2026-04-05T09:39:38.392Z</time></trkpt><trkpt lat="44.1341021" lon="12.1557746"><ele>173.0</ele><time>2026-04-05T09:39:40.39Z</time></trkpt><trkpt lat="44.134065" lon="12.155691"><ele>172.14285714285714</ele><time>2026-04-05T09:39:42.388Z</time></trkpt><trkpt lat="44.1340202" lon="12.1556016"><ele>171.2857142857143</ele><time>2026-04-05T09:39:44.389Z</time></trkpt><trkpt lat="44.1339942" lon="12.1555046"><ele>170.42857142857144</ele><time>2026-04-05T09:39:46.393Z</time></trkpt><trkpt lat="44.1339782" lon="12.1554072"><ele>169.57142857142856</ele><time>2026-04-05T09:39:48.39Z</time></trkpt><trkpt lat="44.1339602" lon="12.1553143"><ele>168.71428571428572</ele><time>2026-04-05T09:39:50.392Z</time></trkpt><trkpt lat="44.1339324" lon="12.1552216"><ele>167.85714285714286</ele><time>2026-04-05T09:39:52.396Z</time></trkpt><trkpt lat="44.1339002" lon="12.1551277"><ele>167.0</ele><time>2026-04-05T09:39:54.398Z</time></trkpt><trkpt lat="44.1338615" lon="12.1550408"><ele>167.0</ele><time>2026-04-05T09:39:56.394Z</time></trkpt><trkpt lat="44.1338273" lon="12.1549505"><ele>167.0</ele><time>2026-04-05T09:39:58.387Z</time></trkpt><trkpt lat="44.1337982" lon="12.1548588"><ele>167.0</ele><time>2026-04-05T09:40:00.397Z</time></trkpt><trkpt lat="44.1337611" lon="12.1547422"><ele>167.0</ele><time>2026-04-05T09:40:02.403Z</time></trkpt><trkpt lat="44.1337117" lon="12.1546021"><ele>167.0</ele><time>2026-04-05T09:40:04.391Z</time></trkpt><trkpt lat="44.1336566" lon="12.1544595"><ele>169.2</ele><time>2026-04-05T09:40:06.391Z</time></trkpt><trkpt lat="44.1336022" lon="12.1543204"><ele>171.39999999999998</ele><time>2026-04-05T09:40:08.384Z</time></trkpt><trkpt lat="44.1335487" lon="12.1541873"><ele>173.60000000000002</ele><time>2026-04-05T09:40:10.378Z</time></trkpt><trkpt lat="44.1335064" lon="12.1540511"><ele>175.8</ele><time>2026-04-05T09:40:12.382Z</time></trkpt><trkpt lat="44.1334681" lon="12.1539225"><ele>178.0</ele><time>2026-04-05T09:40:14.386Z</time></trkpt><trkpt lat="44.1334276" lon="12.1537974"><ele>178.8</ele><time>2026-04-05T09:40:16.386Z</time></trkpt><trkpt lat="44.1333804" lon="12.1536707"><ele>179.60000000000002</ele><time>2026-04-05T09:40:18.38Z</time></trkpt><trkpt lat="44.133336" lon="12.1535317"><ele>180.39999999999998</ele><time>2026-04-05T09:40:20.378Z</time></trkpt><trkpt lat="44.1332885" lon="12.1534041"><ele>181.2</ele><time>2026-04-05T09:40:22.389Z</time></trkpt><trkpt lat="44.1332443" lon="12.1532772"><ele>182.0</ele><time>2026-04-05T09:40:24.392Z</time></trkpt><trkpt lat="44.1331962" lon="12.1531531"><ele>184.6</ele><time>2026-04-05T09:40:26.393Z</time></trkpt><trkpt lat="44.1331413" lon="12.1530292"><ele>187.2</ele><time>2026-04-05T09:40:28.394Z</time></trkpt><trkpt lat="44.1330927" lon="12.1529045"><ele>189.8</ele><time>2026-04-05T09:40:30.392Z</time></trkpt><trkpt lat="44.133058" lon="12.1527715"><ele>192.4</ele><time>2026-04-05T09:40:32.392Z</time></trkpt><trkpt lat="44.1330057" lon="12.1526457"><ele>195.0</ele><time>2026-04-05T09:40:34.392Z</time></trkpt><trkpt lat="44.1329508" lon="12.1525209"><ele>195.0</ele><time>2026-04-05T09:40:36.389Z</time></trkpt><trkpt lat="44.132901" lon="12.1524006"><ele>195.0</ele><time>2026-04-05T09:40:38.385Z</time></trkpt><trkpt lat="44.1328682" lon="12.1522832"><ele>195.0</ele><time>2026-04-05T09:40:40.391Z</time></trkpt><trkpt lat="44.1328421" lon="12.1521645"><ele>195.0</ele><time>2026-04-05T09:40:42.397Z</time></trkpt><trkpt lat="44.1328235" lon="12.1520474"><ele>195.0</ele><time>2026-04-05T09:40:44.397Z</time></trkpt><trkpt lat="44.1328222" lon="12.1519394"><ele>195.0</ele><time>2026-04-05T09:40:46.397Z</time></trkpt><trkpt lat="44.1328208" lon="12.1518349"><ele>196.0</ele><time>2026-04-05T09:40:48.399Z</time></trkpt><trkpt lat="44.1328187" lon="12.1517086"><ele>197.0</ele><time>2026-04-05T09:40:50.4Z</time></trkpt><trkpt lat="44.1328107" lon="12.1515876"><ele>198.0</ele><time>2026-04-05T09:40:52.411Z</time></trkpt><trkpt lat="44.132798" lon="12.1514677"><ele>199.0</ele><time>2026-04-05T09:40:54.398Z</time></trkpt><trkpt lat="44.1327823" lon="12.1513514"><ele>200.0</ele><time>2026-04-05T09:40:56.397Z</time></trkpt><trkpt lat="44.1327724" lon="12.1512268"><ele>201.0</ele><time>2026-04-05T09:40:58.401Z</time></trkpt><trkpt lat="44.1327615" lon="12.1510999"><ele>201.16666666666666</ele><time>2026-04-05T09:41:00.4Z</time></trkpt><trkpt lat="44.1327624" lon="12.1509743"><ele>201.33333333333331</ele><time>2026-04-05T09:41:02.406Z</time></trkpt><trkpt lat="44.1327665" lon="12.1508515"><ele>201.5</ele><time>2026-04-05T09:41:04.398Z</time></trkpt><trkpt lat="44.1327889" lon="12.1507381"><ele>201.66666666666666</ele><time>2026-04-05T09:41:06.401Z</time></trkpt><trkpt lat="44.132821" lon="12.1506198"><ele>201.83333333333331</ele><time>2026-04-05T09:41:08.398Z</time></trkpt><trkpt lat="44.1328567" lon="12.1505054"><ele>202.0</ele><time>2026-04-05T09:41:10.4Z</time></trkpt><trkpt lat="44.1329019" lon="12.1503895"><ele>201.39999999999998</ele><time>2026-04-05T09:41:12.402Z</time></trkpt><trkpt lat="44.1329472" lon="12.1502637"><ele>200.79999999999998</ele><time>2026-04-05T09:41:14.401Z</time></trkpt><trkpt lat="44.1330036" lon="12.1501378"><ele>200.2</ele><time>2026-04-05T09:41:16.392Z</time></trkpt><trkpt lat="44.13306" lon="12.149989"><ele>199.6</ele><time>2026-04-05T09:41:18.394Z</time></trkpt><trkpt lat="44.1330901" lon="12.1499088"><ele>199.0</ele><time>2026-04-05T09:41:19.394Z</time></trkpt><trkpt lat="44.1331534" lon="12.149757"><ele>197.99999999999997</ele><time>2026-04-05T09:41:21.394Z</time></trkpt><trkpt lat="44.1331881" lon="12.1496804"><ele>197.0</ele><time>2026-04-05T09:41:22.394Z</time></trkpt><trkpt lat="44.133227" lon="12.1496045"><ele>196.0</ele><time>2026-04-05T09:41:23.394Z</time></trkpt><trkpt lat="44.1332721" lon="12.1495353"><ele>195.0</ele><time>2026-04-05T09:41:24.395Z</time></trkpt><trkpt lat="44.133313" lon="12.1494662"><ele>193.99999999999997</ele><time>2026-04-05T09:41:25.398Z</time></trkpt><trkpt lat="44.1333576" lon="12.1494001"><ele>193.0</ele><time>2026-04-05T09:41:26.395Z</time></trkpt><trkpt lat="44.1334478" lon="12.1492787"><ele>192.5</ele><time>2026-04-05T09:41:28.391Z</time></trkpt><trkpt lat="44.133535" lon="12.1491592"><ele>192.0</ele><time>2026-04-05T09:41:30.39Z</time></trkpt><trkpt lat="44.1336186" lon="12.1490488"><ele>191.5</ele><time>2026-04-05T09:41:32.385Z</time></trkpt><trkpt lat="44.1337064" lon="12.1489393"><ele>191.0</ele><time>2026-04-05T09:41:34.392Z</time></trkpt><trkpt lat="44.1337938" lon="12.1488222"><ele>190.33333333333331</ele><time>2026-04-05T09:41:36.389Z</time></trkpt><trkpt lat="44.1338787" lon="12.1487026"><ele>189.66666666666666</ele><time>2026-04-05T09:41:38.388Z</time></trkpt><trkpt lat="44.1339218" lon="12.1486382"><ele>189.0</ele><time>2026-04-05T09:41:39.395Z</time></trkpt><trkpt lat="44.1339669" lon="12.1485741"><ele>188.33333333333334</ele><time>2026-04-05T09:41:40.39Z</time></trkpt><trkpt lat="44.1340106" lon="12.1485087"><ele>187.66666666666669</ele><time>2026-04-05T09:41:41.399Z</time></trkpt><trkpt lat="44.1340922" lon="12.1483802"><ele>187.0</ele><time>2026-04-05T09:41:43.387Z</time></trkpt><trkpt lat="44.1341659" lon="12.1482647"><ele>188.25</ele><time>2026-04-05T09:41:45.389Z</time></trkpt><trkpt lat="44.13425" lon="12.1481482"><ele>189.5</ele><time>2026-04-05T09:41:47.393Z</time></trkpt><trkpt lat="44.1343462" lon="12.1480462"><ele>190.75</ele><time>2026-04-05T09:41:49.398Z</time></trkpt><trkpt lat="44.1344456" lon="12.1479653"><ele>192.0</ele><time>2026-04-05T09:41:51.39Z</time></trkpt><trkpt lat="44.134552" lon="12.1478931"><ele>192.0</ele><time>2026-04-05T09:41:53.394Z</time></trkpt><trkpt lat="44.1346099" lon="12.1478546"><ele>192.0</ele><time>2026-04-05T09:41:54.393Z</time></trkpt><trkpt lat="44.1347238" lon="12.1477891"><ele>192.0</ele><time>2026-04-05T09:41:56.39Z</time></trkpt><trkpt lat="44.1347841" lon="12.147762"><ele>192.0</ele><time>2026-04-05T09:41:57.386Z</time></trkpt><trkpt lat="44.1348478" lon="12.1477368"><ele>192.0</ele><time>2026-04-05T09:41:58.402Z</time></trkpt><trkpt lat="44.1349678" lon="12.1476723"><ele>192.0</ele><time>2026-04-05T09:42:00.4Z</time></trkpt><trkpt lat="44.1350303" lon="12.1476369"><ele>192.2</ele><time>2026-04-05T09:42:01.391Z</time></trkpt><trkpt lat="44.1350894" lon="12.1476027"><ele>192.39999999999998</ele><time>2026-04-05T09:42:02.4Z</time></trkpt><trkpt lat="44.1352062" lon="12.1475374"><ele>192.60000000000002</ele><time>2026-04-05T09:42:04.4Z</time></trkpt><trkpt lat="44.1353157" lon="12.1474575"><ele>192.8</ele><time>2026-04-05T09:42:06.399Z</time></trkpt><trkpt lat="44.1354239" lon="12.1473739"><ele>193.0</ele><time>2026-04-05T09:42:08.393Z</time></trkpt><trkpt lat="44.1354795" lon="12.147328"><ele>193.0</ele><time>2026-04-05T09:42:09.394Z</time></trkpt><trkpt lat="44.1355813" lon="12.1472278"><ele>193.0</ele><time>2026-04-05T09:42:11.396Z</time></trkpt><trkpt lat="44.1356734" lon="12.1471297"><ele>193.0</ele><time>2026-04-05T09:42:13.391Z</time></trkpt><trkpt lat="44.135767" lon="12.1470294"><ele>193.0</ele><time>2026-04-05T09:42:15.391Z</time></trkpt><trkpt lat="44.135859" lon="12.1469166"><ele>193.33333333333331</ele><time>2026-04-05T09:42:17.393Z</time></trkpt><trkpt lat="44.1359463" lon="12.1468"><ele>193.66666666666666</ele><time>2026-04-05T09:42:19.388Z</time></trkpt><trkpt lat="44.1360285" lon="12.1466773"><ele>194.0</ele><time>2026-04-05T09:42:21.39Z</time></trkpt><trkpt lat="44.1360704" lon="12.1466023"><ele>194.33333333333331</ele><time>2026-04-05T09:42:22.385Z</time></trkpt><trkpt lat="44.1361096" lon="12.1465296"><ele>194.66666666666666</ele><time>2026-04-05T09:42:23.396Z</time></trkpt><trkpt lat="44.1361515" lon="12.1464543"><ele>195.0</ele><time>2026-04-05T09:42:24.386Z</time></trkpt><trkpt lat="44.1361937" lon="12.1463818"><ele>195.0</ele><time>2026-04-05T09:42:25.391Z</time></trkpt><trkpt lat="44.1362324" lon="12.1463036"><ele>195.0</ele><time>2026-04-05T09:42:26.391Z</time></trkpt><trkpt lat="44.136276" lon="12.1462348"><ele>195.0</ele><time>2026-04-05T09:42:27.387Z</time></trkpt><trkpt lat="44.1363267" lon="12.1461745"><ele>195.0</ele><time>2026-04-05T09:42:28.39Z</time></trkpt><trkpt lat="44.1363783" lon="12.1461168"><ele>195.0</ele><time>2026-04-05T09:42:29.391Z</time></trkpt><trkpt lat="44.1364288" lon="12.1460627"><ele>195.0</ele><time>2026-04-05T09:42:30.388Z</time></trkpt><trkpt lat="44.1365305" lon="12.1459638"><ele>195.2</ele><time>2026-04-05T09:42:32.387Z</time></trkpt><trkpt lat="44.1365872" lon="12.1459199"><ele>195.4</ele><time>2026-04-05T09:42:33.394Z</time></trkpt><trkpt lat="44.1366897" lon="12.1458355"><ele>195.60000000000002</ele><time>2026-04-05T09:42:35.39Z</time></trkpt><trkpt lat="44.1367891" lon="12.145764"><ele>195.8</ele><time>2026-04-05T09:42:37.382Z</time></trkpt><trkpt lat="44.1368912" lon="12.1456871"><ele>196.0</ele><time>2026-04-05T09:42:39.385Z</time></trkpt><trkpt lat="44.1369518" lon="12.1456534"><ele>196.60000000000002</ele><time>2026-04-05T09:42:40.385Z</time></trkpt><trkpt lat="44.1370128" lon="12.1456222"><ele>197.2</ele><time>2026-04-05T09:42:41.388Z</time></trkpt><trkpt lat="44.1371308" lon="12.1455753"><ele>197.8</ele><time>2026-04-05T09:42:43.384Z</time></trkpt><trkpt lat="44.137245" lon="12.14553"><ele>198.39999999999998</ele><time>2026-04-05T09:42:45.387Z</time></trkpt><trkpt lat="44.1373091" lon="12.1455077"><ele>199.0</ele><time>2026-04-05T09:42:46.4Z</time></trkpt><trkpt lat="44.1374293" lon="12.1454651"><ele>201.0</ele><time>2026-04-05T09:42:48.392Z</time></trkpt><trkpt lat="44.1374922" lon="12.1454431"><ele>203.0</ele><time>2026-04-05T09:42:49.393Z</time></trkpt><trkpt lat="44.137611" lon="12.1453948"><ele>205.0</ele><time>2026-04-05T09:42:51.395Z</time></trkpt><trkpt lat="44.1377285" lon="12.145341"><ele>207.0</ele><time>2026-04-05T09:42:53.389Z</time></trkpt><trkpt lat="44.1378402" lon="12.1452776"><ele>209.0</ele><time>2026-04-05T09:42:55.39Z</time></trkpt><trkpt lat="44.1379429" lon="12.1452348"><ele>209.0</ele><time>2026-04-05T09:42:57.387Z</time></trkpt><trkpt lat="44.1380388" lon="12.1452027"><ele>209.0</ele><time>2026-04-05T09:42:59.385Z</time></trkpt><trkpt lat="44.1381236" lon="12.1451807"><ele>209.0</ele><time>2026-04-05T09:43:01.394Z</time></trkpt><trkpt lat="44.138223" lon="12.1451633"><ele>209.0</ele><time>2026-04-05T09:43:03.385Z</time></trkpt><trkpt lat="44.1383208" lon="12.1451574"><ele>209.0</ele><time>2026-04-05T09:43:05.385Z</time></trkpt><trkpt lat="44.1384269" lon="12.1451638"><ele>208.79999999999998</ele><time>2026-04-05T09:43:07.389Z</time></trkpt><trkpt lat="44.1385257" lon="12.1451634"><ele>208.6</ele><time>2026-04-05T09:43:09.39Z</time></trkpt><trkpt lat="44.1386315" lon="12.1451592"><ele>208.4</ele><time>2026-04-05T09:43:11.389Z</time></trkpt><trkpt lat="44.1387416" lon="12.1451569"><ele>208.2</ele><time>2026-04-05T09:43:13.386Z</time></trkpt><trkpt lat="44.1388491" lon="12.1451576"><ele>208.0</ele><time>2026-04-05T09:43:15.385Z</time></trkpt><trkpt lat="44.1389569" lon="12.1451583"><ele>207.60000000000002</ele><time>2026-04-05T09:43:17.398Z</time></trkpt><trkpt lat="44.1390602" lon="12.1451534"><ele>207.20000000000002</ele><time>2026-04-05T09:43:19.387Z</time></trkpt><trkpt lat="44.1391631" lon="12.1451524"><ele>206.8</ele><time>2026-04-05T09:43:21.389Z</time></trkpt><trkpt lat="44.1392678" lon="12.1451506"><ele>206.4</ele><time>2026-04-05T09:43:23.397Z</time></trkpt><trkpt lat="44.1393739" lon="12.145153"><ele>206.0</ele><time>2026-04-05T09:43:25.392Z</time></trkpt><trkpt lat="44.1394814" lon="12.1451519"><ele>206.0</ele><time>2026-04-05T09:43:27.39Z</time></trkpt><trkpt lat="44.1395924" lon="12.1451333"><ele>206.0</ele><time>2026-04-05T09:43:29.388Z</time></trkpt><trkpt lat="44.1396967" lon="12.1450983"><ele>206.0</ele><time>2026-04-05T09:43:31.39Z</time></trkpt><trkpt lat="44.1398001" lon="12.1450681"><ele>206.0</ele><time>2026-04-05T09:43:33.396Z</time></trkpt><trkpt lat="44.1398924" lon="12.1450319"><ele>206.0</ele><time>2026-04-05T09:43:35.389Z</time></trkpt><trkpt lat="44.1399932" lon="12.1449851"><ele>205.8</ele><time>2026-04-05T09:43:37.39Z</time></trkpt><trkpt lat="44.1401018" lon="12.1449341"><ele>205.60000000000002</ele><time>2026-04-05T09:43:39.388Z</time></trkpt><trkpt lat="44.1402062" lon="12.1448878"><ele>205.4</ele><time>2026-04-05T09:43:41.393Z</time></trkpt><trkpt lat="44.1403106" lon="12.144837"><ele>205.2</ele><time>2026-04-05T09:43:43.387Z</time></trkpt><trkpt lat="44.1404168" lon="12.1447853"><ele>205.0</ele><time>2026-04-05T09:43:45.389Z</time></trkpt><trkpt lat="44.1405066" lon="12.1447433"><ele>207.0</ele><time>2026-04-05T09:43:47.391Z</time></trkpt><trkpt lat="44.140601" lon="12.1446991"><ele>209.0</ele><time>2026-04-05T09:43:49.388Z</time></trkpt><trkpt lat="44.1407102" lon="12.1446536"><ele>211.0</ele><time>2026-04-05T09:43:51.39Z</time></trkpt><trkpt lat="44.1408096" lon="12.1446018"><ele>213.0</ele><time>2026-04-05T09:43:53.394Z</time></trkpt><trkpt lat="44.1409112" lon="12.1445485"><ele>215.0</ele><time>2026-04-05T09:43:55.389Z</time></trkpt><trkpt lat="44.1410206" lon="12.1445022"><ele>215.0</ele><time>2026-04-05T09:43:57.387Z</time></trkpt><trkpt lat="44.1411229" lon="12.1444487"><ele>215.0</ele><time>2026-04-05T09:43:59.39Z</time></trkpt><trkpt lat="44.141225" lon="12.1443861"><ele>215.0</ele><time>2026-04-05T09:44:01.387Z</time></trkpt><trkpt lat="44.1413274" lon="12.1443348"><ele>215.0</ele><time>2026-04-05T09:44:03.385Z</time></trkpt><trkpt lat="44.1414323" lon="12.1442915"><ele>215.0</ele><time>2026-04-05T09:44:05.384Z</time></trkpt><trkpt lat="44.1415386" lon="12.1442437"><ele>214.6</ele><time>2026-04-05T09:44:07.382Z</time></trkpt><trkpt lat="44.1416548" lon="12.1441903"><ele>214.2</ele><time>2026-04-05T09:44:09.387Z</time></trkpt><trkpt lat="44.1417714" lon="12.1441249"><ele>213.8</ele><time>2026-04-05T09:44:11.387Z</time></trkpt><trkpt lat="44.1418315" lon="12.1440941"><ele>213.4</ele><time>2026-04-05T09:44:12.384Z</time></trkpt><trkpt lat="44.1419466" lon="12.1440365"><ele>213.0</ele><time>2026-04-05T09:44:14.385Z</time></trkpt><trkpt lat="44.1420514" lon="12.1439597"><ele>213.60000000000002</ele><time>2026-04-05T09:44:16.383Z</time></trkpt><trkpt lat="44.142147" lon="12.14387"><ele>214.20000000000002</ele><time>2026-04-05T09:44:18.383Z</time></trkpt><trkpt lat="44.1422315" lon="12.1437727"><ele>214.8</ele><time>2026-04-05T09:44:20.385Z</time></trkpt><trkpt lat="44.1423024" lon="12.1436589"><ele>215.4</ele><time>2026-04-05T09:44:22.398Z</time></trkpt><trkpt lat="44.1423645" lon="12.1435383"><ele>216.0</ele><time>2026-04-05T09:44:24.387Z</time></trkpt><trkpt lat="44.1424193" lon="12.143407"><ele>216.0</ele><time>2026-04-05T09:44:26.385Z</time></trkpt><trkpt lat="44.1424705" lon="12.1432667"><ele>216.00000000000003</ele><time>2026-04-05T09:44:28.386Z</time></trkpt><trkpt lat="44.1425292" lon="12.1431441"><ele>216.00000000000003</ele><time>2026-04-05T09:44:30.385Z</time></trkpt><trkpt lat="44.1425897" lon="12.1430149"><ele>216.0</ele><time>2026-04-05T09:44:32.381Z</time></trkpt><trkpt lat="44.1426456" lon="12.1428901"><ele>216.0</ele><time>2026-04-05T09:44:34.386Z</time></trkpt><trkpt lat="44.1427017" lon="12.1427718"><ele>217.75</ele><time>2026-04-05T09:44:36.388Z</time></trkpt><trkpt lat="44.1427741" lon="12.1426389"><ele>219.5</ele><time>2026-04-05T09:44:38.382Z</time></trkpt><trkpt lat="44.1428387" lon="12.1425069"><ele>221.25</ele><time>2026-04-05T09:44:40.383Z</time></trkpt><trkpt lat="44.1429013" lon="12.1423808"><ele>223.0</ele><time>2026-04-05T09:44:42.393Z</time></trkpt><trkpt lat="44.1429685" lon="12.1422416"><ele>225.0</ele><time>2026-04-05T09:44:44.386Z</time></trkpt><trkpt lat="44.1430336" lon="12.142109"><ele>227.0</ele><time>2026-04-05T09:44:46.393Z</time></trkpt><trkpt lat="44.1431097" lon="12.1419653"><ele>229.0</ele><time>2026-04-05T09:44:48.385Z</time></trkpt><trkpt lat="44.1431482" lon="12.1418935"><ele>231.0</ele><time>2026-04-05T09:44:49.386Z</time></trkpt><trkpt lat="44.1432144" lon="12.141759"><ele>233.0</ele><time>2026-04-05T09:44:51.391Z</time></trkpt><trkpt lat="44.143278" lon="12.1416339"><ele>231.60000000000002</ele><time>2026-04-05T09:44:53.38Z</time></trkpt><trkpt lat="44.1433502" lon="12.1415046"><ele>230.20000000000002</ele><time>2026-04-05T09:44:55.383Z</time></trkpt><trkpt lat="44.1433881" lon="12.141432"><ele>228.8</ele><time>2026-04-05T09:44:56.378Z</time></trkpt><trkpt lat="44.1434603" lon="12.141295"><ele>227.4</ele><time>2026-04-05T09:44:58.382Z</time></trkpt><trkpt lat="44.1435262" lon="12.1411528"><ele>226.0</ele><time>2026-04-05T09:45:00.362Z</time></trkpt><trkpt lat="44.1435958" lon="12.1410215"><ele>226.0</ele><time>2026-04-05T09:45:02.37Z</time></trkpt><trkpt lat="44.1436301" lon="12.1409463"><ele>226.00000000000003</ele><time>2026-04-05T09:45:03.372Z</time></trkpt><trkpt lat="44.1436956" lon="12.1408233"><ele>226.00000000000003</ele><time>2026-04-05T09:45:05.383Z</time></trkpt><trkpt lat="44.1437649" lon="12.140698"><ele>226.0</ele><time>2026-04-05T09:45:07.387Z</time></trkpt><trkpt lat="44.1438356" lon="12.1405647"><ele>226.0</ele><time>2026-04-05T09:45:09.387Z</time></trkpt><trkpt lat="44.1439075" lon="12.1404321"><ele>224.0</ele><time>2026-04-05T09:45:11.373Z</time></trkpt><trkpt lat="44.1439479" lon="12.1403613"><ele>222.00000000000003</ele><time>2026-04-05T09:45:12.374Z</time></trkpt><trkpt lat="44.143987" lon="12.1402893"><ele>220.00000000000003</ele><time>2026-04-05T09:45:13.376Z</time></trkpt><trkpt lat="44.1440572" lon="12.1401592"><ele>218.0</ele><time>2026-04-05T09:45:15.377Z</time></trkpt><trkpt lat="44.1441287" lon="12.1400378"><ele>216.0</ele><time>2026-04-05T09:45:17.388Z</time></trkpt><trkpt lat="44.144197" lon="12.1399064"><ele>217.8</ele><time>2026-04-05T09:45:19.377Z</time></trkpt><trkpt lat="44.1442801" lon="12.1397798"><ele>219.60000000000002</ele><time>2026-04-05T09:45:21.37Z</time></trkpt><trkpt lat="44.1443193" lon="12.1397082"><ele>221.4</ele><time>2026-04-05T09:45:22.377Z</time></trkpt><trkpt lat="44.1443938" lon="12.1395709"><ele>223.2</ele><time>2026-04-05T09:45:24.375Z</time></trkpt><trkpt lat="44.1444633" lon="12.1394449"><ele>225.0</ele><time>2026-04-05T09:45:26.376Z</time></trkpt><trkpt lat="44.1445389" lon="12.1393207"><ele>225.0</ele><time>2026-04-05T09:45:28.377Z</time></trkpt><trkpt lat="44.1446183" lon="12.1391986"><ele>225.0</ele><time>2026-04-05T09:45:30.372Z</time></trkpt><trkpt lat="44.1446605" lon="12.1391239"><ele>225.0</ele><time>2026-04-05T09:45:31.378Z</time></trkpt><trkpt lat="44.1447032" lon="12.1390561"><ele>225.0</ele><time>2026-04-05T09:45:32.374Z</time></trkpt><trkpt lat="44.1447828" lon="12.1389246"><ele>225.0</ele><time>2026-04-05T09:45:34.37Z</time></trkpt><trkpt lat="44.1448459" lon="12.1387811"><ele>225.8</ele><time>2026-04-05T09:45:36.376Z</time></trkpt><trkpt lat="44.1449059" lon="12.1386376"><ele>226.6</ele><time>2026-04-05T09:45:38.376Z</time></trkpt><trkpt lat="44.1449501" lon="12.1385011"><ele>227.39999999999998</ele><time>2026-04-05T09:45:40.374Z</time></trkpt><trkpt lat="44.1449961" lon="12.1383543"><ele>228.2</ele><time>2026-04-05T09:45:42.383Z</time></trkpt><trkpt lat="44.1450185" lon="12.1382719"><ele>229.0</ele><time>2026-04-05T09:45:43.381Z</time></trkpt><trkpt lat="44.1450465" lon="12.1381933"><ele>229.0</ele><time>2026-04-05T09:45:44.371Z</time></trkpt><trkpt lat="44.1450729" lon="12.1381122"><ele>228.99999999999997</ele><time>2026-04-05T09:45:45.377Z</time></trkpt><trkpt lat="44.1451029" lon="12.1380262"><ele>228.99999999999997</ele><time>2026-04-05T09:45:46.376Z</time></trkpt><trkpt lat="44.1451594" lon="12.1378704"><ele>229.0</ele><time>2026-04-05T09:45:48.376Z</time></trkpt><trkpt lat="44.1452095" lon="12.1377271"><ele>229.0</ele><time>2026-04-05T09:45:50.372Z</time></trkpt><trkpt lat="44.1452662" lon="12.1375893"><ele>229.0</ele><time>2026-04-05T09:45:52.372Z</time></trkpt><trkpt lat="44.1453214" lon="12.1374285"><ele>228.99999999999997</ele><time>2026-04-05T09:45:54.373Z</time></trkpt><trkpt lat="44.1453485" lon="12.1373469"><ele>228.99999999999997</ele><time>2026-04-05T09:45:55.375Z</time></trkpt><trkpt lat="44.145398" lon="12.1371889"><ele>229.0</ele><time>2026-04-05T09:45:57.374Z</time></trkpt><trkpt lat="44.1454516" lon="12.1370308"><ele>229.0</ele><time>2026-04-05T09:45:59.377Z</time></trkpt><trkpt lat="44.145496" lon="12.136873"><ele>231.0</ele><time>2026-04-05T09:46:01.381Z</time></trkpt><trkpt lat="44.1455151" lon="12.1367872"><ele>232.99999999999997</ele><time>2026-04-05T09:46:02.377Z</time></trkpt><trkpt lat="44.1455642" lon="12.136637"><ele>234.99999999999997</ele><time>2026-04-05T09:46:04.375Z</time></trkpt><trkpt lat="44.1456104" lon="12.136491"><ele>237.0</ele><time>2026-04-05T09:46:06.37Z</time></trkpt><trkpt lat="44.1456617" lon="12.1363355"><ele>239.0</ele><time>2026-04-05T09:46:08.383Z</time></trkpt><trkpt lat="44.145709" lon="12.1361896"><ele>234.0</ele><time>2026-04-05T09:46:10.378Z</time></trkpt><trkpt lat="44.145763" lon="12.1360563"><ele>229.0</ele><time>2026-04-05T09:46:12.369Z</time></trkpt><trkpt lat="44.1458036" lon="12.1359034"><ele>224.0</ele><time>2026-04-05T09:46:14.373Z</time></trkpt><trkpt lat="44.1458516" lon="12.1357474"><ele>219.0</ele><time>2026-04-05T09:46:16.374Z</time></trkpt><trkpt lat="44.1458966" lon="12.135595"><ele>219.0</ele><time>2026-04-05T09:46:18.394Z</time></trkpt><trkpt lat="44.1459572" lon="12.1354547"><ele>218.99999999999997</ele><time>2026-04-05T09:46:20.387Z</time></trkpt><trkpt lat="44.14602" lon="12.1353512"><ele>218.99999999999997</ele><time>2026-04-05T09:46:22.385Z</time></trkpt><trkpt lat="44.1461349" lon="12.1353339"><ele>219.0</ele><time>2026-04-05T09:46:24.373Z</time></trkpt><trkpt lat="44.1462471" lon="12.1353119"><ele>219.0</ele><time>2026-04-05T09:46:26.371Z</time></trkpt><trkpt lat="44.1463555" lon="12.1352964"><ele>219.0</ele><time>2026-04-05T09:46:28.378Z</time></trkpt><trkpt lat="44.1464537" lon="12.1352706"><ele>219.0</ele><time>2026-04-05T09:46:30.373Z</time></trkpt><trkpt lat="44.1465433" lon="12.1352427"><ele>219.0</ele><time>2026-04-05T09:46:32.374Z</time></trkpt><trkpt lat="44.1466296" lon="12.1352209"><ele>219.0</ele><time>2026-04-05T09:46:34.373Z</time></trkpt><trkpt lat="44.1467061" lon="12.1351928"><ele>219.0</ele><time>2026-04-05T09:46:36.384Z</time></trkpt><trkpt lat="44.1467748" lon="12.1351797"><ele>219.0</ele><time>2026-04-05T09:46:38.391Z</time></trkpt><trkpt lat="44.1468575" lon="12.1351602"><ele>219.6</ele><time>2026-04-05T09:46:40.377Z</time></trkpt><trkpt lat="44.1469557" lon="12.1351233"><ele>220.2</ele><time>2026-04-05T09:46:42.37Z</time></trkpt><trkpt lat="44.1470683" lon="12.1350874"><ele>220.79999999999998</ele><time>2026-04-05T09:46:44.37Z</time></trkpt><trkpt lat="44.147171" lon="12.135058"><ele>221.39999999999998</ele><time>2026-04-05T09:46:46.367Z</time></trkpt><trkpt lat="44.147266" lon="12.1350403"><ele>222.0</ele><time>2026-04-05T09:46:48.382Z</time></trkpt><trkpt lat="44.1473599" lon="12.1350103"><ele>221.39999999999998</ele><time>2026-04-05T09:46:50.363Z</time></trkpt><trkpt lat="44.1474516" lon="12.134994"><ele>220.79999999999998</ele><time>2026-04-05T09:46:52.366Z</time></trkpt><trkpt lat="44.1475488" lon="12.1349622"><ele>220.2</ele><time>2026-04-05T09:46:54.361Z</time></trkpt><trkpt lat="44.1476553" lon="12.1349417"><ele>219.6</ele><time>2026-04-05T09:46:56.362Z</time></trkpt><trkpt lat="44.1477636" lon="12.1349412"><ele>219.0</ele><time>2026-04-05T09:46:58.378Z</time></trkpt><trkpt lat="44.1478608" lon="12.1349493"><ele>219.0</ele><time>2026-04-05T09:47:00.375Z</time></trkpt><trkpt lat="44.1479636" lon="12.1349502"><ele>218.99999999999997</ele><time>2026-04-05T09:47:02.362Z</time></trkpt><trkpt lat="44.1480678" lon="12.1349443"><ele>218.99999999999997</ele><time>2026-04-05T09:47:04.365Z</time></trkpt><trkpt lat="44.1481731" lon="12.1349075"><ele>219.0</ele><time>2026-04-05T09:47:06.361Z</time></trkpt><trkpt lat="44.1482704" lon="12.1348742"><ele>219.0</ele><time>2026-04-05T09:47:08.374Z</time></trkpt><trkpt lat="44.1483615" lon="12.1348232"><ele>224.6</ele><time>2026-04-05T09:47:10.374Z</time></trkpt><trkpt lat="44.1484606" lon="12.1347723"><ele>230.2</ele><time>2026-04-05T09:47:12.367Z</time></trkpt><trkpt lat="44.14854" lon="12.1347236"><ele>235.79999999999998</ele><time>2026-04-05T09:47:14.374Z</time></trkpt><trkpt lat="44.1486267" lon="12.1346694"><ele>241.39999999999998</ele><time>2026-04-05T09:47:16.373Z</time></trkpt><trkpt lat="44.1487014" lon="12.134603"><ele>247.0</ele><time>2026-04-05T09:47:18.392Z</time></trkpt><trkpt lat="44.1487848" lon="12.1345253"><ele>247.0</ele><time>2026-04-05T09:47:20.374Z</time></trkpt><trkpt lat="44.1488718" lon="12.1344454"><ele>247.0</ele><time>2026-04-05T09:47:22.374Z</time></trkpt><trkpt lat="44.1489461" lon="12.1343445"><ele>247.0</ele><time>2026-04-05T09:47:24.373Z</time></trkpt><trkpt lat="44.1490097" lon="12.1342233"><ele>247.0</ele><time>2026-04-05T09:47:26.368Z</time></trkpt><trkpt lat="44.1490752" lon="12.1341456"><ele>247.0</ele><time>2026-04-05T09:47:28.383Z</time></trkpt><trkpt lat="44.1491204" lon="12.1340715"><ele>246.33333333333331</ele><time>2026-04-05T09:47:30.376Z</time></trkpt><trkpt lat="44.1491661" lon="12.1339772"><ele>245.66666666666666</ele><time>2026-04-05T09:47:32.375Z</time></trkpt><trkpt lat="44.1491989" lon="12.1338763"><ele>245.0</ele><time>2026-04-05T09:47:34.384Z</time></trkpt><trkpt lat="44.1492312" lon="12.133766"><ele>244.33333333333331</ele><time>2026-04-05T09:47:36.382Z</time></trkpt><trkpt lat="44.1492596" lon="12.133674"><ele>243.66666666666666</ele><time>2026-04-05T09:47:38.394Z</time></trkpt><trkpt lat="44.1492993" lon="12.1335654"><ele>243.0</ele><time>2026-04-05T09:47:41.383Z</time></trkpt><trkpt lat="44.1493312" lon="12.1334786"><ele>243.0</ele><time>2026-04-05T09:47:43.385Z</time></trkpt><trkpt lat="44.1493772" lon="12.1333677"><ele>243.0</ele><time>2026-04-05T09:47:46.382Z</time></trkpt><trkpt lat="44.1494077" lon="12.133253"><ele>243.0</ele><time>2026-04-05T09:47:49.383Z</time></trkpt><trkpt lat="44.1494751" lon="12.1331702"><ele>243.0</ele><time>2026-04-05T09:47:52.375Z</time></trkpt><trkpt lat="44.1495645" lon="12.1330828"><ele>243.0</ele><time>2026-04-05T09:47:54.377Z</time></trkpt><trkpt lat="44.1496075" lon="12.1329952"><ele>244.0</ele><time>2026-04-05T09:47:55.368Z</time></trkpt><trkpt lat="44.1496531" lon="12.1329037"><ele>245.0</ele><time>2026-04-05T09:47:56.361Z</time></trkpt><trkpt lat="44.1496892" lon="12.1328023"><ele>246.0</ele><time>2026-04-05T09:47:57.37Z</time></trkpt><trkpt lat="44.1497299" lon="12.1326963"><ele>247.0</ele><time>2026-04-05T09:47:58.381Z</time></trkpt><trkpt lat="44.1497789" lon="12.1326089"><ele>248.0</ele><time>2026-04-05T09:47:59.37Z</time></trkpt><trkpt lat="44.1498326" lon="12.1325283"><ele>249.0</ele><time>2026-04-05T09:48:00.382Z</time></trkpt><trkpt lat="44.1498962" lon="12.1324749"><ele>245.0</ele><time>2026-04-05T09:48:01.369Z</time></trkpt><trkpt lat="44.1499506" lon="12.1324126"><ele>241.0</ele><time>2026-04-05T09:48:02.366Z</time></trkpt><trkpt lat="44.1500063" lon="12.1323412"><ele>237.0</ele><time>2026-04-05T09:48:03.365Z</time></trkpt><trkpt lat="44.1500782" lon="12.1322796"><ele>233.0</ele><time>2026-04-05T09:48:04.363Z</time></trkpt><trkpt lat="44.1501587" lon="12.1322251"><ele>229.0</ele><time>2026-04-05T09:48:05.367Z</time></trkpt><trkpt lat="44.1502277" lon="12.132166"><ele>225.0</ele><time>2026-04-05T09:48:06.369Z</time></trkpt><trkpt lat="44.1502976" lon="12.1320852"><ele>225.0</ele><time>2026-04-05T09:48:07.37Z</time></trkpt><trkpt lat="44.1503716" lon="12.1320058"><ele>225.0</ele><time>2026-04-05T09:48:08.387Z</time></trkpt><trkpt lat="44.1504356" lon="12.1319212"><ele>225.0</ele><time>2026-04-05T09:48:09.373Z</time></trkpt><trkpt lat="44.1505117" lon="12.1318539"><ele>225.0</ele><time>2026-04-05T09:48:10.372Z</time></trkpt><trkpt lat="44.1506051" lon="12.1317909"><ele>225.0</ele><time>2026-04-05T09:48:11.371Z</time></trkpt><trkpt lat="44.1507016" lon="12.131733"><ele>220.2</ele><time>2026-04-05T09:48:12.375Z</time></trkpt><trkpt lat="44.1507991" lon="12.1316771"><ele>215.4</ele><time>2026-04-05T09:48:13.382Z</time></trkpt><trkpt lat="44.1508934" lon="12.1316195"><ele>210.60000000000002</ele><time>2026-04-05T09:48:14.379Z</time></trkpt><trkpt lat="44.1509884" lon="12.131567"><ele>205.8</ele><time>2026-04-05T09:48:15.376Z</time></trkpt><trkpt lat="44.1510785" lon="12.1315332"><ele>201.0</ele><time>2026-04-05T09:48:16.374Z</time></trkpt><trkpt lat="44.1511721" lon="12.1315076"><ele>199.5</ele><time>2026-04-05T09:48:17.375Z</time></trkpt><trkpt lat="44.1512726" lon="12.1314959"><ele>198.0</ele><time>2026-04-05T09:48:18.391Z</time></trkpt><trkpt lat="44.1513652" lon="12.1314742"><ele>196.5</ele><time>2026-04-05T09:48:19.374Z</time></trkpt><trkpt lat="44.15145" lon="12.131444"><ele>195.0</ele><time>2026-04-05T09:48:20.375Z</time></trkpt><trkpt lat="44.1515289" lon="12.1314095"><ele>193.5</ele><time>2026-04-05T09:48:21.375Z</time></trkpt><trkpt lat="44.1515957" lon="12.131361"><ele>192.0</ele><time>2026-04-05T09:48:22.378Z</time></trkpt><trkpt lat="44.1516" lon="12.1312402"><ele>189.66666666666666</ele><time>2026-04-05T09:48:24.375Z</time></trkpt><trkpt lat="44.1515515" lon="12.1311677"><ele>187.33333333333334</ele><time>2026-04-05T09:48:25.374Z</time></trkpt><trkpt lat="44.1516144" lon="12.1311803"><ele>185.0</ele><time>2026-04-05T09:48:29.385Z</time></trkpt><trkpt lat="44.1516436" lon="12.1312666"><ele>182.66666666666669</ele><time>2026-04-05T09:48:30.378Z</time></trkpt><trkpt lat="44.1516736" lon="12.1313773"><ele>180.33333333333334</ele><time>2026-04-05T09:48:31.387Z</time></trkpt><trkpt lat="44.1517058" lon="12.1315025"><ele>178.0</ele><time>2026-04-05T09:48:32.377Z</time></trkpt><trkpt lat="44.1517223" lon="12.1316491"><ele>178.0</ele><time>2026-04-05T09:48:33.369Z</time></trkpt><trkpt lat="44.1517223" lon="12.1318089"><ele>178.0</ele><time>2026-04-05T09:48:34.371Z</time></trkpt><trkpt lat="44.1517071" lon="12.1319779"><ele>178.0</ele><time>2026-04-05T09:48:35.372Z</time></trkpt><trkpt lat="44.1516744" lon="12.13215"><ele>178.0</ele><time>2026-04-05T09:48:36.369Z</time></trkpt><trkpt lat="44.1516495" lon="12.1323259"><ele>175.75</ele><time>2026-04-05T09:48:37.368Z</time></trkpt><trkpt lat="44.1516367" lon="12.1325123"><ele>173.5</ele><time>2026-04-05T09:48:38.391Z</time></trkpt><trkpt lat="44.1516264" lon="12.1327027"><ele>171.25</ele><time>2026-04-05T09:48:39.373Z</time></trkpt><trkpt lat="44.1516047" lon="12.1328771"><ele>169.0</ele><time>2026-04-05T09:48:40.374Z</time></trkpt><trkpt lat="44.1515659" lon="12.1330096"><ele>169.0</ele><time>2026-04-05T09:48:41.376Z</time></trkpt><trkpt lat="44.1515333" lon="12.1330917"><ele>169.0</ele><time>2026-04-05T09:48:42.379Z</time></trkpt><trkpt lat="44.151557" lon="12.1330029"><ele>169.0</ele><time>2026-04-05T09:48:46.381Z</time></trkpt><trkpt lat="44.1515966" lon="12.1329318"><ele>169.0</ele><time>2026-04-05T09:48:47.391Z</time></trkpt><trkpt lat="44.1516398" lon="12.1328611"><ele>169.0</ele><time>2026-04-05T09:48:48.385Z</time></trkpt><trkpt lat="44.1516835" lon="12.1327867"><ele>169.0</ele><time>2026-04-05T09:48:49.377Z</time></trkpt><trkpt lat="44.1517228" lon="12.1327045"><ele>169.0</ele><time>2026-04-05T09:48:50.393Z</time></trkpt><trkpt lat="44.1517637" lon="12.1326185"><ele>169.0</ele><time>2026-04-05T09:48:51.385Z</time></trkpt><trkpt lat="44.151809" lon="12.132526"><ele>169.0</ele><time>2026-04-05T09:48:52.382Z</time></trkpt><trkpt lat="44.1518561" lon="12.1324324"><ele>169.0</ele><time>2026-04-05T09:48:53.375Z</time></trkpt><trkpt lat="44.1519073" lon="12.1323304"><ele>169.0</ele><time>2026-04-05T09:48:54.372Z</time></trkpt><trkpt lat="44.1519733" lon="12.1322455"><ele>169.0</ele><time>2026-04-05T09:48:55.381Z</time></trkpt><trkpt lat="44.1520586" lon="12.1321837"><ele>169.0</ele><time>2026-04-05T09:48:56.374Z</time></trkpt><trkpt lat="44.1521543" lon="12.1321303"><ele>171.25</ele><time>2026-04-05T09:48:57.369Z</time></trkpt><trkpt lat="44.1522638" lon="12.1320996"><ele>173.5</ele><time>2026-04-05T09:48:58.386Z</time></trkpt><trkpt lat="44.1523821" lon="12.1320706"><ele>175.75</ele><time>2026-04-05T09:48:59.375Z</time></trkpt><trkpt lat="44.1524899" lon="12.1320214"><ele>178.0</ele><time>2026-04-05T09:49:00.375Z</time></trkpt><trkpt lat="44.1525928" lon="12.1319445"><ele>171.5</ele><time>2026-04-05T09:49:01.377Z</time></trkpt><trkpt lat="44.1526805" lon="12.131835"><ele>165.0</ele><time>2026-04-05T09:49:02.377Z</time></trkpt><trkpt lat="44.1527486" lon="12.131702"><ele>158.5</ele><time>2026-04-05T09:49:03.384Z</time></trkpt><trkpt lat="44.1528201" lon="12.1315709"><ele>152.0</ele><time>2026-04-05T09:49:04.374Z</time></trkpt><trkpt lat="44.1528958" lon="12.1314365"><ele>151.0</ele><time>2026-04-05T09:49:05.377Z</time></trkpt><trkpt lat="44.1529759" lon="12.1312978"><ele>150.0</ele><time>2026-04-05T09:49:06.384Z</time></trkpt><trkpt lat="44.1530546" lon="12.1311562"><ele>149.0</ele><time>2026-04-05T09:49:07.375Z</time></trkpt><trkpt lat="44.1531419" lon="12.1310204"><ele>148.0</ele><time>2026-04-05T09:49:08.376Z</time></trkpt><trkpt lat="44.1532426" lon="12.1308917"><ele>144.25</ele><time>2026-04-05T09:49:09.384Z</time></trkpt><trkpt lat="44.1533509" lon="12.1307728"><ele>140.5</ele><time>2026-04-05T09:49:10.375Z</time></trkpt><trkpt lat="44.1534636" lon="12.1306569"><ele>136.75</ele><time>2026-04-05T09:49:11.378Z</time></trkpt><trkpt lat="44.1535888" lon="12.1305427"><ele>133.0</ele><time>2026-04-05T09:49:12.374Z</time></trkpt><trkpt lat="44.1537158" lon="12.130437"><ele>132.0</ele><time>2026-04-05T09:49:13.376Z</time></trkpt><trkpt lat="44.1538463" lon="12.1303389"><ele>131.0</ele><time>2026-04-05T09:49:14.37Z</time></trkpt><trkpt lat="44.1539769" lon="12.1302524"><ele>130.0</ele><time>2026-04-05T09:49:15.375Z</time></trkpt><trkpt lat="44.1540981" lon="12.1301937"><ele>129.0</ele><time>2026-04-05T09:49:16.372Z</time></trkpt><trkpt lat="44.1542072" lon="12.1301313"><ele>127.5</ele><time>2026-04-05T09:49:17.376Z</time></trkpt><trkpt lat="44.1542829" lon="12.1300843"><ele>126.0</ele><time>2026-04-05T09:49:18.374Z</time></trkpt><trkpt lat="44.154356" lon="12.1300561"><ele>124.5</ele><time>2026-04-05T09:49:19.376Z</time></trkpt><trkpt lat="44.1544157" lon="12.1299653"><ele>123.0</ele><time>2026-04-05T09:49:21.375Z</time></trkpt><trkpt lat="44.1544752" lon="12.1298805"><ele>121.5</ele><time>2026-04-05T09:49:23.378Z</time></trkpt><trkpt lat="44.1545554" lon="12.1298349"><ele>120.0</ele><time>2026-04-05T09:49:25.384Z</time></trkpt><trkpt lat="44.1546679" lon="12.1298266"><ele>119.57142857142858</ele><time>2026-04-05T09:49:27.38Z</time></trkpt><trkpt lat="44.1547382" lon="12.1298092"><ele>119.14285714285714</ele><time>2026-04-05T09:49:28.377Z</time></trkpt><trkpt lat="44.1548049" lon="12.12978"><ele>118.71428571428572</ele><time>2026-04-05T09:49:29.381Z</time></trkpt><trkpt lat="44.1548713" lon="12.1297388"><ele>118.28571428571429</ele><time>2026-04-05T09:49:30.376Z</time></trkpt><trkpt lat="44.1549358" lon="12.1296947"><ele>117.85714285714286</ele><time>2026-04-05T09:49:31.391Z</time></trkpt><trkpt lat="44.1549965" lon="12.1296632"><ele>117.42857142857143</ele><time>2026-04-05T09:49:32.379Z</time></trkpt><trkpt lat="44.1550586" lon="12.129633"><ele>117.0</ele><time>2026-04-05T09:49:33.38Z</time></trkpt><trkpt lat="44.1551203" lon="12.1296039"><ele>117.0</ele><time>2026-04-05T09:49:34.378Z</time></trkpt><trkpt lat="44.155181" lon="12.1295732"><ele>117.0</ele><time>2026-04-05T09:49:35.379Z</time></trkpt><trkpt lat="44.1552998" lon="12.1295185"><ele>117.0</ele><time>2026-04-05T09:49:37.379Z</time></trkpt><trkpt lat="44.1554185" lon="12.1294697"><ele>117.0</ele><time>2026-04-05T09:49:39.38Z</time></trkpt><trkpt lat="44.1554816" lon="12.129439"><ele>117.0</ele><time>2026-04-05T09:49:40.373Z</time></trkpt><trkpt lat="44.1555414" lon="12.1294115"><ele>117.0</ele><time>2026-04-05T09:49:41.386Z</time></trkpt><trkpt lat="44.1556593" lon="12.1293619"><ele>117.5</ele><time>2026-04-05T09:49:43.378Z</time></trkpt><trkpt lat="44.1557743" lon="12.1293123"><ele>118.0</ele><time>2026-04-05T09:49:45.382Z</time></trkpt><trkpt lat="44.1558845" lon="12.1292619"><ele>118.5</ele><time>2026-04-05T09:49:47.378Z</time></trkpt><trkpt lat="44.155995" lon="12.1292209"><ele>119.0</ele><time>2026-04-05T09:49:49.381Z</time></trkpt><trkpt lat="44.1561056" lon="12.1291806"><ele>119.0</ele><time>2026-04-05T09:49:51.375Z</time></trkpt><trkpt lat="44.1562195" lon="12.1291409"><ele>119.0</ele><time>2026-04-05T09:49:53.377Z</time></trkpt><trkpt lat="44.1563362" lon="12.1291059"><ele>119.0</ele><time>2026-04-05T09:49:55.393Z</time></trkpt><trkpt lat="44.1564521" lon="12.1290799"><ele>119.0</ele><time>2026-04-05T09:49:57.381Z</time></trkpt><trkpt lat="44.1565673" lon="12.1290593"><ele>119.6</ele><time>2026-04-05T09:49:59.381Z</time></trkpt><trkpt lat="44.156691" lon="12.1290322"><ele>120.2</ele><time>2026-04-05T09:50:01.379Z</time></trkpt><trkpt lat="44.156756" lon="12.1290146"><ele>120.79999999999998</ele><time>2026-04-05T09:50:02.381Z</time></trkpt><trkpt lat="44.1568171" lon="12.1289924"><ele>121.39999999999999</ele><time>2026-04-05T09:50:03.381Z</time></trkpt><trkpt lat="44.156927" lon="12.1289563"><ele>122.0</ele><time>2026-04-05T09:50:05.379Z</time></trkpt><trkpt lat="44.1570383" lon="12.1289229"><ele>121.99999999999999</ele><time>2026-04-05T09:50:07.376Z</time></trkpt><trkpt lat="44.1571586" lon="12.128883"><ele>122.0</ele><time>2026-04-05T09:50:09.382Z</time></trkpt><trkpt lat="44.157227" lon="12.1288548"><ele>122.0</ele><time>2026-04-05T09:50:10.379Z</time></trkpt><trkpt lat="44.157296" lon="12.1288256"><ele>122.0</ele><time>2026-04-05T09:50:11.385Z</time></trkpt><trkpt lat="44.1573669" lon="12.1287844"><ele>121.99999999999999</ele><time>2026-04-05T09:50:12.38Z</time></trkpt><trkpt lat="44.1574401" lon="12.1287356"><ele>122.0</ele><time>2026-04-05T09:50:13.38Z</time></trkpt><trkpt lat="44.1575167" lon="12.1286823"><ele>121.0</ele><time>2026-04-05T09:50:14.384Z</time></trkpt><trkpt lat="44.1576012" lon="12.1286261"><ele>119.99999999999999</ele><time>2026-04-05T09:50:15.383Z</time></trkpt><trkpt lat="44.1576867" lon="12.1285697"><ele>118.99999999999999</ele><time>2026-04-05T09:50:16.381Z</time></trkpt><trkpt lat="44.1577721" lon="12.1285124"><ele>118.0</ele><time>2026-04-05T09:50:17.392Z</time></trkpt><trkpt lat="44.1578599" lon="12.1284528"><ele>117.0</ele><time>2026-04-05T09:50:18.381Z</time></trkpt><trkpt lat="44.1579479" lon="12.1283859"><ele>117.0</ele><time>2026-04-05T09:50:19.381Z</time></trkpt><trkpt lat="44.1580377" lon="12.1283176"><ele>116.99999999999999</ele><time>2026-04-05T09:50:20.378Z</time></trkpt><trkpt lat="44.1581265" lon="12.1282482"><ele>116.99999999999999</ele><time>2026-04-05T09:50:21.381Z</time></trkpt><trkpt lat="44.1582135" lon="12.128181"><ele>117.0</ele><time>2026-04-05T09:50:22.382Z</time></trkpt><trkpt lat="44.1583" lon="12.1281165"><ele>117.0</ele><time>2026-04-05T09:50:23.378Z</time></trkpt><trkpt lat="44.1583854" lon="12.1280514"><ele>115.19999999999999</ele><time>2026-04-05T09:50:24.382Z</time></trkpt><trkpt lat="44.1584759" lon="12.127987"><ele>113.39999999999999</ele><time>2026-04-05T09:50:25.383Z</time></trkpt><trkpt lat="44.1585664" lon="12.1279242"><ele>111.60000000000001</ele><time>2026-04-05T09:50:26.38Z</time></trkpt><trkpt lat="44.1586508" lon="12.1278619"><ele>109.80000000000001</ele><time>2026-04-05T09:50:27.389Z</time></trkpt><trkpt lat="44.1587305" lon="12.1277927"><ele>108.0</ele><time>2026-04-05T09:50:28.38Z</time></trkpt><trkpt lat="44.1588108" lon="12.1277198"><ele>108.0</ele><time>2026-04-05T09:50:29.388Z</time></trkpt><trkpt lat="44.158888" lon="12.1276571"><ele>108.0</ele><time>2026-04-05T09:50:30.381Z</time></trkpt><trkpt lat="44.1589648" lon="12.1275912"><ele>108.0</ele><time>2026-04-05T09:50:31.379Z</time></trkpt><trkpt lat="44.1590388" lon="12.1275228"><ele>108.0</ele><time>2026-04-05T09:50:32.384Z</time></trkpt><trkpt lat="44.1591056" lon="12.1274512"><ele>108.0</ele><time>2026-04-05T09:50:33.382Z</time></trkpt><trkpt lat="44.159163" lon="12.1273798"><ele>108.0</ele><time>2026-04-05T09:50:34.376Z</time></trkpt><trkpt lat="44.1592179" lon="12.1273137"><ele>106.33333333333333</ele><time>2026-04-05T09:50:35.382Z</time></trkpt><trkpt lat="44.1592701" lon="12.1272395"><ele>104.66666666666666</ele><time>2026-04-05T09:50:36.378Z</time></trkpt><trkpt lat="44.1593312" lon="12.1271669"><ele>103.0</ele><time>2026-04-05T09:50:37.379Z</time></trkpt><trkpt lat="44.1593958" lon="12.1271017"><ele>101.33333333333333</ele><time>2026-04-05T09:50:38.375Z</time></trkpt><trkpt lat="44.159467" lon="12.1270448"><ele>99.66666666666666</ele><time>2026-04-05T09:50:39.38Z</time></trkpt><trkpt lat="44.1595394" lon="12.1269957"><ele>98.0</ele><time>2026-04-05T09:50:40.376Z</time></trkpt><trkpt lat="44.1596153" lon="12.1269522"><ele>97.99999999999999</ele><time>2026-04-05T09:50:41.371Z</time></trkpt><trkpt lat="44.1596942" lon="12.1269121"><ele>98.0</ele><time>2026-04-05T09:50:42.376Z</time></trkpt><trkpt lat="44.159773" lon="12.1268749"><ele>98.0</ele><time>2026-04-05T09:50:43.381Z</time></trkpt><trkpt lat="44.1598565" lon="12.1268388"><ele>98.0</ele><time>2026-04-05T09:50:44.38Z</time></trkpt><trkpt lat="44.1599433" lon="12.1268068"><ele>97.99999999999999</ele><time>2026-04-05T09:50:45.386Z</time></trkpt><trkpt lat="44.1600305" lon="12.126781"><ele>98.0</ele><time>2026-04-05T09:50:46.379Z</time></trkpt><trkpt lat="44.1601215" lon="12.1267673"><ele>97.49999999999999</ele><time>2026-04-05T09:50:47.383Z</time></trkpt><trkpt lat="44.1602149" lon="12.1267717"><ele>97.0</ele><time>2026-04-05T09:50:48.377Z</time></trkpt><trkpt lat="44.1603091" lon="12.1267938"><ele>96.5</ele><time>2026-04-05T09:50:49.38Z</time></trkpt><trkpt lat="44.1603964" lon="12.1268182"><ele>96.0</ele><time>2026-04-05T09:50:50.378Z</time></trkpt><trkpt lat="44.1604802" lon="12.1268451"><ele>95.5</ele><time>2026-04-05T09:50:51.381Z</time></trkpt><trkpt lat="44.1605603" lon="12.1268705"><ele>95.0</ele><time>2026-04-05T09:50:52.374Z</time></trkpt><trkpt lat="44.1606377" lon="12.1269011"><ele>94.0</ele><time>2026-04-05T09:50:53.382Z</time></trkpt><trkpt lat="44.1607106" lon="12.1269281"><ele>93.0</ele><time>2026-04-05T09:50:54.38Z</time></trkpt><trkpt lat="44.1607836" lon="12.1269609"><ele>92.0</ele><time>2026-04-05T09:50:55.382Z</time></trkpt><trkpt lat="44.1608516" lon="12.1269886"><ele>91.0</ele><time>2026-04-05T09:50:56.379Z</time></trkpt><trkpt lat="44.1609194" lon="12.1270062"><ele>90.0</ele><time>2026-04-05T09:50:57.383Z</time></trkpt><trkpt lat="44.1610344" lon="12.1270332"><ele>89.0</ele><time>2026-04-05T09:50:59.391Z</time></trkpt><trkpt lat="44.1611515" lon="12.1270487"><ele>89.0</ele><time>2026-04-05T09:51:01.38Z</time></trkpt><trkpt lat="44.1612711" lon="12.1270551"><ele>89.0</ele><time>2026-04-05T09:51:03.383Z</time></trkpt><trkpt lat="44.1613352" lon="12.1270636"><ele>89.0</ele><time>2026-04-05T09:51:04.388Z</time></trkpt><trkpt lat="44.161399" lon="12.1270809"><ele>89.0</ele><time>2026-04-05T09:51:05.383Z</time></trkpt><trkpt lat="44.1614624" lon="12.1270975"><ele>89.0</ele><time>2026-04-05T09:51:06.376Z</time></trkpt><trkpt lat="44.1615241" lon="12.1271156"><ele>89.0</ele><time>2026-04-05T09:51:07.376Z</time></trkpt><trkpt lat="44.1616372" lon="12.127177"><ele>89.25</ele><time>2026-04-05T09:51:09.378Z</time></trkpt><trkpt lat="44.1617451" lon="12.127253"><ele>89.5</ele><time>2026-04-05T09:51:11.381Z</time></trkpt><trkpt lat="44.1618542" lon="12.1273157"><ele>89.75</ele><time>2026-04-05T09:51:13.38Z</time></trkpt><trkpt lat="44.1619564" lon="12.127358"><ele>90.0</ele><time>2026-04-05T09:51:15.372Z</time></trkpt><trkpt lat="44.1620605" lon="12.1273452"><ele>90.0</ele><time>2026-04-05T09:51:17.382Z</time></trkpt><trkpt lat="44.1621694" lon="12.1272825"><ele>90.0</ele><time>2026-04-05T09:51:19.393Z</time></trkpt><trkpt lat="44.162277" lon="12.1271982"><ele>90.0</ele><time>2026-04-05T09:51:21.379Z</time></trkpt><trkpt lat="44.1623327" lon="12.1271514"><ele>90.0</ele><time>2026-04-05T09:51:22.381Z</time></trkpt><trkpt lat="44.1623862" lon="12.1271015"><ele>90.0</ele><time>2026-04-05T09:51:23.377Z</time></trkpt><trkpt lat="44.1624405" lon="12.1270526"><ele>90.0</ele><time>2026-04-05T09:51:24.379Z</time></trkpt><trkpt lat="44.1624927" lon="12.1270016"><ele>89.83333333333333</ele><time>2026-04-05T09:51:25.383Z</time></trkpt><trkpt lat="44.1625468" lon="12.1269548"><ele>89.66666666666667</ele><time>2026-04-05T09:51:26.375Z</time></trkpt><trkpt lat="44.1626638" lon="12.1268733"><ele>89.5</ele><time>2026-04-05T09:51:28.38Z</time></trkpt><trkpt lat="44.1627268" lon="12.1268309"><ele>89.33333333333334</ele><time>2026-04-05T09:51:29.377Z</time></trkpt><trkpt lat="44.1627959" lon="12.126791"><ele>89.16666666666667</ele><time>2026-04-05T09:51:30.379Z</time></trkpt><trkpt lat="44.1628709" lon="12.1267515"><ele>89.0</ele><time>2026-04-05T09:51:31.382Z</time></trkpt><trkpt lat="44.1629535" lon="12.1267049"><ele>89.0</ele><time>2026-04-05T09:51:32.373Z</time></trkpt><trkpt lat="44.1630389" lon="12.1266672"><ele>89.0</ele><time>2026-04-05T09:51:33.382Z</time></trkpt><trkpt lat="44.1631257" lon="12.1266296"><ele>89.0</ele><time>2026-04-05T09:51:34.378Z</time></trkpt><trkpt lat="44.1632168" lon="12.1265878"><ele>89.0</ele><time>2026-04-05T09:51:35.38Z</time></trkpt><trkpt lat="44.1633082" lon="12.1265421"><ele>89.0</ele><time>2026-04-05T09:51:36.372Z</time></trkpt><trkpt lat="44.1634066" lon="12.1264939"><ele>86.5</ele><time>2026-04-05T09:51:37.38Z</time></trkpt><trkpt lat="44.1635058" lon="12.1264455"><ele>84.0</ele><time>2026-04-05T09:51:38.374Z</time></trkpt><trkpt lat="44.1636116" lon="12.1263946"><ele>81.5</ele><time>2026-04-05T09:51:39.379Z</time></trkpt><trkpt lat="44.1637227" lon="12.126342"><ele>79.0</ele><time>2026-04-05T09:51:40.375Z</time></trkpt><trkpt lat="44.1638333" lon="12.1262869"><ele>79.0</ele><time>2026-04-05T09:51:41.379Z</time></trkpt><trkpt lat="44.1639461" lon="12.1262322"><ele>79.0</ele><time>2026-04-05T09:51:42.376Z</time></trkpt><trkpt lat="44.16406" lon="12.1261726"><ele>79.0</ele><time>2026-04-05T09:51:43.381Z</time></trkpt><trkpt lat="44.1641758" lon="12.1261058"><ele>79.0</ele><time>2026-04-05T09:51:44.378Z</time></trkpt><trkpt lat="44.1642883" lon="12.1260399"><ele>77.75</ele><time>2026-04-05T09:51:45.374Z</time></trkpt><trkpt lat="44.1644014" lon="12.1259827"><ele>76.5</ele><time>2026-04-05T09:51:46.377Z</time></trkpt><trkpt lat="44.164517" lon="12.1259349"><ele>75.25</ele><time>2026-04-05T09:51:47.373Z</time></trkpt><trkpt lat="44.1646312" lon="12.125905"><ele>74.0</ele><time>2026-04-05T09:51:48.374Z</time></trkpt><trkpt lat="44.1647485" lon="12.1258929"><ele>72.60000000000001</ele><time>2026-04-05T09:51:49.376Z</time></trkpt><trkpt lat="44.1648642" lon="12.1259037"><ele>71.2</ele><time>2026-04-05T09:51:50.377Z</time></trkpt><trkpt lat="44.1649788" lon="12.1259238"><ele>69.80000000000001</ele><time>2026-04-05T09:51:51.372Z</time></trkpt><trkpt lat="44.165084" lon="12.1259672"><ele>68.4</ele><time>2026-04-05T09:51:52.378Z</time></trkpt><trkpt lat="44.1651802" lon="12.1260125"><ele>67.0</ele><time>2026-04-05T09:51:53.382Z</time></trkpt><trkpt lat="44.1652745" lon="12.1260623"><ele>67.0</ele><time>2026-04-05T09:51:54.376Z</time></trkpt><trkpt lat="44.1653659" lon="12.1261082"><ele>67.0</ele><time>2026-04-05T09:51:55.383Z</time></trkpt><trkpt lat="44.1654529" lon="12.1261536"><ele>67.0</ele><time>2026-04-05T09:51:56.379Z</time></trkpt><trkpt lat="44.1655368" lon="12.1261967"><ele>67.0</ele><time>2026-04-05T09:51:57.378Z</time></trkpt><trkpt lat="44.1656202" lon="12.1262423"><ele>67.0</ele><time>2026-04-05T09:51:58.385Z</time></trkpt><trkpt lat="44.1657018" lon="12.1262838"><ele>66.5</ele><time>2026-04-05T09:51:59.38Z</time></trkpt><trkpt lat="44.1657822" lon="12.1263284"><ele>66.0</ele><time>2026-04-05T09:52:00.375Z</time></trkpt><trkpt lat="44.1658591" lon="12.1263677"><ele>65.5</ele><time>2026-04-05T09:52:01.38Z</time></trkpt><trkpt lat="44.1659339" lon="12.1264068"><ele>65.0</ele><time>2026-04-05T09:52:02.38Z</time></trkpt><trkpt lat="44.1660061" lon="12.1264437"><ele>64.5</ele><time>2026-04-05T09:52:03.379Z</time></trkpt><trkpt lat="44.1660821" lon="12.1264755"><ele>64.0</ele><time>2026-04-05T09:52:04.384Z</time></trkpt><trkpt lat="44.1661549" lon="12.1265064"><ele>63.99999999999999</ele><time>2026-04-05T09:52:05.377Z</time></trkpt><trkpt lat="44.1662279" lon="12.1265412"><ele>64.0</ele><time>2026-04-05T09:52:06.375Z</time></trkpt><trkpt lat="44.1662962" lon="12.1265775"><ele>64.0</ele><time>2026-04-05T09:52:07.381Z</time></trkpt><trkpt lat="44.1663668" lon="12.1266089"><ele>64.0</ele><time>2026-04-05T09:52:08.378Z</time></trkpt><trkpt lat="44.1664385" lon="12.1266382"><ele>63.99999999999999</ele><time>2026-04-05T09:52:09.377Z</time></trkpt><trkpt lat="44.1665102" lon="12.1266704"><ele>64.0</ele><time>2026-04-05T09:52:10.377Z</time></trkpt><trkpt lat="44.1665857" lon="12.1267031"><ele>63.83333333333333</ele><time>2026-04-05T09:52:11.382Z</time></trkpt><trkpt lat="44.1666594" lon="12.126739"><ele>63.666666666666664</ele><time>2026-04-05T09:52:12.383Z</time></trkpt><trkpt lat="44.166737" lon="12.1267711"><ele>63.5</ele><time>2026-04-05T09:52:13.387Z</time></trkpt><trkpt lat="44.1668172" lon="12.1268019"><ele>63.33333333333333</ele><time>2026-04-05T09:52:14.381Z</time></trkpt><trkpt lat="44.166895" lon="12.1268258"><ele>63.166666666666664</ele><time>2026-04-05T09:52:15.39Z</time></trkpt><trkpt lat="44.1669713" lon="12.1268602"><ele>63.0</ele><time>2026-04-05T09:52:16.377Z</time></trkpt><trkpt lat="44.1670442" lon="12.126898"><ele>63.0</ele><time>2026-04-05T09:52:17.389Z</time></trkpt><trkpt lat="44.1671206" lon="12.1269323"><ele>63.0</ele><time>2026-04-05T09:52:18.386Z</time></trkpt><trkpt lat="44.1671942" lon="12.1269622"><ele>63.0</ele><time>2026-04-05T09:52:19.388Z</time></trkpt><trkpt lat="44.1672702" lon="12.1269916"><ele>63.0</ele><time>2026-04-05T09:52:20.386Z</time></trkpt><trkpt lat="44.1673503" lon="12.1270219"><ele>63.0</ele><time>2026-04-05T09:52:21.389Z</time></trkpt><trkpt lat="44.1674335" lon="12.1270544"><ele>63.0</ele><time>2026-04-05T09:52:22.383Z</time></trkpt><trkpt lat="44.167516" lon="12.1270902"><ele>62.166666666666664</ele><time>2026-04-05T09:52:23.384Z</time></trkpt><trkpt lat="44.1676017" lon="12.127124"><ele>61.33333333333333</ele><time>2026-04-05T09:52:24.379Z</time></trkpt><trkpt lat="44.1676851" lon="12.127152"><ele>60.5</ele><time>2026-04-05T09:52:25.383Z</time></trkpt><trkpt lat="44.1677675" lon="12.1271819"><ele>59.666666666666664</ele><time>2026-04-05T09:52:26.383Z</time></trkpt><trkpt lat="44.1678469" lon="12.1272118"><ele>58.83333333333333</ele><time>2026-04-05T09:52:27.383Z</time></trkpt><trkpt lat="44.1679211" lon="12.1272402"><ele>58.0</ele><time>2026-04-05T09:52:28.382Z</time></trkpt><trkpt lat="44.168" lon="12.1272642"><ele>57.99999999999999</ele><time>2026-04-05T09:52:29.382Z</time></trkpt><trkpt lat="44.1680787" lon="12.1272853"><ele>58.0</ele><time>2026-04-05T09:52:30.379Z</time></trkpt><trkpt lat="44.168155" lon="12.1273093"><ele>58.0</ele><time>2026-04-05T09:52:31.383Z</time></trkpt><trkpt lat="44.1682274" lon="12.1273295"><ele>58.0</ele><time>2026-04-05T09:52:32.38Z</time></trkpt><trkpt lat="44.1683026" lon="12.1273496"><ele>57.99999999999999</ele><time>2026-04-05T09:52:33.392Z</time></trkpt><trkpt lat="44.1683774" lon="12.1273699"><ele>58.0</ele><time>2026-04-05T09:52:34.379Z</time></trkpt><trkpt lat="44.1684545" lon="12.1273871"><ele>57.42857142857144</ele><time>2026-04-05T09:52:35.383Z</time></trkpt><trkpt lat="44.168529" lon="12.1274093"><ele>56.85714285714286</ele><time>2026-04-05T09:52:36.378Z</time></trkpt><trkpt lat="44.1685994" lon="12.1274317"><ele>56.28571428571429</ele><time>2026-04-05T09:52:37.383Z</time></trkpt><trkpt lat="44.1686688" lon="12.1274554"><ele>55.71428571428572</ele><time>2026-04-05T09:52:38.386Z</time></trkpt><trkpt lat="44.1687357" lon="12.1274861"><ele>55.14285714285714</ele><time>2026-04-05T09:52:39.38Z</time></trkpt><trkpt lat="44.1687985" lon="12.127515"><ele>54.57142857142857</ele><time>2026-04-05T09:52:40.378Z</time></trkpt><trkpt lat="44.1688632" lon="12.1275409"><ele>54.0</ele><time>2026-04-05T09:52:41.378Z</time></trkpt><trkpt lat="44.1689271" lon="12.127567"><ele>54.0</ele><time>2026-04-05T09:52:42.374Z</time></trkpt><trkpt lat="44.1689907" lon="12.127587"><ele>54.0</ele><time>2026-04-05T09:52:43.373Z</time></trkpt><trkpt lat="44.1690534" lon="12.1276055"><ele>54.0</ele><time>2026-04-05T09:52:44.38Z</time></trkpt><trkpt lat="44.1691165" lon="12.1276204"><ele>54.0</ele><time>2026-04-05T09:52:45.381Z</time></trkpt><trkpt lat="44.1691821" lon="12.1276326"><ele>54.0</ele><time>2026-04-05T09:52:46.379Z</time></trkpt><trkpt lat="44.1692469" lon="12.1276423"><ele>54.0</ele><time>2026-04-05T09:52:47.381Z</time></trkpt><trkpt lat="44.1693638" lon="12.1276749"><ele>54.0</ele><time>2026-04-05T09:52:49.382Z</time></trkpt><trkpt lat="44.1694804" lon="12.1277102"><ele>54.0</ele><time>2026-04-05T09:52:51.383Z</time></trkpt><trkpt lat="44.169545" lon="12.1277228"><ele>54.0</ele><time>2026-04-05T09:52:52.382Z</time></trkpt><trkpt lat="44.1696693" lon="12.1277444"><ele>54.0</ele><time>2026-04-05T09:52:54.379Z</time></trkpt><trkpt lat="44.1697329" lon="12.1277703"><ele>54.0</ele><time>2026-04-05T09:52:55.375Z</time></trkpt><trkpt lat="44.1697971" lon="12.1278125"><ele>54.0</ele><time>2026-04-05T09:52:56.379Z</time></trkpt><trkpt lat="44.1698607" lon="12.127845"><ele>54.0</ele><time>2026-04-05T09:52:57.384Z</time></trkpt><trkpt lat="44.1699238" lon="12.1278786"><ele>53.57142857142857</ele><time>2026-04-05T09:52:58.385Z</time></trkpt><trkpt lat="44.1699896" lon="12.1279084"><ele>53.14285714285714</ele><time>2026-04-05T09:52:59.383Z</time></trkpt><trkpt lat="44.1700555" lon="12.1279383"><ele>52.714285714285715</ele><time>2026-04-05T09:53:00.381Z</time></trkpt><trkpt lat="44.1701202" lon="12.1279668"><ele>52.285714285714285</ele><time>2026-04-05T09:53:01.382Z</time></trkpt><trkpt lat="44.1701865" lon="12.1280009"><ele>51.85714285714286</ele><time>2026-04-05T09:53:02.377Z</time></trkpt><trkpt lat="44.1702547" lon="12.128037"><ele>51.42857142857143</ele><time>2026-04-05T09:53:03.387Z</time></trkpt><trkpt lat="44.1703244" lon="12.1280701"><ele>51.0</ele><time>2026-04-05T09:53:04.377Z</time></trkpt><trkpt lat="44.1703967" lon="12.128106"><ele>51.0</ele><time>2026-04-05T09:53:05.381Z</time></trkpt><trkpt lat="44.170465" lon="12.128146"><ele>51.0</ele><time>2026-04-05T09:53:06.379Z</time></trkpt><trkpt lat="44.1705383" lon="12.128187"><ele>51.0</ele><time>2026-04-05T09:53:07.383Z</time></trkpt><trkpt lat="44.1706118" lon="12.1282237"><ele>51.0</ele><time>2026-04-05T09:53:08.382Z</time></trkpt><trkpt lat="44.1706846" lon="12.1282608"><ele>51.0</ele><time>2026-04-05T09:53:09.38Z</time></trkpt><trkpt lat="44.1707605" lon="12.1282953"><ele>51.0</ele><time>2026-04-05T09:53:10.387Z</time></trkpt><trkpt lat="44.1708409" lon="12.1283294"><ele>50.5</ele><time>2026-04-05T09:53:11.38Z</time></trkpt><trkpt lat="44.1709219" lon="12.1283698"><ele>50.0</ele><time>2026-04-05T09:53:12.374Z</time></trkpt><trkpt lat="44.1710014" lon="12.1284134"><ele>49.5</ele><time>2026-04-05T09:53:13.376Z</time></trkpt><trkpt lat="44.1710815" lon="12.1284594"><ele>49.0</ele><time>2026-04-05T09:53:14.378Z</time></trkpt><trkpt lat="44.1711644" lon="12.1284971"><ele>48.5</ele><time>2026-04-05T09:53:15.38Z</time></trkpt><trkpt lat="44.1712498" lon="12.128534"><ele>48.0</ele><time>2026-04-05T09:53:16.375Z</time></trkpt><trkpt lat="44.1713346" lon="12.1285681"><ele>48.0</ele><time>2026-04-05T09:53:17.393Z</time></trkpt><trkpt lat="44.1714193" lon="12.1286078"><ele>48.0</ele><time>2026-04-05T09:53:18.38Z</time></trkpt><trkpt lat="44.171506" lon="12.1286497"><ele>48.0</ele><time>2026-04-05T09:53:19.381Z</time></trkpt><trkpt lat="44.1715961" lon="12.128688"><ele>48.0</ele><time>2026-04-05T09:53:20.379Z</time></trkpt><trkpt lat="44.1716822" lon="12.1287288"><ele>48.0</ele><time>2026-04-05T09:53:21.38Z</time></trkpt><trkpt lat="44.1717697" lon="12.1287617"><ele>46.4</ele><time>2026-04-05T09:53:22.389Z</time></trkpt><trkpt lat="44.171854" lon="12.128795"><ele>44.8</ele><time>2026-04-05T09:53:23.379Z</time></trkpt><trkpt lat="44.1719384" lon="12.1288282"><ele>43.2</ele><time>2026-04-05T09:53:24.381Z</time></trkpt><trkpt lat="44.1720313" lon="12.1288566"><ele>41.6</ele><time>2026-04-05T09:53:25.38Z</time></trkpt><trkpt lat="44.1721202" lon="12.1289017"><ele>40.0</ele><time>2026-04-05T09:53:26.377Z</time></trkpt><trkpt lat="44.1722024" lon="12.1289611"><ele>40.0</ele><time>2026-04-05T09:53:27.379Z</time></trkpt><trkpt lat="44.1722842" lon="12.1290177"><ele>40.0</ele><time>2026-04-05T09:53:28.38Z</time></trkpt><trkpt lat="44.1723671" lon="12.1290684"><ele>40.0</ele><time>2026-04-05T09:53:29.382Z</time></trkpt><trkpt lat="44.1724533" lon="12.1291108"><ele>40.0</ele><time>2026-04-05T09:53:30.378Z</time></trkpt><trkpt lat="44.1725382" lon="12.1291484"><ele>40.0</ele><time>2026-04-05T09:53:31.384Z</time></trkpt><trkpt lat="44.1726198" lon="12.1291821"><ele>40.0</ele><time>2026-04-05T09:53:32.378Z</time></trkpt><trkpt lat="44.1727037" lon="12.1292163"><ele>38.66666666666667</ele><time>2026-04-05T09:53:33.38Z</time></trkpt><trkpt lat="44.1727851" lon="12.1292518"><ele>37.333333333333336</ele><time>2026-04-05T09:53:34.379Z</time></trkpt><trkpt lat="44.1728695" lon="12.1292891"><ele>36.0</ele><time>2026-04-05T09:53:35.38Z</time></trkpt><trkpt lat="44.1729504" lon="12.1293304"><ele>34.666666666666664</ele><time>2026-04-05T09:53:36.381Z</time></trkpt><trkpt lat="44.1730329" lon="12.1293725"><ele>33.33333333333333</ele><time>2026-04-05T09:53:37.38Z</time></trkpt><trkpt lat="44.1731134" lon="12.1294135"><ele>32.0</ele><time>2026-04-05T09:53:38.378Z</time></trkpt><trkpt lat="44.1731929" lon="12.1294478"><ele>31.666666666666664</ele><time>2026-04-05T09:53:39.379Z</time></trkpt><trkpt lat="44.1732681" lon="12.1294803"><ele>31.333333333333332</ele><time>2026-04-05T09:53:40.378Z</time></trkpt><trkpt lat="44.1733424" lon="12.1295147"><ele>31.0</ele><time>2026-04-05T09:53:41.375Z</time></trkpt><trkpt lat="44.1734137" lon="12.1295556"><ele>30.666666666666664</ele><time>2026-04-05T09:53:42.377Z</time></trkpt><trkpt lat="44.1734844" lon="12.1295929"><ele>30.333333333333332</ele><time>2026-04-05T09:53:43.378Z</time></trkpt><trkpt lat="44.173551" lon="12.1296292"><ele>30.0</ele><time>2026-04-05T09:53:44.377Z</time></trkpt><trkpt lat="44.1736147" lon="12.1296666"><ele>30.0</ele><time>2026-04-05T09:53:45.389Z</time></trkpt><trkpt lat="44.1736781" lon="12.1297001"><ele>30.0</ele><time>2026-04-05T09:53:46.378Z</time></trkpt><trkpt lat="44.1737396" lon="12.1297336"><ele>30.0</ele><time>2026-04-05T09:53:47.382Z</time></trkpt><trkpt lat="44.1738024" lon="12.1297676"><ele>30.0</ele><time>2026-04-05T09:53:48.38Z</time></trkpt><trkpt lat="44.1738653" lon="12.1298019"><ele>30.0</ele><time>2026-04-05T09:53:49.382Z</time></trkpt><trkpt lat="44.1739268" lon="12.1298326"><ele>30.0</ele><time>2026-04-05T09:53:50.392Z</time></trkpt><trkpt lat="44.1739907" lon="12.1298639"><ele>30.0</ele><time>2026-04-05T09:53:51.381Z</time></trkpt><trkpt lat="44.1740508" lon="12.1298973"><ele>29.8</ele><time>2026-04-05T09:53:52.38Z</time></trkpt><trkpt lat="44.1741094" lon="12.1299319"><ele>29.6</ele><time>2026-04-05T09:53:53.382Z</time></trkpt><trkpt lat="44.1741675" lon="12.1299657"><ele>29.4</ele><time>2026-04-05T09:53:54.379Z</time></trkpt><trkpt lat="44.1742741" lon="12.1300405"><ele>29.2</ele><time>2026-04-05T09:53:56.38Z</time></trkpt><trkpt lat="44.174378" lon="12.1301206"><ele>29.0</ele><time>2026-04-05T09:53:58.386Z</time></trkpt><trkpt lat="44.1744869" lon="12.1301932"><ele>29.0</ele><time>2026-04-05T09:54:00.39Z</time></trkpt><trkpt lat="44.1745936" lon="12.1302703"><ele>29.0</ele><time>2026-04-05T09:54:02.379Z</time></trkpt><trkpt lat="44.1747025" lon="12.130339"><ele>29.0</ele><time>2026-04-05T09:54:04.377Z</time></trkpt><trkpt lat="44.1748071" lon="12.1304094"><ele>29.0</ele><time>2026-04-05T09:54:06.378Z</time></trkpt><trkpt lat="44.1748642" lon="12.130448"><ele>29.0</ele><time>2026-04-05T09:54:07.39Z</time></trkpt><trkpt lat="44.1749771" lon="12.1305247"><ele>29.0</ele><time>2026-04-05T09:54:09.378Z</time></trkpt><trkpt lat="44.1750834" lon="12.1306021"><ele>29.0</ele><time>2026-04-05T09:54:11.375Z</time></trkpt><trkpt lat="44.1751413" lon="12.1306386"><ele>29.0</ele><time>2026-04-05T09:54:12.369Z</time></trkpt><trkpt lat="44.17525" lon="12.1307151"><ele>29.0</ele><time>2026-04-05T09:54:14.372Z</time></trkpt><trkpt lat="44.1753079" lon="12.1307543"><ele>29.0</ele><time>2026-04-05T09:54:15.386Z</time></trkpt><trkpt lat="44.1754151" lon="12.1308418"><ele>29.4</ele><time>2026-04-05T09:54:17.378Z</time></trkpt><trkpt lat="44.1755226" lon="12.130923"><ele>29.799999999999997</ele><time>2026-04-05T09:54:19.375Z</time></trkpt><trkpt lat="44.175627" lon="12.1309934"><ele>30.200000000000003</ele><time>2026-04-05T09:54:21.376Z</time></trkpt><trkpt lat="44.1757357" lon="12.1310511"><ele>30.6</ele><time>2026-04-05T09:54:23.378Z</time></trkpt><trkpt lat="44.175792" lon="12.1310913"><ele>31.0</ele><time>2026-04-05T09:54:24.375Z</time></trkpt><trkpt lat="44.1758465" lon="12.1311359"><ele>31.000000000000004</ele><time>2026-04-05T09:54:25.381Z</time></trkpt><trkpt lat="44.1759034" lon="12.1311814"><ele>31.0</ele><time>2026-04-05T09:54:26.378Z</time></trkpt><trkpt lat="44.1759632" lon="12.1312248"><ele>31.0</ele><time>2026-04-05T09:54:27.389Z</time></trkpt><trkpt lat="44.1760205" lon="12.1312632"><ele>31.0</ele><time>2026-04-05T09:54:28.378Z</time></trkpt><trkpt lat="44.1761331" lon="12.1313399"><ele>31.000000000000004</ele><time>2026-04-05T09:54:30.384Z</time></trkpt><trkpt lat="44.176191" lon="12.1313797"><ele>31.0</ele><time>2026-04-05T09:54:31.383Z</time></trkpt><trkpt lat="44.1762476" lon="12.1314189"><ele>31.0</ele><time>2026-04-05T09:54:32.379Z</time></trkpt><trkpt lat="44.1763577" lon="12.1314917"><ele>31.0</ele><time>2026-04-05T09:54:34.379Z</time></trkpt><trkpt lat="44.176468" lon="12.1315627"><ele>31.0</ele><time>2026-04-05T09:54:36.38Z</time></trkpt><trkpt lat="44.1765757" lon="12.1316338"><ele>31.0</ele><time>2026-04-05T09:54:38.38Z</time></trkpt><trkpt lat="44.1766814" lon="12.1317175"><ele>30.6</ele><time>2026-04-05T09:54:40.379Z</time></trkpt><trkpt lat="44.1767389" lon="12.131756"><ele>30.200000000000003</ele><time>2026-04-05T09:54:41.38Z</time></trkpt><trkpt lat="44.1768498" lon="12.131826"><ele>29.799999999999997</ele><time>2026-04-05T09:54:43.381Z</time></trkpt><trkpt lat="44.1769633" lon="12.1318994"><ele>29.4</ele><time>2026-04-05T09:54:45.381Z</time></trkpt><trkpt lat="44.1770703" lon="12.1319798"><ele>29.0</ele><time>2026-04-05T09:54:47.393Z</time></trkpt><trkpt lat="44.1771275" lon="12.1320211"><ele>29.0</ele><time>2026-04-05T09:54:48.391Z</time></trkpt><trkpt lat="44.1772396" lon="12.1320994"><ele>29.0</ele><time>2026-04-05T09:54:50.398Z</time></trkpt><trkpt lat="44.1772968" lon="12.1321394"><ele>29.0</ele><time>2026-04-05T09:54:51.39Z</time></trkpt><trkpt lat="44.1774045" lon="12.13222"><ele>29.0</ele><time>2026-04-05T09:54:53.395Z</time></trkpt><trkpt lat="44.1775115" lon="12.1322931"><ele>29.0</ele><time>2026-04-05T09:54:55.405Z</time></trkpt><trkpt lat="44.1776242" lon="12.1323716"><ele>29.25</ele><time>2026-04-05T09:54:57.388Z</time></trkpt><trkpt lat="44.177733" lon="12.1324485"><ele>29.5</ele><time>2026-04-05T09:54:59.391Z</time></trkpt><trkpt lat="44.1778402" lon="12.1325252"><ele>29.75</ele><time>2026-04-05T09:55:01.388Z</time></trkpt><trkpt lat="44.1779407" lon="12.1326075"><ele>30.0</ele><time>2026-04-05T09:55:03.388Z</time></trkpt><trkpt lat="44.1780433" lon="12.1326904"><ele>30.0</ele><time>2026-04-05T09:55:05.39Z</time></trkpt><trkpt lat="44.1781518" lon="12.1327644"><ele>30.0</ele><time>2026-04-05T09:55:07.393Z</time></trkpt><trkpt lat="44.1782582" lon="12.132839"><ele>30.0</ele><time>2026-04-05T09:55:09.405Z</time></trkpt><trkpt lat="44.1783693" lon="12.1329121"><ele>30.0</ele><time>2026-04-05T09:55:11.391Z</time></trkpt><trkpt lat="44.178477" lon="12.1329813"><ele>29.75</ele><time>2026-04-05T09:55:13.393Z</time></trkpt><trkpt lat="44.1785822" lon="12.1330572"><ele>29.5</ele><time>2026-04-05T09:55:15.393Z</time></trkpt><trkpt lat="44.1786868" lon="12.1331309"><ele>29.25</ele><time>2026-04-05T09:55:17.394Z</time></trkpt><trkpt lat="44.1787909" lon="12.1332025"><ele>29.0</ele><time>2026-04-05T09:55:19.397Z</time></trkpt><trkpt lat="44.1788935" lon="12.1332751"><ele>28.799999999999997</ele><time>2026-04-05T09:55:21.393Z</time></trkpt><trkpt lat="44.1789932" lon="12.133339"><ele>28.599999999999998</ele><time>2026-04-05T09:55:23.39Z</time></trkpt><trkpt lat="44.1790902" lon="12.1333915"><ele>28.4</ele><time>2026-04-05T09:55:25.395Z</time></trkpt><trkpt lat="44.1791975" lon="12.1334225"><ele>28.2</ele><time>2026-04-05T09:55:27.398Z</time></trkpt><trkpt lat="44.1793114" lon="12.1334653"><ele>28.0</ele><time>2026-04-05T09:55:29.393Z</time></trkpt><trkpt lat="44.1794327" lon="12.1334462"><ele>28.000000000000004</ele><time>2026-04-05T09:55:31.394Z</time></trkpt><trkpt lat="44.1795525" lon="12.1333972"><ele>28.0</ele><time>2026-04-05T09:55:33.398Z</time></trkpt><trkpt lat="44.1796153" lon="12.1333668"><ele>28.0</ele><time>2026-04-05T09:55:34.389Z</time></trkpt><trkpt lat="44.1796773" lon="12.1333506"><ele>28.0</ele><time>2026-04-05T09:55:35.388Z</time></trkpt><trkpt lat="44.1797401" lon="12.1333614"><ele>28.000000000000004</ele><time>2026-04-05T09:55:36.389Z</time></trkpt><trkpt lat="44.1798477" lon="12.1333995"><ele>28.0</ele><time>2026-04-05T09:55:38.387Z</time></trkpt><trkpt lat="44.1799436" lon="12.1333492"><ele>28.0</ele><time>2026-04-05T09:55:40.382Z</time></trkpt><trkpt lat="44.1800504" lon="12.1333279"><ele>28.0</ele><time>2026-04-05T09:55:42.38Z</time></trkpt><trkpt lat="44.1801591" lon="12.1333284"><ele>28.0</ele><time>2026-04-05T09:55:44.378Z</time></trkpt><trkpt lat="44.1802656" lon="12.1333211"><ele>28.0</ele><time>2026-04-05T09:55:46.381Z</time></trkpt><trkpt lat="44.1803723" lon="12.1326268"><ele>29.0</ele><time>2026-04-05T09:55:56.394Z</time></trkpt><trkpt lat="44.1805854" lon="12.1307281"><ele>29.0</ele><time>2026-04-05T09:56:27.389Z</time></trkpt><trkpt lat="44.1811647" lon="12.1290308"><ele>30.0</ele><time>2026-04-05T09:56:56.391Z</time></trkpt><trkpt lat="44.1819907" lon="12.1275189"><ele>30.0</ele><time>2026-04-05T09:57:22.395Z</time></trkpt><trkpt lat="44.1832741" lon="12.1281425"><ele>29.0</ele><time>2026-04-05T09:57:56.396Z</time></trkpt><trkpt lat="44.1844508" lon="12.1291869"><ele>32.0</ele><time>2026-04-05T09:58:22.392Z</time></trkpt><trkpt lat="44.1853958" lon="12.1278371"><ele>32.0</ele><time>2026-04-05T09:58:57.394Z</time></trkpt><trkpt lat="44.1866215" lon="12.1269285"><ele>32.0</ele><time>2026-04-05T09:59:30.407Z</time></trkpt><trkpt lat="44.1879418" lon="12.1264551"><ele>32.0</ele><time>2026-04-05T10:00:27.396Z</time></trkpt><trkpt lat="44.1892834" lon="12.1269138"><ele>30.0</ele><time>2026-04-05T10:00:56.397Z</time></trkpt><trkpt lat="44.1903101" lon="12.1256676"><ele>29.0</ele><time>2026-04-05T10:01:22.401Z</time></trkpt><trkpt lat="44.1912083" lon="12.1242641"><ele>26.0</ele><time>2026-04-05T10:01:51.4Z</time></trkpt><trkpt lat="44.1925998" lon="12.1240027"><ele>27.0</ele><time>2026-04-05T10:02:16.401Z</time></trkpt><trkpt lat="44.1939529" lon="12.1236753"><ele>26.0</ele><time>2026-04-05T10:02:40.402Z</time></trkpt><trkpt lat="44.1953345" lon="12.1233247"><ele>26.0</ele><time>2026-04-05T10:03:04.403Z</time></trkpt><trkpt lat="44.1966931" lon="12.1230326"><ele>24.0</ele><time>2026-04-05T10:03:26.385Z</time></trkpt><trkpt lat="44.1980485" lon="12.1226389"><ele>25.0</ele><time>2026-04-05T10:03:52.427Z</time></trkpt><trkpt lat="44.1991487" lon="12.1215277"><ele>25.0</ele><time>2026-04-05T10:04:22.416Z</time></trkpt><trkpt lat="44.1996335" lon="12.1197726"><ele>25.0</ele><time>2026-04-05T10:04:46.377Z</time></trkpt><trkpt lat="44.2002977" lon="12.1181367"><ele>25.0</ele><time>2026-04-05T10:05:10.386Z</time></trkpt><trkpt lat="44.2009853" lon="12.1165126"><ele>23.0</ele><time>2026-04-05T10:05:35.391Z</time></trkpt><trkpt lat="44.2016656" lon="12.1148188"><ele>26.0</ele><time>2026-04-05T10:05:59.397Z</time></trkpt><trkpt lat="44.2023396" lon="12.1131219"><ele>23.0</ele><time>2026-04-05T10:06:22.393Z</time></trkpt><trkpt lat="44.2029807" lon="12.1114624"><ele>25.0</ele><time>2026-04-05T10:06:44.392Z</time></trkpt><trkpt lat="44.2036546" lon="12.1098332"><ele>24.0</ele><time>2026-04-05T10:07:06.39Z</time></trkpt><trkpt lat="44.2044205" lon="12.1082014"><ele>24.0</ele><time>2026-04-05T10:07:29.401Z</time></trkpt><trkpt lat="44.2052363" lon="12.1065959"><ele>25.0</ele><time>2026-04-05T10:07:52.398Z</time></trkpt><trkpt lat="44.2060976" lon="12.1051448"><ele>24.0</ele><time>2026-04-05T10:08:13.396Z</time></trkpt><trkpt lat="44.2068374" lon="12.1035483"><ele>24.0</ele><time>2026-04-05T10:08:35.393Z</time></trkpt><trkpt lat="44.2081467" lon="12.1040514"><ele>23.0</ele><time>2026-04-05T10:09:00.39Z</time></trkpt><trkpt lat="44.2093612" lon="12.1031742"><ele>25.0</ele><time>2026-04-05T10:09:30.388Z</time></trkpt><trkpt lat="44.2100569" lon="12.1015508"><ele>26.0</ele><time>2026-04-05T10:09:55.385Z</time></trkpt><trkpt lat="44.2109258" lon="12.1000326"><ele>26.0</ele><time>2026-04-05T10:10:21.39Z</time></trkpt><trkpt lat="44.2103407" lon="12.0982983"><ele>26.0</ele><time>2026-04-05T10:11:00.388Z</time></trkpt></trkseg></trk></gpx>